<?xml version="1.0" encoding="UTF-8" standalone="no" ?>
<gpx xmlns="http://www.topografix.com/GPX/1/1" xmlns:xsi="http://www.w3.org/2001/XMLSchema-instance" xsi:schemaLocation="http://www.topografix.com/GPX/1/1 http://www.topografix.com/GPX/1/1/gpx.xsd" version="1.1" creator="VisuGPX - https://www.visugpx.com">
  <metadata>
    <name>E-O-Rezé Divatte Mauves Thouaré Nantes</name>
    <desc><![CDATA[E-O-Rezé Divatte Mauves Thouaré Nantes]]></desc>
  </metadata>
  <trk>
    <name><![CDATA[2021-09-12 11:26 +02:00]]></name>
    <trkseg>
      <trkpt lat="47.1678" lon="-1.62656">
        <ele>68</ele>
        <time>2021-09-12T09:26:49.000Z</time>
      </trkpt>
      <trkpt lat="47.16779" lon="-1.62662">
        <ele>70</ele>
        <time>2021-09-12T09:28:50.000Z</time>
      </trkpt>
      <trkpt lat="47.16777" lon="-1.62649">
        <ele>68</ele>
        <time>2021-09-12T09:29:37.000Z</time>
      </trkpt>
      <trkpt lat="47.16784" lon="-1.6266">
        <ele>68</ele>
        <time>2021-09-12T09:30:53.000Z</time>
      </trkpt>
      <trkpt lat="47.16791" lon="-1.6265">
        <ele>69</ele>
        <time>2021-09-12T09:30:56.000Z</time>
      </trkpt>
      <trkpt lat="47.16798" lon="-1.62639">
        <ele>68</ele>
        <time>2021-09-12T09:30:58.000Z</time>
      </trkpt>
      <trkpt lat="47.16806" lon="-1.62627">
        <ele>68</ele>
        <time>2021-09-12T09:31:00.000Z</time>
      </trkpt>
      <trkpt lat="47.16813" lon="-1.62613">
        <ele>68</ele>
        <time>2021-09-12T09:31:02.000Z</time>
      </trkpt>
      <trkpt lat="47.16821" lon="-1.626">
        <ele>68</ele>
        <time>2021-09-12T09:31:04.000Z</time>
      </trkpt>
      <trkpt lat="47.16828" lon="-1.62585">
        <ele>68</ele>
        <time>2021-09-12T09:31:06.000Z</time>
      </trkpt>
      <trkpt lat="47.16823" lon="-1.62568">
        <ele>68</ele>
        <time>2021-09-12T09:31:08.000Z</time>
      </trkpt>
      <trkpt lat="47.16814" lon="-1.62557">
        <ele>68</ele>
        <time>2021-09-12T09:31:10.000Z</time>
      </trkpt>
      <trkpt lat="47.16804" lon="-1.62548">
        <ele>68</ele>
        <time>2021-09-12T09:31:12.000Z</time>
      </trkpt>
      <trkpt lat="47.16794" lon="-1.62541">
        <ele>68</ele>
        <time>2021-09-12T09:31:14.000Z</time>
      </trkpt>
      <trkpt lat="47.16783" lon="-1.62533">
        <ele>68</ele>
        <time>2021-09-12T09:31:16.000Z</time>
      </trkpt>
      <trkpt lat="47.16773" lon="-1.62526">
        <ele>68</ele>
        <time>2021-09-12T09:31:18.000Z</time>
      </trkpt>
      <trkpt lat="47.16762" lon="-1.62519">
        <ele>67</ele>
        <time>2021-09-12T09:31:20.000Z</time>
      </trkpt>
      <trkpt lat="47.1675" lon="-1.62512">
        <ele>67</ele>
        <time>2021-09-12T09:31:22.000Z</time>
      </trkpt>
      <trkpt lat="47.16739" lon="-1.62507">
        <ele>67</ele>
        <time>2021-09-12T09:31:24.000Z</time>
      </trkpt>
      <trkpt lat="47.16728" lon="-1.62501">
        <ele>67</ele>
        <time>2021-09-12T09:31:26.000Z</time>
      </trkpt>
      <trkpt lat="47.16717" lon="-1.62497">
        <ele>66</ele>
        <time>2021-09-12T09:31:28.000Z</time>
      </trkpt>
      <trkpt lat="47.16711" lon="-1.62487">
        <ele>66</ele>
        <time>2021-09-12T09:31:30.000Z</time>
      </trkpt>
      <trkpt lat="47.16712" lon="-1.62468">
        <ele>66</ele>
        <time>2021-09-12T09:31:32.000Z</time>
      </trkpt>
      <trkpt lat="47.16714" lon="-1.62451">
        <ele>67</ele>
        <time>2021-09-12T09:31:34.000Z</time>
      </trkpt>
      <trkpt lat="47.16717" lon="-1.62433">
        <ele>67</ele>
        <time>2021-09-12T09:31:36.000Z</time>
      </trkpt>
      <trkpt lat="47.16722" lon="-1.62417">
        <ele>67</ele>
        <time>2021-09-12T09:31:38.000Z</time>
      </trkpt>
      <trkpt lat="47.16727" lon="-1.62399">
        <ele>67</ele>
        <time>2021-09-12T09:31:40.000Z</time>
      </trkpt>
      <trkpt lat="47.16732" lon="-1.62382">
        <ele>68</ele>
        <time>2021-09-12T09:31:42.000Z</time>
      </trkpt>
      <trkpt lat="47.1674" lon="-1.62367">
        <ele>68</ele>
        <time>2021-09-12T09:31:44.000Z</time>
      </trkpt>
      <trkpt lat="47.1675" lon="-1.62355">
        <ele>67</ele>
        <time>2021-09-12T09:31:46.000Z</time>
      </trkpt>
      <trkpt lat="47.16761" lon="-1.62346">
        <ele>67</ele>
        <time>2021-09-12T09:31:48.000Z</time>
      </trkpt>
      <trkpt lat="47.16773" lon="-1.6234">
        <ele>67</ele>
        <time>2021-09-12T09:31:50.000Z</time>
      </trkpt>
      <trkpt lat="47.16785" lon="-1.62334">
        <ele>66</ele>
        <time>2021-09-12T09:31:52.000Z</time>
      </trkpt>
      <trkpt lat="47.16797" lon="-1.62326">
        <ele>66</ele>
        <time>2021-09-12T09:31:54.000Z</time>
      </trkpt>
      <trkpt lat="47.16808" lon="-1.6232">
        <ele>66</ele>
        <time>2021-09-12T09:31:56.000Z</time>
      </trkpt>
      <trkpt lat="47.1682" lon="-1.62311">
        <ele>66</ele>
        <time>2021-09-12T09:31:58.000Z</time>
      </trkpt>
      <trkpt lat="47.1683" lon="-1.62302">
        <ele>66</ele>
        <time>2021-09-12T09:32:00.000Z</time>
      </trkpt>
      <trkpt lat="47.1684" lon="-1.62291">
        <ele>67</ele>
        <time>2021-09-12T09:32:02.000Z</time>
      </trkpt>
      <trkpt lat="47.1685" lon="-1.62279">
        <ele>66</ele>
        <time>2021-09-12T09:32:04.000Z</time>
      </trkpt>
      <trkpt lat="47.16859" lon="-1.62267">
        <ele>66</ele>
        <time>2021-09-12T09:32:06.000Z</time>
      </trkpt>
      <trkpt lat="47.16869" lon="-1.62255">
        <ele>66</ele>
        <time>2021-09-12T09:32:08.000Z</time>
      </trkpt>
      <trkpt lat="47.16878" lon="-1.62243">
        <ele>67</ele>
        <time>2021-09-12T09:32:10.000Z</time>
      </trkpt>
      <trkpt lat="47.16888" lon="-1.62232">
        <ele>66</ele>
        <time>2021-09-12T09:32:12.000Z</time>
      </trkpt>
      <trkpt lat="47.16896" lon="-1.62218">
        <ele>66</ele>
        <time>2021-09-12T09:32:14.000Z</time>
      </trkpt>
      <trkpt lat="47.16906" lon="-1.62206">
        <ele>66</ele>
        <time>2021-09-12T09:32:16.000Z</time>
      </trkpt>
      <trkpt lat="47.16915" lon="-1.62192">
        <ele>66</ele>
        <time>2021-09-12T09:32:18.000Z</time>
      </trkpt>
      <trkpt lat="47.16923" lon="-1.62178">
        <ele>67</ele>
        <time>2021-09-12T09:32:20.000Z</time>
      </trkpt>
      <trkpt lat="47.1693" lon="-1.62163">
        <ele>68</ele>
        <time>2021-09-12T09:32:22.000Z</time>
      </trkpt>
      <trkpt lat="47.16938" lon="-1.62148">
        <ele>68</ele>
        <time>2021-09-12T09:32:24.000Z</time>
      </trkpt>
      <trkpt lat="47.16945" lon="-1.62134">
        <ele>68</ele>
        <time>2021-09-12T09:32:26.000Z</time>
      </trkpt>
      <trkpt lat="47.16953" lon="-1.62119">
        <ele>68</ele>
        <time>2021-09-12T09:32:28.000Z</time>
      </trkpt>
      <trkpt lat="47.1696" lon="-1.62105">
        <ele>69</ele>
        <time>2021-09-12T09:32:30.000Z</time>
      </trkpt>
      <trkpt lat="47.16968" lon="-1.6209">
        <ele>69</ele>
        <time>2021-09-12T09:32:32.000Z</time>
      </trkpt>
      <trkpt lat="47.16976" lon="-1.62074">
        <ele>69</ele>
        <time>2021-09-12T09:32:34.000Z</time>
      </trkpt>
      <trkpt lat="47.16984" lon="-1.62059">
        <ele>68</ele>
        <time>2021-09-12T09:32:36.000Z</time>
      </trkpt>
      <trkpt lat="47.16992" lon="-1.62045">
        <ele>68</ele>
        <time>2021-09-12T09:32:38.000Z</time>
      </trkpt>
      <trkpt lat="47.17" lon="-1.62032">
        <ele>69</ele>
        <time>2021-09-12T09:32:40.000Z</time>
      </trkpt>
      <trkpt lat="47.17009" lon="-1.62019">
        <ele>69</ele>
        <time>2021-09-12T09:32:42.000Z</time>
      </trkpt>
      <trkpt lat="47.17017" lon="-1.62006">
        <ele>69</ele>
        <time>2021-09-12T09:32:44.000Z</time>
      </trkpt>
      <trkpt lat="47.17026" lon="-1.61994">
        <ele>69</ele>
        <time>2021-09-12T09:32:46.000Z</time>
      </trkpt>
      <trkpt lat="47.17035" lon="-1.61981">
        <ele>69</ele>
        <time>2021-09-12T09:32:48.000Z</time>
      </trkpt>
      <trkpt lat="47.17043" lon="-1.61969">
        <ele>69</ele>
        <time>2021-09-12T09:32:50.000Z</time>
      </trkpt>
      <trkpt lat="47.17052" lon="-1.61956">
        <ele>70</ele>
        <time>2021-09-12T09:32:52.000Z</time>
      </trkpt>
      <trkpt lat="47.17061" lon="-1.61945">
        <ele>70</ele>
        <time>2021-09-12T09:32:54.000Z</time>
      </trkpt>
      <trkpt lat="47.1707" lon="-1.61933">
        <ele>70</ele>
        <time>2021-09-12T09:32:56.000Z</time>
      </trkpt>
      <trkpt lat="47.17079" lon="-1.61923">
        <ele>70</ele>
        <time>2021-09-12T09:32:58.000Z</time>
      </trkpt>
      <trkpt lat="47.17089" lon="-1.61913">
        <ele>70</ele>
        <time>2021-09-12T09:33:00.000Z</time>
      </trkpt>
      <trkpt lat="47.171" lon="-1.61903">
        <ele>69</ele>
        <time>2021-09-12T09:33:02.000Z</time>
      </trkpt>
      <trkpt lat="47.17111" lon="-1.61893">
        <ele>69</ele>
        <time>2021-09-12T09:33:04.000Z</time>
      </trkpt>
      <trkpt lat="47.17121" lon="-1.61884">
        <ele>69</ele>
        <time>2021-09-12T09:33:06.000Z</time>
      </trkpt>
      <trkpt lat="47.17132" lon="-1.61874">
        <ele>69</ele>
        <time>2021-09-12T09:33:08.000Z</time>
      </trkpt>
      <trkpt lat="47.17142" lon="-1.61864">
        <ele>69</ele>
        <time>2021-09-12T09:33:10.000Z</time>
      </trkpt>
      <trkpt lat="47.17152" lon="-1.61854">
        <ele>69</ele>
        <time>2021-09-12T09:33:12.000Z</time>
      </trkpt>
      <trkpt lat="47.17162" lon="-1.61844">
        <ele>68</ele>
        <time>2021-09-12T09:33:14.000Z</time>
      </trkpt>
      <trkpt lat="47.17173" lon="-1.61834">
        <ele>69</ele>
        <time>2021-09-12T09:33:16.000Z</time>
      </trkpt>
      <trkpt lat="47.17183" lon="-1.61824">
        <ele>68</ele>
        <time>2021-09-12T09:33:18.000Z</time>
      </trkpt>
      <trkpt lat="47.17194" lon="-1.61814">
        <ele>68</ele>
        <time>2021-09-12T09:33:20.000Z</time>
      </trkpt>
      <trkpt lat="47.17204" lon="-1.61803">
        <ele>67</ele>
        <time>2021-09-12T09:33:22.000Z</time>
      </trkpt>
      <trkpt lat="47.17214" lon="-1.61792">
        <ele>67</ele>
        <time>2021-09-12T09:33:24.000Z</time>
      </trkpt>
      <trkpt lat="47.17222" lon="-1.61778">
        <ele>67</ele>
        <time>2021-09-12T09:33:26.000Z</time>
      </trkpt>
      <trkpt lat="47.17228" lon="-1.61761">
        <ele>67</ele>
        <time>2021-09-12T09:33:28.000Z</time>
      </trkpt>
      <trkpt lat="47.17236" lon="-1.61747">
        <ele>67</ele>
        <time>2021-09-12T09:33:30.000Z</time>
      </trkpt>
      <trkpt lat="47.17245" lon="-1.61734">
        <ele>67</ele>
        <time>2021-09-12T09:33:32.000Z</time>
      </trkpt>
      <trkpt lat="47.17253" lon="-1.6172">
        <ele>67</ele>
        <time>2021-09-12T09:33:34.000Z</time>
      </trkpt>
      <trkpt lat="47.1726" lon="-1.61706">
        <ele>67</ele>
        <time>2021-09-12T09:33:36.000Z</time>
      </trkpt>
      <trkpt lat="47.17267" lon="-1.61691">
        <ele>67</ele>
        <time>2021-09-12T09:33:38.000Z</time>
      </trkpt>
      <trkpt lat="47.17274" lon="-1.61676">
        <ele>67</ele>
        <time>2021-09-12T09:33:40.000Z</time>
      </trkpt>
      <trkpt lat="47.17282" lon="-1.61661">
        <ele>68</ele>
        <time>2021-09-12T09:33:42.000Z</time>
      </trkpt>
      <trkpt lat="47.1729" lon="-1.61646">
        <ele>68</ele>
        <time>2021-09-12T09:33:44.000Z</time>
      </trkpt>
      <trkpt lat="47.17298" lon="-1.61632">
        <ele>68</ele>
        <time>2021-09-12T09:33:46.000Z</time>
      </trkpt>
      <trkpt lat="47.17307" lon="-1.61618">
        <ele>68</ele>
        <time>2021-09-12T09:33:48.000Z</time>
      </trkpt>
      <trkpt lat="47.17316" lon="-1.61605">
        <ele>68</ele>
        <time>2021-09-12T09:33:50.000Z</time>
      </trkpt>
      <trkpt lat="47.17324" lon="-1.61592">
        <ele>69</ele>
        <time>2021-09-12T09:33:52.000Z</time>
      </trkpt>
      <trkpt lat="47.17333" lon="-1.6158">
        <ele>69</ele>
        <time>2021-09-12T09:33:54.000Z</time>
      </trkpt>
      <trkpt lat="47.17342" lon="-1.61568">
        <ele>69</ele>
        <time>2021-09-12T09:33:56.000Z</time>
      </trkpt>
      <trkpt lat="47.17352" lon="-1.61557">
        <ele>69</ele>
        <time>2021-09-12T09:33:58.000Z</time>
      </trkpt>
      <trkpt lat="47.17363" lon="-1.61548">
        <ele>69</ele>
        <time>2021-09-12T09:34:00.000Z</time>
      </trkpt>
      <trkpt lat="47.17373" lon="-1.61537">
        <ele>68</ele>
        <time>2021-09-12T09:34:02.000Z</time>
      </trkpt>
      <trkpt lat="47.17384" lon="-1.61528">
        <ele>68</ele>
        <time>2021-09-12T09:34:04.000Z</time>
      </trkpt>
      <trkpt lat="47.17395" lon="-1.61519">
        <ele>68</ele>
        <time>2021-09-12T09:34:06.000Z</time>
      </trkpt>
      <trkpt lat="47.17407" lon="-1.6151">
        <ele>68</ele>
        <time>2021-09-12T09:34:08.000Z</time>
      </trkpt>
      <trkpt lat="47.17419" lon="-1.61501">
        <ele>67</ele>
        <time>2021-09-12T09:34:10.000Z</time>
      </trkpt>
      <trkpt lat="47.17431" lon="-1.61492">
        <ele>66</ele>
        <time>2021-09-12T09:34:12.000Z</time>
      </trkpt>
      <trkpt lat="47.17444" lon="-1.61484">
        <ele>66</ele>
        <time>2021-09-12T09:34:14.000Z</time>
      </trkpt>
      <trkpt lat="47.17457" lon="-1.61477">
        <ele>65</ele>
        <time>2021-09-12T09:34:16.000Z</time>
      </trkpt>
      <trkpt lat="47.1747" lon="-1.61471">
        <ele>65</ele>
        <time>2021-09-12T09:34:18.000Z</time>
      </trkpt>
      <trkpt lat="47.17483" lon="-1.61466">
        <ele>64</ele>
        <time>2021-09-12T09:34:20.000Z</time>
      </trkpt>
      <trkpt lat="47.17496" lon="-1.61461">
        <ele>64</ele>
        <time>2021-09-12T09:34:22.000Z</time>
      </trkpt>
      <trkpt lat="47.17507" lon="-1.61456">
        <ele>64</ele>
        <time>2021-09-12T09:34:24.000Z</time>
      </trkpt>
      <trkpt lat="47.17513" lon="-1.61442">
        <ele>63</ele>
        <time>2021-09-12T09:34:26.000Z</time>
      </trkpt>
      <trkpt lat="47.17516" lon="-1.61422">
        <ele>62</ele>
        <time>2021-09-12T09:34:28.000Z</time>
      </trkpt>
      <trkpt lat="47.1752" lon="-1.61403">
        <ele>61</ele>
        <time>2021-09-12T09:34:30.000Z</time>
      </trkpt>
      <trkpt lat="47.17525" lon="-1.61383">
        <ele>61</ele>
        <time>2021-09-12T09:34:32.000Z</time>
      </trkpt>
      <trkpt lat="47.17529" lon="-1.61368">
        <ele>61</ele>
        <time>2021-09-12T09:34:34.000Z</time>
      </trkpt>
      <trkpt lat="47.17532" lon="-1.61352">
        <ele>61</ele>
        <time>2021-09-12T09:34:36.000Z</time>
      </trkpt>
      <trkpt lat="47.17529" lon="-1.61337">
        <ele>61</ele>
        <time>2021-09-12T09:34:38.000Z</time>
      </trkpt>
      <trkpt lat="47.17525" lon="-1.61319">
        <ele>61</ele>
        <time>2021-09-12T09:34:40.000Z</time>
      </trkpt>
      <trkpt lat="47.17522" lon="-1.613">
        <ele>61</ele>
        <time>2021-09-12T09:34:42.000Z</time>
      </trkpt>
      <trkpt lat="47.17516" lon="-1.61282">
        <ele>61</ele>
        <time>2021-09-12T09:34:44.000Z</time>
      </trkpt>
      <trkpt lat="47.17507" lon="-1.61264">
        <ele>60</ele>
        <time>2021-09-12T09:34:46.000Z</time>
      </trkpt>
      <trkpt lat="47.17499" lon="-1.61246">
        <ele>60</ele>
        <time>2021-09-12T09:34:48.000Z</time>
      </trkpt>
      <trkpt lat="47.17491" lon="-1.61228">
        <ele>61</ele>
        <time>2021-09-12T09:34:50.000Z</time>
      </trkpt>
      <trkpt lat="47.17484" lon="-1.61209">
        <ele>60</ele>
        <time>2021-09-12T09:34:52.000Z</time>
      </trkpt>
      <trkpt lat="47.17476" lon="-1.6119">
        <ele>60</ele>
        <time>2021-09-12T09:34:54.000Z</time>
      </trkpt>
      <trkpt lat="47.17468" lon="-1.61171">
        <ele>60</ele>
        <time>2021-09-12T09:34:56.000Z</time>
      </trkpt>
      <trkpt lat="47.17459" lon="-1.61152">
        <ele>59</ele>
        <time>2021-09-12T09:34:58.000Z</time>
      </trkpt>
      <trkpt lat="47.17452" lon="-1.61133">
        <ele>59</ele>
        <time>2021-09-12T09:35:00.000Z</time>
      </trkpt>
      <trkpt lat="47.17444" lon="-1.61113">
        <ele>59</ele>
        <time>2021-09-12T09:35:02.000Z</time>
      </trkpt>
      <trkpt lat="47.17437" lon="-1.61091">
        <ele>59</ele>
        <time>2021-09-12T09:35:04.000Z</time>
      </trkpt>
      <trkpt lat="47.17433" lon="-1.61066">
        <ele>58</ele>
        <time>2021-09-12T09:35:06.000Z</time>
      </trkpt>
      <trkpt lat="47.17426" lon="-1.61045">
        <ele>57</ele>
        <time>2021-09-12T09:35:08.000Z</time>
      </trkpt>
      <trkpt lat="47.17424" lon="-1.61026">
        <ele>56</ele>
        <time>2021-09-12T09:35:10.000Z</time>
      </trkpt>
      <trkpt lat="47.17433" lon="-1.61022">
        <ele>56</ele>
        <time>2021-09-12T09:35:13.000Z</time>
      </trkpt>
      <trkpt lat="47.17438" lon="-1.61035">
        <ele>55</ele>
        <time>2021-09-12T09:35:15.000Z</time>
      </trkpt>
      <trkpt lat="47.17444" lon="-1.61054">
        <ele>56</ele>
        <time>2021-09-12T09:35:17.000Z</time>
      </trkpt>
      <trkpt lat="47.17452" lon="-1.61071">
        <ele>56</ele>
        <time>2021-09-12T09:35:19.000Z</time>
      </trkpt>
      <trkpt lat="47.17462" lon="-1.61086">
        <ele>55</ele>
        <time>2021-09-12T09:35:21.000Z</time>
      </trkpt>
      <trkpt lat="47.17475" lon="-1.61097">
        <ele>54</ele>
        <time>2021-09-12T09:35:23.000Z</time>
      </trkpt>
      <trkpt lat="47.17489" lon="-1.61104">
        <ele>53</ele>
        <time>2021-09-12T09:35:25.000Z</time>
      </trkpt>
      <trkpt lat="47.17505" lon="-1.61103">
        <ele>51</ele>
        <time>2021-09-12T09:35:27.000Z</time>
      </trkpt>
      <trkpt lat="47.17519" lon="-1.61096">
        <ele>50</ele>
        <time>2021-09-12T09:35:29.000Z</time>
      </trkpt>
      <trkpt lat="47.17532" lon="-1.61086">
        <ele>49</ele>
        <time>2021-09-12T09:35:31.000Z</time>
      </trkpt>
      <trkpt lat="47.17545" lon="-1.61074">
        <ele>49</ele>
        <time>2021-09-12T09:35:33.000Z</time>
      </trkpt>
      <trkpt lat="47.17557" lon="-1.61063">
        <ele>49</ele>
        <time>2021-09-12T09:35:35.000Z</time>
      </trkpt>
      <trkpt lat="47.1757" lon="-1.61052">
        <ele>48</ele>
        <time>2021-09-12T09:35:37.000Z</time>
      </trkpt>
      <trkpt lat="47.17583" lon="-1.61042">
        <ele>48</ele>
        <time>2021-09-12T09:35:39.000Z</time>
      </trkpt>
      <trkpt lat="47.17595" lon="-1.61031">
        <ele>48</ele>
        <time>2021-09-12T09:35:41.000Z</time>
      </trkpt>
      <trkpt lat="47.17608" lon="-1.61021">
        <ele>48</ele>
        <time>2021-09-12T09:35:43.000Z</time>
      </trkpt>
      <trkpt lat="47.1762" lon="-1.61011">
        <ele>48</ele>
        <time>2021-09-12T09:35:45.000Z</time>
      </trkpt>
      <trkpt lat="47.17632" lon="-1.60999">
        <ele>47</ele>
        <time>2021-09-12T09:35:47.000Z</time>
      </trkpt>
      <trkpt lat="47.17645" lon="-1.60988">
        <ele>47</ele>
        <time>2021-09-12T09:35:49.000Z</time>
      </trkpt>
      <trkpt lat="47.17658" lon="-1.60977">
        <ele>48</ele>
        <time>2021-09-12T09:35:51.000Z</time>
      </trkpt>
      <trkpt lat="47.17672" lon="-1.60971">
        <ele>48</ele>
        <time>2021-09-12T09:35:53.000Z</time>
      </trkpt>
      <trkpt lat="47.17686" lon="-1.60972">
        <ele>48</ele>
        <time>2021-09-12T09:35:55.000Z</time>
      </trkpt>
      <trkpt lat="47.17699" lon="-1.60972">
        <ele>48</ele>
        <time>2021-09-12T09:35:57.000Z</time>
      </trkpt>
      <trkpt lat="47.17712" lon="-1.60966">
        <ele>48</ele>
        <time>2021-09-12T09:35:59.000Z</time>
      </trkpt>
      <trkpt lat="47.17725" lon="-1.60958">
        <ele>48</ele>
        <time>2021-09-12T09:36:01.000Z</time>
      </trkpt>
      <trkpt lat="47.17737" lon="-1.60949">
        <ele>48</ele>
        <time>2021-09-12T09:36:03.000Z</time>
      </trkpt>
      <trkpt lat="47.17749" lon="-1.6094">
        <ele>48</ele>
        <time>2021-09-12T09:36:05.000Z</time>
      </trkpt>
      <trkpt lat="47.17761" lon="-1.60931">
        <ele>48</ele>
        <time>2021-09-12T09:36:07.000Z</time>
      </trkpt>
      <trkpt lat="47.17773" lon="-1.60921">
        <ele>48</ele>
        <time>2021-09-12T09:36:09.000Z</time>
      </trkpt>
      <trkpt lat="47.17786" lon="-1.60912">
        <ele>48</ele>
        <time>2021-09-12T09:36:11.000Z</time>
      </trkpt>
      <trkpt lat="47.17798" lon="-1.60903">
        <ele>48</ele>
        <time>2021-09-12T09:36:13.000Z</time>
      </trkpt>
      <trkpt lat="47.1781" lon="-1.60894">
        <ele>49</ele>
        <time>2021-09-12T09:36:15.000Z</time>
      </trkpt>
      <trkpt lat="47.17821" lon="-1.60881">
        <ele>48</ele>
        <time>2021-09-12T09:36:17.000Z</time>
      </trkpt>
      <trkpt lat="47.17831" lon="-1.60867">
        <ele>48</ele>
        <time>2021-09-12T09:36:19.000Z</time>
      </trkpt>
      <trkpt lat="47.17839" lon="-1.60852">
        <ele>49</ele>
        <time>2021-09-12T09:36:21.000Z</time>
      </trkpt>
      <trkpt lat="47.17847" lon="-1.60832">
        <ele>49</ele>
        <time>2021-09-12T09:36:23.000Z</time>
      </trkpt>
      <trkpt lat="47.17853" lon="-1.6081">
        <ele>49</ele>
        <time>2021-09-12T09:36:25.000Z</time>
      </trkpt>
      <trkpt lat="47.17857" lon="-1.60787">
        <ele>48</ele>
        <time>2021-09-12T09:36:27.000Z</time>
      </trkpt>
      <trkpt lat="47.17862" lon="-1.60766">
        <ele>48</ele>
        <time>2021-09-12T09:36:29.000Z</time>
      </trkpt>
      <trkpt lat="47.17866" lon="-1.60743">
        <ele>48</ele>
        <time>2021-09-12T09:36:31.000Z</time>
      </trkpt>
      <trkpt lat="47.17871" lon="-1.60722">
        <ele>48</ele>
        <time>2021-09-12T09:36:33.000Z</time>
      </trkpt>
      <trkpt lat="47.17877" lon="-1.607">
        <ele>49</ele>
        <time>2021-09-12T09:36:35.000Z</time>
      </trkpt>
      <trkpt lat="47.17883" lon="-1.60678">
        <ele>49</ele>
        <time>2021-09-12T09:36:37.000Z</time>
      </trkpt>
      <trkpt lat="47.17889" lon="-1.60658">
        <ele>49</ele>
        <time>2021-09-12T09:36:39.000Z</time>
      </trkpt>
      <trkpt lat="47.17896" lon="-1.60639">
        <ele>50</ele>
        <time>2021-09-12T09:36:41.000Z</time>
      </trkpt>
      <trkpt lat="47.17902" lon="-1.6062">
        <ele>50</ele>
        <time>2021-09-12T09:36:43.000Z</time>
      </trkpt>
      <trkpt lat="47.17905" lon="-1.60602">
        <ele>51</ele>
        <time>2021-09-12T09:36:45.000Z</time>
      </trkpt>
      <trkpt lat="47.17908" lon="-1.60589">
        <ele>51</ele>
        <time>2021-09-12T09:36:47.000Z</time>
      </trkpt>
      <trkpt lat="47.17915" lon="-1.60582">
        <ele>52</ele>
        <time>2021-09-12T09:36:51.000Z</time>
      </trkpt>
      <trkpt lat="47.17926" lon="-1.60585">
        <ele>53</ele>
        <time>2021-09-12T09:36:55.000Z</time>
      </trkpt>
      <trkpt lat="47.17937" lon="-1.60585">
        <ele>54</ele>
        <time>2021-09-12T09:36:57.000Z</time>
      </trkpt>
      <trkpt lat="47.17952" lon="-1.60581">
        <ele>55</ele>
        <time>2021-09-12T09:36:59.000Z</time>
      </trkpt>
      <trkpt lat="47.17966" lon="-1.60573">
        <ele>55</ele>
        <time>2021-09-12T09:37:01.000Z</time>
      </trkpt>
      <trkpt lat="47.1798" lon="-1.60567">
        <ele>54</ele>
        <time>2021-09-12T09:37:03.000Z</time>
      </trkpt>
      <trkpt lat="47.17995" lon="-1.60559">
        <ele>55</ele>
        <time>2021-09-12T09:37:05.000Z</time>
      </trkpt>
      <trkpt lat="47.18012" lon="-1.60553">
        <ele>53</ele>
        <time>2021-09-12T09:37:07.000Z</time>
      </trkpt>
      <trkpt lat="47.18029" lon="-1.60551">
        <ele>53</ele>
        <time>2021-09-12T09:37:09.000Z</time>
      </trkpt>
      <trkpt lat="47.18045" lon="-1.60557">
        <ele>52</ele>
        <time>2021-09-12T09:37:11.000Z</time>
      </trkpt>
      <trkpt lat="47.1806" lon="-1.60566">
        <ele>51</ele>
        <time>2021-09-12T09:37:13.000Z</time>
      </trkpt>
      <trkpt lat="47.18075" lon="-1.60575">
        <ele>51</ele>
        <time>2021-09-12T09:37:15.000Z</time>
      </trkpt>
      <trkpt lat="47.18089" lon="-1.60582">
        <ele>50</ele>
        <time>2021-09-12T09:37:17.000Z</time>
      </trkpt>
      <trkpt lat="47.18104" lon="-1.60589">
        <ele>50</ele>
        <time>2021-09-12T09:37:19.000Z</time>
      </trkpt>
      <trkpt lat="47.18119" lon="-1.60595">
        <ele>50</ele>
        <time>2021-09-12T09:37:21.000Z</time>
      </trkpt>
      <trkpt lat="47.18134" lon="-1.60599">
        <ele>50</ele>
        <time>2021-09-12T09:37:23.000Z</time>
      </trkpt>
      <trkpt lat="47.18148" lon="-1.60602">
        <ele>49</ele>
        <time>2021-09-12T09:37:25.000Z</time>
      </trkpt>
      <trkpt lat="47.18163" lon="-1.60603">
        <ele>49</ele>
        <time>2021-09-12T09:37:27.000Z</time>
      </trkpt>
      <trkpt lat="47.18178" lon="-1.60603">
        <ele>48</ele>
        <time>2021-09-12T09:37:29.000Z</time>
      </trkpt>
      <trkpt lat="47.18189" lon="-1.60601">
        <ele>47</ele>
        <time>2021-09-12T09:37:31.000Z</time>
      </trkpt>
      <trkpt lat="47.18192" lon="-1.60588">
        <ele>48</ele>
        <time>2021-09-12T09:37:40.000Z</time>
      </trkpt>
      <trkpt lat="47.18198" lon="-1.60575">
        <ele>49</ele>
        <time>2021-09-12T09:37:42.000Z</time>
      </trkpt>
      <trkpt lat="47.18211" lon="-1.60571">
        <ele>49</ele>
        <time>2021-09-12T09:37:44.000Z</time>
      </trkpt>
      <trkpt lat="47.18225" lon="-1.60565">
        <ele>50</ele>
        <time>2021-09-12T09:37:46.000Z</time>
      </trkpt>
      <trkpt lat="47.18238" lon="-1.60557">
        <ele>51</ele>
        <time>2021-09-12T09:37:48.000Z</time>
      </trkpt>
      <trkpt lat="47.18251" lon="-1.60548">
        <ele>51</ele>
        <time>2021-09-12T09:37:50.000Z</time>
      </trkpt>
      <trkpt lat="47.18264" lon="-1.60538">
        <ele>52</ele>
        <time>2021-09-12T09:37:52.000Z</time>
      </trkpt>
      <trkpt lat="47.18277" lon="-1.60525">
        <ele>52</ele>
        <time>2021-09-12T09:37:54.000Z</time>
      </trkpt>
      <trkpt lat="47.18289" lon="-1.60512">
        <ele>52</ele>
        <time>2021-09-12T09:37:56.000Z</time>
      </trkpt>
      <trkpt lat="47.18302" lon="-1.60499">
        <ele>51</ele>
        <time>2021-09-12T09:37:58.000Z</time>
      </trkpt>
      <trkpt lat="47.18314" lon="-1.60485">
        <ele>51</ele>
        <time>2021-09-12T09:38:00.000Z</time>
      </trkpt>
      <trkpt lat="47.18326" lon="-1.6047">
        <ele>50</ele>
        <time>2021-09-12T09:38:02.000Z</time>
      </trkpt>
      <trkpt lat="47.18338" lon="-1.60456">
        <ele>50</ele>
        <time>2021-09-12T09:38:04.000Z</time>
      </trkpt>
      <trkpt lat="47.1835" lon="-1.60441">
        <ele>50</ele>
        <time>2021-09-12T09:38:06.000Z</time>
      </trkpt>
      <trkpt lat="47.18361" lon="-1.60427">
        <ele>50</ele>
        <time>2021-09-12T09:38:08.000Z</time>
      </trkpt>
      <trkpt lat="47.18373" lon="-1.60412">
        <ele>50</ele>
        <time>2021-09-12T09:38:10.000Z</time>
      </trkpt>
      <trkpt lat="47.18385" lon="-1.60398">
        <ele>50</ele>
        <time>2021-09-12T09:38:12.000Z</time>
      </trkpt>
      <trkpt lat="47.18396" lon="-1.60383">
        <ele>50</ele>
        <time>2021-09-12T09:38:14.000Z</time>
      </trkpt>
      <trkpt lat="47.18407" lon="-1.60368">
        <ele>50</ele>
        <time>2021-09-12T09:38:16.000Z</time>
      </trkpt>
      <trkpt lat="47.18418" lon="-1.60353">
        <ele>49</ele>
        <time>2021-09-12T09:38:18.000Z</time>
      </trkpt>
      <trkpt lat="47.18429" lon="-1.60338">
        <ele>49</ele>
        <time>2021-09-12T09:38:20.000Z</time>
      </trkpt>
      <trkpt lat="47.18439" lon="-1.60322">
        <ele>49</ele>
        <time>2021-09-12T09:38:22.000Z</time>
      </trkpt>
      <trkpt lat="47.1845" lon="-1.60307">
        <ele>49</ele>
        <time>2021-09-12T09:38:24.000Z</time>
      </trkpt>
      <trkpt lat="47.1846" lon="-1.60289">
        <ele>49</ele>
        <time>2021-09-12T09:38:26.000Z</time>
      </trkpt>
      <trkpt lat="47.18469" lon="-1.60271">
        <ele>50</ele>
        <time>2021-09-12T09:38:28.000Z</time>
      </trkpt>
      <trkpt lat="47.18478" lon="-1.60253">
        <ele>50</ele>
        <time>2021-09-12T09:38:30.000Z</time>
      </trkpt>
      <trkpt lat="47.18487" lon="-1.60236">
        <ele>50</ele>
        <time>2021-09-12T09:38:32.000Z</time>
      </trkpt>
      <trkpt lat="47.18496" lon="-1.60218">
        <ele>50</ele>
        <time>2021-09-12T09:38:34.000Z</time>
      </trkpt>
      <trkpt lat="47.18505" lon="-1.602">
        <ele>51</ele>
        <time>2021-09-12T09:38:36.000Z</time>
      </trkpt>
      <trkpt lat="47.18513" lon="-1.60183">
        <ele>51</ele>
        <time>2021-09-12T09:38:38.000Z</time>
      </trkpt>
      <trkpt lat="47.18522" lon="-1.60165">
        <ele>51</ele>
        <time>2021-09-12T09:38:40.000Z</time>
      </trkpt>
      <trkpt lat="47.18531" lon="-1.60148">
        <ele>50</ele>
        <time>2021-09-12T09:38:42.000Z</time>
      </trkpt>
      <trkpt lat="47.18539" lon="-1.60129">
        <ele>50</ele>
        <time>2021-09-12T09:38:44.000Z</time>
      </trkpt>
      <trkpt lat="47.18547" lon="-1.60111">
        <ele>50</ele>
        <time>2021-09-12T09:38:46.000Z</time>
      </trkpt>
      <trkpt lat="47.18554" lon="-1.60093">
        <ele>51</ele>
        <time>2021-09-12T09:38:48.000Z</time>
      </trkpt>
      <trkpt lat="47.18561" lon="-1.60075">
        <ele>51</ele>
        <time>2021-09-12T09:38:50.000Z</time>
      </trkpt>
      <trkpt lat="47.18568" lon="-1.60056">
        <ele>51</ele>
        <time>2021-09-12T09:38:52.000Z</time>
      </trkpt>
      <trkpt lat="47.18575" lon="-1.60037">
        <ele>51</ele>
        <time>2021-09-12T09:38:54.000Z</time>
      </trkpt>
      <trkpt lat="47.18582" lon="-1.60019">
        <ele>51</ele>
        <time>2021-09-12T09:38:56.000Z</time>
      </trkpt>
      <trkpt lat="47.18589" lon="-1.6">
        <ele>51</ele>
        <time>2021-09-12T09:38:58.000Z</time>
      </trkpt>
      <trkpt lat="47.18595" lon="-1.59981">
        <ele>51</ele>
        <time>2021-09-12T09:39:00.000Z</time>
      </trkpt>
      <trkpt lat="47.186" lon="-1.59962">
        <ele>52</ele>
        <time>2021-09-12T09:39:02.000Z</time>
      </trkpt>
      <trkpt lat="47.18606" lon="-1.59942">
        <ele>52</ele>
        <time>2021-09-12T09:39:04.000Z</time>
      </trkpt>
      <trkpt lat="47.18611" lon="-1.59924">
        <ele>52</ele>
        <time>2021-09-12T09:39:06.000Z</time>
      </trkpt>
      <trkpt lat="47.18616" lon="-1.59904">
        <ele>52</ele>
        <time>2021-09-12T09:39:08.000Z</time>
      </trkpt>
      <trkpt lat="47.18621" lon="-1.59884">
        <ele>52</ele>
        <time>2021-09-12T09:39:10.000Z</time>
      </trkpt>
      <trkpt lat="47.18624" lon="-1.59865">
        <ele>52</ele>
        <time>2021-09-12T09:39:12.000Z</time>
      </trkpt>
      <trkpt lat="47.18619" lon="-1.59847">
        <ele>51</ele>
        <time>2021-09-12T09:39:14.000Z</time>
      </trkpt>
      <trkpt lat="47.18619" lon="-1.59829">
        <ele>51</ele>
        <time>2021-09-12T09:39:16.000Z</time>
      </trkpt>
      <trkpt lat="47.18627" lon="-1.59814">
        <ele>51</ele>
        <time>2021-09-12T09:39:18.000Z</time>
      </trkpt>
      <trkpt lat="47.18632" lon="-1.59798">
        <ele>51</ele>
        <time>2021-09-12T09:39:20.000Z</time>
      </trkpt>
      <trkpt lat="47.18637" lon="-1.59778">
        <ele>51</ele>
        <time>2021-09-12T09:39:22.000Z</time>
      </trkpt>
      <trkpt lat="47.18645" lon="-1.59761">
        <ele>51</ele>
        <time>2021-09-12T09:39:24.000Z</time>
      </trkpt>
      <trkpt lat="47.18654" lon="-1.59745">
        <ele>51</ele>
        <time>2021-09-12T09:39:26.000Z</time>
      </trkpt>
      <trkpt lat="47.18658" lon="-1.59725">
        <ele>52</ele>
        <time>2021-09-12T09:39:28.000Z</time>
      </trkpt>
      <trkpt lat="47.18662" lon="-1.59704">
        <ele>51</ele>
        <time>2021-09-12T09:39:30.000Z</time>
      </trkpt>
      <trkpt lat="47.18665" lon="-1.59683">
        <ele>51</ele>
        <time>2021-09-12T09:39:32.000Z</time>
      </trkpt>
      <trkpt lat="47.18671" lon="-1.59663">
        <ele>52</ele>
        <time>2021-09-12T09:39:34.000Z</time>
      </trkpt>
      <trkpt lat="47.18676" lon="-1.59642">
        <ele>52</ele>
        <time>2021-09-12T09:39:36.000Z</time>
      </trkpt>
      <trkpt lat="47.18679" lon="-1.5962">
        <ele>52</ele>
        <time>2021-09-12T09:39:38.000Z</time>
      </trkpt>
      <trkpt lat="47.18681" lon="-1.59598">
        <ele>52</ele>
        <time>2021-09-12T09:39:40.000Z</time>
      </trkpt>
      <trkpt lat="47.18684" lon="-1.59578">
        <ele>52</ele>
        <time>2021-09-12T09:39:42.000Z</time>
      </trkpt>
      <trkpt lat="47.18686" lon="-1.59557">
        <ele>53</ele>
        <time>2021-09-12T09:39:44.000Z</time>
      </trkpt>
      <trkpt lat="47.18688" lon="-1.59537">
        <ele>53</ele>
        <time>2021-09-12T09:39:46.000Z</time>
      </trkpt>
      <trkpt lat="47.1869" lon="-1.59516">
        <ele>53</ele>
        <time>2021-09-12T09:39:48.000Z</time>
      </trkpt>
      <trkpt lat="47.18693" lon="-1.59496">
        <ele>53</ele>
        <time>2021-09-12T09:39:50.000Z</time>
      </trkpt>
      <trkpt lat="47.18695" lon="-1.59475">
        <ele>53</ele>
        <time>2021-09-12T09:39:52.000Z</time>
      </trkpt>
      <trkpt lat="47.18697" lon="-1.59454">
        <ele>53</ele>
        <time>2021-09-12T09:39:54.000Z</time>
      </trkpt>
      <trkpt lat="47.18699" lon="-1.59434">
        <ele>53</ele>
        <time>2021-09-12T09:39:56.000Z</time>
      </trkpt>
      <trkpt lat="47.18702" lon="-1.59412">
        <ele>52</ele>
        <time>2021-09-12T09:39:58.000Z</time>
      </trkpt>
      <trkpt lat="47.18704" lon="-1.59391">
        <ele>52</ele>
        <time>2021-09-12T09:40:00.000Z</time>
      </trkpt>
      <trkpt lat="47.18706" lon="-1.5937">
        <ele>52</ele>
        <time>2021-09-12T09:40:02.000Z</time>
      </trkpt>
      <trkpt lat="47.18708" lon="-1.59349">
        <ele>52</ele>
        <time>2021-09-12T09:40:04.000Z</time>
      </trkpt>
      <trkpt lat="47.18711" lon="-1.59319">
        <ele>52</ele>
        <time>2021-09-12T09:40:07.000Z</time>
      </trkpt>
      <trkpt lat="47.18714" lon="-1.59298">
        <ele>52</ele>
        <time>2021-09-12T09:40:09.000Z</time>
      </trkpt>
      <trkpt lat="47.18716" lon="-1.59277">
        <ele>52</ele>
        <time>2021-09-12T09:40:11.000Z</time>
      </trkpt>
      <trkpt lat="47.18718" lon="-1.59258">
        <ele>52</ele>
        <time>2021-09-12T09:40:13.000Z</time>
      </trkpt>
      <trkpt lat="47.1872" lon="-1.59236">
        <ele>52</ele>
        <time>2021-09-12T09:40:15.000Z</time>
      </trkpt>
      <trkpt lat="47.18723" lon="-1.59205">
        <ele>52</ele>
        <time>2021-09-12T09:40:18.000Z</time>
      </trkpt>
      <trkpt lat="47.18726" lon="-1.59184">
        <ele>52</ele>
        <time>2021-09-12T09:40:20.000Z</time>
      </trkpt>
      <trkpt lat="47.18728" lon="-1.59163">
        <ele>52</ele>
        <time>2021-09-12T09:40:22.000Z</time>
      </trkpt>
      <trkpt lat="47.1873" lon="-1.59143">
        <ele>52</ele>
        <time>2021-09-12T09:40:24.000Z</time>
      </trkpt>
      <trkpt lat="47.18733" lon="-1.59122">
        <ele>52</ele>
        <time>2021-09-12T09:40:26.000Z</time>
      </trkpt>
      <trkpt lat="47.18736" lon="-1.59091">
        <ele>52</ele>
        <time>2021-09-12T09:40:29.000Z</time>
      </trkpt>
      <trkpt lat="47.18738" lon="-1.5907">
        <ele>53</ele>
        <time>2021-09-12T09:40:31.000Z</time>
      </trkpt>
      <trkpt lat="47.18741" lon="-1.59049">
        <ele>53</ele>
        <time>2021-09-12T09:40:33.000Z</time>
      </trkpt>
      <trkpt lat="47.18743" lon="-1.59028">
        <ele>52</ele>
        <time>2021-09-12T09:40:35.000Z</time>
      </trkpt>
      <trkpt lat="47.18745" lon="-1.59008">
        <ele>52</ele>
        <time>2021-09-12T09:40:37.000Z</time>
      </trkpt>
      <trkpt lat="47.18748" lon="-1.58987">
        <ele>53</ele>
        <time>2021-09-12T09:40:39.000Z</time>
      </trkpt>
      <trkpt lat="47.1875" lon="-1.58967">
        <ele>54</ele>
        <time>2021-09-12T09:40:41.000Z</time>
      </trkpt>
      <trkpt lat="47.18752" lon="-1.58948">
        <ele>54</ele>
        <time>2021-09-12T09:40:43.000Z</time>
      </trkpt>
      <trkpt lat="47.18754" lon="-1.58928">
        <ele>54</ele>
        <time>2021-09-12T09:40:45.000Z</time>
      </trkpt>
      <trkpt lat="47.18756" lon="-1.58907">
        <ele>54</ele>
        <time>2021-09-12T09:40:47.000Z</time>
      </trkpt>
      <trkpt lat="47.18759" lon="-1.58887">
        <ele>54</ele>
        <time>2021-09-12T09:40:49.000Z</time>
      </trkpt>
      <trkpt lat="47.18761" lon="-1.58866">
        <ele>54</ele>
        <time>2021-09-12T09:40:51.000Z</time>
      </trkpt>
      <trkpt lat="47.18764" lon="-1.58845">
        <ele>54</ele>
        <time>2021-09-12T09:40:53.000Z</time>
      </trkpt>
      <trkpt lat="47.18766" lon="-1.58826">
        <ele>53</ele>
        <time>2021-09-12T09:40:55.000Z</time>
      </trkpt>
      <trkpt lat="47.18766" lon="-1.58807">
        <ele>53</ele>
        <time>2021-09-12T09:40:57.000Z</time>
      </trkpt>
      <trkpt lat="47.18765" lon="-1.58787">
        <ele>53</ele>
        <time>2021-09-12T09:40:59.000Z</time>
      </trkpt>
      <trkpt lat="47.18761" lon="-1.58767">
        <ele>53</ele>
        <time>2021-09-12T09:41:01.000Z</time>
      </trkpt>
      <trkpt lat="47.1876" lon="-1.58745">
        <ele>52</ele>
        <time>2021-09-12T09:41:03.000Z</time>
      </trkpt>
      <trkpt lat="47.18765" lon="-1.58724">
        <ele>52</ele>
        <time>2021-09-12T09:41:05.000Z</time>
      </trkpt>
      <trkpt lat="47.18773" lon="-1.58708">
        <ele>52</ele>
        <time>2021-09-12T09:41:07.000Z</time>
      </trkpt>
      <trkpt lat="47.18783" lon="-1.58695">
        <ele>53</ele>
        <time>2021-09-12T09:41:09.000Z</time>
      </trkpt>
      <trkpt lat="47.18789" lon="-1.58678">
        <ele>53</ele>
        <time>2021-09-12T09:41:11.000Z</time>
      </trkpt>
      <trkpt lat="47.18792" lon="-1.58659">
        <ele>53</ele>
        <time>2021-09-12T09:41:13.000Z</time>
      </trkpt>
      <trkpt lat="47.18797" lon="-1.5864">
        <ele>53</ele>
        <time>2021-09-12T09:41:15.000Z</time>
      </trkpt>
      <trkpt lat="47.18802" lon="-1.58621">
        <ele>53</ele>
        <time>2021-09-12T09:41:17.000Z</time>
      </trkpt>
      <trkpt lat="47.18807" lon="-1.58602">
        <ele>53</ele>
        <time>2021-09-12T09:41:19.000Z</time>
      </trkpt>
      <trkpt lat="47.18812" lon="-1.58583">
        <ele>53</ele>
        <time>2021-09-12T09:41:21.000Z</time>
      </trkpt>
      <trkpt lat="47.18817" lon="-1.58564">
        <ele>53</ele>
        <time>2021-09-12T09:41:23.000Z</time>
      </trkpt>
      <trkpt lat="47.18822" lon="-1.58546">
        <ele>53</ele>
        <time>2021-09-12T09:41:25.000Z</time>
      </trkpt>
      <trkpt lat="47.18827" lon="-1.58527">
        <ele>53</ele>
        <time>2021-09-12T09:41:27.000Z</time>
      </trkpt>
      <trkpt lat="47.18833" lon="-1.58508">
        <ele>53</ele>
        <time>2021-09-12T09:41:29.000Z</time>
      </trkpt>
      <trkpt lat="47.18838" lon="-1.5849">
        <ele>53</ele>
        <time>2021-09-12T09:41:31.000Z</time>
      </trkpt>
      <trkpt lat="47.18844" lon="-1.58472">
        <ele>53</ele>
        <time>2021-09-12T09:41:33.000Z</time>
      </trkpt>
      <trkpt lat="47.18849" lon="-1.58454">
        <ele>53</ele>
        <time>2021-09-12T09:41:35.000Z</time>
      </trkpt>
      <trkpt lat="47.18855" lon="-1.58436">
        <ele>54</ele>
        <time>2021-09-12T09:41:37.000Z</time>
      </trkpt>
      <trkpt lat="47.1886" lon="-1.58418">
        <ele>53</ele>
        <time>2021-09-12T09:41:39.000Z</time>
      </trkpt>
      <trkpt lat="47.18866" lon="-1.584">
        <ele>54</ele>
        <time>2021-09-12T09:41:41.000Z</time>
      </trkpt>
      <trkpt lat="47.18872" lon="-1.58382">
        <ele>54</ele>
        <time>2021-09-12T09:41:43.000Z</time>
      </trkpt>
      <trkpt lat="47.18878" lon="-1.58365">
        <ele>53</ele>
        <time>2021-09-12T09:41:45.000Z</time>
      </trkpt>
      <trkpt lat="47.18884" lon="-1.58347">
        <ele>53</ele>
        <time>2021-09-12T09:41:47.000Z</time>
      </trkpt>
      <trkpt lat="47.1889" lon="-1.58329">
        <ele>53</ele>
        <time>2021-09-12T09:41:49.000Z</time>
      </trkpt>
      <trkpt lat="47.18896" lon="-1.58312">
        <ele>53</ele>
        <time>2021-09-12T09:41:51.000Z</time>
      </trkpt>
      <trkpt lat="47.18902" lon="-1.58296">
        <ele>53</ele>
        <time>2021-09-12T09:41:53.000Z</time>
      </trkpt>
      <trkpt lat="47.18908" lon="-1.58279">
        <ele>53</ele>
        <time>2021-09-12T09:41:55.000Z</time>
      </trkpt>
      <trkpt lat="47.18914" lon="-1.5826">
        <ele>53</ele>
        <time>2021-09-12T09:41:57.000Z</time>
      </trkpt>
      <trkpt lat="47.1892" lon="-1.58243">
        <ele>53</ele>
        <time>2021-09-12T09:41:59.000Z</time>
      </trkpt>
      <trkpt lat="47.18926" lon="-1.58226">
        <ele>53</ele>
        <time>2021-09-12T09:42:01.000Z</time>
      </trkpt>
      <trkpt lat="47.18933" lon="-1.58209">
        <ele>53</ele>
        <time>2021-09-12T09:42:03.000Z</time>
      </trkpt>
      <trkpt lat="47.18939" lon="-1.58192">
        <ele>54</ele>
        <time>2021-09-12T09:42:05.000Z</time>
      </trkpt>
      <trkpt lat="47.18945" lon="-1.58176">
        <ele>54</ele>
        <time>2021-09-12T09:42:07.000Z</time>
      </trkpt>
      <trkpt lat="47.18951" lon="-1.58158">
        <ele>54</ele>
        <time>2021-09-12T09:42:09.000Z</time>
      </trkpt>
      <trkpt lat="47.18957" lon="-1.58141">
        <ele>54</ele>
        <time>2021-09-12T09:42:11.000Z</time>
      </trkpt>
      <trkpt lat="47.18964" lon="-1.58125">
        <ele>54</ele>
        <time>2021-09-12T09:42:13.000Z</time>
      </trkpt>
      <trkpt lat="47.1897" lon="-1.58107">
        <ele>54</ele>
        <time>2021-09-12T09:42:15.000Z</time>
      </trkpt>
      <trkpt lat="47.18976" lon="-1.5809">
        <ele>55</ele>
        <time>2021-09-12T09:42:17.000Z</time>
      </trkpt>
      <trkpt lat="47.18982" lon="-1.58072">
        <ele>55</ele>
        <time>2021-09-12T09:42:19.000Z</time>
      </trkpt>
      <trkpt lat="47.18988" lon="-1.58054">
        <ele>55</ele>
        <time>2021-09-12T09:42:21.000Z</time>
      </trkpt>
      <trkpt lat="47.18995" lon="-1.58035">
        <ele>55</ele>
        <time>2021-09-12T09:42:23.000Z</time>
      </trkpt>
      <trkpt lat="47.19001" lon="-1.58018">
        <ele>54</ele>
        <time>2021-09-12T09:42:25.000Z</time>
      </trkpt>
      <trkpt lat="47.19007" lon="-1.58">
        <ele>54</ele>
        <time>2021-09-12T09:42:27.000Z</time>
      </trkpt>
      <trkpt lat="47.19014" lon="-1.57982">
        <ele>54</ele>
        <time>2021-09-12T09:42:29.000Z</time>
      </trkpt>
      <trkpt lat="47.19021" lon="-1.57964">
        <ele>54</ele>
        <time>2021-09-12T09:42:31.000Z</time>
      </trkpt>
      <trkpt lat="47.19027" lon="-1.57945">
        <ele>55</ele>
        <time>2021-09-12T09:42:33.000Z</time>
      </trkpt>
      <trkpt lat="47.19034" lon="-1.57926">
        <ele>55</ele>
        <time>2021-09-12T09:42:35.000Z</time>
      </trkpt>
      <trkpt lat="47.1904" lon="-1.57908">
        <ele>55</ele>
        <time>2021-09-12T09:42:37.000Z</time>
      </trkpt>
      <trkpt lat="47.19046" lon="-1.5789">
        <ele>55</ele>
        <time>2021-09-12T09:42:39.000Z</time>
      </trkpt>
      <trkpt lat="47.19053" lon="-1.57871">
        <ele>55</ele>
        <time>2021-09-12T09:42:41.000Z</time>
      </trkpt>
      <trkpt lat="47.1906" lon="-1.57853">
        <ele>55</ele>
        <time>2021-09-12T09:42:43.000Z</time>
      </trkpt>
      <trkpt lat="47.19066" lon="-1.57834">
        <ele>54</ele>
        <time>2021-09-12T09:42:45.000Z</time>
      </trkpt>
      <trkpt lat="47.19072" lon="-1.57816">
        <ele>54</ele>
        <time>2021-09-12T09:42:47.000Z</time>
      </trkpt>
      <trkpt lat="47.19079" lon="-1.57799">
        <ele>54</ele>
        <time>2021-09-12T09:42:49.000Z</time>
      </trkpt>
      <trkpt lat="47.19085" lon="-1.5778">
        <ele>54</ele>
        <time>2021-09-12T09:42:51.000Z</time>
      </trkpt>
      <trkpt lat="47.19092" lon="-1.57763">
        <ele>54</ele>
        <time>2021-09-12T09:42:53.000Z</time>
      </trkpt>
      <trkpt lat="47.19098" lon="-1.57745">
        <ele>54</ele>
        <time>2021-09-12T09:42:55.000Z</time>
      </trkpt>
      <trkpt lat="47.19105" lon="-1.57727">
        <ele>55</ele>
        <time>2021-09-12T09:42:57.000Z</time>
      </trkpt>
      <trkpt lat="47.19111" lon="-1.57709">
        <ele>55</ele>
        <time>2021-09-12T09:42:59.000Z</time>
      </trkpt>
      <trkpt lat="47.19117" lon="-1.57691">
        <ele>55</ele>
        <time>2021-09-12T09:43:01.000Z</time>
      </trkpt>
      <trkpt lat="47.19124" lon="-1.57673">
        <ele>55</ele>
        <time>2021-09-12T09:43:03.000Z</time>
      </trkpt>
      <trkpt lat="47.1913" lon="-1.57655">
        <ele>55</ele>
        <time>2021-09-12T09:43:05.000Z</time>
      </trkpt>
      <trkpt lat="47.19136" lon="-1.57636">
        <ele>54</ele>
        <time>2021-09-12T09:43:07.000Z</time>
      </trkpt>
      <trkpt lat="47.19143" lon="-1.57618">
        <ele>54</ele>
        <time>2021-09-12T09:43:09.000Z</time>
      </trkpt>
      <trkpt lat="47.1915" lon="-1.576">
        <ele>54</ele>
        <time>2021-09-12T09:43:11.000Z</time>
      </trkpt>
      <trkpt lat="47.19157" lon="-1.57581">
        <ele>54</ele>
        <time>2021-09-12T09:43:13.000Z</time>
      </trkpt>
      <trkpt lat="47.19164" lon="-1.57562">
        <ele>54</ele>
        <time>2021-09-12T09:43:15.000Z</time>
      </trkpt>
      <trkpt lat="47.1917" lon="-1.57544">
        <ele>55</ele>
        <time>2021-09-12T09:43:17.000Z</time>
      </trkpt>
      <trkpt lat="47.19177" lon="-1.57526">
        <ele>55</ele>
        <time>2021-09-12T09:43:19.000Z</time>
      </trkpt>
      <trkpt lat="47.19183" lon="-1.57507">
        <ele>55</ele>
        <time>2021-09-12T09:43:21.000Z</time>
      </trkpt>
      <trkpt lat="47.19188" lon="-1.57489">
        <ele>55</ele>
        <time>2021-09-12T09:43:23.000Z</time>
      </trkpt>
      <trkpt lat="47.19194" lon="-1.57471">
        <ele>55</ele>
        <time>2021-09-12T09:43:25.000Z</time>
      </trkpt>
      <trkpt lat="47.19199" lon="-1.57452">
        <ele>55</ele>
        <time>2021-09-12T09:43:27.000Z</time>
      </trkpt>
      <trkpt lat="47.19205" lon="-1.57434">
        <ele>55</ele>
        <time>2021-09-12T09:43:29.000Z</time>
      </trkpt>
      <trkpt lat="47.19211" lon="-1.57414">
        <ele>55</ele>
        <time>2021-09-12T09:43:31.000Z</time>
      </trkpt>
      <trkpt lat="47.19216" lon="-1.57395">
        <ele>54</ele>
        <time>2021-09-12T09:43:33.000Z</time>
      </trkpt>
      <trkpt lat="47.19221" lon="-1.57374">
        <ele>54</ele>
        <time>2021-09-12T09:43:35.000Z</time>
      </trkpt>
      <trkpt lat="47.19225" lon="-1.57355">
        <ele>54</ele>
        <time>2021-09-12T09:43:37.000Z</time>
      </trkpt>
      <trkpt lat="47.1923" lon="-1.57334">
        <ele>54</ele>
        <time>2021-09-12T09:43:39.000Z</time>
      </trkpt>
      <trkpt lat="47.19234" lon="-1.57315">
        <ele>53</ele>
        <time>2021-09-12T09:43:41.000Z</time>
      </trkpt>
      <trkpt lat="47.19237" lon="-1.57294">
        <ele>53</ele>
        <time>2021-09-12T09:43:43.000Z</time>
      </trkpt>
      <trkpt lat="47.1924" lon="-1.57274">
        <ele>53</ele>
        <time>2021-09-12T09:43:45.000Z</time>
      </trkpt>
      <trkpt lat="47.19242" lon="-1.57253">
        <ele>52</ele>
        <time>2021-09-12T09:43:47.000Z</time>
      </trkpt>
      <trkpt lat="47.19245" lon="-1.57233">
        <ele>53</ele>
        <time>2021-09-12T09:43:49.000Z</time>
      </trkpt>
      <trkpt lat="47.19248" lon="-1.57213">
        <ele>53</ele>
        <time>2021-09-12T09:43:51.000Z</time>
      </trkpt>
      <trkpt lat="47.1925" lon="-1.57194">
        <ele>53</ele>
        <time>2021-09-12T09:43:53.000Z</time>
      </trkpt>
      <trkpt lat="47.19254" lon="-1.57175">
        <ele>53</ele>
        <time>2021-09-12T09:43:55.000Z</time>
      </trkpt>
      <trkpt lat="47.19256" lon="-1.57156">
        <ele>53</ele>
        <time>2021-09-12T09:43:57.000Z</time>
      </trkpt>
      <trkpt lat="47.19259" lon="-1.57136">
        <ele>53</ele>
        <time>2021-09-12T09:43:59.000Z</time>
      </trkpt>
      <trkpt lat="47.19261" lon="-1.57117">
        <ele>52</ele>
        <time>2021-09-12T09:44:01.000Z</time>
      </trkpt>
      <trkpt lat="47.19263" lon="-1.57099">
        <ele>52</ele>
        <time>2021-09-12T09:44:03.000Z</time>
      </trkpt>
      <trkpt lat="47.19264" lon="-1.57082">
        <ele>52</ele>
        <time>2021-09-12T09:44:05.000Z</time>
      </trkpt>
      <trkpt lat="47.19262" lon="-1.57065">
        <ele>52</ele>
        <time>2021-09-12T09:44:07.000Z</time>
      </trkpt>
      <trkpt lat="47.1926" lon="-1.57046">
        <ele>51</ele>
        <time>2021-09-12T09:44:09.000Z</time>
      </trkpt>
      <trkpt lat="47.19266" lon="-1.57028">
        <ele>50</ele>
        <time>2021-09-12T09:44:11.000Z</time>
      </trkpt>
      <trkpt lat="47.19273" lon="-1.57012">
        <ele>50</ele>
        <time>2021-09-12T09:44:13.000Z</time>
      </trkpt>
      <trkpt lat="47.19276" lon="-1.56993">
        <ele>50</ele>
        <time>2021-09-12T09:44:15.000Z</time>
      </trkpt>
      <trkpt lat="47.19279" lon="-1.56972">
        <ele>50</ele>
        <time>2021-09-12T09:44:17.000Z</time>
      </trkpt>
      <trkpt lat="47.19281" lon="-1.56952">
        <ele>51</ele>
        <time>2021-09-12T09:44:19.000Z</time>
      </trkpt>
      <trkpt lat="47.19283" lon="-1.56933">
        <ele>51</ele>
        <time>2021-09-12T09:44:21.000Z</time>
      </trkpt>
      <trkpt lat="47.19283" lon="-1.56914">
        <ele>51</ele>
        <time>2021-09-12T09:44:23.000Z</time>
      </trkpt>
      <trkpt lat="47.19285" lon="-1.56895">
        <ele>50</ele>
        <time>2021-09-12T09:44:25.000Z</time>
      </trkpt>
      <trkpt lat="47.19287" lon="-1.56875">
        <ele>51</ele>
        <time>2021-09-12T09:44:27.000Z</time>
      </trkpt>
      <trkpt lat="47.19288" lon="-1.56855">
        <ele>51</ele>
        <time>2021-09-12T09:44:29.000Z</time>
      </trkpt>
      <trkpt lat="47.1929" lon="-1.56835">
        <ele>52</ele>
        <time>2021-09-12T09:44:31.000Z</time>
      </trkpt>
      <trkpt lat="47.19291" lon="-1.56816">
        <ele>52</ele>
        <time>2021-09-12T09:44:33.000Z</time>
      </trkpt>
      <trkpt lat="47.19292" lon="-1.56797">
        <ele>52</ele>
        <time>2021-09-12T09:44:35.000Z</time>
      </trkpt>
      <trkpt lat="47.19293" lon="-1.56777">
        <ele>52</ele>
        <time>2021-09-12T09:44:37.000Z</time>
      </trkpt>
      <trkpt lat="47.19294" lon="-1.56758">
        <ele>52</ele>
        <time>2021-09-12T09:44:39.000Z</time>
      </trkpt>
      <trkpt lat="47.19294" lon="-1.5674">
        <ele>52</ele>
        <time>2021-09-12T09:44:41.000Z</time>
      </trkpt>
      <trkpt lat="47.19293" lon="-1.56721">
        <ele>52</ele>
        <time>2021-09-12T09:44:43.000Z</time>
      </trkpt>
      <trkpt lat="47.19293" lon="-1.56701">
        <ele>52</ele>
        <time>2021-09-12T09:44:45.000Z</time>
      </trkpt>
      <trkpt lat="47.19292" lon="-1.56682">
        <ele>52</ele>
        <time>2021-09-12T09:44:47.000Z</time>
      </trkpt>
      <trkpt lat="47.19291" lon="-1.56663">
        <ele>52</ele>
        <time>2021-09-12T09:44:49.000Z</time>
      </trkpt>
      <trkpt lat="47.1929" lon="-1.56643">
        <ele>52</ele>
        <time>2021-09-12T09:44:51.000Z</time>
      </trkpt>
      <trkpt lat="47.19288" lon="-1.56623">
        <ele>52</ele>
        <time>2021-09-12T09:44:53.000Z</time>
      </trkpt>
      <trkpt lat="47.19287" lon="-1.56604">
        <ele>52</ele>
        <time>2021-09-12T09:44:55.000Z</time>
      </trkpt>
      <trkpt lat="47.19285" lon="-1.56585">
        <ele>52</ele>
        <time>2021-09-12T09:44:57.000Z</time>
      </trkpt>
      <trkpt lat="47.19283" lon="-1.56567">
        <ele>52</ele>
        <time>2021-09-12T09:44:59.000Z</time>
      </trkpt>
      <trkpt lat="47.19281" lon="-1.56549">
        <ele>52</ele>
        <time>2021-09-12T09:45:01.000Z</time>
      </trkpt>
      <trkpt lat="47.19279" lon="-1.56529">
        <ele>52</ele>
        <time>2021-09-12T09:45:03.000Z</time>
      </trkpt>
      <trkpt lat="47.19277" lon="-1.5651">
        <ele>52</ele>
        <time>2021-09-12T09:45:05.000Z</time>
      </trkpt>
      <trkpt lat="47.19274" lon="-1.56491">
        <ele>52</ele>
        <time>2021-09-12T09:45:07.000Z</time>
      </trkpt>
      <trkpt lat="47.19271" lon="-1.56472">
        <ele>52</ele>
        <time>2021-09-12T09:45:09.000Z</time>
      </trkpt>
      <trkpt lat="47.19269" lon="-1.56453">
        <ele>52</ele>
        <time>2021-09-12T09:45:11.000Z</time>
      </trkpt>
      <trkpt lat="47.19267" lon="-1.56434">
        <ele>52</ele>
        <time>2021-09-12T09:45:13.000Z</time>
      </trkpt>
      <trkpt lat="47.19266" lon="-1.56415">
        <ele>52</ele>
        <time>2021-09-12T09:45:15.000Z</time>
      </trkpt>
      <trkpt lat="47.19265" lon="-1.56396">
        <ele>52</ele>
        <time>2021-09-12T09:45:17.000Z</time>
      </trkpt>
      <trkpt lat="47.19264" lon="-1.56377">
        <ele>52</ele>
        <time>2021-09-12T09:45:19.000Z</time>
      </trkpt>
      <trkpt lat="47.19261" lon="-1.56359">
        <ele>53</ele>
        <time>2021-09-12T09:45:21.000Z</time>
      </trkpt>
      <trkpt lat="47.19257" lon="-1.56342">
        <ele>52</ele>
        <time>2021-09-12T09:45:23.000Z</time>
      </trkpt>
      <trkpt lat="47.19251" lon="-1.56326">
        <ele>52</ele>
        <time>2021-09-12T09:45:25.000Z</time>
      </trkpt>
      <trkpt lat="47.19242" lon="-1.56313">
        <ele>52</ele>
        <time>2021-09-12T09:45:27.000Z</time>
      </trkpt>
      <trkpt lat="47.19236" lon="-1.56296">
        <ele>52</ele>
        <time>2021-09-12T09:45:29.000Z</time>
      </trkpt>
      <trkpt lat="47.19237" lon="-1.56277">
        <ele>52</ele>
        <time>2021-09-12T09:45:31.000Z</time>
      </trkpt>
      <trkpt lat="47.19243" lon="-1.5626">
        <ele>52</ele>
        <time>2021-09-12T09:45:33.000Z</time>
      </trkpt>
      <trkpt lat="47.19248" lon="-1.56243">
        <ele>52</ele>
        <time>2021-09-12T09:45:35.000Z</time>
      </trkpt>
      <trkpt lat="47.19247" lon="-1.56224">
        <ele>51</ele>
        <time>2021-09-12T09:45:37.000Z</time>
      </trkpt>
      <trkpt lat="47.19247" lon="-1.56205">
        <ele>51</ele>
        <time>2021-09-12T09:45:39.000Z</time>
      </trkpt>
      <trkpt lat="47.19247" lon="-1.56186">
        <ele>51</ele>
        <time>2021-09-12T09:45:41.000Z</time>
      </trkpt>
      <trkpt lat="47.19247" lon="-1.56166">
        <ele>51</ele>
        <time>2021-09-12T09:45:43.000Z</time>
      </trkpt>
      <trkpt lat="47.19247" lon="-1.56146">
        <ele>51</ele>
        <time>2021-09-12T09:45:45.000Z</time>
      </trkpt>
      <trkpt lat="47.19246" lon="-1.56125">
        <ele>51</ele>
        <time>2021-09-12T09:45:47.000Z</time>
      </trkpt>
      <trkpt lat="47.19246" lon="-1.56105">
        <ele>51</ele>
        <time>2021-09-12T09:45:49.000Z</time>
      </trkpt>
      <trkpt lat="47.19245" lon="-1.56086">
        <ele>51</ele>
        <time>2021-09-12T09:45:51.000Z</time>
      </trkpt>
      <trkpt lat="47.19243" lon="-1.56066">
        <ele>52</ele>
        <time>2021-09-12T09:45:53.000Z</time>
      </trkpt>
      <trkpt lat="47.19242" lon="-1.56046">
        <ele>52</ele>
        <time>2021-09-12T09:45:55.000Z</time>
      </trkpt>
      <trkpt lat="47.1924" lon="-1.56026">
        <ele>52</ele>
        <time>2021-09-12T09:45:57.000Z</time>
      </trkpt>
      <trkpt lat="47.19238" lon="-1.56007">
        <ele>52</ele>
        <time>2021-09-12T09:45:59.000Z</time>
      </trkpt>
      <trkpt lat="47.19236" lon="-1.55987">
        <ele>52</ele>
        <time>2021-09-12T09:46:01.000Z</time>
      </trkpt>
      <trkpt lat="47.19234" lon="-1.55968">
        <ele>52</ele>
        <time>2021-09-12T09:46:03.000Z</time>
      </trkpt>
      <trkpt lat="47.19232" lon="-1.55949">
        <ele>52</ele>
        <time>2021-09-12T09:46:05.000Z</time>
      </trkpt>
      <trkpt lat="47.1923" lon="-1.55929">
        <ele>52</ele>
        <time>2021-09-12T09:46:07.000Z</time>
      </trkpt>
      <trkpt lat="47.19227" lon="-1.55911">
        <ele>53</ele>
        <time>2021-09-12T09:46:09.000Z</time>
      </trkpt>
      <trkpt lat="47.19226" lon="-1.55892">
        <ele>53</ele>
        <time>2021-09-12T09:46:11.000Z</time>
      </trkpt>
      <trkpt lat="47.19225" lon="-1.55873">
        <ele>53</ele>
        <time>2021-09-12T09:46:13.000Z</time>
      </trkpt>
      <trkpt lat="47.19224" lon="-1.55854">
        <ele>53</ele>
        <time>2021-09-12T09:46:15.000Z</time>
      </trkpt>
      <trkpt lat="47.19223" lon="-1.55835">
        <ele>53</ele>
        <time>2021-09-12T09:46:17.000Z</time>
      </trkpt>
      <trkpt lat="47.19223" lon="-1.55815">
        <ele>53</ele>
        <time>2021-09-12T09:46:19.000Z</time>
      </trkpt>
      <trkpt lat="47.19222" lon="-1.55796">
        <ele>53</ele>
        <time>2021-09-12T09:46:21.000Z</time>
      </trkpt>
      <trkpt lat="47.19222" lon="-1.55776">
        <ele>54</ele>
        <time>2021-09-12T09:46:23.000Z</time>
      </trkpt>
      <trkpt lat="47.19222" lon="-1.55757">
        <ele>54</ele>
        <time>2021-09-12T09:46:25.000Z</time>
      </trkpt>
      <trkpt lat="47.19222" lon="-1.55737">
        <ele>54</ele>
        <time>2021-09-12T09:46:27.000Z</time>
      </trkpt>
      <trkpt lat="47.19222" lon="-1.55718">
        <ele>55</ele>
        <time>2021-09-12T09:46:29.000Z</time>
      </trkpt>
      <trkpt lat="47.19222" lon="-1.55698">
        <ele>55</ele>
        <time>2021-09-12T09:46:31.000Z</time>
      </trkpt>
      <trkpt lat="47.19222" lon="-1.55678">
        <ele>55</ele>
        <time>2021-09-12T09:46:33.000Z</time>
      </trkpt>
      <trkpt lat="47.19223" lon="-1.55659">
        <ele>55</ele>
        <time>2021-09-12T09:46:35.000Z</time>
      </trkpt>
      <trkpt lat="47.19224" lon="-1.5564">
        <ele>55</ele>
        <time>2021-09-12T09:46:37.000Z</time>
      </trkpt>
      <trkpt lat="47.19225" lon="-1.55622">
        <ele>55</ele>
        <time>2021-09-12T09:46:39.000Z</time>
      </trkpt>
      <trkpt lat="47.19226" lon="-1.55603">
        <ele>55</ele>
        <time>2021-09-12T09:46:41.000Z</time>
      </trkpt>
      <trkpt lat="47.19228" lon="-1.55583">
        <ele>55</ele>
        <time>2021-09-12T09:46:43.000Z</time>
      </trkpt>
      <trkpt lat="47.1923" lon="-1.55564">
        <ele>55</ele>
        <time>2021-09-12T09:46:45.000Z</time>
      </trkpt>
      <trkpt lat="47.19231" lon="-1.55546">
        <ele>55</ele>
        <time>2021-09-12T09:46:47.000Z</time>
      </trkpt>
      <trkpt lat="47.19233" lon="-1.55528">
        <ele>55</ele>
        <time>2021-09-12T09:46:49.000Z</time>
      </trkpt>
      <trkpt lat="47.19233" lon="-1.5551">
        <ele>56</ele>
        <time>2021-09-12T09:46:51.000Z</time>
      </trkpt>
      <trkpt lat="47.19234" lon="-1.55494">
        <ele>56</ele>
        <time>2021-09-12T09:46:53.000Z</time>
      </trkpt>
      <trkpt lat="47.19234" lon="-1.55478">
        <ele>57</ele>
        <time>2021-09-12T09:46:55.000Z</time>
      </trkpt>
      <trkpt lat="47.19228" lon="-1.55465">
        <ele>57</ele>
        <time>2021-09-12T09:46:57.000Z</time>
      </trkpt>
      <trkpt lat="47.19219" lon="-1.55451">
        <ele>57</ele>
        <time>2021-09-12T09:46:59.000Z</time>
      </trkpt>
      <trkpt lat="47.19216" lon="-1.55432">
        <ele>56</ele>
        <time>2021-09-12T09:47:01.000Z</time>
      </trkpt>
      <trkpt lat="47.19221" lon="-1.55413">
        <ele>55</ele>
        <time>2021-09-12T09:47:03.000Z</time>
      </trkpt>
      <trkpt lat="47.19233" lon="-1.55401">
        <ele>55</ele>
        <time>2021-09-12T09:47:05.000Z</time>
      </trkpt>
      <trkpt lat="47.19242" lon="-1.55387">
        <ele>55</ele>
        <time>2021-09-12T09:47:07.000Z</time>
      </trkpt>
      <trkpt lat="47.19248" lon="-1.55368">
        <ele>55</ele>
        <time>2021-09-12T09:47:09.000Z</time>
      </trkpt>
      <trkpt lat="47.19253" lon="-1.55351">
        <ele>55</ele>
        <time>2021-09-12T09:47:11.000Z</time>
      </trkpt>
      <trkpt lat="47.19258" lon="-1.55333">
        <ele>55</ele>
        <time>2021-09-12T09:47:13.000Z</time>
      </trkpt>
      <trkpt lat="47.19263" lon="-1.55315">
        <ele>54</ele>
        <time>2021-09-12T09:47:15.000Z</time>
      </trkpt>
      <trkpt lat="47.19266" lon="-1.55295">
        <ele>54</ele>
        <time>2021-09-12T09:47:17.000Z</time>
      </trkpt>
      <trkpt lat="47.19271" lon="-1.55277">
        <ele>54</ele>
        <time>2021-09-12T09:47:19.000Z</time>
      </trkpt>
      <trkpt lat="47.19275" lon="-1.55258">
        <ele>54</ele>
        <time>2021-09-12T09:47:21.000Z</time>
      </trkpt>
      <trkpt lat="47.19279" lon="-1.55238">
        <ele>54</ele>
        <time>2021-09-12T09:47:23.000Z</time>
      </trkpt>
      <trkpt lat="47.19284" lon="-1.55219">
        <ele>54</ele>
        <time>2021-09-12T09:47:25.000Z</time>
      </trkpt>
      <trkpt lat="47.19288" lon="-1.552">
        <ele>54</ele>
        <time>2021-09-12T09:47:27.000Z</time>
      </trkpt>
      <trkpt lat="47.19293" lon="-1.55181">
        <ele>54</ele>
        <time>2021-09-12T09:47:29.000Z</time>
      </trkpt>
      <trkpt lat="47.19298" lon="-1.55163">
        <ele>55</ele>
        <time>2021-09-12T09:47:31.000Z</time>
      </trkpt>
      <trkpt lat="47.19302" lon="-1.55145">
        <ele>56</ele>
        <time>2021-09-12T09:47:33.000Z</time>
      </trkpt>
      <trkpt lat="47.19307" lon="-1.55128">
        <ele>56</ele>
        <time>2021-09-12T09:47:35.000Z</time>
      </trkpt>
      <trkpt lat="47.19311" lon="-1.55112">
        <ele>57</ele>
        <time>2021-09-12T09:47:37.000Z</time>
      </trkpt>
      <trkpt lat="47.19316" lon="-1.55095">
        <ele>58</ele>
        <time>2021-09-12T09:47:39.000Z</time>
      </trkpt>
      <trkpt lat="47.1932" lon="-1.55078">
        <ele>58</ele>
        <time>2021-09-12T09:47:41.000Z</time>
      </trkpt>
      <trkpt lat="47.19324" lon="-1.55062">
        <ele>58</ele>
        <time>2021-09-12T09:47:43.000Z</time>
      </trkpt>
      <trkpt lat="47.19328" lon="-1.55045">
        <ele>58</ele>
        <time>2021-09-12T09:47:45.000Z</time>
      </trkpt>
      <trkpt lat="47.19332" lon="-1.55029">
        <ele>58</ele>
        <time>2021-09-12T09:47:47.000Z</time>
      </trkpt>
      <trkpt lat="47.19337" lon="-1.55012">
        <ele>59</ele>
        <time>2021-09-12T09:47:49.000Z</time>
      </trkpt>
      <trkpt lat="47.19341" lon="-1.54996">
        <ele>59</ele>
        <time>2021-09-12T09:47:51.000Z</time>
      </trkpt>
      <trkpt lat="47.19345" lon="-1.54979">
        <ele>59</ele>
        <time>2021-09-12T09:47:53.000Z</time>
      </trkpt>
      <trkpt lat="47.1935" lon="-1.54963">
        <ele>59</ele>
        <time>2021-09-12T09:47:55.000Z</time>
      </trkpt>
      <trkpt lat="47.19354" lon="-1.54947">
        <ele>60</ele>
        <time>2021-09-12T09:47:57.000Z</time>
      </trkpt>
      <trkpt lat="47.19358" lon="-1.54931">
        <ele>59</ele>
        <time>2021-09-12T09:47:59.000Z</time>
      </trkpt>
      <trkpt lat="47.19362" lon="-1.54915">
        <ele>59</ele>
        <time>2021-09-12T09:48:01.000Z</time>
      </trkpt>
      <trkpt lat="47.19365" lon="-1.54898">
        <ele>59</ele>
        <time>2021-09-12T09:48:03.000Z</time>
      </trkpt>
      <trkpt lat="47.19369" lon="-1.54881">
        <ele>59</ele>
        <time>2021-09-12T09:48:05.000Z</time>
      </trkpt>
      <trkpt lat="47.19373" lon="-1.54863">
        <ele>59</ele>
        <time>2021-09-12T09:48:07.000Z</time>
      </trkpt>
      <trkpt lat="47.19378" lon="-1.54846">
        <ele>59</ele>
        <time>2021-09-12T09:48:09.000Z</time>
      </trkpt>
      <trkpt lat="47.19382" lon="-1.54828">
        <ele>59</ele>
        <time>2021-09-12T09:48:11.000Z</time>
      </trkpt>
      <trkpt lat="47.19387" lon="-1.54809">
        <ele>59</ele>
        <time>2021-09-12T09:48:13.000Z</time>
      </trkpt>
      <trkpt lat="47.19392" lon="-1.54789">
        <ele>58</ele>
        <time>2021-09-12T09:48:15.000Z</time>
      </trkpt>
      <trkpt lat="47.19397" lon="-1.54768">
        <ele>57</ele>
        <time>2021-09-12T09:48:17.000Z</time>
      </trkpt>
      <trkpt lat="47.19403" lon="-1.54747">
        <ele>57</ele>
        <time>2021-09-12T09:48:19.000Z</time>
      </trkpt>
      <trkpt lat="47.19408" lon="-1.54726">
        <ele>56</ele>
        <time>2021-09-12T09:48:21.000Z</time>
      </trkpt>
      <trkpt lat="47.19413" lon="-1.54703">
        <ele>56</ele>
        <time>2021-09-12T09:48:23.000Z</time>
      </trkpt>
      <trkpt lat="47.19417" lon="-1.54683">
        <ele>55</ele>
        <time>2021-09-12T09:48:25.000Z</time>
      </trkpt>
      <trkpt lat="47.19424" lon="-1.54667">
        <ele>56</ele>
        <time>2021-09-12T09:48:27.000Z</time>
      </trkpt>
      <trkpt lat="47.1943" lon="-1.54651">
        <ele>57</ele>
        <time>2021-09-12T09:48:29.000Z</time>
      </trkpt>
      <trkpt lat="47.19436" lon="-1.54637">
        <ele>59</ele>
        <time>2021-09-12T09:48:31.000Z</time>
      </trkpt>
      <trkpt lat="47.19437" lon="-1.54622">
        <ele>59</ele>
        <time>2021-09-12T09:48:33.000Z</time>
      </trkpt>
      <trkpt lat="47.19431" lon="-1.54608">
        <ele>60</ele>
        <time>2021-09-12T09:48:35.000Z</time>
      </trkpt>
      <trkpt lat="47.19426" lon="-1.5459">
        <ele>58</ele>
        <time>2021-09-12T09:48:37.000Z</time>
      </trkpt>
      <trkpt lat="47.19429" lon="-1.54572">
        <ele>57</ele>
        <time>2021-09-12T09:48:39.000Z</time>
      </trkpt>
      <trkpt lat="47.19437" lon="-1.54559">
        <ele>57</ele>
        <time>2021-09-12T09:48:41.000Z</time>
      </trkpt>
      <trkpt lat="47.19448" lon="-1.5455">
        <ele>56</ele>
        <time>2021-09-12T09:48:43.000Z</time>
      </trkpt>
      <trkpt lat="47.19455" lon="-1.54535">
        <ele>56</ele>
        <time>2021-09-12T09:48:45.000Z</time>
      </trkpt>
      <trkpt lat="47.19461" lon="-1.54518">
        <ele>55</ele>
        <time>2021-09-12T09:48:47.000Z</time>
      </trkpt>
      <trkpt lat="47.19466" lon="-1.54501">
        <ele>54</ele>
        <time>2021-09-12T09:48:49.000Z</time>
      </trkpt>
      <trkpt lat="47.19471" lon="-1.54485">
        <ele>54</ele>
        <time>2021-09-12T09:48:51.000Z</time>
      </trkpt>
      <trkpt lat="47.19476" lon="-1.54469">
        <ele>53</ele>
        <time>2021-09-12T09:48:53.000Z</time>
      </trkpt>
      <trkpt lat="47.19486" lon="-1.54458">
        <ele>53</ele>
        <time>2021-09-12T09:48:55.000Z</time>
      </trkpt>
      <trkpt lat="47.19498" lon="-1.54452">
        <ele>53</ele>
        <time>2021-09-12T09:48:57.000Z</time>
      </trkpt>
      <trkpt lat="47.1951" lon="-1.54443">
        <ele>53</ele>
        <time>2021-09-12T09:48:59.000Z</time>
      </trkpt>
      <trkpt lat="47.19522" lon="-1.54434">
        <ele>53</ele>
        <time>2021-09-12T09:49:01.000Z</time>
      </trkpt>
      <trkpt lat="47.19533" lon="-1.54424">
        <ele>53</ele>
        <time>2021-09-12T09:49:03.000Z</time>
      </trkpt>
      <trkpt lat="47.19545" lon="-1.54414">
        <ele>53</ele>
        <time>2021-09-12T09:49:05.000Z</time>
      </trkpt>
      <trkpt lat="47.19557" lon="-1.54406">
        <ele>53</ele>
        <time>2021-09-12T09:49:07.000Z</time>
      </trkpt>
      <trkpt lat="47.19569" lon="-1.54397">
        <ele>53</ele>
        <time>2021-09-12T09:49:09.000Z</time>
      </trkpt>
      <trkpt lat="47.19581" lon="-1.54387">
        <ele>52</ele>
        <time>2021-09-12T09:49:11.000Z</time>
      </trkpt>
      <trkpt lat="47.19594" lon="-1.54378">
        <ele>52</ele>
        <time>2021-09-12T09:49:13.000Z</time>
      </trkpt>
      <trkpt lat="47.19606" lon="-1.54366">
        <ele>51</ele>
        <time>2021-09-12T09:49:15.000Z</time>
      </trkpt>
      <trkpt lat="47.19617" lon="-1.54353">
        <ele>51</ele>
        <time>2021-09-12T09:49:17.000Z</time>
      </trkpt>
      <trkpt lat="47.19627" lon="-1.54339">
        <ele>51</ele>
        <time>2021-09-12T09:49:19.000Z</time>
      </trkpt>
      <trkpt lat="47.19637" lon="-1.54324">
        <ele>52</ele>
        <time>2021-09-12T09:49:21.000Z</time>
      </trkpt>
      <trkpt lat="47.19648" lon="-1.54311">
        <ele>52</ele>
        <time>2021-09-12T09:49:23.000Z</time>
      </trkpt>
      <trkpt lat="47.1966" lon="-1.543">
        <ele>52</ele>
        <time>2021-09-12T09:49:25.000Z</time>
      </trkpt>
      <trkpt lat="47.19672" lon="-1.54291">
        <ele>53</ele>
        <time>2021-09-12T09:49:27.000Z</time>
      </trkpt>
      <trkpt lat="47.19683" lon="-1.54282">
        <ele>53</ele>
        <time>2021-09-12T09:49:29.000Z</time>
      </trkpt>
      <trkpt lat="47.19696" lon="-1.54273">
        <ele>53</ele>
        <time>2021-09-12T09:49:31.000Z</time>
      </trkpt>
      <trkpt lat="47.19707" lon="-1.54265">
        <ele>53</ele>
        <time>2021-09-12T09:49:33.000Z</time>
      </trkpt>
      <trkpt lat="47.19719" lon="-1.54256">
        <ele>53</ele>
        <time>2021-09-12T09:49:35.000Z</time>
      </trkpt>
      <trkpt lat="47.1973" lon="-1.54248">
        <ele>53</ele>
        <time>2021-09-12T09:49:37.000Z</time>
      </trkpt>
      <trkpt lat="47.1974" lon="-1.5424">
        <ele>54</ele>
        <time>2021-09-12T09:49:39.000Z</time>
      </trkpt>
      <trkpt lat="47.19749" lon="-1.54231">
        <ele>53</ele>
        <time>2021-09-12T09:49:41.000Z</time>
      </trkpt>
      <trkpt lat="47.19759" lon="-1.54223">
        <ele>53</ele>
        <time>2021-09-12T09:49:43.000Z</time>
      </trkpt>
      <trkpt lat="47.19766" lon="-1.54214">
        <ele>53</ele>
        <time>2021-09-12T09:49:45.000Z</time>
      </trkpt>
      <trkpt lat="47.19776" lon="-1.54203">
        <ele>54</ele>
        <time>2021-09-12T09:49:48.000Z</time>
      </trkpt>
      <trkpt lat="47.19787" lon="-1.54193">
        <ele>55</ele>
        <time>2021-09-12T09:49:51.000Z</time>
      </trkpt>
      <trkpt lat="47.19791" lon="-1.54175">
        <ele>55</ele>
        <time>2021-09-12T09:49:53.000Z</time>
      </trkpt>
      <trkpt lat="47.19794" lon="-1.54161">
        <ele>55</ele>
        <time>2021-09-12T09:49:55.000Z</time>
      </trkpt>
      <trkpt lat="47.19795" lon="-1.54145">
        <ele>55</ele>
        <time>2021-09-12T09:49:58.000Z</time>
      </trkpt>
      <trkpt lat="47.19798" lon="-1.54128">
        <ele>54</ele>
        <time>2021-09-12T09:50:00.000Z</time>
      </trkpt>
      <trkpt lat="47.19806" lon="-1.54114">
        <ele>53</ele>
        <time>2021-09-12T09:50:02.000Z</time>
      </trkpt>
      <trkpt lat="47.19818" lon="-1.54105">
        <ele>53</ele>
        <time>2021-09-12T09:50:04.000Z</time>
      </trkpt>
      <trkpt lat="47.1983" lon="-1.54094">
        <ele>52</ele>
        <time>2021-09-12T09:50:06.000Z</time>
      </trkpt>
      <trkpt lat="47.19837" lon="-1.54076">
        <ele>52</ele>
        <time>2021-09-12T09:50:08.000Z</time>
      </trkpt>
      <trkpt lat="47.19847" lon="-1.54062">
        <ele>52</ele>
        <time>2021-09-12T09:50:10.000Z</time>
      </trkpt>
      <trkpt lat="47.19854" lon="-1.54043">
        <ele>51</ele>
        <time>2021-09-12T09:50:12.000Z</time>
      </trkpt>
      <trkpt lat="47.1986" lon="-1.54023">
        <ele>51</ele>
        <time>2021-09-12T09:50:14.000Z</time>
      </trkpt>
      <trkpt lat="47.19866" lon="-1.54004">
        <ele>52</ele>
        <time>2021-09-12T09:50:16.000Z</time>
      </trkpt>
      <trkpt lat="47.19872" lon="-1.53984">
        <ele>51</ele>
        <time>2021-09-12T09:50:18.000Z</time>
      </trkpt>
      <trkpt lat="47.19878" lon="-1.53964">
        <ele>51</ele>
        <time>2021-09-12T09:50:20.000Z</time>
      </trkpt>
      <trkpt lat="47.19884" lon="-1.53945">
        <ele>51</ele>
        <time>2021-09-12T09:50:22.000Z</time>
      </trkpt>
      <trkpt lat="47.1989" lon="-1.53925">
        <ele>51</ele>
        <time>2021-09-12T09:50:24.000Z</time>
      </trkpt>
      <trkpt lat="47.19894" lon="-1.53904">
        <ele>51</ele>
        <time>2021-09-12T09:50:26.000Z</time>
      </trkpt>
      <trkpt lat="47.19899" lon="-1.53884">
        <ele>51</ele>
        <time>2021-09-12T09:50:28.000Z</time>
      </trkpt>
      <trkpt lat="47.19903" lon="-1.53865">
        <ele>51</ele>
        <time>2021-09-12T09:50:30.000Z</time>
      </trkpt>
      <trkpt lat="47.19907" lon="-1.53845">
        <ele>52</ele>
        <time>2021-09-12T09:50:32.000Z</time>
      </trkpt>
      <trkpt lat="47.19912" lon="-1.53826">
        <ele>53</ele>
        <time>2021-09-12T09:50:34.000Z</time>
      </trkpt>
      <trkpt lat="47.19916" lon="-1.53807">
        <ele>53</ele>
        <time>2021-09-12T09:50:36.000Z</time>
      </trkpt>
      <trkpt lat="47.1992" lon="-1.53788">
        <ele>54</ele>
        <time>2021-09-12T09:50:38.000Z</time>
      </trkpt>
      <trkpt lat="47.19923" lon="-1.5377">
        <ele>55</ele>
        <time>2021-09-12T09:50:40.000Z</time>
      </trkpt>
      <trkpt lat="47.19928" lon="-1.53749">
        <ele>55</ele>
        <time>2021-09-12T09:50:42.000Z</time>
      </trkpt>
      <trkpt lat="47.19932" lon="-1.53726">
        <ele>54</ele>
        <time>2021-09-12T09:50:44.000Z</time>
      </trkpt>
      <trkpt lat="47.19937" lon="-1.53703">
        <ele>53</ele>
        <time>2021-09-12T09:50:46.000Z</time>
      </trkpt>
      <trkpt lat="47.19941" lon="-1.53683">
        <ele>54</ele>
        <time>2021-09-12T09:50:48.000Z</time>
      </trkpt>
      <trkpt lat="47.19946" lon="-1.53663">
        <ele>53</ele>
        <time>2021-09-12T09:50:50.000Z</time>
      </trkpt>
      <trkpt lat="47.19951" lon="-1.53643">
        <ele>54</ele>
        <time>2021-09-12T09:50:52.000Z</time>
      </trkpt>
      <trkpt lat="47.19956" lon="-1.53624">
        <ele>53</ele>
        <time>2021-09-12T09:50:54.000Z</time>
      </trkpt>
      <trkpt lat="47.19962" lon="-1.53603">
        <ele>53</ele>
        <time>2021-09-12T09:50:56.000Z</time>
      </trkpt>
      <trkpt lat="47.19967" lon="-1.53584">
        <ele>54</ele>
        <time>2021-09-12T09:50:58.000Z</time>
      </trkpt>
      <trkpt lat="47.19973" lon="-1.53564">
        <ele>54</ele>
        <time>2021-09-12T09:51:00.000Z</time>
      </trkpt>
      <trkpt lat="47.19978" lon="-1.53545">
        <ele>54</ele>
        <time>2021-09-12T09:51:02.000Z</time>
      </trkpt>
      <trkpt lat="47.19983" lon="-1.53526">
        <ele>54</ele>
        <time>2021-09-12T09:51:04.000Z</time>
      </trkpt>
      <trkpt lat="47.19988" lon="-1.53508">
        <ele>53</ele>
        <time>2021-09-12T09:51:06.000Z</time>
      </trkpt>
      <trkpt lat="47.19989" lon="-1.53488">
        <ele>53</ele>
        <time>2021-09-12T09:51:08.000Z</time>
      </trkpt>
      <trkpt lat="47.19996" lon="-1.53471">
        <ele>53</ele>
        <time>2021-09-12T09:51:10.000Z</time>
      </trkpt>
      <trkpt lat="47.20009" lon="-1.5347">
        <ele>52</ele>
        <time>2021-09-12T09:51:12.000Z</time>
      </trkpt>
      <trkpt lat="47.20021" lon="-1.53464">
        <ele>51</ele>
        <time>2021-09-12T09:51:14.000Z</time>
      </trkpt>
      <trkpt lat="47.20029" lon="-1.53447">
        <ele>50</ele>
        <time>2021-09-12T09:51:16.000Z</time>
      </trkpt>
      <trkpt lat="47.20036" lon="-1.5343">
        <ele>50</ele>
        <time>2021-09-12T09:51:18.000Z</time>
      </trkpt>
      <trkpt lat="47.20043" lon="-1.53413">
        <ele>49</ele>
        <time>2021-09-12T09:51:20.000Z</time>
      </trkpt>
      <trkpt lat="47.20049" lon="-1.53397">
        <ele>48</ele>
        <time>2021-09-12T09:51:22.000Z</time>
      </trkpt>
      <trkpt lat="47.20056" lon="-1.53381">
        <ele>48</ele>
        <time>2021-09-12T09:51:24.000Z</time>
      </trkpt>
      <trkpt lat="47.20061" lon="-1.53367">
        <ele>48</ele>
        <time>2021-09-12T09:51:26.000Z</time>
      </trkpt>
      <trkpt lat="47.20068" lon="-1.53357">
        <ele>48</ele>
        <time>2021-09-12T09:51:29.000Z</time>
      </trkpt>
      <trkpt lat="47.20079" lon="-1.53351">
        <ele>50</ele>
        <time>2021-09-12T09:51:32.000Z</time>
      </trkpt>
      <trkpt lat="47.20084" lon="-1.53337">
        <ele>51</ele>
        <time>2021-09-12T09:51:34.000Z</time>
      </trkpt>
      <trkpt lat="47.2009" lon="-1.5332">
        <ele>50</ele>
        <time>2021-09-12T09:51:36.000Z</time>
      </trkpt>
      <trkpt lat="47.20098" lon="-1.53304">
        <ele>50</ele>
        <time>2021-09-12T09:51:38.000Z</time>
      </trkpt>
      <trkpt lat="47.20103" lon="-1.53287">
        <ele>50</ele>
        <time>2021-09-12T09:51:40.000Z</time>
      </trkpt>
      <trkpt lat="47.20108" lon="-1.53268">
        <ele>50</ele>
        <time>2021-09-12T09:51:42.000Z</time>
      </trkpt>
      <trkpt lat="47.20114" lon="-1.53249">
        <ele>51</ele>
        <time>2021-09-12T09:51:44.000Z</time>
      </trkpt>
      <trkpt lat="47.20119" lon="-1.5323">
        <ele>51</ele>
        <time>2021-09-12T09:51:46.000Z</time>
      </trkpt>
      <trkpt lat="47.20123" lon="-1.53211">
        <ele>51</ele>
        <time>2021-09-12T09:51:48.000Z</time>
      </trkpt>
      <trkpt lat="47.20127" lon="-1.53192">
        <ele>51</ele>
        <time>2021-09-12T09:51:50.000Z</time>
      </trkpt>
      <trkpt lat="47.20133" lon="-1.53172">
        <ele>52</ele>
        <time>2021-09-12T09:51:52.000Z</time>
      </trkpt>
      <trkpt lat="47.20139" lon="-1.53155">
        <ele>52</ele>
        <time>2021-09-12T09:51:54.000Z</time>
      </trkpt>
      <trkpt lat="47.20146" lon="-1.53137">
        <ele>52</ele>
        <time>2021-09-12T09:51:56.000Z</time>
      </trkpt>
      <trkpt lat="47.20154" lon="-1.5312">
        <ele>52</ele>
        <time>2021-09-12T09:51:58.000Z</time>
      </trkpt>
      <trkpt lat="47.20161" lon="-1.53103">
        <ele>52</ele>
        <time>2021-09-12T09:52:00.000Z</time>
      </trkpt>
      <trkpt lat="47.20169" lon="-1.53087">
        <ele>52</ele>
        <time>2021-09-12T09:52:02.000Z</time>
      </trkpt>
      <trkpt lat="47.20177" lon="-1.53072">
        <ele>52</ele>
        <time>2021-09-12T09:52:04.000Z</time>
      </trkpt>
      <trkpt lat="47.20186" lon="-1.53057">
        <ele>52</ele>
        <time>2021-09-12T09:52:06.000Z</time>
      </trkpt>
      <trkpt lat="47.20196" lon="-1.53044">
        <ele>53</ele>
        <time>2021-09-12T09:52:08.000Z</time>
      </trkpt>
      <trkpt lat="47.20207" lon="-1.53032">
        <ele>53</ele>
        <time>2021-09-12T09:52:10.000Z</time>
      </trkpt>
      <trkpt lat="47.20218" lon="-1.53021">
        <ele>52</ele>
        <time>2021-09-12T09:52:12.000Z</time>
      </trkpt>
      <trkpt lat="47.20228" lon="-1.53008">
        <ele>52</ele>
        <time>2021-09-12T09:52:14.000Z</time>
      </trkpt>
      <trkpt lat="47.20237" lon="-1.52993">
        <ele>52</ele>
        <time>2021-09-12T09:52:16.000Z</time>
      </trkpt>
      <trkpt lat="47.20246" lon="-1.52977">
        <ele>52</ele>
        <time>2021-09-12T09:52:18.000Z</time>
      </trkpt>
      <trkpt lat="47.20254" lon="-1.52961">
        <ele>52</ele>
        <time>2021-09-12T09:52:20.000Z</time>
      </trkpt>
      <trkpt lat="47.20263" lon="-1.52947">
        <ele>52</ele>
        <time>2021-09-12T09:52:22.000Z</time>
      </trkpt>
      <trkpt lat="47.20271" lon="-1.52931">
        <ele>51</ele>
        <time>2021-09-12T09:52:24.000Z</time>
      </trkpt>
      <trkpt lat="47.2028" lon="-1.52914">
        <ele>51</ele>
        <time>2021-09-12T09:52:26.000Z</time>
      </trkpt>
      <trkpt lat="47.20287" lon="-1.52896">
        <ele>51</ele>
        <time>2021-09-12T09:52:28.000Z</time>
      </trkpt>
      <trkpt lat="47.20294" lon="-1.52878">
        <ele>51</ele>
        <time>2021-09-12T09:52:30.000Z</time>
      </trkpt>
      <trkpt lat="47.203" lon="-1.5286">
        <ele>51</ele>
        <time>2021-09-12T09:52:32.000Z</time>
      </trkpt>
      <trkpt lat="47.20308" lon="-1.52843">
        <ele>51</ele>
        <time>2021-09-12T09:52:34.000Z</time>
      </trkpt>
      <trkpt lat="47.20316" lon="-1.52826">
        <ele>52</ele>
        <time>2021-09-12T09:52:36.000Z</time>
      </trkpt>
      <trkpt lat="47.20324" lon="-1.5281">
        <ele>52</ele>
        <time>2021-09-12T09:52:38.000Z</time>
      </trkpt>
      <trkpt lat="47.20332" lon="-1.52793">
        <ele>52</ele>
        <time>2021-09-12T09:52:40.000Z</time>
      </trkpt>
      <trkpt lat="47.2034" lon="-1.52777">
        <ele>52</ele>
        <time>2021-09-12T09:52:42.000Z</time>
      </trkpt>
      <trkpt lat="47.20348" lon="-1.5276">
        <ele>52</ele>
        <time>2021-09-12T09:52:44.000Z</time>
      </trkpt>
      <trkpt lat="47.20356" lon="-1.52744">
        <ele>52</ele>
        <time>2021-09-12T09:52:46.000Z</time>
      </trkpt>
      <trkpt lat="47.20364" lon="-1.52727">
        <ele>51</ele>
        <time>2021-09-12T09:52:48.000Z</time>
      </trkpt>
      <trkpt lat="47.20372" lon="-1.52711">
        <ele>51</ele>
        <time>2021-09-12T09:52:50.000Z</time>
      </trkpt>
      <trkpt lat="47.20381" lon="-1.52696">
        <ele>51</ele>
        <time>2021-09-12T09:52:52.000Z</time>
      </trkpt>
      <trkpt lat="47.2039" lon="-1.5268">
        <ele>52</ele>
        <time>2021-09-12T09:52:54.000Z</time>
      </trkpt>
      <trkpt lat="47.20397" lon="-1.52663">
        <ele>51</ele>
        <time>2021-09-12T09:52:56.000Z</time>
      </trkpt>
      <trkpt lat="47.20405" lon="-1.52647">
        <ele>51</ele>
        <time>2021-09-12T09:52:58.000Z</time>
      </trkpt>
      <trkpt lat="47.20412" lon="-1.52631">
        <ele>51</ele>
        <time>2021-09-12T09:53:00.000Z</time>
      </trkpt>
      <trkpt lat="47.20417" lon="-1.52614">
        <ele>51</ele>
        <time>2021-09-12T09:53:02.000Z</time>
      </trkpt>
      <trkpt lat="47.20422" lon="-1.52595">
        <ele>50</ele>
        <time>2021-09-12T09:53:04.000Z</time>
      </trkpt>
      <trkpt lat="47.20427" lon="-1.52576">
        <ele>51</ele>
        <time>2021-09-12T09:53:06.000Z</time>
      </trkpt>
      <trkpt lat="47.20433" lon="-1.52558">
        <ele>51</ele>
        <time>2021-09-12T09:53:08.000Z</time>
      </trkpt>
      <trkpt lat="47.20439" lon="-1.5254">
        <ele>51</ele>
        <time>2021-09-12T09:53:10.000Z</time>
      </trkpt>
      <trkpt lat="47.20446" lon="-1.52522">
        <ele>51</ele>
        <time>2021-09-12T09:53:12.000Z</time>
      </trkpt>
      <trkpt lat="47.20452" lon="-1.52506">
        <ele>51</ele>
        <time>2021-09-12T09:53:14.000Z</time>
      </trkpt>
      <trkpt lat="47.20461" lon="-1.5248">
        <ele>51</ele>
        <time>2021-09-12T09:53:17.000Z</time>
      </trkpt>
      <trkpt lat="47.20466" lon="-1.52463">
        <ele>51</ele>
        <time>2021-09-12T09:53:19.000Z</time>
      </trkpt>
      <trkpt lat="47.20471" lon="-1.52445">
        <ele>51</ele>
        <time>2021-09-12T09:53:21.000Z</time>
      </trkpt>
      <trkpt lat="47.20475" lon="-1.52427">
        <ele>51</ele>
        <time>2021-09-12T09:53:23.000Z</time>
      </trkpt>
      <trkpt lat="47.2048" lon="-1.5241">
        <ele>52</ele>
        <time>2021-09-12T09:53:25.000Z</time>
      </trkpt>
      <trkpt lat="47.20487" lon="-1.52395">
        <ele>52</ele>
        <time>2021-09-12T09:53:27.000Z</time>
      </trkpt>
      <trkpt lat="47.20491" lon="-1.52383">
        <ele>52</ele>
        <time>2021-09-12T09:53:29.000Z</time>
      </trkpt>
      <trkpt lat="47.20498" lon="-1.52368">
        <ele>52</ele>
        <time>2021-09-12T09:53:33.000Z</time>
      </trkpt>
      <trkpt lat="47.20503" lon="-1.52352">
        <ele>52</ele>
        <time>2021-09-12T09:53:35.000Z</time>
      </trkpt>
      <trkpt lat="47.20507" lon="-1.52332">
        <ele>52</ele>
        <time>2021-09-12T09:53:37.000Z</time>
      </trkpt>
      <trkpt lat="47.20513" lon="-1.52313">
        <ele>51</ele>
        <time>2021-09-12T09:53:39.000Z</time>
      </trkpt>
      <trkpt lat="47.20519" lon="-1.52293">
        <ele>51</ele>
        <time>2021-09-12T09:53:41.000Z</time>
      </trkpt>
      <trkpt lat="47.20527" lon="-1.52275">
        <ele>51</ele>
        <time>2021-09-12T09:53:43.000Z</time>
      </trkpt>
      <trkpt lat="47.20534" lon="-1.52258">
        <ele>51</ele>
        <time>2021-09-12T09:53:45.000Z</time>
      </trkpt>
      <trkpt lat="47.20543" lon="-1.52241">
        <ele>51</ele>
        <time>2021-09-12T09:53:47.000Z</time>
      </trkpt>
      <trkpt lat="47.20551" lon="-1.52225">
        <ele>51</ele>
        <time>2021-09-12T09:53:49.000Z</time>
      </trkpt>
      <trkpt lat="47.20564" lon="-1.52202">
        <ele>51</ele>
        <time>2021-09-12T09:53:52.000Z</time>
      </trkpt>
      <trkpt lat="47.20572" lon="-1.52186">
        <ele>51</ele>
        <time>2021-09-12T09:53:54.000Z</time>
      </trkpt>
      <trkpt lat="47.2058" lon="-1.52171">
        <ele>51</ele>
        <time>2021-09-12T09:53:56.000Z</time>
      </trkpt>
      <trkpt lat="47.20593" lon="-1.52148">
        <ele>51</ele>
        <time>2021-09-12T09:53:59.000Z</time>
      </trkpt>
      <trkpt lat="47.20602" lon="-1.52131">
        <ele>51</ele>
        <time>2021-09-12T09:54:01.000Z</time>
      </trkpt>
      <trkpt lat="47.2061" lon="-1.52115">
        <ele>51</ele>
        <time>2021-09-12T09:54:03.000Z</time>
      </trkpt>
      <trkpt lat="47.20623" lon="-1.52092">
        <ele>51</ele>
        <time>2021-09-12T09:54:06.000Z</time>
      </trkpt>
      <trkpt lat="47.20632" lon="-1.52077">
        <ele>51</ele>
        <time>2021-09-12T09:54:08.000Z</time>
      </trkpt>
      <trkpt lat="47.20641" lon="-1.52062">
        <ele>51</ele>
        <time>2021-09-12T09:54:10.000Z</time>
      </trkpt>
      <trkpt lat="47.20651" lon="-1.52048">
        <ele>51</ele>
        <time>2021-09-12T09:54:12.000Z</time>
      </trkpt>
      <trkpt lat="47.20661" lon="-1.52034">
        <ele>51</ele>
        <time>2021-09-12T09:54:14.000Z</time>
      </trkpt>
      <trkpt lat="47.20671" lon="-1.52018">
        <ele>50</ele>
        <time>2021-09-12T09:54:16.000Z</time>
      </trkpt>
      <trkpt lat="47.20681" lon="-1.52">
        <ele>50</ele>
        <time>2021-09-12T09:54:18.000Z</time>
      </trkpt>
      <trkpt lat="47.20691" lon="-1.51983">
        <ele>50</ele>
        <time>2021-09-12T09:54:20.000Z</time>
      </trkpt>
      <trkpt lat="47.20701" lon="-1.51966">
        <ele>50</ele>
        <time>2021-09-12T09:54:22.000Z</time>
      </trkpt>
      <trkpt lat="47.20714" lon="-1.5194">
        <ele>50</ele>
        <time>2021-09-12T09:54:25.000Z</time>
      </trkpt>
      <trkpt lat="47.20722" lon="-1.51922">
        <ele>50</ele>
        <time>2021-09-12T09:54:27.000Z</time>
      </trkpt>
      <trkpt lat="47.2073" lon="-1.51903">
        <ele>50</ele>
        <time>2021-09-12T09:54:29.000Z</time>
      </trkpt>
      <trkpt lat="47.20738" lon="-1.51886">
        <ele>50</ele>
        <time>2021-09-12T09:54:31.000Z</time>
      </trkpt>
      <trkpt lat="47.20745" lon="-1.51868">
        <ele>50</ele>
        <time>2021-09-12T09:54:33.000Z</time>
      </trkpt>
      <trkpt lat="47.20753" lon="-1.5185">
        <ele>51</ele>
        <time>2021-09-12T09:54:35.000Z</time>
      </trkpt>
      <trkpt lat="47.2076" lon="-1.51833">
        <ele>51</ele>
        <time>2021-09-12T09:54:37.000Z</time>
      </trkpt>
      <trkpt lat="47.20765" lon="-1.51813">
        <ele>51</ele>
        <time>2021-09-12T09:54:39.000Z</time>
      </trkpt>
      <trkpt lat="47.20769" lon="-1.51792">
        <ele>51</ele>
        <time>2021-09-12T09:54:41.000Z</time>
      </trkpt>
      <trkpt lat="47.20773" lon="-1.51772">
        <ele>51</ele>
        <time>2021-09-12T09:54:43.000Z</time>
      </trkpt>
      <trkpt lat="47.20778" lon="-1.51752">
        <ele>51</ele>
        <time>2021-09-12T09:54:45.000Z</time>
      </trkpt>
      <trkpt lat="47.20783" lon="-1.51732">
        <ele>52</ele>
        <time>2021-09-12T09:54:47.000Z</time>
      </trkpt>
      <trkpt lat="47.20787" lon="-1.51713">
        <ele>53</ele>
        <time>2021-09-12T09:54:49.000Z</time>
      </trkpt>
      <trkpt lat="47.20791" lon="-1.51694">
        <ele>53</ele>
        <time>2021-09-12T09:54:51.000Z</time>
      </trkpt>
      <trkpt lat="47.20794" lon="-1.51675">
        <ele>52</ele>
        <time>2021-09-12T09:54:53.000Z</time>
      </trkpt>
      <trkpt lat="47.20798" lon="-1.51657">
        <ele>53</ele>
        <time>2021-09-12T09:54:55.000Z</time>
      </trkpt>
      <trkpt lat="47.20802" lon="-1.51639">
        <ele>53</ele>
        <time>2021-09-12T09:54:57.000Z</time>
      </trkpt>
      <trkpt lat="47.20806" lon="-1.5162">
        <ele>53</ele>
        <time>2021-09-12T09:54:59.000Z</time>
      </trkpt>
      <trkpt lat="47.20807" lon="-1.51598">
        <ele>53</ele>
        <time>2021-09-12T09:55:01.000Z</time>
      </trkpt>
      <trkpt lat="47.20808" lon="-1.51574">
        <ele>53</ele>
        <time>2021-09-12T09:55:03.000Z</time>
      </trkpt>
      <trkpt lat="47.20811" lon="-1.51552">
        <ele>53</ele>
        <time>2021-09-12T09:55:05.000Z</time>
      </trkpt>
      <trkpt lat="47.20815" lon="-1.51531">
        <ele>53</ele>
        <time>2021-09-12T09:55:07.000Z</time>
      </trkpt>
      <trkpt lat="47.20819" lon="-1.51511">
        <ele>52</ele>
        <time>2021-09-12T09:55:09.000Z</time>
      </trkpt>
      <trkpt lat="47.20822" lon="-1.51488">
        <ele>53</ele>
        <time>2021-09-12T09:55:11.000Z</time>
      </trkpt>
      <trkpt lat="47.20826" lon="-1.51466">
        <ele>52</ele>
        <time>2021-09-12T09:55:13.000Z</time>
      </trkpt>
      <trkpt lat="47.2083" lon="-1.51443">
        <ele>52</ele>
        <time>2021-09-12T09:55:15.000Z</time>
      </trkpt>
      <trkpt lat="47.20833" lon="-1.51422">
        <ele>53</ele>
        <time>2021-09-12T09:55:17.000Z</time>
      </trkpt>
      <trkpt lat="47.20837" lon="-1.51401">
        <ele>53</ele>
        <time>2021-09-12T09:55:19.000Z</time>
      </trkpt>
      <trkpt lat="47.20842" lon="-1.5138">
        <ele>53</ele>
        <time>2021-09-12T09:55:21.000Z</time>
      </trkpt>
      <trkpt lat="47.20847" lon="-1.5136">
        <ele>53</ele>
        <time>2021-09-12T09:55:23.000Z</time>
      </trkpt>
      <trkpt lat="47.20853" lon="-1.5134">
        <ele>54</ele>
        <time>2021-09-12T09:55:25.000Z</time>
      </trkpt>
      <trkpt lat="47.20859" lon="-1.51321">
        <ele>54</ele>
        <time>2021-09-12T09:55:27.000Z</time>
      </trkpt>
      <trkpt lat="47.20867" lon="-1.51303">
        <ele>54</ele>
        <time>2021-09-12T09:55:29.000Z</time>
      </trkpt>
      <trkpt lat="47.20875" lon="-1.51287">
        <ele>54</ele>
        <time>2021-09-12T09:55:31.000Z</time>
      </trkpt>
      <trkpt lat="47.20882" lon="-1.5127">
        <ele>54</ele>
        <time>2021-09-12T09:55:33.000Z</time>
      </trkpt>
      <trkpt lat="47.20889" lon="-1.51253">
        <ele>54</ele>
        <time>2021-09-12T09:55:35.000Z</time>
      </trkpt>
      <trkpt lat="47.20895" lon="-1.51235">
        <ele>54</ele>
        <time>2021-09-12T09:55:37.000Z</time>
      </trkpt>
      <trkpt lat="47.20902" lon="-1.51217">
        <ele>54</ele>
        <time>2021-09-12T09:55:39.000Z</time>
      </trkpt>
      <trkpt lat="47.20908" lon="-1.51199">
        <ele>54</ele>
        <time>2021-09-12T09:55:41.000Z</time>
      </trkpt>
      <trkpt lat="47.20914" lon="-1.51181">
        <ele>54</ele>
        <time>2021-09-12T09:55:43.000Z</time>
      </trkpt>
      <trkpt lat="47.2092" lon="-1.51164">
        <ele>54</ele>
        <time>2021-09-12T09:55:45.000Z</time>
      </trkpt>
      <trkpt lat="47.20926" lon="-1.51146">
        <ele>54</ele>
        <time>2021-09-12T09:55:47.000Z</time>
      </trkpt>
      <trkpt lat="47.20932" lon="-1.51129">
        <ele>55</ele>
        <time>2021-09-12T09:55:49.000Z</time>
      </trkpt>
      <trkpt lat="47.20937" lon="-1.51112">
        <ele>55</ele>
        <time>2021-09-12T09:55:51.000Z</time>
      </trkpt>
      <trkpt lat="47.20943" lon="-1.51094">
        <ele>55</ele>
        <time>2021-09-12T09:55:53.000Z</time>
      </trkpt>
      <trkpt lat="47.20947" lon="-1.51074">
        <ele>54</ele>
        <time>2021-09-12T09:55:55.000Z</time>
      </trkpt>
      <trkpt lat="47.2095" lon="-1.51053">
        <ele>53</ele>
        <time>2021-09-12T09:55:57.000Z</time>
      </trkpt>
      <trkpt lat="47.20952" lon="-1.51034">
        <ele>53</ele>
        <time>2021-09-12T09:55:59.000Z</time>
      </trkpt>
      <trkpt lat="47.20957" lon="-1.51016">
        <ele>54</ele>
        <time>2021-09-12T09:56:01.000Z</time>
      </trkpt>
      <trkpt lat="47.20964" lon="-1.50998">
        <ele>54</ele>
        <time>2021-09-12T09:56:03.000Z</time>
      </trkpt>
      <trkpt lat="47.20967" lon="-1.50979">
        <ele>54</ele>
        <time>2021-09-12T09:56:05.000Z</time>
      </trkpt>
      <trkpt lat="47.20968" lon="-1.50959">
        <ele>54</ele>
        <time>2021-09-12T09:56:07.000Z</time>
      </trkpt>
      <trkpt lat="47.20971" lon="-1.50939">
        <ele>53</ele>
        <time>2021-09-12T09:56:09.000Z</time>
      </trkpt>
      <trkpt lat="47.20973" lon="-1.50919">
        <ele>52</ele>
        <time>2021-09-12T09:56:11.000Z</time>
      </trkpt>
      <trkpt lat="47.20976" lon="-1.50899">
        <ele>52</ele>
        <time>2021-09-12T09:56:13.000Z</time>
      </trkpt>
      <trkpt lat="47.20979" lon="-1.50879">
        <ele>52</ele>
        <time>2021-09-12T09:56:15.000Z</time>
      </trkpt>
      <trkpt lat="47.20981" lon="-1.50858">
        <ele>52</ele>
        <time>2021-09-12T09:56:17.000Z</time>
      </trkpt>
      <trkpt lat="47.20983" lon="-1.50837">
        <ele>52</ele>
        <time>2021-09-12T09:56:19.000Z</time>
      </trkpt>
      <trkpt lat="47.20986" lon="-1.50818">
        <ele>52</ele>
        <time>2021-09-12T09:56:21.000Z</time>
      </trkpt>
      <trkpt lat="47.20988" lon="-1.50797">
        <ele>52</ele>
        <time>2021-09-12T09:56:23.000Z</time>
      </trkpt>
      <trkpt lat="47.20991" lon="-1.50777">
        <ele>51</ele>
        <time>2021-09-12T09:56:25.000Z</time>
      </trkpt>
      <trkpt lat="47.20993" lon="-1.50757">
        <ele>51</ele>
        <time>2021-09-12T09:56:27.000Z</time>
      </trkpt>
      <trkpt lat="47.20995" lon="-1.50736">
        <ele>51</ele>
        <time>2021-09-12T09:56:29.000Z</time>
      </trkpt>
      <trkpt lat="47.20997" lon="-1.50716">
        <ele>51</ele>
        <time>2021-09-12T09:56:31.000Z</time>
      </trkpt>
      <trkpt lat="47.20999" lon="-1.50697">
        <ele>51</ele>
        <time>2021-09-12T09:56:33.000Z</time>
      </trkpt>
      <trkpt lat="47.21001" lon="-1.50678">
        <ele>51</ele>
        <time>2021-09-12T09:56:35.000Z</time>
      </trkpt>
      <trkpt lat="47.21002" lon="-1.50658">
        <ele>51</ele>
        <time>2021-09-12T09:56:37.000Z</time>
      </trkpt>
      <trkpt lat="47.21003" lon="-1.50638">
        <ele>51</ele>
        <time>2021-09-12T09:56:39.000Z</time>
      </trkpt>
      <trkpt lat="47.21003" lon="-1.50617">
        <ele>51</ele>
        <time>2021-09-12T09:56:41.000Z</time>
      </trkpt>
      <trkpt lat="47.21004" lon="-1.50596">
        <ele>51</ele>
        <time>2021-09-12T09:56:43.000Z</time>
      </trkpt>
      <trkpt lat="47.21004" lon="-1.50576">
        <ele>51</ele>
        <time>2021-09-12T09:56:45.000Z</time>
      </trkpt>
      <trkpt lat="47.21004" lon="-1.50556">
        <ele>51</ele>
        <time>2021-09-12T09:56:47.000Z</time>
      </trkpt>
      <trkpt lat="47.21004" lon="-1.50536">
        <ele>52</ele>
        <time>2021-09-12T09:56:49.000Z</time>
      </trkpt>
      <trkpt lat="47.21004" lon="-1.50517">
        <ele>52</ele>
        <time>2021-09-12T09:56:51.000Z</time>
      </trkpt>
      <trkpt lat="47.21003" lon="-1.50497">
        <ele>52</ele>
        <time>2021-09-12T09:56:53.000Z</time>
      </trkpt>
      <trkpt lat="47.21003" lon="-1.50477">
        <ele>52</ele>
        <time>2021-09-12T09:56:55.000Z</time>
      </trkpt>
      <trkpt lat="47.21002" lon="-1.50457">
        <ele>52</ele>
        <time>2021-09-12T09:56:57.000Z</time>
      </trkpt>
      <trkpt lat="47.21002" lon="-1.50437">
        <ele>51</ele>
        <time>2021-09-12T09:56:59.000Z</time>
      </trkpt>
      <trkpt lat="47.21001" lon="-1.50416">
        <ele>51</ele>
        <time>2021-09-12T09:57:01.000Z</time>
      </trkpt>
      <trkpt lat="47.21001" lon="-1.50396">
        <ele>50</ele>
        <time>2021-09-12T09:57:03.000Z</time>
      </trkpt>
      <trkpt lat="47.21001" lon="-1.50375">
        <ele>50</ele>
        <time>2021-09-12T09:57:05.000Z</time>
      </trkpt>
      <trkpt lat="47.21001" lon="-1.50354">
        <ele>50</ele>
        <time>2021-09-12T09:57:07.000Z</time>
      </trkpt>
      <trkpt lat="47.21001" lon="-1.50333">
        <ele>50</ele>
        <time>2021-09-12T09:57:09.000Z</time>
      </trkpt>
      <trkpt lat="47.21002" lon="-1.50312">
        <ele>50</ele>
        <time>2021-09-12T09:57:11.000Z</time>
      </trkpt>
      <trkpt lat="47.21004" lon="-1.50292">
        <ele>51</ele>
        <time>2021-09-12T09:57:13.000Z</time>
      </trkpt>
      <trkpt lat="47.21006" lon="-1.50273">
        <ele>51</ele>
        <time>2021-09-12T09:57:15.000Z</time>
      </trkpt>
      <trkpt lat="47.21009" lon="-1.50255">
        <ele>51</ele>
        <time>2021-09-12T09:57:17.000Z</time>
      </trkpt>
      <trkpt lat="47.21016" lon="-1.50244">
        <ele>51</ele>
        <time>2021-09-12T09:57:19.000Z</time>
      </trkpt>
      <trkpt lat="47.2102" lon="-1.50228">
        <ele>51</ele>
        <time>2021-09-12T09:57:22.000Z</time>
      </trkpt>
      <trkpt lat="47.21017" lon="-1.50211">
        <ele>52</ele>
        <time>2021-09-12T09:57:25.000Z</time>
      </trkpt>
      <trkpt lat="47.21016" lon="-1.50197">
        <ele>52</ele>
        <time>2021-09-12T09:57:27.000Z</time>
      </trkpt>
      <trkpt lat="47.21019" lon="-1.50178">
        <ele>52</ele>
        <time>2021-09-12T09:57:29.000Z</time>
      </trkpt>
      <trkpt lat="47.21024" lon="-1.50157">
        <ele>53</ele>
        <time>2021-09-12T09:57:31.000Z</time>
      </trkpt>
      <trkpt lat="47.21028" lon="-1.50138">
        <ele>52</ele>
        <time>2021-09-12T09:57:33.000Z</time>
      </trkpt>
      <trkpt lat="47.21033" lon="-1.50119">
        <ele>52</ele>
        <time>2021-09-12T09:57:35.000Z</time>
      </trkpt>
      <trkpt lat="47.21038" lon="-1.50099">
        <ele>52</ele>
        <time>2021-09-12T09:57:37.000Z</time>
      </trkpt>
      <trkpt lat="47.21042" lon="-1.5008">
        <ele>52</ele>
        <time>2021-09-12T09:57:39.000Z</time>
      </trkpt>
      <trkpt lat="47.21048" lon="-1.50061">
        <ele>52</ele>
        <time>2021-09-12T09:57:41.000Z</time>
      </trkpt>
      <trkpt lat="47.21053" lon="-1.50042">
        <ele>51</ele>
        <time>2021-09-12T09:57:43.000Z</time>
      </trkpt>
      <trkpt lat="47.21057" lon="-1.50022">
        <ele>51</ele>
        <time>2021-09-12T09:57:45.000Z</time>
      </trkpt>
      <trkpt lat="47.21063" lon="-1.50002">
        <ele>51</ele>
        <time>2021-09-12T09:57:47.000Z</time>
      </trkpt>
      <trkpt lat="47.21068" lon="-1.49982">
        <ele>51</ele>
        <time>2021-09-12T09:57:49.000Z</time>
      </trkpt>
      <trkpt lat="47.21073" lon="-1.49963">
        <ele>50</ele>
        <time>2021-09-12T09:57:51.000Z</time>
      </trkpt>
      <trkpt lat="47.21078" lon="-1.49944">
        <ele>50</ele>
        <time>2021-09-12T09:57:53.000Z</time>
      </trkpt>
      <trkpt lat="47.21083" lon="-1.49925">
        <ele>50</ele>
        <time>2021-09-12T09:57:55.000Z</time>
      </trkpt>
      <trkpt lat="47.21088" lon="-1.49907">
        <ele>51</ele>
        <time>2021-09-12T09:57:57.000Z</time>
      </trkpt>
      <trkpt lat="47.21094" lon="-1.4989">
        <ele>51</ele>
        <time>2021-09-12T09:57:59.000Z</time>
      </trkpt>
      <trkpt lat="47.21099" lon="-1.49872">
        <ele>50</ele>
        <time>2021-09-12T09:58:01.000Z</time>
      </trkpt>
      <trkpt lat="47.211" lon="-1.49852">
        <ele>50</ele>
        <time>2021-09-12T09:58:03.000Z</time>
      </trkpt>
      <trkpt lat="47.21104" lon="-1.49832">
        <ele>51</ele>
        <time>2021-09-12T09:58:05.000Z</time>
      </trkpt>
      <trkpt lat="47.21108" lon="-1.49812">
        <ele>51</ele>
        <time>2021-09-12T09:58:07.000Z</time>
      </trkpt>
      <trkpt lat="47.21111" lon="-1.49791">
        <ele>51</ele>
        <time>2021-09-12T09:58:09.000Z</time>
      </trkpt>
      <trkpt lat="47.21113" lon="-1.49771">
        <ele>50</ele>
        <time>2021-09-12T09:58:11.000Z</time>
      </trkpt>
      <trkpt lat="47.21115" lon="-1.49751">
        <ele>51</ele>
        <time>2021-09-12T09:58:13.000Z</time>
      </trkpt>
      <trkpt lat="47.21117" lon="-1.4973">
        <ele>51</ele>
        <time>2021-09-12T09:58:15.000Z</time>
      </trkpt>
      <trkpt lat="47.21119" lon="-1.4971">
        <ele>51</ele>
        <time>2021-09-12T09:58:17.000Z</time>
      </trkpt>
      <trkpt lat="47.2112" lon="-1.49692">
        <ele>51</ele>
        <time>2021-09-12T09:58:19.000Z</time>
      </trkpt>
      <trkpt lat="47.21122" lon="-1.49673">
        <ele>52</ele>
        <time>2021-09-12T09:58:21.000Z</time>
      </trkpt>
      <trkpt lat="47.21123" lon="-1.49654">
        <ele>52</ele>
        <time>2021-09-12T09:58:23.000Z</time>
      </trkpt>
      <trkpt lat="47.21125" lon="-1.49634">
        <ele>52</ele>
        <time>2021-09-12T09:58:25.000Z</time>
      </trkpt>
      <trkpt lat="47.21126" lon="-1.49614">
        <ele>52</ele>
        <time>2021-09-12T09:58:27.000Z</time>
      </trkpt>
      <trkpt lat="47.21133" lon="-1.49599">
        <ele>52</ele>
        <time>2021-09-12T09:58:29.000Z</time>
      </trkpt>
      <trkpt lat="47.21138" lon="-1.49581">
        <ele>51</ele>
        <time>2021-09-12T09:58:31.000Z</time>
      </trkpt>
      <trkpt lat="47.21135" lon="-1.49561">
        <ele>51</ele>
        <time>2021-09-12T09:58:33.000Z</time>
      </trkpt>
      <trkpt lat="47.2113" lon="-1.49545">
        <ele>51</ele>
        <time>2021-09-12T09:58:35.000Z</time>
      </trkpt>
      <trkpt lat="47.21128" lon="-1.49524">
        <ele>52</ele>
        <time>2021-09-12T09:58:37.000Z</time>
      </trkpt>
      <trkpt lat="47.21128" lon="-1.49504">
        <ele>52</ele>
        <time>2021-09-12T09:58:39.000Z</time>
      </trkpt>
      <trkpt lat="47.21128" lon="-1.49483">
        <ele>52</ele>
        <time>2021-09-12T09:58:41.000Z</time>
      </trkpt>
      <trkpt lat="47.21128" lon="-1.49463">
        <ele>52</ele>
        <time>2021-09-12T09:58:43.000Z</time>
      </trkpt>
      <trkpt lat="47.21129" lon="-1.49443">
        <ele>52</ele>
        <time>2021-09-12T09:58:45.000Z</time>
      </trkpt>
      <trkpt lat="47.2113" lon="-1.49422">
        <ele>52</ele>
        <time>2021-09-12T09:58:47.000Z</time>
      </trkpt>
      <trkpt lat="47.21131" lon="-1.49401">
        <ele>52</ele>
        <time>2021-09-12T09:58:49.000Z</time>
      </trkpt>
      <trkpt lat="47.21131" lon="-1.4938">
        <ele>51</ele>
        <time>2021-09-12T09:58:51.000Z</time>
      </trkpt>
      <trkpt lat="47.21132" lon="-1.4936">
        <ele>51</ele>
        <time>2021-09-12T09:58:53.000Z</time>
      </trkpt>
      <trkpt lat="47.21134" lon="-1.49339">
        <ele>51</ele>
        <time>2021-09-12T09:58:55.000Z</time>
      </trkpt>
      <trkpt lat="47.21134" lon="-1.49319">
        <ele>51</ele>
        <time>2021-09-12T09:58:57.000Z</time>
      </trkpt>
      <trkpt lat="47.21135" lon="-1.49299">
        <ele>52</ele>
        <time>2021-09-12T09:58:59.000Z</time>
      </trkpt>
      <trkpt lat="47.21136" lon="-1.4928">
        <ele>52</ele>
        <time>2021-09-12T09:59:01.000Z</time>
      </trkpt>
      <trkpt lat="47.21137" lon="-1.4926">
        <ele>52</ele>
        <time>2021-09-12T09:59:03.000Z</time>
      </trkpt>
      <trkpt lat="47.21139" lon="-1.49239">
        <ele>52</ele>
        <time>2021-09-12T09:59:05.000Z</time>
      </trkpt>
      <trkpt lat="47.2114" lon="-1.49218">
        <ele>51</ele>
        <time>2021-09-12T09:59:07.000Z</time>
      </trkpt>
      <trkpt lat="47.21142" lon="-1.49198">
        <ele>51</ele>
        <time>2021-09-12T09:59:09.000Z</time>
      </trkpt>
      <trkpt lat="47.21144" lon="-1.49179">
        <ele>52</ele>
        <time>2021-09-12T09:59:11.000Z</time>
      </trkpt>
      <trkpt lat="47.21146" lon="-1.4916">
        <ele>53</ele>
        <time>2021-09-12T09:59:13.000Z</time>
      </trkpt>
      <trkpt lat="47.2115" lon="-1.49142">
        <ele>53</ele>
        <time>2021-09-12T09:59:15.000Z</time>
      </trkpt>
      <trkpt lat="47.21152" lon="-1.49123">
        <ele>52</ele>
        <time>2021-09-12T09:59:17.000Z</time>
      </trkpt>
      <trkpt lat="47.21156" lon="-1.49105">
        <ele>53</ele>
        <time>2021-09-12T09:59:19.000Z</time>
      </trkpt>
      <trkpt lat="47.21163" lon="-1.49087">
        <ele>51</ele>
        <time>2021-09-12T09:59:21.000Z</time>
      </trkpt>
      <trkpt lat="47.21161" lon="-1.49066">
        <ele>49</ele>
        <time>2021-09-12T09:59:23.000Z</time>
      </trkpt>
      <trkpt lat="47.21154" lon="-1.4905">
        <ele>50</ele>
        <time>2021-09-12T09:59:25.000Z</time>
      </trkpt>
      <trkpt lat="47.21155" lon="-1.49033">
        <ele>51</ele>
        <time>2021-09-12T09:59:27.000Z</time>
      </trkpt>
      <trkpt lat="47.21158" lon="-1.49013">
        <ele>51</ele>
        <time>2021-09-12T09:59:29.000Z</time>
      </trkpt>
      <trkpt lat="47.21161" lon="-1.48994">
        <ele>51</ele>
        <time>2021-09-12T09:59:31.000Z</time>
      </trkpt>
      <trkpt lat="47.21165" lon="-1.48974">
        <ele>51</ele>
        <time>2021-09-12T09:59:33.000Z</time>
      </trkpt>
      <trkpt lat="47.21169" lon="-1.48955">
        <ele>52</ele>
        <time>2021-09-12T09:59:35.000Z</time>
      </trkpt>
      <trkpt lat="47.21172" lon="-1.48936">
        <ele>52</ele>
        <time>2021-09-12T09:59:37.000Z</time>
      </trkpt>
      <trkpt lat="47.21176" lon="-1.48917">
        <ele>52</ele>
        <time>2021-09-12T09:59:39.000Z</time>
      </trkpt>
      <trkpt lat="47.2118" lon="-1.48898">
        <ele>53</ele>
        <time>2021-09-12T09:59:41.000Z</time>
      </trkpt>
      <trkpt lat="47.21184" lon="-1.48879">
        <ele>52</ele>
        <time>2021-09-12T09:59:43.000Z</time>
      </trkpt>
      <trkpt lat="47.21187" lon="-1.4886">
        <ele>52</ele>
        <time>2021-09-12T09:59:45.000Z</time>
      </trkpt>
      <trkpt lat="47.2119" lon="-1.48842">
        <ele>51</ele>
        <time>2021-09-12T09:59:47.000Z</time>
      </trkpt>
      <trkpt lat="47.21193" lon="-1.48824">
        <ele>51</ele>
        <time>2021-09-12T09:59:49.000Z</time>
      </trkpt>
      <trkpt lat="47.21197" lon="-1.48805">
        <ele>52</ele>
        <time>2021-09-12T09:59:51.000Z</time>
      </trkpt>
      <trkpt lat="47.212" lon="-1.48787">
        <ele>52</ele>
        <time>2021-09-12T09:59:53.000Z</time>
      </trkpt>
      <trkpt lat="47.21205" lon="-1.48768">
        <ele>52</ele>
        <time>2021-09-12T09:59:55.000Z</time>
      </trkpt>
      <trkpt lat="47.21209" lon="-1.48749">
        <ele>52</ele>
        <time>2021-09-12T09:59:57.000Z</time>
      </trkpt>
      <trkpt lat="47.21214" lon="-1.4873">
        <ele>52</ele>
        <time>2021-09-12T09:59:59.000Z</time>
      </trkpt>
      <trkpt lat="47.21218" lon="-1.48712">
        <ele>52</ele>
        <time>2021-09-12T10:00:01.000Z</time>
      </trkpt>
      <trkpt lat="47.21222" lon="-1.48694">
        <ele>52</ele>
        <time>2021-09-12T10:00:03.000Z</time>
      </trkpt>
      <trkpt lat="47.21227" lon="-1.48675">
        <ele>53</ele>
        <time>2021-09-12T10:00:05.000Z</time>
      </trkpt>
      <trkpt lat="47.21232" lon="-1.48657">
        <ele>52</ele>
        <time>2021-09-12T10:00:07.000Z</time>
      </trkpt>
      <trkpt lat="47.21237" lon="-1.48639">
        <ele>52</ele>
        <time>2021-09-12T10:00:09.000Z</time>
      </trkpt>
      <trkpt lat="47.21242" lon="-1.48621">
        <ele>52</ele>
        <time>2021-09-12T10:00:11.000Z</time>
      </trkpt>
      <trkpt lat="47.21247" lon="-1.48602">
        <ele>52</ele>
        <time>2021-09-12T10:00:13.000Z</time>
      </trkpt>
      <trkpt lat="47.21252" lon="-1.48584">
        <ele>53</ele>
        <time>2021-09-12T10:00:15.000Z</time>
      </trkpt>
      <trkpt lat="47.21256" lon="-1.48566">
        <ele>52</ele>
        <time>2021-09-12T10:00:17.000Z</time>
      </trkpt>
      <trkpt lat="47.21261" lon="-1.48548">
        <ele>52</ele>
        <time>2021-09-12T10:00:19.000Z</time>
      </trkpt>
      <trkpt lat="47.21267" lon="-1.4853">
        <ele>52</ele>
        <time>2021-09-12T10:00:21.000Z</time>
      </trkpt>
      <trkpt lat="47.21277" lon="-1.48519">
        <ele>53</ele>
        <time>2021-09-12T10:00:23.000Z</time>
      </trkpt>
      <trkpt lat="47.2129" lon="-1.48513">
        <ele>53</ele>
        <time>2021-09-12T10:00:25.000Z</time>
      </trkpt>
      <trkpt lat="47.213" lon="-1.48499">
        <ele>54</ele>
        <time>2021-09-12T10:00:27.000Z</time>
      </trkpt>
      <trkpt lat="47.21301" lon="-1.48479">
        <ele>55</ele>
        <time>2021-09-12T10:00:29.000Z</time>
      </trkpt>
      <trkpt lat="47.21304" lon="-1.48458">
        <ele>55</ele>
        <time>2021-09-12T10:00:31.000Z</time>
      </trkpt>
      <trkpt lat="47.21309" lon="-1.48439">
        <ele>55</ele>
        <time>2021-09-12T10:00:33.000Z</time>
      </trkpt>
      <trkpt lat="47.21314" lon="-1.48418">
        <ele>54</ele>
        <time>2021-09-12T10:00:35.000Z</time>
      </trkpt>
      <trkpt lat="47.2132" lon="-1.484">
        <ele>54</ele>
        <time>2021-09-12T10:00:37.000Z</time>
      </trkpt>
      <trkpt lat="47.21325" lon="-1.48381">
        <ele>53</ele>
        <time>2021-09-12T10:00:39.000Z</time>
      </trkpt>
      <trkpt lat="47.2133" lon="-1.48362">
        <ele>53</ele>
        <time>2021-09-12T10:00:41.000Z</time>
      </trkpt>
      <trkpt lat="47.21336" lon="-1.48345">
        <ele>53</ele>
        <time>2021-09-12T10:00:43.000Z</time>
      </trkpt>
      <trkpt lat="47.21341" lon="-1.48328">
        <ele>53</ele>
        <time>2021-09-12T10:00:45.000Z</time>
      </trkpt>
      <trkpt lat="47.21347" lon="-1.4831">
        <ele>53</ele>
        <time>2021-09-12T10:00:47.000Z</time>
      </trkpt>
      <trkpt lat="47.21353" lon="-1.48292">
        <ele>53</ele>
        <time>2021-09-12T10:00:49.000Z</time>
      </trkpt>
      <trkpt lat="47.21359" lon="-1.48274">
        <ele>52</ele>
        <time>2021-09-12T10:00:51.000Z</time>
      </trkpt>
      <trkpt lat="47.21365" lon="-1.48256">
        <ele>52</ele>
        <time>2021-09-12T10:00:53.000Z</time>
      </trkpt>
      <trkpt lat="47.21371" lon="-1.48238">
        <ele>53</ele>
        <time>2021-09-12T10:00:55.000Z</time>
      </trkpt>
      <trkpt lat="47.21377" lon="-1.48221">
        <ele>53</ele>
        <time>2021-09-12T10:00:57.000Z</time>
      </trkpt>
      <trkpt lat="47.21384" lon="-1.48205">
        <ele>53</ele>
        <time>2021-09-12T10:00:59.000Z</time>
      </trkpt>
      <trkpt lat="47.21391" lon="-1.48188">
        <ele>54</ele>
        <time>2021-09-12T10:01:01.000Z</time>
      </trkpt>
      <trkpt lat="47.21399" lon="-1.48172">
        <ele>53</ele>
        <time>2021-09-12T10:01:03.000Z</time>
      </trkpt>
      <trkpt lat="47.21408" lon="-1.48156">
        <ele>54</ele>
        <time>2021-09-12T10:01:05.000Z</time>
      </trkpt>
      <trkpt lat="47.21415" lon="-1.4814">
        <ele>54</ele>
        <time>2021-09-12T10:01:07.000Z</time>
      </trkpt>
      <trkpt lat="47.21424" lon="-1.48125">
        <ele>54</ele>
        <time>2021-09-12T10:01:09.000Z</time>
      </trkpt>
      <trkpt lat="47.21432" lon="-1.48109">
        <ele>54</ele>
        <time>2021-09-12T10:01:11.000Z</time>
      </trkpt>
      <trkpt lat="47.21441" lon="-1.48094">
        <ele>54</ele>
        <time>2021-09-12T10:01:13.000Z</time>
      </trkpt>
      <trkpt lat="47.2145" lon="-1.4808">
        <ele>54</ele>
        <time>2021-09-12T10:01:15.000Z</time>
      </trkpt>
      <trkpt lat="47.21459" lon="-1.48066">
        <ele>53</ele>
        <time>2021-09-12T10:01:17.000Z</time>
      </trkpt>
      <trkpt lat="47.21468" lon="-1.48053">
        <ele>54</ele>
        <time>2021-09-12T10:01:19.000Z</time>
      </trkpt>
      <trkpt lat="47.21479" lon="-1.4804">
        <ele>54</ele>
        <time>2021-09-12T10:01:21.000Z</time>
      </trkpt>
      <trkpt lat="47.21489" lon="-1.48028">
        <ele>54</ele>
        <time>2021-09-12T10:01:23.000Z</time>
      </trkpt>
      <trkpt lat="47.21499" lon="-1.48016">
        <ele>54</ele>
        <time>2021-09-12T10:01:25.000Z</time>
      </trkpt>
      <trkpt lat="47.21509" lon="-1.48005">
        <ele>54</ele>
        <time>2021-09-12T10:01:27.000Z</time>
      </trkpt>
      <trkpt lat="47.21518" lon="-1.47994">
        <ele>55</ele>
        <time>2021-09-12T10:01:29.000Z</time>
      </trkpt>
      <trkpt lat="47.21527" lon="-1.47983">
        <ele>55</ele>
        <time>2021-09-12T10:01:31.000Z</time>
      </trkpt>
      <trkpt lat="47.21537" lon="-1.47973">
        <ele>55</ele>
        <time>2021-09-12T10:01:33.000Z</time>
      </trkpt>
      <trkpt lat="47.21548" lon="-1.47963">
        <ele>54</ele>
        <time>2021-09-12T10:01:35.000Z</time>
      </trkpt>
      <trkpt lat="47.21558" lon="-1.47953">
        <ele>54</ele>
        <time>2021-09-12T10:01:37.000Z</time>
      </trkpt>
      <trkpt lat="47.21569" lon="-1.47943">
        <ele>54</ele>
        <time>2021-09-12T10:01:39.000Z</time>
      </trkpt>
      <trkpt lat="47.2158" lon="-1.47934">
        <ele>54</ele>
        <time>2021-09-12T10:01:41.000Z</time>
      </trkpt>
      <trkpt lat="47.2159" lon="-1.47925">
        <ele>54</ele>
        <time>2021-09-12T10:01:43.000Z</time>
      </trkpt>
      <trkpt lat="47.216" lon="-1.47916">
        <ele>54</ele>
        <time>2021-09-12T10:01:45.000Z</time>
      </trkpt>
      <trkpt lat="47.2161" lon="-1.47906">
        <ele>54</ele>
        <time>2021-09-12T10:01:47.000Z</time>
      </trkpt>
      <trkpt lat="47.2162" lon="-1.47898">
        <ele>54</ele>
        <time>2021-09-12T10:01:49.000Z</time>
      </trkpt>
      <trkpt lat="47.21629" lon="-1.47889">
        <ele>54</ele>
        <time>2021-09-12T10:01:51.000Z</time>
      </trkpt>
      <trkpt lat="47.21639" lon="-1.4788">
        <ele>54</ele>
        <time>2021-09-12T10:01:53.000Z</time>
      </trkpt>
      <trkpt lat="47.21651" lon="-1.47871">
        <ele>54</ele>
        <time>2021-09-12T10:01:55.000Z</time>
      </trkpt>
      <trkpt lat="47.21661" lon="-1.47862">
        <ele>54</ele>
        <time>2021-09-12T10:01:57.000Z</time>
      </trkpt>
      <trkpt lat="47.21671" lon="-1.47851">
        <ele>54</ele>
        <time>2021-09-12T10:01:59.000Z</time>
      </trkpt>
      <trkpt lat="47.2168" lon="-1.4784">
        <ele>54</ele>
        <time>2021-09-12T10:02:01.000Z</time>
      </trkpt>
      <trkpt lat="47.2169" lon="-1.47831">
        <ele>54</ele>
        <time>2021-09-12T10:02:03.000Z</time>
      </trkpt>
      <trkpt lat="47.217" lon="-1.47822">
        <ele>54</ele>
        <time>2021-09-12T10:02:05.000Z</time>
      </trkpt>
      <trkpt lat="47.2171" lon="-1.47813">
        <ele>54</ele>
        <time>2021-09-12T10:02:07.000Z</time>
      </trkpt>
      <trkpt lat="47.2172" lon="-1.47804">
        <ele>54</ele>
        <time>2021-09-12T10:02:09.000Z</time>
      </trkpt>
      <trkpt lat="47.2173" lon="-1.47795">
        <ele>54</ele>
        <time>2021-09-12T10:02:11.000Z</time>
      </trkpt>
      <trkpt lat="47.2174" lon="-1.47787">
        <ele>54</ele>
        <time>2021-09-12T10:02:13.000Z</time>
      </trkpt>
      <trkpt lat="47.2175" lon="-1.47777">
        <ele>54</ele>
        <time>2021-09-12T10:02:15.000Z</time>
      </trkpt>
      <trkpt lat="47.2176" lon="-1.47769">
        <ele>54</ele>
        <time>2021-09-12T10:02:17.000Z</time>
      </trkpt>
      <trkpt lat="47.21771" lon="-1.4776">
        <ele>54</ele>
        <time>2021-09-12T10:02:19.000Z</time>
      </trkpt>
      <trkpt lat="47.21781" lon="-1.4775">
        <ele>54</ele>
        <time>2021-09-12T10:02:21.000Z</time>
      </trkpt>
      <trkpt lat="47.21791" lon="-1.47742">
        <ele>53</ele>
        <time>2021-09-12T10:02:23.000Z</time>
      </trkpt>
      <trkpt lat="47.21802" lon="-1.47734">
        <ele>53</ele>
        <time>2021-09-12T10:02:25.000Z</time>
      </trkpt>
      <trkpt lat="47.21812" lon="-1.47725">
        <ele>54</ele>
        <time>2021-09-12T10:02:27.000Z</time>
      </trkpt>
      <trkpt lat="47.21822" lon="-1.47718">
        <ele>54</ele>
        <time>2021-09-12T10:02:29.000Z</time>
      </trkpt>
      <trkpt lat="47.21832" lon="-1.47709">
        <ele>54</ele>
        <time>2021-09-12T10:02:31.000Z</time>
      </trkpt>
      <trkpt lat="47.21843" lon="-1.477">
        <ele>54</ele>
        <time>2021-09-12T10:02:33.000Z</time>
      </trkpt>
      <trkpt lat="47.21854" lon="-1.47691">
        <ele>53</ele>
        <time>2021-09-12T10:02:35.000Z</time>
      </trkpt>
      <trkpt lat="47.21865" lon="-1.47681">
        <ele>53</ele>
        <time>2021-09-12T10:02:37.000Z</time>
      </trkpt>
      <trkpt lat="47.21876" lon="-1.47671">
        <ele>53</ele>
        <time>2021-09-12T10:02:39.000Z</time>
      </trkpt>
      <trkpt lat="47.21887" lon="-1.4766">
        <ele>53</ele>
        <time>2021-09-12T10:02:41.000Z</time>
      </trkpt>
      <trkpt lat="47.21897" lon="-1.4765">
        <ele>53</ele>
        <time>2021-09-12T10:02:43.000Z</time>
      </trkpt>
      <trkpt lat="47.21908" lon="-1.47641">
        <ele>53</ele>
        <time>2021-09-12T10:02:45.000Z</time>
      </trkpt>
      <trkpt lat="47.21919" lon="-1.47631">
        <ele>53</ele>
        <time>2021-09-12T10:02:47.000Z</time>
      </trkpt>
      <trkpt lat="47.2193" lon="-1.47621">
        <ele>53</ele>
        <time>2021-09-12T10:02:49.000Z</time>
      </trkpt>
      <trkpt lat="47.21941" lon="-1.47611">
        <ele>52</ele>
        <time>2021-09-12T10:02:51.000Z</time>
      </trkpt>
      <trkpt lat="47.21952" lon="-1.47601">
        <ele>52</ele>
        <time>2021-09-12T10:02:53.000Z</time>
      </trkpt>
      <trkpt lat="47.21963" lon="-1.47591">
        <ele>52</ele>
        <time>2021-09-12T10:02:55.000Z</time>
      </trkpt>
      <trkpt lat="47.21973" lon="-1.47581">
        <ele>52</ele>
        <time>2021-09-12T10:02:57.000Z</time>
      </trkpt>
      <trkpt lat="47.21984" lon="-1.47572">
        <ele>53</ele>
        <time>2021-09-12T10:02:59.000Z</time>
      </trkpt>
      <trkpt lat="47.21995" lon="-1.47561">
        <ele>53</ele>
        <time>2021-09-12T10:03:01.000Z</time>
      </trkpt>
      <trkpt lat="47.22007" lon="-1.4755">
        <ele>53</ele>
        <time>2021-09-12T10:03:03.000Z</time>
      </trkpt>
      <trkpt lat="47.22018" lon="-1.4754">
        <ele>52</ele>
        <time>2021-09-12T10:03:05.000Z</time>
      </trkpt>
      <trkpt lat="47.22029" lon="-1.47529">
        <ele>52</ele>
        <time>2021-09-12T10:03:07.000Z</time>
      </trkpt>
      <trkpt lat="47.22041" lon="-1.47519">
        <ele>51</ele>
        <time>2021-09-12T10:03:09.000Z</time>
      </trkpt>
      <trkpt lat="47.22053" lon="-1.47509">
        <ele>51</ele>
        <time>2021-09-12T10:03:11.000Z</time>
      </trkpt>
      <trkpt lat="47.22064" lon="-1.47498">
        <ele>51</ele>
        <time>2021-09-12T10:03:13.000Z</time>
      </trkpt>
      <trkpt lat="47.22075" lon="-1.47488">
        <ele>51</ele>
        <time>2021-09-12T10:03:15.000Z</time>
      </trkpt>
      <trkpt lat="47.22086" lon="-1.47478">
        <ele>52</ele>
        <time>2021-09-12T10:03:17.000Z</time>
      </trkpt>
      <trkpt lat="47.22097" lon="-1.47468">
        <ele>52</ele>
        <time>2021-09-12T10:03:19.000Z</time>
      </trkpt>
      <trkpt lat="47.22108" lon="-1.47459">
        <ele>52</ele>
        <time>2021-09-12T10:03:21.000Z</time>
      </trkpt>
      <trkpt lat="47.22118" lon="-1.47451">
        <ele>52</ele>
        <time>2021-09-12T10:03:23.000Z</time>
      </trkpt>
      <trkpt lat="47.22129" lon="-1.47442">
        <ele>52</ele>
        <time>2021-09-12T10:03:25.000Z</time>
      </trkpt>
      <trkpt lat="47.2214" lon="-1.47433">
        <ele>52</ele>
        <time>2021-09-12T10:03:27.000Z</time>
      </trkpt>
      <trkpt lat="47.2215" lon="-1.47424">
        <ele>53</ele>
        <time>2021-09-12T10:03:29.000Z</time>
      </trkpt>
      <trkpt lat="47.22161" lon="-1.47415">
        <ele>53</ele>
        <time>2021-09-12T10:03:31.000Z</time>
      </trkpt>
      <trkpt lat="47.22171" lon="-1.47406">
        <ele>53</ele>
        <time>2021-09-12T10:03:33.000Z</time>
      </trkpt>
      <trkpt lat="47.22182" lon="-1.47398">
        <ele>53</ele>
        <time>2021-09-12T10:03:35.000Z</time>
      </trkpt>
      <trkpt lat="47.22192" lon="-1.47388">
        <ele>53</ele>
        <time>2021-09-12T10:03:37.000Z</time>
      </trkpt>
      <trkpt lat="47.22202" lon="-1.4738">
        <ele>54</ele>
        <time>2021-09-12T10:03:39.000Z</time>
      </trkpt>
      <trkpt lat="47.22211" lon="-1.47372">
        <ele>54</ele>
        <time>2021-09-12T10:03:41.000Z</time>
      </trkpt>
      <trkpt lat="47.22223" lon="-1.47366">
        <ele>54</ele>
        <time>2021-09-12T10:03:43.000Z</time>
      </trkpt>
      <trkpt lat="47.22235" lon="-1.4736">
        <ele>54</ele>
        <time>2021-09-12T10:03:45.000Z</time>
      </trkpt>
      <trkpt lat="47.22247" lon="-1.47353">
        <ele>54</ele>
        <time>2021-09-12T10:03:47.000Z</time>
      </trkpt>
      <trkpt lat="47.22258" lon="-1.47343">
        <ele>54</ele>
        <time>2021-09-12T10:03:49.000Z</time>
      </trkpt>
      <trkpt lat="47.22268" lon="-1.47333">
        <ele>54</ele>
        <time>2021-09-12T10:03:51.000Z</time>
      </trkpt>
      <trkpt lat="47.22279" lon="-1.47325">
        <ele>55</ele>
        <time>2021-09-12T10:03:53.000Z</time>
      </trkpt>
      <trkpt lat="47.2229" lon="-1.47316">
        <ele>55</ele>
        <time>2021-09-12T10:03:55.000Z</time>
      </trkpt>
      <trkpt lat="47.223" lon="-1.47307">
        <ele>54</ele>
        <time>2021-09-12T10:03:57.000Z</time>
      </trkpt>
      <trkpt lat="47.22312" lon="-1.47298">
        <ele>54</ele>
        <time>2021-09-12T10:03:59.000Z</time>
      </trkpt>
      <trkpt lat="47.22323" lon="-1.47288">
        <ele>54</ele>
        <time>2021-09-12T10:04:01.000Z</time>
      </trkpt>
      <trkpt lat="47.22335" lon="-1.47279">
        <ele>54</ele>
        <time>2021-09-12T10:04:03.000Z</time>
      </trkpt>
      <trkpt lat="47.22346" lon="-1.47269">
        <ele>53</ele>
        <time>2021-09-12T10:04:05.000Z</time>
      </trkpt>
      <trkpt lat="47.22357" lon="-1.4726">
        <ele>53</ele>
        <time>2021-09-12T10:04:07.000Z</time>
      </trkpt>
      <trkpt lat="47.22368" lon="-1.4725">
        <ele>53</ele>
        <time>2021-09-12T10:04:09.000Z</time>
      </trkpt>
      <trkpt lat="47.22379" lon="-1.47241">
        <ele>53</ele>
        <time>2021-09-12T10:04:11.000Z</time>
      </trkpt>
      <trkpt lat="47.22389" lon="-1.47231">
        <ele>53</ele>
        <time>2021-09-12T10:04:13.000Z</time>
      </trkpt>
      <trkpt lat="47.22398" lon="-1.4722">
        <ele>53</ele>
        <time>2021-09-12T10:04:15.000Z</time>
      </trkpt>
      <trkpt lat="47.22408" lon="-1.47209">
        <ele>53</ele>
        <time>2021-09-12T10:04:17.000Z</time>
      </trkpt>
      <trkpt lat="47.22418" lon="-1.47198">
        <ele>53</ele>
        <time>2021-09-12T10:04:19.000Z</time>
      </trkpt>
      <trkpt lat="47.22428" lon="-1.47188">
        <ele>53</ele>
        <time>2021-09-12T10:04:21.000Z</time>
      </trkpt>
      <trkpt lat="47.22438" lon="-1.47178">
        <ele>54</ele>
        <time>2021-09-12T10:04:23.000Z</time>
      </trkpt>
      <trkpt lat="47.22448" lon="-1.47168">
        <ele>54</ele>
        <time>2021-09-12T10:04:25.000Z</time>
      </trkpt>
      <trkpt lat="47.22458" lon="-1.4716">
        <ele>54</ele>
        <time>2021-09-12T10:04:27.000Z</time>
      </trkpt>
      <trkpt lat="47.22469" lon="-1.47151">
        <ele>53</ele>
        <time>2021-09-12T10:04:29.000Z</time>
      </trkpt>
      <trkpt lat="47.2248" lon="-1.47144">
        <ele>53</ele>
        <time>2021-09-12T10:04:31.000Z</time>
      </trkpt>
      <trkpt lat="47.22491" lon="-1.47138">
        <ele>53</ele>
        <time>2021-09-12T10:04:33.000Z</time>
      </trkpt>
      <trkpt lat="47.22503" lon="-1.47133">
        <ele>52</ele>
        <time>2021-09-12T10:04:35.000Z</time>
      </trkpt>
      <trkpt lat="47.22514" lon="-1.47129">
        <ele>52</ele>
        <time>2021-09-12T10:04:37.000Z</time>
      </trkpt>
      <trkpt lat="47.22527" lon="-1.47127">
        <ele>52</ele>
        <time>2021-09-12T10:04:39.000Z</time>
      </trkpt>
      <trkpt lat="47.22539" lon="-1.47125">
        <ele>52</ele>
        <time>2021-09-12T10:04:41.000Z</time>
      </trkpt>
      <trkpt lat="47.22551" lon="-1.47122">
        <ele>52</ele>
        <time>2021-09-12T10:04:43.000Z</time>
      </trkpt>
      <trkpt lat="47.22563" lon="-1.4712">
        <ele>52</ele>
        <time>2021-09-12T10:04:45.000Z</time>
      </trkpt>
      <trkpt lat="47.22575" lon="-1.47114">
        <ele>52</ele>
        <time>2021-09-12T10:04:47.000Z</time>
      </trkpt>
      <trkpt lat="47.22586" lon="-1.47107">
        <ele>52</ele>
        <time>2021-09-12T10:04:49.000Z</time>
      </trkpt>
      <trkpt lat="47.22596" lon="-1.47098">
        <ele>52</ele>
        <time>2021-09-12T10:04:51.000Z</time>
      </trkpt>
      <trkpt lat="47.22605" lon="-1.47084">
        <ele>52</ele>
        <time>2021-09-12T10:04:53.000Z</time>
      </trkpt>
      <trkpt lat="47.22613" lon="-1.47069">
        <ele>52</ele>
        <time>2021-09-12T10:04:55.000Z</time>
      </trkpt>
      <trkpt lat="47.22621" lon="-1.47054">
        <ele>51</ele>
        <time>2021-09-12T10:04:57.000Z</time>
      </trkpt>
      <trkpt lat="47.2263" lon="-1.47039">
        <ele>51</ele>
        <time>2021-09-12T10:04:59.000Z</time>
      </trkpt>
      <trkpt lat="47.22639" lon="-1.47025">
        <ele>51</ele>
        <time>2021-09-12T10:05:01.000Z</time>
      </trkpt>
      <trkpt lat="47.22648" lon="-1.47013">
        <ele>51</ele>
        <time>2021-09-12T10:05:03.000Z</time>
      </trkpt>
      <trkpt lat="47.22658" lon="-1.47003">
        <ele>51</ele>
        <time>2021-09-12T10:05:05.000Z</time>
      </trkpt>
      <trkpt lat="47.22668" lon="-1.46993">
        <ele>50</ele>
        <time>2021-09-12T10:05:07.000Z</time>
      </trkpt>
      <trkpt lat="47.22678" lon="-1.46985">
        <ele>50</ele>
        <time>2021-09-12T10:05:09.000Z</time>
      </trkpt>
      <trkpt lat="47.22689" lon="-1.46977">
        <ele>50</ele>
        <time>2021-09-12T10:05:11.000Z</time>
      </trkpt>
      <trkpt lat="47.227" lon="-1.46971">
        <ele>51</ele>
        <time>2021-09-12T10:05:13.000Z</time>
      </trkpt>
      <trkpt lat="47.22711" lon="-1.46965">
        <ele>51</ele>
        <time>2021-09-12T10:05:15.000Z</time>
      </trkpt>
      <trkpt lat="47.22723" lon="-1.46961">
        <ele>50</ele>
        <time>2021-09-12T10:05:17.000Z</time>
      </trkpt>
      <trkpt lat="47.22734" lon="-1.46957">
        <ele>51</ele>
        <time>2021-09-12T10:05:19.000Z</time>
      </trkpt>
      <trkpt lat="47.22746" lon="-1.46955">
        <ele>51</ele>
        <time>2021-09-12T10:05:21.000Z</time>
      </trkpt>
      <trkpt lat="47.22758" lon="-1.46955">
        <ele>51</ele>
        <time>2021-09-12T10:05:23.000Z</time>
      </trkpt>
      <trkpt lat="47.22771" lon="-1.46954">
        <ele>51</ele>
        <time>2021-09-12T10:05:25.000Z</time>
      </trkpt>
      <trkpt lat="47.22783" lon="-1.46956">
        <ele>51</ele>
        <time>2021-09-12T10:05:27.000Z</time>
      </trkpt>
      <trkpt lat="47.22795" lon="-1.46958">
        <ele>51</ele>
        <time>2021-09-12T10:05:29.000Z</time>
      </trkpt>
      <trkpt lat="47.22807" lon="-1.46962">
        <ele>50</ele>
        <time>2021-09-12T10:05:31.000Z</time>
      </trkpt>
      <trkpt lat="47.22819" lon="-1.46967">
        <ele>50</ele>
        <time>2021-09-12T10:05:33.000Z</time>
      </trkpt>
      <trkpt lat="47.22831" lon="-1.46973">
        <ele>49</ele>
        <time>2021-09-12T10:05:35.000Z</time>
      </trkpt>
      <trkpt lat="47.22843" lon="-1.4698">
        <ele>49</ele>
        <time>2021-09-12T10:05:37.000Z</time>
      </trkpt>
      <trkpt lat="47.22855" lon="-1.46988">
        <ele>48</ele>
        <time>2021-09-12T10:05:39.000Z</time>
      </trkpt>
      <trkpt lat="47.22868" lon="-1.46994">
        <ele>48</ele>
        <time>2021-09-12T10:05:41.000Z</time>
      </trkpt>
      <trkpt lat="47.22881" lon="-1.47">
        <ele>47</ele>
        <time>2021-09-12T10:05:43.000Z</time>
      </trkpt>
      <trkpt lat="47.22895" lon="-1.47003">
        <ele>47</ele>
        <time>2021-09-12T10:05:45.000Z</time>
      </trkpt>
      <trkpt lat="47.22908" lon="-1.46997">
        <ele>47</ele>
        <time>2021-09-12T10:05:47.000Z</time>
      </trkpt>
      <trkpt lat="47.22916" lon="-1.46979">
        <ele>48</ele>
        <time>2021-09-12T10:05:49.000Z</time>
      </trkpt>
      <trkpt lat="47.22921" lon="-1.46961">
        <ele>48</ele>
        <time>2021-09-12T10:05:51.000Z</time>
      </trkpt>
      <trkpt lat="47.22924" lon="-1.46941">
        <ele>48</ele>
        <time>2021-09-12T10:05:53.000Z</time>
      </trkpt>
      <trkpt lat="47.22928" lon="-1.46922">
        <ele>48</ele>
        <time>2021-09-12T10:05:55.000Z</time>
      </trkpt>
      <trkpt lat="47.22932" lon="-1.46905">
        <ele>48</ele>
        <time>2021-09-12T10:05:57.000Z</time>
      </trkpt>
      <trkpt lat="47.22935" lon="-1.46888">
        <ele>48</ele>
        <time>2021-09-12T10:05:59.000Z</time>
      </trkpt>
      <trkpt lat="47.22938" lon="-1.46869">
        <ele>48</ele>
        <time>2021-09-12T10:06:01.000Z</time>
      </trkpt>
      <trkpt lat="47.22944" lon="-1.46851">
        <ele>48</ele>
        <time>2021-09-12T10:06:03.000Z</time>
      </trkpt>
      <trkpt lat="47.22952" lon="-1.46838">
        <ele>49</ele>
        <time>2021-09-12T10:06:05.000Z</time>
      </trkpt>
      <trkpt lat="47.22962" lon="-1.46828">
        <ele>49</ele>
        <time>2021-09-12T10:06:07.000Z</time>
      </trkpt>
      <trkpt lat="47.22972" lon="-1.46814">
        <ele>49</ele>
        <time>2021-09-12T10:06:09.000Z</time>
      </trkpt>
      <trkpt lat="47.22978" lon="-1.46796">
        <ele>50</ele>
        <time>2021-09-12T10:06:11.000Z</time>
      </trkpt>
      <trkpt lat="47.22984" lon="-1.46781">
        <ele>50</ele>
        <time>2021-09-12T10:06:13.000Z</time>
      </trkpt>
      <trkpt lat="47.22993" lon="-1.4677">
        <ele>50</ele>
        <time>2021-09-12T10:06:15.000Z</time>
      </trkpt>
      <trkpt lat="47.23003" lon="-1.46761">
        <ele>50</ele>
        <time>2021-09-12T10:06:17.000Z</time>
      </trkpt>
      <trkpt lat="47.23013" lon="-1.46753">
        <ele>50</ele>
        <time>2021-09-12T10:06:19.000Z</time>
      </trkpt>
      <trkpt lat="47.23022" lon="-1.46747">
        <ele>50</ele>
        <time>2021-09-12T10:06:21.000Z</time>
      </trkpt>
      <trkpt lat="47.23033" lon="-1.46743">
        <ele>51</ele>
        <time>2021-09-12T10:06:24.000Z</time>
      </trkpt>
      <trkpt lat="47.23043" lon="-1.4674">
        <ele>51</ele>
        <time>2021-09-12T10:06:29.000Z</time>
      </trkpt>
      <trkpt lat="47.23048" lon="-1.46724">
        <ele>52</ele>
        <time>2021-09-12T10:06:33.000Z</time>
      </trkpt>
      <trkpt lat="47.23049" lon="-1.4671">
        <ele>54</ele>
        <time>2021-09-12T10:06:35.000Z</time>
      </trkpt>
      <trkpt lat="47.23051" lon="-1.46692">
        <ele>55</ele>
        <time>2021-09-12T10:06:37.000Z</time>
      </trkpt>
      <trkpt lat="47.23055" lon="-1.46676">
        <ele>56</ele>
        <time>2021-09-12T10:06:39.000Z</time>
      </trkpt>
      <trkpt lat="47.23061" lon="-1.46658">
        <ele>55</ele>
        <time>2021-09-12T10:06:41.000Z</time>
      </trkpt>
      <trkpt lat="47.23068" lon="-1.46642">
        <ele>56</ele>
        <time>2021-09-12T10:06:43.000Z</time>
      </trkpt>
      <trkpt lat="47.23077" lon="-1.46628">
        <ele>55</ele>
        <time>2021-09-12T10:06:45.000Z</time>
      </trkpt>
      <trkpt lat="47.23087" lon="-1.46615">
        <ele>54</ele>
        <time>2021-09-12T10:06:47.000Z</time>
      </trkpt>
      <trkpt lat="47.23097" lon="-1.46603">
        <ele>54</ele>
        <time>2021-09-12T10:06:49.000Z</time>
      </trkpt>
      <trkpt lat="47.23108" lon="-1.46592">
        <ele>53</ele>
        <time>2021-09-12T10:06:51.000Z</time>
      </trkpt>
      <trkpt lat="47.23118" lon="-1.4658">
        <ele>52</ele>
        <time>2021-09-12T10:06:53.000Z</time>
      </trkpt>
      <trkpt lat="47.23129" lon="-1.46569">
        <ele>51</ele>
        <time>2021-09-12T10:06:55.000Z</time>
      </trkpt>
      <trkpt lat="47.23139" lon="-1.46558">
        <ele>51</ele>
        <time>2021-09-12T10:06:57.000Z</time>
      </trkpt>
      <trkpt lat="47.23149" lon="-1.46546">
        <ele>51</ele>
        <time>2021-09-12T10:06:59.000Z</time>
      </trkpt>
      <trkpt lat="47.23159" lon="-1.46535">
        <ele>51</ele>
        <time>2021-09-12T10:07:01.000Z</time>
      </trkpt>
      <trkpt lat="47.23169" lon="-1.46523">
        <ele>51</ele>
        <time>2021-09-12T10:07:03.000Z</time>
      </trkpt>
      <trkpt lat="47.23178" lon="-1.46512">
        <ele>50</ele>
        <time>2021-09-12T10:07:05.000Z</time>
      </trkpt>
      <trkpt lat="47.23188" lon="-1.465">
        <ele>50</ele>
        <time>2021-09-12T10:07:07.000Z</time>
      </trkpt>
      <trkpt lat="47.23197" lon="-1.46488">
        <ele>50</ele>
        <time>2021-09-12T10:07:09.000Z</time>
      </trkpt>
      <trkpt lat="47.23206" lon="-1.46476">
        <ele>51</ele>
        <time>2021-09-12T10:07:11.000Z</time>
      </trkpt>
      <trkpt lat="47.23215" lon="-1.46465">
        <ele>50</ele>
        <time>2021-09-12T10:07:13.000Z</time>
      </trkpt>
      <trkpt lat="47.23225" lon="-1.46453">
        <ele>50</ele>
        <time>2021-09-12T10:07:15.000Z</time>
      </trkpt>
      <trkpt lat="47.23234" lon="-1.46441">
        <ele>50</ele>
        <time>2021-09-12T10:07:17.000Z</time>
      </trkpt>
      <trkpt lat="47.23244" lon="-1.46428">
        <ele>50</ele>
        <time>2021-09-12T10:07:19.000Z</time>
      </trkpt>
      <trkpt lat="47.23253" lon="-1.46416">
        <ele>50</ele>
        <time>2021-09-12T10:07:21.000Z</time>
      </trkpt>
      <trkpt lat="47.23262" lon="-1.46403">
        <ele>50</ele>
        <time>2021-09-12T10:07:23.000Z</time>
      </trkpt>
      <trkpt lat="47.23272" lon="-1.46392">
        <ele>50</ele>
        <time>2021-09-12T10:07:25.000Z</time>
      </trkpt>
      <trkpt lat="47.23282" lon="-1.46381">
        <ele>50</ele>
        <time>2021-09-12T10:07:27.000Z</time>
      </trkpt>
      <trkpt lat="47.23292" lon="-1.4637">
        <ele>50</ele>
        <time>2021-09-12T10:07:29.000Z</time>
      </trkpt>
      <trkpt lat="47.23301" lon="-1.46357">
        <ele>50</ele>
        <time>2021-09-12T10:07:31.000Z</time>
      </trkpt>
      <trkpt lat="47.2331" lon="-1.46344">
        <ele>49</ele>
        <time>2021-09-12T10:07:33.000Z</time>
      </trkpt>
      <trkpt lat="47.23319" lon="-1.4633">
        <ele>49</ele>
        <time>2021-09-12T10:07:35.000Z</time>
      </trkpt>
      <trkpt lat="47.23328" lon="-1.46318">
        <ele>50</ele>
        <time>2021-09-12T10:07:37.000Z</time>
      </trkpt>
      <trkpt lat="47.23337" lon="-1.46306">
        <ele>50</ele>
        <time>2021-09-12T10:07:39.000Z</time>
      </trkpt>
      <trkpt lat="47.23346" lon="-1.46294">
        <ele>50</ele>
        <time>2021-09-12T10:07:41.000Z</time>
      </trkpt>
      <trkpt lat="47.2336" lon="-1.46276">
        <ele>50</ele>
        <time>2021-09-12T10:07:44.000Z</time>
      </trkpt>
      <trkpt lat="47.23369" lon="-1.46265">
        <ele>50</ele>
        <time>2021-09-12T10:07:46.000Z</time>
      </trkpt>
      <trkpt lat="47.23378" lon="-1.46253">
        <ele>50</ele>
        <time>2021-09-12T10:07:48.000Z</time>
      </trkpt>
      <trkpt lat="47.23392" lon="-1.46235">
        <ele>50</ele>
        <time>2021-09-12T10:07:51.000Z</time>
      </trkpt>
      <trkpt lat="47.23401" lon="-1.46222">
        <ele>50</ele>
        <time>2021-09-12T10:07:53.000Z</time>
      </trkpt>
      <trkpt lat="47.2341" lon="-1.46211">
        <ele>49</ele>
        <time>2021-09-12T10:07:55.000Z</time>
      </trkpt>
      <trkpt lat="47.2342" lon="-1.462">
        <ele>49</ele>
        <time>2021-09-12T10:07:57.000Z</time>
      </trkpt>
      <trkpt lat="47.2343" lon="-1.46189">
        <ele>49</ele>
        <time>2021-09-12T10:07:59.000Z</time>
      </trkpt>
      <trkpt lat="47.2344" lon="-1.46178">
        <ele>49</ele>
        <time>2021-09-12T10:08:01.000Z</time>
      </trkpt>
      <trkpt lat="47.2345" lon="-1.46168">
        <ele>50</ele>
        <time>2021-09-12T10:08:03.000Z</time>
      </trkpt>
      <trkpt lat="47.2346" lon="-1.46158">
        <ele>49</ele>
        <time>2021-09-12T10:08:05.000Z</time>
      </trkpt>
      <trkpt lat="47.23471" lon="-1.46148">
        <ele>49</ele>
        <time>2021-09-12T10:08:07.000Z</time>
      </trkpt>
      <trkpt lat="47.23482" lon="-1.46139">
        <ele>49</ele>
        <time>2021-09-12T10:08:09.000Z</time>
      </trkpt>
      <trkpt lat="47.23492" lon="-1.46129">
        <ele>49</ele>
        <time>2021-09-12T10:08:11.000Z</time>
      </trkpt>
      <trkpt lat="47.23502" lon="-1.46118">
        <ele>50</ele>
        <time>2021-09-12T10:08:13.000Z</time>
      </trkpt>
      <trkpt lat="47.2351" lon="-1.46108">
        <ele>50</ele>
        <time>2021-09-12T10:08:15.000Z</time>
      </trkpt>
      <trkpt lat="47.2352" lon="-1.46098">
        <ele>51</ele>
        <time>2021-09-12T10:08:17.000Z</time>
      </trkpt>
      <trkpt lat="47.23529" lon="-1.4609">
        <ele>51</ele>
        <time>2021-09-12T10:08:19.000Z</time>
      </trkpt>
      <trkpt lat="47.23539" lon="-1.46081">
        <ele>51</ele>
        <time>2021-09-12T10:08:21.000Z</time>
      </trkpt>
      <trkpt lat="47.2355" lon="-1.46072">
        <ele>51</ele>
        <time>2021-09-12T10:08:23.000Z</time>
      </trkpt>
      <trkpt lat="47.23561" lon="-1.46062">
        <ele>51</ele>
        <time>2021-09-12T10:08:25.000Z</time>
      </trkpt>
      <trkpt lat="47.23574" lon="-1.46057">
        <ele>50</ele>
        <time>2021-09-12T10:08:27.000Z</time>
      </trkpt>
      <trkpt lat="47.23588" lon="-1.4605">
        <ele>50</ele>
        <time>2021-09-12T10:08:29.000Z</time>
      </trkpt>
      <trkpt lat="47.236" lon="-1.46039">
        <ele>50</ele>
        <time>2021-09-12T10:08:31.000Z</time>
      </trkpt>
      <trkpt lat="47.23613" lon="-1.46028">
        <ele>50</ele>
        <time>2021-09-12T10:08:33.000Z</time>
      </trkpt>
      <trkpt lat="47.23626" lon="-1.46019">
        <ele>50</ele>
        <time>2021-09-12T10:08:35.000Z</time>
      </trkpt>
      <trkpt lat="47.23638" lon="-1.46013">
        <ele>50</ele>
        <time>2021-09-12T10:08:37.000Z</time>
      </trkpt>
      <trkpt lat="47.23651" lon="-1.46008">
        <ele>50</ele>
        <time>2021-09-12T10:08:39.000Z</time>
      </trkpt>
      <trkpt lat="47.23664" lon="-1.46005">
        <ele>50</ele>
        <time>2021-09-12T10:08:41.000Z</time>
      </trkpt>
      <trkpt lat="47.23677" lon="-1.46002">
        <ele>50</ele>
        <time>2021-09-12T10:08:43.000Z</time>
      </trkpt>
      <trkpt lat="47.2369" lon="-1.45999">
        <ele>49</ele>
        <time>2021-09-12T10:08:45.000Z</time>
      </trkpt>
      <trkpt lat="47.23703" lon="-1.45996">
        <ele>49</ele>
        <time>2021-09-12T10:08:47.000Z</time>
      </trkpt>
      <trkpt lat="47.23716" lon="-1.45993">
        <ele>49</ele>
        <time>2021-09-12T10:08:49.000Z</time>
      </trkpt>
      <trkpt lat="47.23729" lon="-1.4599">
        <ele>49</ele>
        <time>2021-09-12T10:08:51.000Z</time>
      </trkpt>
      <trkpt lat="47.23742" lon="-1.45987">
        <ele>49</ele>
        <time>2021-09-12T10:08:53.000Z</time>
      </trkpt>
      <trkpt lat="47.23754" lon="-1.45983">
        <ele>49</ele>
        <time>2021-09-12T10:08:55.000Z</time>
      </trkpt>
      <trkpt lat="47.23766" lon="-1.4598">
        <ele>50</ele>
        <time>2021-09-12T10:08:57.000Z</time>
      </trkpt>
      <trkpt lat="47.23777" lon="-1.45975">
        <ele>50</ele>
        <time>2021-09-12T10:08:59.000Z</time>
      </trkpt>
      <trkpt lat="47.23789" lon="-1.4597">
        <ele>51</ele>
        <time>2021-09-12T10:09:01.000Z</time>
      </trkpt>
      <trkpt lat="47.23801" lon="-1.45967">
        <ele>51</ele>
        <time>2021-09-12T10:09:03.000Z</time>
      </trkpt>
      <trkpt lat="47.23812" lon="-1.45961">
        <ele>50</ele>
        <time>2021-09-12T10:09:05.000Z</time>
      </trkpt>
      <trkpt lat="47.23824" lon="-1.45958">
        <ele>50</ele>
        <time>2021-09-12T10:09:07.000Z</time>
      </trkpt>
      <trkpt lat="47.23836" lon="-1.45955">
        <ele>50</ele>
        <time>2021-09-12T10:09:09.000Z</time>
      </trkpt>
      <trkpt lat="47.23849" lon="-1.45953">
        <ele>50</ele>
        <time>2021-09-12T10:09:11.000Z</time>
      </trkpt>
      <trkpt lat="47.23861" lon="-1.45949">
        <ele>50</ele>
        <time>2021-09-12T10:09:13.000Z</time>
      </trkpt>
      <trkpt lat="47.23873" lon="-1.45946">
        <ele>50</ele>
        <time>2021-09-12T10:09:15.000Z</time>
      </trkpt>
      <trkpt lat="47.23886" lon="-1.45942">
        <ele>50</ele>
        <time>2021-09-12T10:09:17.000Z</time>
      </trkpt>
      <trkpt lat="47.23899" lon="-1.45939">
        <ele>50</ele>
        <time>2021-09-12T10:09:19.000Z</time>
      </trkpt>
      <trkpt lat="47.23911" lon="-1.45935">
        <ele>50</ele>
        <time>2021-09-12T10:09:21.000Z</time>
      </trkpt>
      <trkpt lat="47.23923" lon="-1.45932">
        <ele>50</ele>
        <time>2021-09-12T10:09:23.000Z</time>
      </trkpt>
      <trkpt lat="47.23935" lon="-1.45929">
        <ele>50</ele>
        <time>2021-09-12T10:09:25.000Z</time>
      </trkpt>
      <trkpt lat="47.23947" lon="-1.45925">
        <ele>51</ele>
        <time>2021-09-12T10:09:27.000Z</time>
      </trkpt>
      <trkpt lat="47.23958" lon="-1.45916">
        <ele>51</ele>
        <time>2021-09-12T10:09:29.000Z</time>
      </trkpt>
      <trkpt lat="47.23968" lon="-1.45904">
        <ele>50</ele>
        <time>2021-09-12T10:09:31.000Z</time>
      </trkpt>
      <trkpt lat="47.23977" lon="-1.4589">
        <ele>50</ele>
        <time>2021-09-12T10:09:33.000Z</time>
      </trkpt>
      <trkpt lat="47.23986" lon="-1.45876">
        <ele>50</ele>
        <time>2021-09-12T10:09:35.000Z</time>
      </trkpt>
      <trkpt lat="47.23995" lon="-1.45862">
        <ele>50</ele>
        <time>2021-09-12T10:09:37.000Z</time>
      </trkpt>
      <trkpt lat="47.24004" lon="-1.45849">
        <ele>49</ele>
        <time>2021-09-12T10:09:39.000Z</time>
      </trkpt>
      <trkpt lat="47.24012" lon="-1.45834">
        <ele>49</ele>
        <time>2021-09-12T10:09:41.000Z</time>
      </trkpt>
      <trkpt lat="47.24021" lon="-1.4582">
        <ele>49</ele>
        <time>2021-09-12T10:09:43.000Z</time>
      </trkpt>
      <trkpt lat="47.2403" lon="-1.45807">
        <ele>49</ele>
        <time>2021-09-12T10:09:45.000Z</time>
      </trkpt>
      <trkpt lat="47.24039" lon="-1.45793">
        <ele>49</ele>
        <time>2021-09-12T10:09:47.000Z</time>
      </trkpt>
      <trkpt lat="47.24048" lon="-1.4578">
        <ele>49</ele>
        <time>2021-09-12T10:09:49.000Z</time>
      </trkpt>
      <trkpt lat="47.24057" lon="-1.45765">
        <ele>49</ele>
        <time>2021-09-12T10:09:51.000Z</time>
      </trkpt>
      <trkpt lat="47.24065" lon="-1.45752">
        <ele>49</ele>
        <time>2021-09-12T10:09:53.000Z</time>
      </trkpt>
      <trkpt lat="47.24074" lon="-1.45739">
        <ele>49</ele>
        <time>2021-09-12T10:09:55.000Z</time>
      </trkpt>
      <trkpt lat="47.24081" lon="-1.45725">
        <ele>49</ele>
        <time>2021-09-12T10:09:57.000Z</time>
      </trkpt>
      <trkpt lat="47.2409" lon="-1.45711">
        <ele>49</ele>
        <time>2021-09-12T10:09:59.000Z</time>
      </trkpt>
      <trkpt lat="47.24099" lon="-1.45697">
        <ele>48</ele>
        <time>2021-09-12T10:10:01.000Z</time>
      </trkpt>
      <trkpt lat="47.24107" lon="-1.45682">
        <ele>48</ele>
        <time>2021-09-12T10:10:03.000Z</time>
      </trkpt>
      <trkpt lat="47.24115" lon="-1.45667">
        <ele>48</ele>
        <time>2021-09-12T10:10:05.000Z</time>
      </trkpt>
      <trkpt lat="47.24122" lon="-1.45652">
        <ele>48</ele>
        <time>2021-09-12T10:10:07.000Z</time>
      </trkpt>
      <trkpt lat="47.24129" lon="-1.45636">
        <ele>48</ele>
        <time>2021-09-12T10:10:09.000Z</time>
      </trkpt>
      <trkpt lat="47.24135" lon="-1.4562">
        <ele>48</ele>
        <time>2021-09-12T10:10:11.000Z</time>
      </trkpt>
      <trkpt lat="47.24141" lon="-1.45603">
        <ele>48</ele>
        <time>2021-09-12T10:10:13.000Z</time>
      </trkpt>
      <trkpt lat="47.24147" lon="-1.45587">
        <ele>49</ele>
        <time>2021-09-12T10:10:15.000Z</time>
      </trkpt>
      <trkpt lat="47.24152" lon="-1.4557">
        <ele>49</ele>
        <time>2021-09-12T10:10:17.000Z</time>
      </trkpt>
      <trkpt lat="47.24157" lon="-1.45554">
        <ele>49</ele>
        <time>2021-09-12T10:10:19.000Z</time>
      </trkpt>
      <trkpt lat="47.24163" lon="-1.45537">
        <ele>49</ele>
        <time>2021-09-12T10:10:21.000Z</time>
      </trkpt>
      <trkpt lat="47.24168" lon="-1.4552">
        <ele>49</ele>
        <time>2021-09-12T10:10:23.000Z</time>
      </trkpt>
      <trkpt lat="47.24173" lon="-1.45503">
        <ele>49</ele>
        <time>2021-09-12T10:10:25.000Z</time>
      </trkpt>
      <trkpt lat="47.24177" lon="-1.45487">
        <ele>50</ele>
        <time>2021-09-12T10:10:27.000Z</time>
      </trkpt>
      <trkpt lat="47.24181" lon="-1.45469">
        <ele>52</ele>
        <time>2021-09-12T10:10:29.000Z</time>
      </trkpt>
      <trkpt lat="47.24187" lon="-1.45453">
        <ele>52</ele>
        <time>2021-09-12T10:10:31.000Z</time>
      </trkpt>
      <trkpt lat="47.24193" lon="-1.45436">
        <ele>52</ele>
        <time>2021-09-12T10:10:33.000Z</time>
      </trkpt>
      <trkpt lat="47.24199" lon="-1.45417">
        <ele>51</ele>
        <time>2021-09-12T10:10:35.000Z</time>
      </trkpt>
      <trkpt lat="47.24205" lon="-1.45399">
        <ele>52</ele>
        <time>2021-09-12T10:10:37.000Z</time>
      </trkpt>
      <trkpt lat="47.24211" lon="-1.45381">
        <ele>52</ele>
        <time>2021-09-12T10:10:39.000Z</time>
      </trkpt>
      <trkpt lat="47.24217" lon="-1.45362">
        <ele>52</ele>
        <time>2021-09-12T10:10:41.000Z</time>
      </trkpt>
      <trkpt lat="47.24222" lon="-1.45345">
        <ele>52</ele>
        <time>2021-09-12T10:10:43.000Z</time>
      </trkpt>
      <trkpt lat="47.24228" lon="-1.45327">
        <ele>52</ele>
        <time>2021-09-12T10:10:45.000Z</time>
      </trkpt>
      <trkpt lat="47.24234" lon="-1.45309">
        <ele>52</ele>
        <time>2021-09-12T10:10:47.000Z</time>
      </trkpt>
      <trkpt lat="47.24239" lon="-1.45292">
        <ele>52</ele>
        <time>2021-09-12T10:10:49.000Z</time>
      </trkpt>
      <trkpt lat="47.24245" lon="-1.45275">
        <ele>52</ele>
        <time>2021-09-12T10:10:51.000Z</time>
      </trkpt>
      <trkpt lat="47.24254" lon="-1.45263">
        <ele>51</ele>
        <time>2021-09-12T10:10:53.000Z</time>
      </trkpt>
      <trkpt lat="47.24261" lon="-1.45246">
        <ele>50</ele>
        <time>2021-09-12T10:10:55.000Z</time>
      </trkpt>
      <trkpt lat="47.24263" lon="-1.45226">
        <ele>50</ele>
        <time>2021-09-12T10:10:57.000Z</time>
      </trkpt>
      <trkpt lat="47.24265" lon="-1.45205">
        <ele>50</ele>
        <time>2021-09-12T10:10:59.000Z</time>
      </trkpt>
      <trkpt lat="47.24266" lon="-1.45186">
        <ele>50</ele>
        <time>2021-09-12T10:11:01.000Z</time>
      </trkpt>
      <trkpt lat="47.24269" lon="-1.45166">
        <ele>50</ele>
        <time>2021-09-12T10:11:03.000Z</time>
      </trkpt>
      <trkpt lat="47.2427" lon="-1.45147">
        <ele>49</ele>
        <time>2021-09-12T10:11:05.000Z</time>
      </trkpt>
      <trkpt lat="47.24272" lon="-1.45127">
        <ele>49</ele>
        <time>2021-09-12T10:11:07.000Z</time>
      </trkpt>
      <trkpt lat="47.24273" lon="-1.45108">
        <ele>49</ele>
        <time>2021-09-12T10:11:09.000Z</time>
      </trkpt>
      <trkpt lat="47.24275" lon="-1.45088">
        <ele>49</ele>
        <time>2021-09-12T10:11:11.000Z</time>
      </trkpt>
      <trkpt lat="47.24276" lon="-1.45069">
        <ele>49</ele>
        <time>2021-09-12T10:11:13.000Z</time>
      </trkpt>
      <trkpt lat="47.24277" lon="-1.4505">
        <ele>49</ele>
        <time>2021-09-12T10:11:15.000Z</time>
      </trkpt>
      <trkpt lat="47.2428" lon="-1.45031">
        <ele>49</ele>
        <time>2021-09-12T10:11:17.000Z</time>
      </trkpt>
      <trkpt lat="47.24281" lon="-1.45011">
        <ele>50</ele>
        <time>2021-09-12T10:11:19.000Z</time>
      </trkpt>
      <trkpt lat="47.24283" lon="-1.44992">
        <ele>50</ele>
        <time>2021-09-12T10:11:21.000Z</time>
      </trkpt>
      <trkpt lat="47.24284" lon="-1.44973">
        <ele>50</ele>
        <time>2021-09-12T10:11:23.000Z</time>
      </trkpt>
      <trkpt lat="47.24286" lon="-1.44954">
        <ele>50</ele>
        <time>2021-09-12T10:11:25.000Z</time>
      </trkpt>
      <trkpt lat="47.24287" lon="-1.44935">
        <ele>51</ele>
        <time>2021-09-12T10:11:27.000Z</time>
      </trkpt>
      <trkpt lat="47.24288" lon="-1.44916">
        <ele>51</ele>
        <time>2021-09-12T10:11:29.000Z</time>
      </trkpt>
      <trkpt lat="47.2429" lon="-1.44897">
        <ele>51</ele>
        <time>2021-09-12T10:11:31.000Z</time>
      </trkpt>
      <trkpt lat="47.24292" lon="-1.44877">
        <ele>50</ele>
        <time>2021-09-12T10:11:33.000Z</time>
      </trkpt>
      <trkpt lat="47.24293" lon="-1.44859">
        <ele>50</ele>
        <time>2021-09-12T10:11:35.000Z</time>
      </trkpt>
      <trkpt lat="47.24295" lon="-1.4484">
        <ele>50</ele>
        <time>2021-09-12T10:11:37.000Z</time>
      </trkpt>
      <trkpt lat="47.24297" lon="-1.4482">
        <ele>50</ele>
        <time>2021-09-12T10:11:39.000Z</time>
      </trkpt>
      <trkpt lat="47.24299" lon="-1.44802">
        <ele>50</ele>
        <time>2021-09-12T10:11:41.000Z</time>
      </trkpt>
      <trkpt lat="47.243" lon="-1.44783">
        <ele>50</ele>
        <time>2021-09-12T10:11:43.000Z</time>
      </trkpt>
      <trkpt lat="47.24302" lon="-1.44763">
        <ele>50</ele>
        <time>2021-09-12T10:11:45.000Z</time>
      </trkpt>
      <trkpt lat="47.24304" lon="-1.44744">
        <ele>50</ele>
        <time>2021-09-12T10:11:47.000Z</time>
      </trkpt>
      <trkpt lat="47.24304" lon="-1.44725">
        <ele>50</ele>
        <time>2021-09-12T10:11:49.000Z</time>
      </trkpt>
      <trkpt lat="47.24306" lon="-1.44705">
        <ele>51</ele>
        <time>2021-09-12T10:11:51.000Z</time>
      </trkpt>
      <trkpt lat="47.24307" lon="-1.44686">
        <ele>51</ele>
        <time>2021-09-12T10:11:53.000Z</time>
      </trkpt>
      <trkpt lat="47.24309" lon="-1.44667">
        <ele>50</ele>
        <time>2021-09-12T10:11:55.000Z</time>
      </trkpt>
      <trkpt lat="47.24311" lon="-1.44648">
        <ele>50</ele>
        <time>2021-09-12T10:11:57.000Z</time>
      </trkpt>
      <trkpt lat="47.24313" lon="-1.44631">
        <ele>50</ele>
        <time>2021-09-12T10:11:59.000Z</time>
      </trkpt>
      <trkpt lat="47.24316" lon="-1.44614">
        <ele>50</ele>
        <time>2021-09-12T10:12:01.000Z</time>
      </trkpt>
      <trkpt lat="47.24317" lon="-1.44595">
        <ele>50</ele>
        <time>2021-09-12T10:12:03.000Z</time>
      </trkpt>
      <trkpt lat="47.24317" lon="-1.44576">
        <ele>50</ele>
        <time>2021-09-12T10:12:05.000Z</time>
      </trkpt>
      <trkpt lat="47.24317" lon="-1.44557">
        <ele>50</ele>
        <time>2021-09-12T10:12:07.000Z</time>
      </trkpt>
      <trkpt lat="47.24319" lon="-1.44539">
        <ele>50</ele>
        <time>2021-09-12T10:12:09.000Z</time>
      </trkpt>
      <trkpt lat="47.2432" lon="-1.4452">
        <ele>50</ele>
        <time>2021-09-12T10:12:11.000Z</time>
      </trkpt>
      <trkpt lat="47.24322" lon="-1.44501">
        <ele>49</ele>
        <time>2021-09-12T10:12:13.000Z</time>
      </trkpt>
      <trkpt lat="47.24322" lon="-1.44483">
        <ele>50</ele>
        <time>2021-09-12T10:12:15.000Z</time>
      </trkpt>
      <trkpt lat="47.24324" lon="-1.44464">
        <ele>50</ele>
        <time>2021-09-12T10:12:17.000Z</time>
      </trkpt>
      <trkpt lat="47.24325" lon="-1.44445">
        <ele>50</ele>
        <time>2021-09-12T10:12:19.000Z</time>
      </trkpt>
      <trkpt lat="47.24326" lon="-1.44427">
        <ele>50</ele>
        <time>2021-09-12T10:12:21.000Z</time>
      </trkpt>
      <trkpt lat="47.24328" lon="-1.44409">
        <ele>51</ele>
        <time>2021-09-12T10:12:23.000Z</time>
      </trkpt>
      <trkpt lat="47.24329" lon="-1.44392">
        <ele>51</ele>
        <time>2021-09-12T10:12:25.000Z</time>
      </trkpt>
      <trkpt lat="47.24331" lon="-1.44374">
        <ele>51</ele>
        <time>2021-09-12T10:12:27.000Z</time>
      </trkpt>
      <trkpt lat="47.24332" lon="-1.44355">
        <ele>51</ele>
        <time>2021-09-12T10:12:29.000Z</time>
      </trkpt>
      <trkpt lat="47.24334" lon="-1.44337">
        <ele>51</ele>
        <time>2021-09-12T10:12:31.000Z</time>
      </trkpt>
      <trkpt lat="47.24336" lon="-1.44319">
        <ele>51</ele>
        <time>2021-09-12T10:12:33.000Z</time>
      </trkpt>
      <trkpt lat="47.2434" lon="-1.44302">
        <ele>51</ele>
        <time>2021-09-12T10:12:35.000Z</time>
      </trkpt>
      <trkpt lat="47.24343" lon="-1.44285">
        <ele>51</ele>
        <time>2021-09-12T10:12:37.000Z</time>
      </trkpt>
      <trkpt lat="47.24343" lon="-1.44267">
        <ele>50</ele>
        <time>2021-09-12T10:12:39.000Z</time>
      </trkpt>
      <trkpt lat="47.24342" lon="-1.44249">
        <ele>50</ele>
        <time>2021-09-12T10:12:41.000Z</time>
      </trkpt>
      <trkpt lat="47.24342" lon="-1.44231">
        <ele>50</ele>
        <time>2021-09-12T10:12:43.000Z</time>
      </trkpt>
      <trkpt lat="47.24343" lon="-1.44213">
        <ele>50</ele>
        <time>2021-09-12T10:12:45.000Z</time>
      </trkpt>
      <trkpt lat="47.24347" lon="-1.44196">
        <ele>51</ele>
        <time>2021-09-12T10:12:47.000Z</time>
      </trkpt>
      <trkpt lat="47.24352" lon="-1.44179">
        <ele>51</ele>
        <time>2021-09-12T10:12:49.000Z</time>
      </trkpt>
      <trkpt lat="47.24357" lon="-1.44162">
        <ele>51</ele>
        <time>2021-09-12T10:12:51.000Z</time>
      </trkpt>
      <trkpt lat="47.24363" lon="-1.44146">
        <ele>51</ele>
        <time>2021-09-12T10:12:53.000Z</time>
      </trkpt>
      <trkpt lat="47.2437" lon="-1.44131">
        <ele>51</ele>
        <time>2021-09-12T10:12:55.000Z</time>
      </trkpt>
      <trkpt lat="47.24378" lon="-1.44117">
        <ele>51</ele>
        <time>2021-09-12T10:12:57.000Z</time>
      </trkpt>
      <trkpt lat="47.24385" lon="-1.44103">
        <ele>51</ele>
        <time>2021-09-12T10:12:59.000Z</time>
      </trkpt>
      <trkpt lat="47.24392" lon="-1.44088">
        <ele>51</ele>
        <time>2021-09-12T10:13:01.000Z</time>
      </trkpt>
      <trkpt lat="47.24399" lon="-1.44074">
        <ele>51</ele>
        <time>2021-09-12T10:13:03.000Z</time>
      </trkpt>
      <trkpt lat="47.24407" lon="-1.44059">
        <ele>51</ele>
        <time>2021-09-12T10:13:05.000Z</time>
      </trkpt>
      <trkpt lat="47.24414" lon="-1.44044">
        <ele>51</ele>
        <time>2021-09-12T10:13:07.000Z</time>
      </trkpt>
      <trkpt lat="47.24421" lon="-1.4403">
        <ele>51</ele>
        <time>2021-09-12T10:13:09.000Z</time>
      </trkpt>
      <trkpt lat="47.24429" lon="-1.44016">
        <ele>51</ele>
        <time>2021-09-12T10:13:11.000Z</time>
      </trkpt>
      <trkpt lat="47.24438" lon="-1.44003">
        <ele>51</ele>
        <time>2021-09-12T10:13:13.000Z</time>
      </trkpt>
      <trkpt lat="47.24446" lon="-1.4399">
        <ele>51</ele>
        <time>2021-09-12T10:13:15.000Z</time>
      </trkpt>
      <trkpt lat="47.24453" lon="-1.43974">
        <ele>51</ele>
        <time>2021-09-12T10:13:17.000Z</time>
      </trkpt>
      <trkpt lat="47.24459" lon="-1.4396">
        <ele>52</ele>
        <time>2021-09-12T10:13:19.000Z</time>
      </trkpt>
      <trkpt lat="47.24464" lon="-1.43944">
        <ele>51</ele>
        <time>2021-09-12T10:13:21.000Z</time>
      </trkpt>
      <trkpt lat="47.2447" lon="-1.43928">
        <ele>51</ele>
        <time>2021-09-12T10:13:23.000Z</time>
      </trkpt>
      <trkpt lat="47.24477" lon="-1.43912">
        <ele>51</ele>
        <time>2021-09-12T10:13:25.000Z</time>
      </trkpt>
      <trkpt lat="47.24483" lon="-1.43896">
        <ele>52</ele>
        <time>2021-09-12T10:13:27.000Z</time>
      </trkpt>
      <trkpt lat="47.24489" lon="-1.4388">
        <ele>52</ele>
        <time>2021-09-12T10:13:29.000Z</time>
      </trkpt>
      <trkpt lat="47.24495" lon="-1.43863">
        <ele>52</ele>
        <time>2021-09-12T10:13:31.000Z</time>
      </trkpt>
      <trkpt lat="47.245" lon="-1.43846">
        <ele>52</ele>
        <time>2021-09-12T10:13:33.000Z</time>
      </trkpt>
      <trkpt lat="47.24505" lon="-1.43829">
        <ele>52</ele>
        <time>2021-09-12T10:13:35.000Z</time>
      </trkpt>
      <trkpt lat="47.2451" lon="-1.43812">
        <ele>51</ele>
        <time>2021-09-12T10:13:37.000Z</time>
      </trkpt>
      <trkpt lat="47.24515" lon="-1.43794">
        <ele>51</ele>
        <time>2021-09-12T10:13:39.000Z</time>
      </trkpt>
      <trkpt lat="47.24521" lon="-1.43778">
        <ele>51</ele>
        <time>2021-09-12T10:13:41.000Z</time>
      </trkpt>
      <trkpt lat="47.24526" lon="-1.43761">
        <ele>51</ele>
        <time>2021-09-12T10:13:43.000Z</time>
      </trkpt>
      <trkpt lat="47.24531" lon="-1.43744">
        <ele>51</ele>
        <time>2021-09-12T10:13:45.000Z</time>
      </trkpt>
      <trkpt lat="47.24537" lon="-1.43727">
        <ele>51</ele>
        <time>2021-09-12T10:13:47.000Z</time>
      </trkpt>
      <trkpt lat="47.24545" lon="-1.43713">
        <ele>51</ele>
        <time>2021-09-12T10:13:49.000Z</time>
      </trkpt>
      <trkpt lat="47.24556" lon="-1.43701">
        <ele>51</ele>
        <time>2021-09-12T10:13:51.000Z</time>
      </trkpt>
      <trkpt lat="47.24567" lon="-1.43692">
        <ele>51</ele>
        <time>2021-09-12T10:13:53.000Z</time>
      </trkpt>
      <trkpt lat="47.24577" lon="-1.43681">
        <ele>50</ele>
        <time>2021-09-12T10:13:55.000Z</time>
      </trkpt>
      <trkpt lat="47.24586" lon="-1.43669">
        <ele>50</ele>
        <time>2021-09-12T10:13:57.000Z</time>
      </trkpt>
      <trkpt lat="47.24595" lon="-1.43655">
        <ele>50</ele>
        <time>2021-09-12T10:13:59.000Z</time>
      </trkpt>
      <trkpt lat="47.24605" lon="-1.43643">
        <ele>51</ele>
        <time>2021-09-12T10:14:01.000Z</time>
      </trkpt>
      <trkpt lat="47.24615" lon="-1.43632">
        <ele>50</ele>
        <time>2021-09-12T10:14:03.000Z</time>
      </trkpt>
      <trkpt lat="47.24626" lon="-1.43622">
        <ele>50</ele>
        <time>2021-09-12T10:14:05.000Z</time>
      </trkpt>
      <trkpt lat="47.24637" lon="-1.43614">
        <ele>50</ele>
        <time>2021-09-12T10:14:07.000Z</time>
      </trkpt>
      <trkpt lat="47.24647" lon="-1.43603">
        <ele>49</ele>
        <time>2021-09-12T10:14:09.000Z</time>
      </trkpt>
      <trkpt lat="47.24658" lon="-1.43593">
        <ele>49</ele>
        <time>2021-09-12T10:14:11.000Z</time>
      </trkpt>
      <trkpt lat="47.24668" lon="-1.43583">
        <ele>49</ele>
        <time>2021-09-12T10:14:13.000Z</time>
      </trkpt>
      <trkpt lat="47.24678" lon="-1.43573">
        <ele>50</ele>
        <time>2021-09-12T10:14:15.000Z</time>
      </trkpt>
      <trkpt lat="47.24687" lon="-1.43563">
        <ele>49</ele>
        <time>2021-09-12T10:14:17.000Z</time>
      </trkpt>
      <trkpt lat="47.24696" lon="-1.43548">
        <ele>49</ele>
        <time>2021-09-12T10:14:19.000Z</time>
      </trkpt>
      <trkpt lat="47.24701" lon="-1.43531">
        <ele>49</ele>
        <time>2021-09-12T10:14:21.000Z</time>
      </trkpt>
      <trkpt lat="47.24705" lon="-1.43513">
        <ele>49</ele>
        <time>2021-09-12T10:14:23.000Z</time>
      </trkpt>
      <trkpt lat="47.2471" lon="-1.43497">
        <ele>49</ele>
        <time>2021-09-12T10:14:25.000Z</time>
      </trkpt>
      <trkpt lat="47.24716" lon="-1.43481">
        <ele>49</ele>
        <time>2021-09-12T10:14:27.000Z</time>
      </trkpt>
      <trkpt lat="47.24723" lon="-1.43467">
        <ele>49</ele>
        <time>2021-09-12T10:14:29.000Z</time>
      </trkpt>
      <trkpt lat="47.24731" lon="-1.43454">
        <ele>49</ele>
        <time>2021-09-12T10:14:31.000Z</time>
      </trkpt>
      <trkpt lat="47.24739" lon="-1.43439">
        <ele>49</ele>
        <time>2021-09-12T10:14:33.000Z</time>
      </trkpt>
      <trkpt lat="47.24747" lon="-1.43426">
        <ele>50</ele>
        <time>2021-09-12T10:14:35.000Z</time>
      </trkpt>
      <trkpt lat="47.24756" lon="-1.43414">
        <ele>50</ele>
        <time>2021-09-12T10:14:37.000Z</time>
      </trkpt>
      <trkpt lat="47.24766" lon="-1.43402">
        <ele>50</ele>
        <time>2021-09-12T10:14:39.000Z</time>
      </trkpt>
      <trkpt lat="47.24775" lon="-1.4339">
        <ele>49</ele>
        <time>2021-09-12T10:14:41.000Z</time>
      </trkpt>
      <trkpt lat="47.24785" lon="-1.43379">
        <ele>50</ele>
        <time>2021-09-12T10:14:43.000Z</time>
      </trkpt>
      <trkpt lat="47.24795" lon="-1.43368">
        <ele>51</ele>
        <time>2021-09-12T10:14:45.000Z</time>
      </trkpt>
      <trkpt lat="47.24804" lon="-1.4336">
        <ele>52</ele>
        <time>2021-09-12T10:14:47.000Z</time>
      </trkpt>
      <trkpt lat="47.24814" lon="-1.43353">
        <ele>52</ele>
        <time>2021-09-12T10:14:49.000Z</time>
      </trkpt>
      <trkpt lat="47.24825" lon="-1.43346">
        <ele>52</ele>
        <time>2021-09-12T10:14:51.000Z</time>
      </trkpt>
      <trkpt lat="47.24836" lon="-1.43339">
        <ele>52</ele>
        <time>2021-09-12T10:14:53.000Z</time>
      </trkpt>
      <trkpt lat="47.24847" lon="-1.43332">
        <ele>51</ele>
        <time>2021-09-12T10:14:55.000Z</time>
      </trkpt>
      <trkpt lat="47.24857" lon="-1.43324">
        <ele>51</ele>
        <time>2021-09-12T10:14:57.000Z</time>
      </trkpt>
      <trkpt lat="47.24869" lon="-1.43317">
        <ele>51</ele>
        <time>2021-09-12T10:14:59.000Z</time>
      </trkpt>
      <trkpt lat="47.24879" lon="-1.4331">
        <ele>51</ele>
        <time>2021-09-12T10:15:01.000Z</time>
      </trkpt>
      <trkpt lat="47.2489" lon="-1.43303">
        <ele>51</ele>
        <time>2021-09-12T10:15:03.000Z</time>
      </trkpt>
      <trkpt lat="47.24901" lon="-1.43295">
        <ele>50</ele>
        <time>2021-09-12T10:15:05.000Z</time>
      </trkpt>
      <trkpt lat="47.24912" lon="-1.43287">
        <ele>50</ele>
        <time>2021-09-12T10:15:07.000Z</time>
      </trkpt>
      <trkpt lat="47.24923" lon="-1.4328">
        <ele>50</ele>
        <time>2021-09-12T10:15:09.000Z</time>
      </trkpt>
      <trkpt lat="47.24935" lon="-1.43271">
        <ele>49</ele>
        <time>2021-09-12T10:15:11.000Z</time>
      </trkpt>
      <trkpt lat="47.24949" lon="-1.43263">
        <ele>49</ele>
        <time>2021-09-12T10:15:13.000Z</time>
      </trkpt>
      <trkpt lat="47.24962" lon="-1.43254">
        <ele>49</ele>
        <time>2021-09-12T10:15:15.000Z</time>
      </trkpt>
      <trkpt lat="47.24974" lon="-1.43247">
        <ele>49</ele>
        <time>2021-09-12T10:15:17.000Z</time>
      </trkpt>
      <trkpt lat="47.24986" lon="-1.43241">
        <ele>49</ele>
        <time>2021-09-12T10:15:19.000Z</time>
      </trkpt>
      <trkpt lat="47.24998" lon="-1.43233">
        <ele>49</ele>
        <time>2021-09-12T10:15:21.000Z</time>
      </trkpt>
      <trkpt lat="47.25009" lon="-1.43224">
        <ele>50</ele>
        <time>2021-09-12T10:15:23.000Z</time>
      </trkpt>
      <trkpt lat="47.2502" lon="-1.43214">
        <ele>50</ele>
        <time>2021-09-12T10:15:25.000Z</time>
      </trkpt>
      <trkpt lat="47.2503" lon="-1.43207">
        <ele>50</ele>
        <time>2021-09-12T10:15:27.000Z</time>
      </trkpt>
      <trkpt lat="47.2504" lon="-1.43198">
        <ele>50</ele>
        <time>2021-09-12T10:15:29.000Z</time>
      </trkpt>
      <trkpt lat="47.25051" lon="-1.43189">
        <ele>50</ele>
        <time>2021-09-12T10:15:31.000Z</time>
      </trkpt>
      <trkpt lat="47.25061" lon="-1.43179">
        <ele>50</ele>
        <time>2021-09-12T10:15:33.000Z</time>
      </trkpt>
      <trkpt lat="47.2507" lon="-1.43168">
        <ele>50</ele>
        <time>2021-09-12T10:15:35.000Z</time>
      </trkpt>
      <trkpt lat="47.2508" lon="-1.43156">
        <ele>50</ele>
        <time>2021-09-12T10:15:37.000Z</time>
      </trkpt>
      <trkpt lat="47.25088" lon="-1.43144">
        <ele>50</ele>
        <time>2021-09-12T10:15:39.000Z</time>
      </trkpt>
      <trkpt lat="47.25097" lon="-1.43132">
        <ele>50</ele>
        <time>2021-09-12T10:15:41.000Z</time>
      </trkpt>
      <trkpt lat="47.25106" lon="-1.43121">
        <ele>50</ele>
        <time>2021-09-12T10:15:43.000Z</time>
      </trkpt>
      <trkpt lat="47.25116" lon="-1.4311">
        <ele>50</ele>
        <time>2021-09-12T10:15:45.000Z</time>
      </trkpt>
      <trkpt lat="47.25125" lon="-1.43098">
        <ele>50</ele>
        <time>2021-09-12T10:15:47.000Z</time>
      </trkpt>
      <trkpt lat="47.25135" lon="-1.43087">
        <ele>50</ele>
        <time>2021-09-12T10:15:49.000Z</time>
      </trkpt>
      <trkpt lat="47.25144" lon="-1.43074">
        <ele>50</ele>
        <time>2021-09-12T10:15:51.000Z</time>
      </trkpt>
      <trkpt lat="47.25154" lon="-1.43061">
        <ele>50</ele>
        <time>2021-09-12T10:15:53.000Z</time>
      </trkpt>
      <trkpt lat="47.25165" lon="-1.43051">
        <ele>49</ele>
        <time>2021-09-12T10:15:55.000Z</time>
      </trkpt>
      <trkpt lat="47.25176" lon="-1.43039">
        <ele>49</ele>
        <time>2021-09-12T10:15:57.000Z</time>
      </trkpt>
      <trkpt lat="47.25187" lon="-1.43025">
        <ele>49</ele>
        <time>2021-09-12T10:15:59.000Z</time>
      </trkpt>
      <trkpt lat="47.25198" lon="-1.43011">
        <ele>49</ele>
        <time>2021-09-12T10:16:01.000Z</time>
      </trkpt>
      <trkpt lat="47.2521" lon="-1.42998">
        <ele>49</ele>
        <time>2021-09-12T10:16:03.000Z</time>
      </trkpt>
      <trkpt lat="47.25222" lon="-1.42987">
        <ele>49</ele>
        <time>2021-09-12T10:16:05.000Z</time>
      </trkpt>
      <trkpt lat="47.25234" lon="-1.42978">
        <ele>49</ele>
        <time>2021-09-12T10:16:07.000Z</time>
      </trkpt>
      <trkpt lat="47.25247" lon="-1.4297">
        <ele>49</ele>
        <time>2021-09-12T10:16:09.000Z</time>
      </trkpt>
      <trkpt lat="47.25259" lon="-1.42963">
        <ele>49</ele>
        <time>2021-09-12T10:16:11.000Z</time>
      </trkpt>
      <trkpt lat="47.25272" lon="-1.42956">
        <ele>49</ele>
        <time>2021-09-12T10:16:13.000Z</time>
      </trkpt>
      <trkpt lat="47.25284" lon="-1.42949">
        <ele>49</ele>
        <time>2021-09-12T10:16:15.000Z</time>
      </trkpt>
      <trkpt lat="47.25296" lon="-1.42942">
        <ele>48</ele>
        <time>2021-09-12T10:16:17.000Z</time>
      </trkpt>
      <trkpt lat="47.25307" lon="-1.42936">
        <ele>48</ele>
        <time>2021-09-12T10:16:19.000Z</time>
      </trkpt>
      <trkpt lat="47.25319" lon="-1.42928">
        <ele>48</ele>
        <time>2021-09-12T10:16:21.000Z</time>
      </trkpt>
      <trkpt lat="47.2533" lon="-1.42921">
        <ele>48</ele>
        <time>2021-09-12T10:16:23.000Z</time>
      </trkpt>
      <trkpt lat="47.2534" lon="-1.42915">
        <ele>48</ele>
        <time>2021-09-12T10:16:25.000Z</time>
      </trkpt>
      <trkpt lat="47.25351" lon="-1.4291">
        <ele>48</ele>
        <time>2021-09-12T10:16:27.000Z</time>
      </trkpt>
      <trkpt lat="47.25363" lon="-1.42903">
        <ele>48</ele>
        <time>2021-09-12T10:16:29.000Z</time>
      </trkpt>
      <trkpt lat="47.25375" lon="-1.42897">
        <ele>47</ele>
        <time>2021-09-12T10:16:31.000Z</time>
      </trkpt>
      <trkpt lat="47.25386" lon="-1.42888">
        <ele>48</ele>
        <time>2021-09-12T10:16:33.000Z</time>
      </trkpt>
      <trkpt lat="47.25397" lon="-1.4288">
        <ele>48</ele>
        <time>2021-09-12T10:16:35.000Z</time>
      </trkpt>
      <trkpt lat="47.25409" lon="-1.42872">
        <ele>48</ele>
        <time>2021-09-12T10:16:37.000Z</time>
      </trkpt>
      <trkpt lat="47.2542" lon="-1.42865">
        <ele>48</ele>
        <time>2021-09-12T10:16:39.000Z</time>
      </trkpt>
      <trkpt lat="47.25431" lon="-1.42858">
        <ele>48</ele>
        <time>2021-09-12T10:16:41.000Z</time>
      </trkpt>
      <trkpt lat="47.25443" lon="-1.4285">
        <ele>48</ele>
        <time>2021-09-12T10:16:43.000Z</time>
      </trkpt>
      <trkpt lat="47.25454" lon="-1.42842">
        <ele>49</ele>
        <time>2021-09-12T10:16:45.000Z</time>
      </trkpt>
      <trkpt lat="47.25465" lon="-1.42835">
        <ele>48</ele>
        <time>2021-09-12T10:16:47.000Z</time>
      </trkpt>
      <trkpt lat="47.25476" lon="-1.42826">
        <ele>48</ele>
        <time>2021-09-12T10:16:49.000Z</time>
      </trkpt>
      <trkpt lat="47.25487" lon="-1.42817">
        <ele>48</ele>
        <time>2021-09-12T10:16:51.000Z</time>
      </trkpt>
      <trkpt lat="47.25497" lon="-1.42809">
        <ele>49</ele>
        <time>2021-09-12T10:16:53.000Z</time>
      </trkpt>
      <trkpt lat="47.25508" lon="-1.428">
        <ele>48</ele>
        <time>2021-09-12T10:16:55.000Z</time>
      </trkpt>
      <trkpt lat="47.25518" lon="-1.42792">
        <ele>49</ele>
        <time>2021-09-12T10:16:57.000Z</time>
      </trkpt>
      <trkpt lat="47.25528" lon="-1.42782">
        <ele>49</ele>
        <time>2021-09-12T10:16:59.000Z</time>
      </trkpt>
      <trkpt lat="47.25539" lon="-1.42774">
        <ele>49</ele>
        <time>2021-09-12T10:17:01.000Z</time>
      </trkpt>
      <trkpt lat="47.25549" lon="-1.42765">
        <ele>50</ele>
        <time>2021-09-12T10:17:03.000Z</time>
      </trkpt>
      <trkpt lat="47.25559" lon="-1.42757">
        <ele>50</ele>
        <time>2021-09-12T10:17:05.000Z</time>
      </trkpt>
      <trkpt lat="47.2557" lon="-1.42748">
        <ele>50</ele>
        <time>2021-09-12T10:17:07.000Z</time>
      </trkpt>
      <trkpt lat="47.25581" lon="-1.4274">
        <ele>50</ele>
        <time>2021-09-12T10:17:09.000Z</time>
      </trkpt>
      <trkpt lat="47.25592" lon="-1.42731">
        <ele>50</ele>
        <time>2021-09-12T10:17:11.000Z</time>
      </trkpt>
      <trkpt lat="47.25603" lon="-1.42722">
        <ele>49</ele>
        <time>2021-09-12T10:17:13.000Z</time>
      </trkpt>
      <trkpt lat="47.25614" lon="-1.42714">
        <ele>50</ele>
        <time>2021-09-12T10:17:15.000Z</time>
      </trkpt>
      <trkpt lat="47.25624" lon="-1.42705">
        <ele>50</ele>
        <time>2021-09-12T10:17:17.000Z</time>
      </trkpt>
      <trkpt lat="47.25634" lon="-1.42697">
        <ele>50</ele>
        <time>2021-09-12T10:17:19.000Z</time>
      </trkpt>
      <trkpt lat="47.25645" lon="-1.42688">
        <ele>50</ele>
        <time>2021-09-12T10:17:21.000Z</time>
      </trkpt>
      <trkpt lat="47.25656" lon="-1.42679">
        <ele>50</ele>
        <time>2021-09-12T10:17:23.000Z</time>
      </trkpt>
      <trkpt lat="47.25666" lon="-1.42668">
        <ele>51</ele>
        <time>2021-09-12T10:17:25.000Z</time>
      </trkpt>
      <trkpt lat="47.25674" lon="-1.42659">
        <ele>53</ele>
        <time>2021-09-12T10:17:27.000Z</time>
      </trkpt>
      <trkpt lat="47.25686" lon="-1.4265">
        <ele>53</ele>
        <time>2021-09-12T10:17:30.000Z</time>
      </trkpt>
      <trkpt lat="47.25696" lon="-1.42644">
        <ele>53</ele>
        <time>2021-09-12T10:17:32.000Z</time>
      </trkpt>
      <trkpt lat="47.25707" lon="-1.42644">
        <ele>52</ele>
        <time>2021-09-12T10:17:34.000Z</time>
      </trkpt>
      <trkpt lat="47.25721" lon="-1.42645">
        <ele>51</ele>
        <time>2021-09-12T10:17:36.000Z</time>
      </trkpt>
      <trkpt lat="47.25734" lon="-1.42644">
        <ele>50</ele>
        <time>2021-09-12T10:17:38.000Z</time>
      </trkpt>
      <trkpt lat="47.25746" lon="-1.42636">
        <ele>50</ele>
        <time>2021-09-12T10:17:40.000Z</time>
      </trkpt>
      <trkpt lat="47.25753" lon="-1.42622">
        <ele>51</ele>
        <time>2021-09-12T10:17:42.000Z</time>
      </trkpt>
      <trkpt lat="47.2576" lon="-1.42607">
        <ele>52</ele>
        <time>2021-09-12T10:17:44.000Z</time>
      </trkpt>
      <trkpt lat="47.25768" lon="-1.42594">
        <ele>51</ele>
        <time>2021-09-12T10:17:46.000Z</time>
      </trkpt>
      <trkpt lat="47.25779" lon="-1.42579">
        <ele>50</ele>
        <time>2021-09-12T10:17:48.000Z</time>
      </trkpt>
      <trkpt lat="47.25791" lon="-1.42568">
        <ele>51</ele>
        <time>2021-09-12T10:17:50.000Z</time>
      </trkpt>
      <trkpt lat="47.25802" lon="-1.42558">
        <ele>51</ele>
        <time>2021-09-12T10:17:52.000Z</time>
      </trkpt>
      <trkpt lat="47.25814" lon="-1.42548">
        <ele>51</ele>
        <time>2021-09-12T10:17:54.000Z</time>
      </trkpt>
      <trkpt lat="47.25825" lon="-1.42539">
        <ele>51</ele>
        <time>2021-09-12T10:17:56.000Z</time>
      </trkpt>
      <trkpt lat="47.25836" lon="-1.42531">
        <ele>51</ele>
        <time>2021-09-12T10:17:58.000Z</time>
      </trkpt>
      <trkpt lat="47.25847" lon="-1.42522">
        <ele>51</ele>
        <time>2021-09-12T10:18:00.000Z</time>
      </trkpt>
      <trkpt lat="47.25858" lon="-1.42515">
        <ele>51</ele>
        <time>2021-09-12T10:18:02.000Z</time>
      </trkpt>
      <trkpt lat="47.2587" lon="-1.42507">
        <ele>50</ele>
        <time>2021-09-12T10:18:04.000Z</time>
      </trkpt>
      <trkpt lat="47.25881" lon="-1.42499">
        <ele>50</ele>
        <time>2021-09-12T10:18:06.000Z</time>
      </trkpt>
      <trkpt lat="47.25892" lon="-1.42491">
        <ele>50</ele>
        <time>2021-09-12T10:18:08.000Z</time>
      </trkpt>
      <trkpt lat="47.25902" lon="-1.4248">
        <ele>50</ele>
        <time>2021-09-12T10:18:10.000Z</time>
      </trkpt>
      <trkpt lat="47.25911" lon="-1.42469">
        <ele>50</ele>
        <time>2021-09-12T10:18:12.000Z</time>
      </trkpt>
      <trkpt lat="47.25919" lon="-1.42457">
        <ele>50</ele>
        <time>2021-09-12T10:18:14.000Z</time>
      </trkpt>
      <trkpt lat="47.25929" lon="-1.42444">
        <ele>50</ele>
        <time>2021-09-12T10:18:16.000Z</time>
      </trkpt>
      <trkpt lat="47.25938" lon="-1.42432">
        <ele>50</ele>
        <time>2021-09-12T10:18:18.000Z</time>
      </trkpt>
      <trkpt lat="47.25948" lon="-1.4242">
        <ele>50</ele>
        <time>2021-09-12T10:18:20.000Z</time>
      </trkpt>
      <trkpt lat="47.25957" lon="-1.42407">
        <ele>50</ele>
        <time>2021-09-12T10:18:22.000Z</time>
      </trkpt>
      <trkpt lat="47.25967" lon="-1.42395">
        <ele>50</ele>
        <time>2021-09-12T10:18:24.000Z</time>
      </trkpt>
      <trkpt lat="47.25976" lon="-1.42383">
        <ele>50</ele>
        <time>2021-09-12T10:18:26.000Z</time>
      </trkpt>
      <trkpt lat="47.25986" lon="-1.42372">
        <ele>50</ele>
        <time>2021-09-12T10:18:28.000Z</time>
      </trkpt>
      <trkpt lat="47.25997" lon="-1.42361">
        <ele>50</ele>
        <time>2021-09-12T10:18:30.000Z</time>
      </trkpt>
      <trkpt lat="47.26006" lon="-1.42349">
        <ele>50</ele>
        <time>2021-09-12T10:18:32.000Z</time>
      </trkpt>
      <trkpt lat="47.26015" lon="-1.42336">
        <ele>50</ele>
        <time>2021-09-12T10:18:34.000Z</time>
      </trkpt>
      <trkpt lat="47.26024" lon="-1.42323">
        <ele>50</ele>
        <time>2021-09-12T10:18:36.000Z</time>
      </trkpt>
      <trkpt lat="47.26034" lon="-1.4231">
        <ele>50</ele>
        <time>2021-09-12T10:18:38.000Z</time>
      </trkpt>
      <trkpt lat="47.26043" lon="-1.42297">
        <ele>50</ele>
        <time>2021-09-12T10:18:40.000Z</time>
      </trkpt>
      <trkpt lat="47.26053" lon="-1.42285">
        <ele>50</ele>
        <time>2021-09-12T10:18:42.000Z</time>
      </trkpt>
      <trkpt lat="47.26062" lon="-1.42272">
        <ele>50</ele>
        <time>2021-09-12T10:18:44.000Z</time>
      </trkpt>
      <trkpt lat="47.26072" lon="-1.4226">
        <ele>50</ele>
        <time>2021-09-12T10:18:46.000Z</time>
      </trkpt>
      <trkpt lat="47.26081" lon="-1.42248">
        <ele>50</ele>
        <time>2021-09-12T10:18:48.000Z</time>
      </trkpt>
      <trkpt lat="47.26091" lon="-1.42235">
        <ele>50</ele>
        <time>2021-09-12T10:18:50.000Z</time>
      </trkpt>
      <trkpt lat="47.26101" lon="-1.42222">
        <ele>50</ele>
        <time>2021-09-12T10:18:52.000Z</time>
      </trkpt>
      <trkpt lat="47.2611" lon="-1.4221">
        <ele>50</ele>
        <time>2021-09-12T10:18:54.000Z</time>
      </trkpt>
      <trkpt lat="47.2612" lon="-1.42197">
        <ele>50</ele>
        <time>2021-09-12T10:18:56.000Z</time>
      </trkpt>
      <trkpt lat="47.26129" lon="-1.42186">
        <ele>49</ele>
        <time>2021-09-12T10:18:58.000Z</time>
      </trkpt>
      <trkpt lat="47.26139" lon="-1.42173">
        <ele>50</ele>
        <time>2021-09-12T10:19:00.000Z</time>
      </trkpt>
      <trkpt lat="47.26147" lon="-1.42158">
        <ele>50</ele>
        <time>2021-09-12T10:19:02.000Z</time>
      </trkpt>
      <trkpt lat="47.26155" lon="-1.42144">
        <ele>50</ele>
        <time>2021-09-12T10:19:04.000Z</time>
      </trkpt>
      <trkpt lat="47.26161" lon="-1.42131">
        <ele>51</ele>
        <time>2021-09-12T10:19:06.000Z</time>
      </trkpt>
      <trkpt lat="47.26167" lon="-1.4212">
        <ele>51</ele>
        <time>2021-09-12T10:19:08.000Z</time>
      </trkpt>
      <trkpt lat="47.26175" lon="-1.42108">
        <ele>50</ele>
        <time>2021-09-12T10:19:10.000Z</time>
      </trkpt>
      <trkpt lat="47.26183" lon="-1.42095">
        <ele>50</ele>
        <time>2021-09-12T10:19:12.000Z</time>
      </trkpt>
      <trkpt lat="47.26192" lon="-1.4208">
        <ele>50</ele>
        <time>2021-09-12T10:19:14.000Z</time>
      </trkpt>
      <trkpt lat="47.26203" lon="-1.42072">
        <ele>51</ele>
        <time>2021-09-12T10:19:16.000Z</time>
      </trkpt>
      <trkpt lat="47.26213" lon="-1.42062">
        <ele>50</ele>
        <time>2021-09-12T10:19:18.000Z</time>
      </trkpt>
      <trkpt lat="47.2622" lon="-1.42044">
        <ele>49</ele>
        <time>2021-09-12T10:19:20.000Z</time>
      </trkpt>
      <trkpt lat="47.26227" lon="-1.42027">
        <ele>50</ele>
        <time>2021-09-12T10:19:22.000Z</time>
      </trkpt>
      <trkpt lat="47.26234" lon="-1.42011">
        <ele>50</ele>
        <time>2021-09-12T10:19:24.000Z</time>
      </trkpt>
      <trkpt lat="47.26242" lon="-1.41996">
        <ele>50</ele>
        <time>2021-09-12T10:19:26.000Z</time>
      </trkpt>
      <trkpt lat="47.2625" lon="-1.41981">
        <ele>50</ele>
        <time>2021-09-12T10:19:28.000Z</time>
      </trkpt>
      <trkpt lat="47.26258" lon="-1.41967">
        <ele>51</ele>
        <time>2021-09-12T10:19:30.000Z</time>
      </trkpt>
      <trkpt lat="47.26267" lon="-1.41953">
        <ele>50</ele>
        <time>2021-09-12T10:19:32.000Z</time>
      </trkpt>
      <trkpt lat="47.26276" lon="-1.41939">
        <ele>50</ele>
        <time>2021-09-12T10:19:34.000Z</time>
      </trkpt>
      <trkpt lat="47.26284" lon="-1.41925">
        <ele>50</ele>
        <time>2021-09-12T10:19:36.000Z</time>
      </trkpt>
      <trkpt lat="47.26292" lon="-1.4191">
        <ele>50</ele>
        <time>2021-09-12T10:19:38.000Z</time>
      </trkpt>
      <trkpt lat="47.263" lon="-1.41896">
        <ele>50</ele>
        <time>2021-09-12T10:19:40.000Z</time>
      </trkpt>
      <trkpt lat="47.26309" lon="-1.41882">
        <ele>50</ele>
        <time>2021-09-12T10:19:42.000Z</time>
      </trkpt>
      <trkpt lat="47.26317" lon="-1.41868">
        <ele>50</ele>
        <time>2021-09-12T10:19:44.000Z</time>
      </trkpt>
      <trkpt lat="47.26325" lon="-1.41853">
        <ele>50</ele>
        <time>2021-09-12T10:19:46.000Z</time>
      </trkpt>
      <trkpt lat="47.26334" lon="-1.41838">
        <ele>50</ele>
        <time>2021-09-12T10:19:48.000Z</time>
      </trkpt>
      <trkpt lat="47.26342" lon="-1.41823">
        <ele>50</ele>
        <time>2021-09-12T10:19:50.000Z</time>
      </trkpt>
      <trkpt lat="47.2635" lon="-1.41809">
        <ele>50</ele>
        <time>2021-09-12T10:19:52.000Z</time>
      </trkpt>
      <trkpt lat="47.26358" lon="-1.41795">
        <ele>50</ele>
        <time>2021-09-12T10:19:54.000Z</time>
      </trkpt>
      <trkpt lat="47.26366" lon="-1.41782">
        <ele>50</ele>
        <time>2021-09-12T10:19:56.000Z</time>
      </trkpt>
      <trkpt lat="47.26375" lon="-1.41768">
        <ele>49</ele>
        <time>2021-09-12T10:19:58.000Z</time>
      </trkpt>
      <trkpt lat="47.26383" lon="-1.41754">
        <ele>49</ele>
        <time>2021-09-12T10:20:00.000Z</time>
      </trkpt>
      <trkpt lat="47.26391" lon="-1.4174">
        <ele>49</ele>
        <time>2021-09-12T10:20:02.000Z</time>
      </trkpt>
      <trkpt lat="47.26399" lon="-1.41727">
        <ele>49</ele>
        <time>2021-09-12T10:20:04.000Z</time>
      </trkpt>
      <trkpt lat="47.26407" lon="-1.41713">
        <ele>49</ele>
        <time>2021-09-12T10:20:06.000Z</time>
      </trkpt>
      <trkpt lat="47.26414" lon="-1.41699">
        <ele>50</ele>
        <time>2021-09-12T10:20:08.000Z</time>
      </trkpt>
      <trkpt lat="47.26422" lon="-1.41686">
        <ele>50</ele>
        <time>2021-09-12T10:20:10.000Z</time>
      </trkpt>
      <trkpt lat="47.2643" lon="-1.41672">
        <ele>50</ele>
        <time>2021-09-12T10:20:12.000Z</time>
      </trkpt>
      <trkpt lat="47.26438" lon="-1.41659">
        <ele>49</ele>
        <time>2021-09-12T10:20:14.000Z</time>
      </trkpt>
      <trkpt lat="47.26446" lon="-1.41645">
        <ele>49</ele>
        <time>2021-09-12T10:20:16.000Z</time>
      </trkpt>
      <trkpt lat="47.26454" lon="-1.41632">
        <ele>49</ele>
        <time>2021-09-12T10:20:18.000Z</time>
      </trkpt>
      <trkpt lat="47.26462" lon="-1.41618">
        <ele>49</ele>
        <time>2021-09-12T10:20:20.000Z</time>
      </trkpt>
      <trkpt lat="47.2647" lon="-1.41605">
        <ele>49</ele>
        <time>2021-09-12T10:20:22.000Z</time>
      </trkpt>
      <trkpt lat="47.26477" lon="-1.41591">
        <ele>50</ele>
        <time>2021-09-12T10:20:24.000Z</time>
      </trkpt>
      <trkpt lat="47.26485" lon="-1.41577">
        <ele>50</ele>
        <time>2021-09-12T10:20:26.000Z</time>
      </trkpt>
      <trkpt lat="47.26492" lon="-1.41563">
        <ele>50</ele>
        <time>2021-09-12T10:20:28.000Z</time>
      </trkpt>
      <trkpt lat="47.265" lon="-1.4155">
        <ele>50</ele>
        <time>2021-09-12T10:20:30.000Z</time>
      </trkpt>
      <trkpt lat="47.26509" lon="-1.41536">
        <ele>50</ele>
        <time>2021-09-12T10:20:32.000Z</time>
      </trkpt>
      <trkpt lat="47.26517" lon="-1.41522">
        <ele>50</ele>
        <time>2021-09-12T10:20:34.000Z</time>
      </trkpt>
      <trkpt lat="47.26524" lon="-1.41509">
        <ele>50</ele>
        <time>2021-09-12T10:20:36.000Z</time>
      </trkpt>
      <trkpt lat="47.26532" lon="-1.41495">
        <ele>50</ele>
        <time>2021-09-12T10:20:38.000Z</time>
      </trkpt>
      <trkpt lat="47.2654" lon="-1.41483">
        <ele>50</ele>
        <time>2021-09-12T10:20:40.000Z</time>
      </trkpt>
      <trkpt lat="47.26549" lon="-1.41472">
        <ele>50</ele>
        <time>2021-09-12T10:20:42.000Z</time>
      </trkpt>
      <trkpt lat="47.26557" lon="-1.4146">
        <ele>50</ele>
        <time>2021-09-12T10:20:44.000Z</time>
      </trkpt>
      <trkpt lat="47.26564" lon="-1.41447">
        <ele>50</ele>
        <time>2021-09-12T10:20:46.000Z</time>
      </trkpt>
      <trkpt lat="47.26571" lon="-1.41432">
        <ele>50</ele>
        <time>2021-09-12T10:20:48.000Z</time>
      </trkpt>
      <trkpt lat="47.26577" lon="-1.41418">
        <ele>50</ele>
        <time>2021-09-12T10:20:50.000Z</time>
      </trkpt>
      <trkpt lat="47.26584" lon="-1.41404">
        <ele>50</ele>
        <time>2021-09-12T10:20:52.000Z</time>
      </trkpt>
      <trkpt lat="47.2659" lon="-1.41389">
        <ele>50</ele>
        <time>2021-09-12T10:20:54.000Z</time>
      </trkpt>
      <trkpt lat="47.26595" lon="-1.41375">
        <ele>50</ele>
        <time>2021-09-12T10:20:56.000Z</time>
      </trkpt>
      <trkpt lat="47.26601" lon="-1.4136">
        <ele>50</ele>
        <time>2021-09-12T10:20:58.000Z</time>
      </trkpt>
      <trkpt lat="47.26607" lon="-1.41344">
        <ele>50</ele>
        <time>2021-09-12T10:21:00.000Z</time>
      </trkpt>
      <trkpt lat="47.26614" lon="-1.41329">
        <ele>50</ele>
        <time>2021-09-12T10:21:02.000Z</time>
      </trkpt>
      <trkpt lat="47.26626" lon="-1.41308">
        <ele>49</ele>
        <time>2021-09-12T10:21:05.000Z</time>
      </trkpt>
      <trkpt lat="47.26634" lon="-1.41295">
        <ele>49</ele>
        <time>2021-09-12T10:21:07.000Z</time>
      </trkpt>
      <trkpt lat="47.26643" lon="-1.41282">
        <ele>49</ele>
        <time>2021-09-12T10:21:09.000Z</time>
      </trkpt>
      <trkpt lat="47.26652" lon="-1.4127">
        <ele>50</ele>
        <time>2021-09-12T10:21:11.000Z</time>
      </trkpt>
      <trkpt lat="47.2666" lon="-1.41257">
        <ele>50</ele>
        <time>2021-09-12T10:21:13.000Z</time>
      </trkpt>
      <trkpt lat="47.26668" lon="-1.41242">
        <ele>50</ele>
        <time>2021-09-12T10:21:15.000Z</time>
      </trkpt>
      <trkpt lat="47.26677" lon="-1.41229">
        <ele>50</ele>
        <time>2021-09-12T10:21:17.000Z</time>
      </trkpt>
      <trkpt lat="47.26686" lon="-1.41218">
        <ele>49</ele>
        <time>2021-09-12T10:21:19.000Z</time>
      </trkpt>
      <trkpt lat="47.26694" lon="-1.41206">
        <ele>49</ele>
        <time>2021-09-12T10:21:21.000Z</time>
      </trkpt>
      <trkpt lat="47.26704" lon="-1.41196">
        <ele>50</ele>
        <time>2021-09-12T10:21:23.000Z</time>
      </trkpt>
      <trkpt lat="47.26713" lon="-1.41186">
        <ele>50</ele>
        <time>2021-09-12T10:21:25.000Z</time>
      </trkpt>
      <trkpt lat="47.26722" lon="-1.41175">
        <ele>50</ele>
        <time>2021-09-12T10:21:27.000Z</time>
      </trkpt>
      <trkpt lat="47.26731" lon="-1.41164">
        <ele>50</ele>
        <time>2021-09-12T10:21:29.000Z</time>
      </trkpt>
      <trkpt lat="47.2674" lon="-1.41153">
        <ele>50</ele>
        <time>2021-09-12T10:21:31.000Z</time>
      </trkpt>
      <trkpt lat="47.26754" lon="-1.41138">
        <ele>50</ele>
        <time>2021-09-12T10:21:34.000Z</time>
      </trkpt>
      <trkpt lat="47.26767" lon="-1.41121">
        <ele>50</ele>
        <time>2021-09-12T10:21:37.000Z</time>
      </trkpt>
      <trkpt lat="47.26773" lon="-1.41108">
        <ele>50</ele>
        <time>2021-09-12T10:21:39.000Z</time>
      </trkpt>
      <trkpt lat="47.26779" lon="-1.41091">
        <ele>50</ele>
        <time>2021-09-12T10:21:41.000Z</time>
      </trkpt>
      <trkpt lat="47.26783" lon="-1.41076">
        <ele>50</ele>
        <time>2021-09-12T10:21:43.000Z</time>
      </trkpt>
      <trkpt lat="47.26788" lon="-1.4106">
        <ele>51</ele>
        <time>2021-09-12T10:21:45.000Z</time>
      </trkpt>
      <trkpt lat="47.26793" lon="-1.41046">
        <ele>51</ele>
        <time>2021-09-12T10:21:47.000Z</time>
      </trkpt>
      <trkpt lat="47.26799" lon="-1.41032">
        <ele>51</ele>
        <time>2021-09-12T10:21:49.000Z</time>
      </trkpt>
      <trkpt lat="47.26805" lon="-1.41018">
        <ele>51</ele>
        <time>2021-09-12T10:21:51.000Z</time>
      </trkpt>
      <trkpt lat="47.26815" lon="-1.41006">
        <ele>50</ele>
        <time>2021-09-12T10:21:53.000Z</time>
      </trkpt>
      <trkpt lat="47.26824" lon="-1.40995">
        <ele>51</ele>
        <time>2021-09-12T10:21:55.000Z</time>
      </trkpt>
      <trkpt lat="47.26834" lon="-1.40974">
        <ele>51</ele>
        <time>2021-09-12T10:21:58.000Z</time>
      </trkpt>
      <trkpt lat="47.2684" lon="-1.40959">
        <ele>52</ele>
        <time>2021-09-12T10:22:00.000Z</time>
      </trkpt>
      <trkpt lat="47.26845" lon="-1.40945">
        <ele>53</ele>
        <time>2021-09-12T10:22:02.000Z</time>
      </trkpt>
      <trkpt lat="47.26852" lon="-1.40934">
        <ele>53</ele>
        <time>2021-09-12T10:22:04.000Z</time>
      </trkpt>
      <trkpt lat="47.26862" lon="-1.40923">
        <ele>52</ele>
        <time>2021-09-12T10:22:06.000Z</time>
      </trkpt>
      <trkpt lat="47.26871" lon="-1.4091">
        <ele>52</ele>
        <time>2021-09-12T10:22:08.000Z</time>
      </trkpt>
      <trkpt lat="47.26877" lon="-1.40891">
        <ele>51</ele>
        <time>2021-09-12T10:22:10.000Z</time>
      </trkpt>
      <trkpt lat="47.26884" lon="-1.40872">
        <ele>50</ele>
        <time>2021-09-12T10:22:12.000Z</time>
      </trkpt>
      <trkpt lat="47.26899" lon="-1.40849">
        <ele>49</ele>
        <time>2021-09-12T10:22:15.000Z</time>
      </trkpt>
      <trkpt lat="47.26907" lon="-1.40836">
        <ele>50</ele>
        <time>2021-09-12T10:22:17.000Z</time>
      </trkpt>
      <trkpt lat="47.26914" lon="-1.40822">
        <ele>50</ele>
        <time>2021-09-12T10:22:19.000Z</time>
      </trkpt>
      <trkpt lat="47.2692" lon="-1.40809">
        <ele>51</ele>
        <time>2021-09-12T10:22:21.000Z</time>
      </trkpt>
      <trkpt lat="47.26927" lon="-1.40794">
        <ele>51</ele>
        <time>2021-09-12T10:22:23.000Z</time>
      </trkpt>
      <trkpt lat="47.26932" lon="-1.40779">
        <ele>52</ele>
        <time>2021-09-12T10:22:25.000Z</time>
      </trkpt>
      <trkpt lat="47.26933" lon="-1.40761">
        <ele>51</ele>
        <time>2021-09-12T10:22:27.000Z</time>
      </trkpt>
      <trkpt lat="47.26933" lon="-1.40743">
        <ele>51</ele>
        <time>2021-09-12T10:22:29.000Z</time>
      </trkpt>
      <trkpt lat="47.26934" lon="-1.40724">
        <ele>51</ele>
        <time>2021-09-12T10:22:31.000Z</time>
      </trkpt>
      <trkpt lat="47.26934" lon="-1.40705">
        <ele>51</ele>
        <time>2021-09-12T10:22:33.000Z</time>
      </trkpt>
      <trkpt lat="47.26935" lon="-1.40686">
        <ele>51</ele>
        <time>2021-09-12T10:22:35.000Z</time>
      </trkpt>
      <trkpt lat="47.26937" lon="-1.40668">
        <ele>52</ele>
        <time>2021-09-12T10:22:37.000Z</time>
      </trkpt>
      <trkpt lat="47.26939" lon="-1.4065">
        <ele>52</ele>
        <time>2021-09-12T10:22:39.000Z</time>
      </trkpt>
      <trkpt lat="47.26941" lon="-1.40633">
        <ele>52</ele>
        <time>2021-09-12T10:22:41.000Z</time>
      </trkpt>
      <trkpt lat="47.26943" lon="-1.40616">
        <ele>52</ele>
        <time>2021-09-12T10:22:43.000Z</time>
      </trkpt>
      <trkpt lat="47.26947" lon="-1.40598">
        <ele>52</ele>
        <time>2021-09-12T10:22:45.000Z</time>
      </trkpt>
      <trkpt lat="47.26952" lon="-1.40581">
        <ele>52</ele>
        <time>2021-09-12T10:22:47.000Z</time>
      </trkpt>
      <trkpt lat="47.26957" lon="-1.40564">
        <ele>51</ele>
        <time>2021-09-12T10:22:49.000Z</time>
      </trkpt>
      <trkpt lat="47.26964" lon="-1.40548">
        <ele>52</ele>
        <time>2021-09-12T10:22:51.000Z</time>
      </trkpt>
      <trkpt lat="47.26971" lon="-1.40534">
        <ele>52</ele>
        <time>2021-09-12T10:22:53.000Z</time>
      </trkpt>
      <trkpt lat="47.2698" lon="-1.4052">
        <ele>51</ele>
        <time>2021-09-12T10:22:55.000Z</time>
      </trkpt>
      <trkpt lat="47.26988" lon="-1.40506">
        <ele>51</ele>
        <time>2021-09-12T10:22:57.000Z</time>
      </trkpt>
      <trkpt lat="47.26997" lon="-1.40492">
        <ele>51</ele>
        <time>2021-09-12T10:22:59.000Z</time>
      </trkpt>
      <trkpt lat="47.27005" lon="-1.40479">
        <ele>51</ele>
        <time>2021-09-12T10:23:01.000Z</time>
      </trkpt>
      <trkpt lat="47.27014" lon="-1.40466">
        <ele>51</ele>
        <time>2021-09-12T10:23:03.000Z</time>
      </trkpt>
      <trkpt lat="47.27022" lon="-1.40453">
        <ele>51</ele>
        <time>2021-09-12T10:23:05.000Z</time>
      </trkpt>
      <trkpt lat="47.27031" lon="-1.40439">
        <ele>50</ele>
        <time>2021-09-12T10:23:07.000Z</time>
      </trkpt>
      <trkpt lat="47.27039" lon="-1.40426">
        <ele>50</ele>
        <time>2021-09-12T10:23:09.000Z</time>
      </trkpt>
      <trkpt lat="47.27048" lon="-1.40413">
        <ele>49</ele>
        <time>2021-09-12T10:23:11.000Z</time>
      </trkpt>
      <trkpt lat="47.27056" lon="-1.404">
        <ele>49</ele>
        <time>2021-09-12T10:23:13.000Z</time>
      </trkpt>
      <trkpt lat="47.27064" lon="-1.40387">
        <ele>50</ele>
        <time>2021-09-12T10:23:15.000Z</time>
      </trkpt>
      <trkpt lat="47.27072" lon="-1.40374">
        <ele>50</ele>
        <time>2021-09-12T10:23:17.000Z</time>
      </trkpt>
      <trkpt lat="47.27081" lon="-1.40361">
        <ele>50</ele>
        <time>2021-09-12T10:23:19.000Z</time>
      </trkpt>
      <trkpt lat="47.2709" lon="-1.40348">
        <ele>50</ele>
        <time>2021-09-12T10:23:21.000Z</time>
      </trkpt>
      <trkpt lat="47.27098" lon="-1.40335">
        <ele>49</ele>
        <time>2021-09-12T10:23:23.000Z</time>
      </trkpt>
      <trkpt lat="47.27106" lon="-1.40322">
        <ele>50</ele>
        <time>2021-09-12T10:23:25.000Z</time>
      </trkpt>
      <trkpt lat="47.27114" lon="-1.40309">
        <ele>49</ele>
        <time>2021-09-12T10:23:27.000Z</time>
      </trkpt>
      <trkpt lat="47.27122" lon="-1.40296">
        <ele>49</ele>
        <time>2021-09-12T10:23:29.000Z</time>
      </trkpt>
      <trkpt lat="47.27131" lon="-1.40284">
        <ele>49</ele>
        <time>2021-09-12T10:23:31.000Z</time>
      </trkpt>
      <trkpt lat="47.27139" lon="-1.4027">
        <ele>49</ele>
        <time>2021-09-12T10:23:33.000Z</time>
      </trkpt>
      <trkpt lat="47.27147" lon="-1.40257">
        <ele>49</ele>
        <time>2021-09-12T10:23:35.000Z</time>
      </trkpt>
      <trkpt lat="47.27155" lon="-1.40243">
        <ele>50</ele>
        <time>2021-09-12T10:23:37.000Z</time>
      </trkpt>
      <trkpt lat="47.27163" lon="-1.4023">
        <ele>50</ele>
        <time>2021-09-12T10:23:39.000Z</time>
      </trkpt>
      <trkpt lat="47.27171" lon="-1.40217">
        <ele>50</ele>
        <time>2021-09-12T10:23:41.000Z</time>
      </trkpt>
      <trkpt lat="47.27179" lon="-1.40204">
        <ele>50</ele>
        <time>2021-09-12T10:23:43.000Z</time>
      </trkpt>
      <trkpt lat="47.27189" lon="-1.40192">
        <ele>49</ele>
        <time>2021-09-12T10:23:45.000Z</time>
      </trkpt>
      <trkpt lat="47.27199" lon="-1.40181">
        <ele>49</ele>
        <time>2021-09-12T10:23:47.000Z</time>
      </trkpt>
      <trkpt lat="47.27206" lon="-1.40169">
        <ele>50</ele>
        <time>2021-09-12T10:23:49.000Z</time>
      </trkpt>
      <trkpt lat="47.27213" lon="-1.40154">
        <ele>51</ele>
        <time>2021-09-12T10:23:51.000Z</time>
      </trkpt>
      <trkpt lat="47.2722" lon="-1.4014">
        <ele>51</ele>
        <time>2021-09-12T10:23:53.000Z</time>
      </trkpt>
      <trkpt lat="47.27228" lon="-1.40127">
        <ele>51</ele>
        <time>2021-09-12T10:23:55.000Z</time>
      </trkpt>
      <trkpt lat="47.27236" lon="-1.40114">
        <ele>51</ele>
        <time>2021-09-12T10:23:57.000Z</time>
      </trkpt>
      <trkpt lat="47.27245" lon="-1.40101">
        <ele>51</ele>
        <time>2021-09-12T10:23:59.000Z</time>
      </trkpt>
      <trkpt lat="47.27253" lon="-1.40088">
        <ele>51</ele>
        <time>2021-09-12T10:24:01.000Z</time>
      </trkpt>
      <trkpt lat="47.27261" lon="-1.40076">
        <ele>51</ele>
        <time>2021-09-12T10:24:03.000Z</time>
      </trkpt>
      <trkpt lat="47.27269" lon="-1.40064">
        <ele>51</ele>
        <time>2021-09-12T10:24:05.000Z</time>
      </trkpt>
      <trkpt lat="47.27277" lon="-1.40052">
        <ele>51</ele>
        <time>2021-09-12T10:24:07.000Z</time>
      </trkpt>
      <trkpt lat="47.27284" lon="-1.40041">
        <ele>51</ele>
        <time>2021-09-12T10:24:09.000Z</time>
      </trkpt>
      <trkpt lat="47.27292" lon="-1.40029">
        <ele>51</ele>
        <time>2021-09-12T10:24:11.000Z</time>
      </trkpt>
      <trkpt lat="47.273" lon="-1.40017">
        <ele>50</ele>
        <time>2021-09-12T10:24:13.000Z</time>
      </trkpt>
      <trkpt lat="47.27308" lon="-1.40005">
        <ele>51</ele>
        <time>2021-09-12T10:24:15.000Z</time>
      </trkpt>
      <trkpt lat="47.27315" lon="-1.39992">
        <ele>50</ele>
        <time>2021-09-12T10:24:17.000Z</time>
      </trkpt>
      <trkpt lat="47.27323" lon="-1.39979">
        <ele>50</ele>
        <time>2021-09-12T10:24:19.000Z</time>
      </trkpt>
      <trkpt lat="47.27331" lon="-1.39967">
        <ele>51</ele>
        <time>2021-09-12T10:24:21.000Z</time>
      </trkpt>
      <trkpt lat="47.27339" lon="-1.39954">
        <ele>51</ele>
        <time>2021-09-12T10:24:23.000Z</time>
      </trkpt>
      <trkpt lat="47.27347" lon="-1.39942">
        <ele>50</ele>
        <time>2021-09-12T10:24:25.000Z</time>
      </trkpt>
      <trkpt lat="47.27355" lon="-1.39929">
        <ele>50</ele>
        <time>2021-09-12T10:24:27.000Z</time>
      </trkpt>
      <trkpt lat="47.27363" lon="-1.39916">
        <ele>51</ele>
        <time>2021-09-12T10:24:29.000Z</time>
      </trkpt>
      <trkpt lat="47.27371" lon="-1.39904">
        <ele>51</ele>
        <time>2021-09-12T10:24:31.000Z</time>
      </trkpt>
      <trkpt lat="47.27378" lon="-1.39893">
        <ele>50</ele>
        <time>2021-09-12T10:24:33.000Z</time>
      </trkpt>
      <trkpt lat="47.27388" lon="-1.39885">
        <ele>51</ele>
        <time>2021-09-12T10:24:35.000Z</time>
      </trkpt>
      <trkpt lat="47.274" lon="-1.39886">
        <ele>51</ele>
        <time>2021-09-12T10:24:37.000Z</time>
      </trkpt>
      <trkpt lat="47.27411" lon="-1.3989">
        <ele>50</ele>
        <time>2021-09-12T10:24:39.000Z</time>
      </trkpt>
      <trkpt lat="47.27422" lon="-1.39887">
        <ele>50</ele>
        <time>2021-09-12T10:24:41.000Z</time>
      </trkpt>
      <trkpt lat="47.27429" lon="-1.39876">
        <ele>50</ele>
        <time>2021-09-12T10:24:43.000Z</time>
      </trkpt>
      <trkpt lat="47.27433" lon="-1.39859">
        <ele>49</ele>
        <time>2021-09-12T10:24:45.000Z</time>
      </trkpt>
      <trkpt lat="47.27438" lon="-1.39841">
        <ele>49</ele>
        <time>2021-09-12T10:24:47.000Z</time>
      </trkpt>
      <trkpt lat="47.27443" lon="-1.39823">
        <ele>49</ele>
        <time>2021-09-12T10:24:49.000Z</time>
      </trkpt>
      <trkpt lat="47.27449" lon="-1.39805">
        <ele>49</ele>
        <time>2021-09-12T10:24:51.000Z</time>
      </trkpt>
      <trkpt lat="47.27457" lon="-1.39787">
        <ele>48</ele>
        <time>2021-09-12T10:24:53.000Z</time>
      </trkpt>
      <trkpt lat="47.27465" lon="-1.39771">
        <ele>48</ele>
        <time>2021-09-12T10:24:55.000Z</time>
      </trkpt>
      <trkpt lat="47.27474" lon="-1.39755">
        <ele>49</ele>
        <time>2021-09-12T10:24:57.000Z</time>
      </trkpt>
      <trkpt lat="47.27482" lon="-1.3974">
        <ele>50</ele>
        <time>2021-09-12T10:24:59.000Z</time>
      </trkpt>
      <trkpt lat="47.27488" lon="-1.39725">
        <ele>51</ele>
        <time>2021-09-12T10:25:01.000Z</time>
      </trkpt>
      <trkpt lat="47.27495" lon="-1.3971">
        <ele>50</ele>
        <time>2021-09-12T10:25:03.000Z</time>
      </trkpt>
      <trkpt lat="47.27504" lon="-1.39696">
        <ele>50</ele>
        <time>2021-09-12T10:25:05.000Z</time>
      </trkpt>
      <trkpt lat="47.27513" lon="-1.39683">
        <ele>50</ele>
        <time>2021-09-12T10:25:07.000Z</time>
      </trkpt>
      <trkpt lat="47.27522" lon="-1.39669">
        <ele>50</ele>
        <time>2021-09-12T10:25:09.000Z</time>
      </trkpt>
      <trkpt lat="47.27531" lon="-1.39655">
        <ele>50</ele>
        <time>2021-09-12T10:25:11.000Z</time>
      </trkpt>
      <trkpt lat="47.27539" lon="-1.39642">
        <ele>50</ele>
        <time>2021-09-12T10:25:13.000Z</time>
      </trkpt>
      <trkpt lat="47.27548" lon="-1.39628">
        <ele>50</ele>
        <time>2021-09-12T10:25:15.000Z</time>
      </trkpt>
      <trkpt lat="47.27556" lon="-1.39615">
        <ele>51</ele>
        <time>2021-09-12T10:25:17.000Z</time>
      </trkpt>
      <trkpt lat="47.27564" lon="-1.39601">
        <ele>51</ele>
        <time>2021-09-12T10:25:19.000Z</time>
      </trkpt>
      <trkpt lat="47.27573" lon="-1.39588">
        <ele>51</ele>
        <time>2021-09-12T10:25:21.000Z</time>
      </trkpt>
      <trkpt lat="47.27582" lon="-1.39575">
        <ele>51</ele>
        <time>2021-09-12T10:25:23.000Z</time>
      </trkpt>
      <trkpt lat="47.2759" lon="-1.39562">
        <ele>51</ele>
        <time>2021-09-12T10:25:25.000Z</time>
      </trkpt>
      <trkpt lat="47.27599" lon="-1.39549">
        <ele>51</ele>
        <time>2021-09-12T10:25:27.000Z</time>
      </trkpt>
      <trkpt lat="47.27607" lon="-1.39536">
        <ele>50</ele>
        <time>2021-09-12T10:25:29.000Z</time>
      </trkpt>
      <trkpt lat="47.27616" lon="-1.39523">
        <ele>49</ele>
        <time>2021-09-12T10:25:31.000Z</time>
      </trkpt>
      <trkpt lat="47.27626" lon="-1.39516">
        <ele>49</ele>
        <time>2021-09-12T10:25:33.000Z</time>
      </trkpt>
      <trkpt lat="47.27633" lon="-1.39502">
        <ele>49</ele>
        <time>2021-09-12T10:25:35.000Z</time>
      </trkpt>
      <trkpt lat="47.2764" lon="-1.39487">
        <ele>50</ele>
        <time>2021-09-12T10:25:37.000Z</time>
      </trkpt>
      <trkpt lat="47.27647" lon="-1.39473">
        <ele>50</ele>
        <time>2021-09-12T10:25:39.000Z</time>
      </trkpt>
      <trkpt lat="47.27655" lon="-1.39458">
        <ele>49</ele>
        <time>2021-09-12T10:25:41.000Z</time>
      </trkpt>
      <trkpt lat="47.27663" lon="-1.39444">
        <ele>50</ele>
        <time>2021-09-12T10:25:43.000Z</time>
      </trkpt>
      <trkpt lat="47.27671" lon="-1.3943">
        <ele>50</ele>
        <time>2021-09-12T10:25:45.000Z</time>
      </trkpt>
      <trkpt lat="47.27679" lon="-1.39416">
        <ele>50</ele>
        <time>2021-09-12T10:25:47.000Z</time>
      </trkpt>
      <trkpt lat="47.27687" lon="-1.39401">
        <ele>50</ele>
        <time>2021-09-12T10:25:49.000Z</time>
      </trkpt>
      <trkpt lat="47.27694" lon="-1.39386">
        <ele>50</ele>
        <time>2021-09-12T10:25:51.000Z</time>
      </trkpt>
      <trkpt lat="47.27701" lon="-1.39371">
        <ele>50</ele>
        <time>2021-09-12T10:25:53.000Z</time>
      </trkpt>
      <trkpt lat="47.27708" lon="-1.39355">
        <ele>50</ele>
        <time>2021-09-12T10:25:55.000Z</time>
      </trkpt>
      <trkpt lat="47.27716" lon="-1.3934">
        <ele>50</ele>
        <time>2021-09-12T10:25:57.000Z</time>
      </trkpt>
      <trkpt lat="47.27723" lon="-1.39324">
        <ele>51</ele>
        <time>2021-09-12T10:25:59.000Z</time>
      </trkpt>
      <trkpt lat="47.27729" lon="-1.3931">
        <ele>50</ele>
        <time>2021-09-12T10:26:01.000Z</time>
      </trkpt>
      <trkpt lat="47.27736" lon="-1.39295">
        <ele>51</ele>
        <time>2021-09-12T10:26:03.000Z</time>
      </trkpt>
      <trkpt lat="47.27744" lon="-1.3928">
        <ele>51</ele>
        <time>2021-09-12T10:26:05.000Z</time>
      </trkpt>
      <trkpt lat="47.2775" lon="-1.39264">
        <ele>51</ele>
        <time>2021-09-12T10:26:07.000Z</time>
      </trkpt>
      <trkpt lat="47.27757" lon="-1.39249">
        <ele>51</ele>
        <time>2021-09-12T10:26:09.000Z</time>
      </trkpt>
      <trkpt lat="47.27765" lon="-1.39234">
        <ele>50</ele>
        <time>2021-09-12T10:26:11.000Z</time>
      </trkpt>
      <trkpt lat="47.27772" lon="-1.39219">
        <ele>50</ele>
        <time>2021-09-12T10:26:13.000Z</time>
      </trkpt>
      <trkpt lat="47.27779" lon="-1.39204">
        <ele>50</ele>
        <time>2021-09-12T10:26:15.000Z</time>
      </trkpt>
      <trkpt lat="47.27787" lon="-1.39189">
        <ele>50</ele>
        <time>2021-09-12T10:26:17.000Z</time>
      </trkpt>
      <trkpt lat="47.27794" lon="-1.39176">
        <ele>50</ele>
        <time>2021-09-12T10:26:19.000Z</time>
      </trkpt>
      <trkpt lat="47.27802" lon="-1.39162">
        <ele>50</ele>
        <time>2021-09-12T10:26:21.000Z</time>
      </trkpt>
      <trkpt lat="47.2781" lon="-1.39148">
        <ele>50</ele>
        <time>2021-09-12T10:26:23.000Z</time>
      </trkpt>
      <trkpt lat="47.27818" lon="-1.39134">
        <ele>50</ele>
        <time>2021-09-12T10:26:25.000Z</time>
      </trkpt>
      <trkpt lat="47.27826" lon="-1.39121">
        <ele>50</ele>
        <time>2021-09-12T10:26:27.000Z</time>
      </trkpt>
      <trkpt lat="47.27835" lon="-1.39108">
        <ele>50</ele>
        <time>2021-09-12T10:26:29.000Z</time>
      </trkpt>
      <trkpt lat="47.27843" lon="-1.39094">
        <ele>50</ele>
        <time>2021-09-12T10:26:31.000Z</time>
      </trkpt>
      <trkpt lat="47.27851" lon="-1.39081">
        <ele>50</ele>
        <time>2021-09-12T10:26:33.000Z</time>
      </trkpt>
      <trkpt lat="47.27859" lon="-1.39067">
        <ele>51</ele>
        <time>2021-09-12T10:26:35.000Z</time>
      </trkpt>
      <trkpt lat="47.27867" lon="-1.39054">
        <ele>51</ele>
        <time>2021-09-12T10:26:37.000Z</time>
      </trkpt>
      <trkpt lat="47.27874" lon="-1.3904">
        <ele>52</ele>
        <time>2021-09-12T10:26:39.000Z</time>
      </trkpt>
      <trkpt lat="47.27882" lon="-1.39027">
        <ele>52</ele>
        <time>2021-09-12T10:26:41.000Z</time>
      </trkpt>
      <trkpt lat="47.2789" lon="-1.39014">
        <ele>52</ele>
        <time>2021-09-12T10:26:43.000Z</time>
      </trkpt>
      <trkpt lat="47.27899" lon="-1.39002">
        <ele>51</ele>
        <time>2021-09-12T10:26:45.000Z</time>
      </trkpt>
      <trkpt lat="47.27908" lon="-1.3899">
        <ele>52</ele>
        <time>2021-09-12T10:26:47.000Z</time>
      </trkpt>
      <trkpt lat="47.27916" lon="-1.38976">
        <ele>52</ele>
        <time>2021-09-12T10:26:49.000Z</time>
      </trkpt>
      <trkpt lat="47.27924" lon="-1.38962">
        <ele>52</ele>
        <time>2021-09-12T10:26:51.000Z</time>
      </trkpt>
      <trkpt lat="47.27932" lon="-1.38948">
        <ele>52</ele>
        <time>2021-09-12T10:26:53.000Z</time>
      </trkpt>
      <trkpt lat="47.2794" lon="-1.38935">
        <ele>52</ele>
        <time>2021-09-12T10:26:55.000Z</time>
      </trkpt>
      <trkpt lat="47.27949" lon="-1.38922">
        <ele>51</ele>
        <time>2021-09-12T10:26:57.000Z</time>
      </trkpt>
      <trkpt lat="47.27957" lon="-1.38908">
        <ele>51</ele>
        <time>2021-09-12T10:26:59.000Z</time>
      </trkpt>
      <trkpt lat="47.27966" lon="-1.38895">
        <ele>50</ele>
        <time>2021-09-12T10:27:01.000Z</time>
      </trkpt>
      <trkpt lat="47.27975" lon="-1.38882">
        <ele>51</ele>
        <time>2021-09-12T10:27:03.000Z</time>
      </trkpt>
      <trkpt lat="47.27983" lon="-1.3887">
        <ele>51</ele>
        <time>2021-09-12T10:27:05.000Z</time>
      </trkpt>
      <trkpt lat="47.27993" lon="-1.38858">
        <ele>51</ele>
        <time>2021-09-12T10:27:07.000Z</time>
      </trkpt>
      <trkpt lat="47.28002" lon="-1.38847">
        <ele>50</ele>
        <time>2021-09-12T10:27:09.000Z</time>
      </trkpt>
      <trkpt lat="47.28012" lon="-1.38837">
        <ele>51</ele>
        <time>2021-09-12T10:27:11.000Z</time>
      </trkpt>
      <trkpt lat="47.28021" lon="-1.38828">
        <ele>51</ele>
        <time>2021-09-12T10:27:13.000Z</time>
      </trkpt>
      <trkpt lat="47.28031" lon="-1.38818">
        <ele>51</ele>
        <time>2021-09-12T10:27:15.000Z</time>
      </trkpt>
      <trkpt lat="47.28042" lon="-1.38809">
        <ele>50</ele>
        <time>2021-09-12T10:27:17.000Z</time>
      </trkpt>
      <trkpt lat="47.28053" lon="-1.38801">
        <ele>50</ele>
        <time>2021-09-12T10:27:19.000Z</time>
      </trkpt>
      <trkpt lat="47.28065" lon="-1.38795">
        <ele>50</ele>
        <time>2021-09-12T10:27:21.000Z</time>
      </trkpt>
      <trkpt lat="47.28075" lon="-1.38785">
        <ele>49</ele>
        <time>2021-09-12T10:27:23.000Z</time>
      </trkpt>
      <trkpt lat="47.28087" lon="-1.3878">
        <ele>49</ele>
        <time>2021-09-12T10:27:25.000Z</time>
      </trkpt>
      <trkpt lat="47.28099" lon="-1.38778">
        <ele>49</ele>
        <time>2021-09-12T10:27:27.000Z</time>
      </trkpt>
      <trkpt lat="47.28109" lon="-1.38771">
        <ele>49</ele>
        <time>2021-09-12T10:27:29.000Z</time>
      </trkpt>
      <trkpt lat="47.28119" lon="-1.38764">
        <ele>50</ele>
        <time>2021-09-12T10:27:31.000Z</time>
      </trkpt>
      <trkpt lat="47.2813" lon="-1.38757">
        <ele>49</ele>
        <time>2021-09-12T10:27:33.000Z</time>
      </trkpt>
      <trkpt lat="47.2814" lon="-1.38748">
        <ele>49</ele>
        <time>2021-09-12T10:27:35.000Z</time>
      </trkpt>
      <trkpt lat="47.2815" lon="-1.38739">
        <ele>49</ele>
        <time>2021-09-12T10:27:37.000Z</time>
      </trkpt>
      <trkpt lat="47.28159" lon="-1.38728">
        <ele>49</ele>
        <time>2021-09-12T10:27:39.000Z</time>
      </trkpt>
      <trkpt lat="47.28169" lon="-1.38719">
        <ele>49</ele>
        <time>2021-09-12T10:27:41.000Z</time>
      </trkpt>
      <trkpt lat="47.28176" lon="-1.38706">
        <ele>49</ele>
        <time>2021-09-12T10:27:43.000Z</time>
      </trkpt>
      <trkpt lat="47.28181" lon="-1.38689">
        <ele>48</ele>
        <time>2021-09-12T10:27:45.000Z</time>
      </trkpt>
      <trkpt lat="47.28185" lon="-1.38672">
        <ele>48</ele>
        <time>2021-09-12T10:27:47.000Z</time>
      </trkpt>
      <trkpt lat="47.2819" lon="-1.38657">
        <ele>48</ele>
        <time>2021-09-12T10:27:49.000Z</time>
      </trkpt>
      <trkpt lat="47.28195" lon="-1.38641">
        <ele>49</ele>
        <time>2021-09-12T10:27:51.000Z</time>
      </trkpt>
      <trkpt lat="47.28199" lon="-1.38625">
        <ele>49</ele>
        <time>2021-09-12T10:27:53.000Z</time>
      </trkpt>
      <trkpt lat="47.28201" lon="-1.38608">
        <ele>49</ele>
        <time>2021-09-12T10:27:55.000Z</time>
      </trkpt>
      <trkpt lat="47.28201" lon="-1.38591">
        <ele>50</ele>
        <time>2021-09-12T10:27:57.000Z</time>
      </trkpt>
      <trkpt lat="47.28202" lon="-1.38574">
        <ele>50</ele>
        <time>2021-09-12T10:27:59.000Z</time>
      </trkpt>
      <trkpt lat="47.28203" lon="-1.38557">
        <ele>50</ele>
        <time>2021-09-12T10:28:01.000Z</time>
      </trkpt>
      <trkpt lat="47.28204" lon="-1.38539">
        <ele>50</ele>
        <time>2021-09-12T10:28:03.000Z</time>
      </trkpt>
      <trkpt lat="47.28207" lon="-1.38523">
        <ele>50</ele>
        <time>2021-09-12T10:28:05.000Z</time>
      </trkpt>
      <trkpt lat="47.28212" lon="-1.38508">
        <ele>50</ele>
        <time>2021-09-12T10:28:07.000Z</time>
      </trkpt>
      <trkpt lat="47.28219" lon="-1.38494">
        <ele>51</ele>
        <time>2021-09-12T10:28:09.000Z</time>
      </trkpt>
      <trkpt lat="47.28225" lon="-1.38479">
        <ele>50</ele>
        <time>2021-09-12T10:28:11.000Z</time>
      </trkpt>
      <trkpt lat="47.28231" lon="-1.38465">
        <ele>50</ele>
        <time>2021-09-12T10:28:13.000Z</time>
      </trkpt>
      <trkpt lat="47.28237" lon="-1.3845">
        <ele>51</ele>
        <time>2021-09-12T10:28:15.000Z</time>
      </trkpt>
      <trkpt lat="47.28242" lon="-1.38436">
        <ele>50</ele>
        <time>2021-09-12T10:28:17.000Z</time>
      </trkpt>
      <trkpt lat="47.28249" lon="-1.38424">
        <ele>50</ele>
        <time>2021-09-12T10:28:19.000Z</time>
      </trkpt>
      <trkpt lat="47.28257" lon="-1.38409">
        <ele>50</ele>
        <time>2021-09-12T10:28:21.000Z</time>
      </trkpt>
      <trkpt lat="47.28263" lon="-1.38394">
        <ele>50</ele>
        <time>2021-09-12T10:28:23.000Z</time>
      </trkpt>
      <trkpt lat="47.28269" lon="-1.38378">
        <ele>49</ele>
        <time>2021-09-12T10:28:25.000Z</time>
      </trkpt>
      <trkpt lat="47.28275" lon="-1.38364">
        <ele>49</ele>
        <time>2021-09-12T10:28:27.000Z</time>
      </trkpt>
      <trkpt lat="47.28282" lon="-1.38349">
        <ele>49</ele>
        <time>2021-09-12T10:28:29.000Z</time>
      </trkpt>
      <trkpt lat="47.28289" lon="-1.38334">
        <ele>48</ele>
        <time>2021-09-12T10:28:31.000Z</time>
      </trkpt>
      <trkpt lat="47.28296" lon="-1.38319">
        <ele>48</ele>
        <time>2021-09-12T10:28:33.000Z</time>
      </trkpt>
      <trkpt lat="47.28303" lon="-1.38305">
        <ele>47</ele>
        <time>2021-09-12T10:28:35.000Z</time>
      </trkpt>
      <trkpt lat="47.28311" lon="-1.38291">
        <ele>47</ele>
        <time>2021-09-12T10:28:37.000Z</time>
      </trkpt>
      <trkpt lat="47.28319" lon="-1.3828">
        <ele>47</ele>
        <time>2021-09-12T10:28:39.000Z</time>
      </trkpt>
      <trkpt lat="47.28329" lon="-1.38269">
        <ele>47</ele>
        <time>2021-09-12T10:28:41.000Z</time>
      </trkpt>
      <trkpt lat="47.28337" lon="-1.38258">
        <ele>47</ele>
        <time>2021-09-12T10:28:43.000Z</time>
      </trkpt>
      <trkpt lat="47.28346" lon="-1.38245">
        <ele>46</ele>
        <time>2021-09-12T10:28:45.000Z</time>
      </trkpt>
      <trkpt lat="47.28352" lon="-1.38229">
        <ele>46</ele>
        <time>2021-09-12T10:28:47.000Z</time>
      </trkpt>
      <trkpt lat="47.28355" lon="-1.38212">
        <ele>46</ele>
        <time>2021-09-12T10:28:49.000Z</time>
      </trkpt>
      <trkpt lat="47.28358" lon="-1.38197">
        <ele>46</ele>
        <time>2021-09-12T10:28:51.000Z</time>
      </trkpt>
      <trkpt lat="47.28362" lon="-1.38182">
        <ele>46</ele>
        <time>2021-09-12T10:28:53.000Z</time>
      </trkpt>
      <trkpt lat="47.28366" lon="-1.38167">
        <ele>47</ele>
        <time>2021-09-12T10:28:55.000Z</time>
      </trkpt>
      <trkpt lat="47.28372" lon="-1.38152">
        <ele>47</ele>
        <time>2021-09-12T10:28:57.000Z</time>
      </trkpt>
      <trkpt lat="47.28378" lon="-1.38137">
        <ele>47</ele>
        <time>2021-09-12T10:28:59.000Z</time>
      </trkpt>
      <trkpt lat="47.28386" lon="-1.38123">
        <ele>47</ele>
        <time>2021-09-12T10:29:01.000Z</time>
      </trkpt>
      <trkpt lat="47.28394" lon="-1.3811">
        <ele>47</ele>
        <time>2021-09-12T10:29:03.000Z</time>
      </trkpt>
      <trkpt lat="47.28402" lon="-1.38099">
        <ele>47</ele>
        <time>2021-09-12T10:29:05.000Z</time>
      </trkpt>
      <trkpt lat="47.28411" lon="-1.38088">
        <ele>48</ele>
        <time>2021-09-12T10:29:07.000Z</time>
      </trkpt>
      <trkpt lat="47.2842" lon="-1.38077">
        <ele>48</ele>
        <time>2021-09-12T10:29:09.000Z</time>
      </trkpt>
      <trkpt lat="47.2843" lon="-1.38066">
        <ele>48</ele>
        <time>2021-09-12T10:29:11.000Z</time>
      </trkpt>
      <trkpt lat="47.28439" lon="-1.38056">
        <ele>49</ele>
        <time>2021-09-12T10:29:13.000Z</time>
      </trkpt>
      <trkpt lat="47.28448" lon="-1.38045">
        <ele>49</ele>
        <time>2021-09-12T10:29:15.000Z</time>
      </trkpt>
      <trkpt lat="47.28457" lon="-1.38034">
        <ele>48</ele>
        <time>2021-09-12T10:29:17.000Z</time>
      </trkpt>
      <trkpt lat="47.28465" lon="-1.38025">
        <ele>48</ele>
        <time>2021-09-12T10:29:19.000Z</time>
      </trkpt>
      <trkpt lat="47.28475" lon="-1.38024">
        <ele>48</ele>
        <time>2021-09-12T10:29:21.000Z</time>
      </trkpt>
      <trkpt lat="47.28486" lon="-1.38026">
        <ele>48</ele>
        <time>2021-09-12T10:29:23.000Z</time>
      </trkpt>
      <trkpt lat="47.28498" lon="-1.38022">
        <ele>48</ele>
        <time>2021-09-12T10:29:25.000Z</time>
      </trkpt>
      <trkpt lat="47.28507" lon="-1.38012">
        <ele>48</ele>
        <time>2021-09-12T10:29:27.000Z</time>
      </trkpt>
      <trkpt lat="47.28515" lon="-1.38001">
        <ele>48</ele>
        <time>2021-09-12T10:29:29.000Z</time>
      </trkpt>
      <trkpt lat="47.28523" lon="-1.3799">
        <ele>48</ele>
        <time>2021-09-12T10:29:31.000Z</time>
      </trkpt>
      <trkpt lat="47.28529" lon="-1.37976">
        <ele>48</ele>
        <time>2021-09-12T10:29:33.000Z</time>
      </trkpt>
      <trkpt lat="47.28528" lon="-1.3796">
        <ele>49</ele>
        <time>2021-09-12T10:29:35.000Z</time>
      </trkpt>
      <trkpt lat="47.28533" lon="-1.37945">
        <ele>49</ele>
        <time>2021-09-12T10:29:37.000Z</time>
      </trkpt>
      <trkpt lat="47.28541" lon="-1.37933">
        <ele>49</ele>
        <time>2021-09-12T10:29:39.000Z</time>
      </trkpt>
      <trkpt lat="47.28551" lon="-1.37923">
        <ele>49</ele>
        <time>2021-09-12T10:29:41.000Z</time>
      </trkpt>
      <trkpt lat="47.2856" lon="-1.37913">
        <ele>48</ele>
        <time>2021-09-12T10:29:43.000Z</time>
      </trkpt>
      <trkpt lat="47.2857" lon="-1.37901">
        <ele>48</ele>
        <time>2021-09-12T10:29:45.000Z</time>
      </trkpt>
      <trkpt lat="47.28579" lon="-1.37891">
        <ele>48</ele>
        <time>2021-09-12T10:29:47.000Z</time>
      </trkpt>
      <trkpt lat="47.28588" lon="-1.3788">
        <ele>48</ele>
        <time>2021-09-12T10:29:49.000Z</time>
      </trkpt>
      <trkpt lat="47.28598" lon="-1.3787">
        <ele>48</ele>
        <time>2021-09-12T10:29:51.000Z</time>
      </trkpt>
      <trkpt lat="47.28607" lon="-1.37859">
        <ele>48</ele>
        <time>2021-09-12T10:29:53.000Z</time>
      </trkpt>
      <trkpt lat="47.28615" lon="-1.37848">
        <ele>48</ele>
        <time>2021-09-12T10:29:55.000Z</time>
      </trkpt>
      <trkpt lat="47.28625" lon="-1.37837">
        <ele>49</ele>
        <time>2021-09-12T10:29:57.000Z</time>
      </trkpt>
      <trkpt lat="47.28634" lon="-1.37827">
        <ele>48</ele>
        <time>2021-09-12T10:29:59.000Z</time>
      </trkpt>
      <trkpt lat="47.28643" lon="-1.37816">
        <ele>48</ele>
        <time>2021-09-12T10:30:01.000Z</time>
      </trkpt>
      <trkpt lat="47.28653" lon="-1.37806">
        <ele>49</ele>
        <time>2021-09-12T10:30:03.000Z</time>
      </trkpt>
      <trkpt lat="47.28662" lon="-1.37795">
        <ele>48</ele>
        <time>2021-09-12T10:30:05.000Z</time>
      </trkpt>
      <trkpt lat="47.28671" lon="-1.37785">
        <ele>48</ele>
        <time>2021-09-12T10:30:07.000Z</time>
      </trkpt>
      <trkpt lat="47.28681" lon="-1.37774">
        <ele>48</ele>
        <time>2021-09-12T10:30:09.000Z</time>
      </trkpt>
      <trkpt lat="47.2869" lon="-1.37764">
        <ele>48</ele>
        <time>2021-09-12T10:30:11.000Z</time>
      </trkpt>
      <trkpt lat="47.28699" lon="-1.37752">
        <ele>48</ele>
        <time>2021-09-12T10:30:13.000Z</time>
      </trkpt>
      <trkpt lat="47.28708" lon="-1.37744">
        <ele>47</ele>
        <time>2021-09-12T10:30:15.000Z</time>
      </trkpt>
      <trkpt lat="47.28718" lon="-1.37735">
        <ele>48</ele>
        <time>2021-09-12T10:30:17.000Z</time>
      </trkpt>
      <trkpt lat="47.28728" lon="-1.37725">
        <ele>48</ele>
        <time>2021-09-12T10:30:19.000Z</time>
      </trkpt>
      <trkpt lat="47.28736" lon="-1.37714">
        <ele>48</ele>
        <time>2021-09-12T10:30:21.000Z</time>
      </trkpt>
      <trkpt lat="47.28744" lon="-1.37702">
        <ele>48</ele>
        <time>2021-09-12T10:30:23.000Z</time>
      </trkpt>
      <trkpt lat="47.28753" lon="-1.3769">
        <ele>48</ele>
        <time>2021-09-12T10:30:25.000Z</time>
      </trkpt>
      <trkpt lat="47.28763" lon="-1.37678">
        <ele>47</ele>
        <time>2021-09-12T10:30:27.000Z</time>
      </trkpt>
      <trkpt lat="47.28771" lon="-1.37668">
        <ele>47</ele>
        <time>2021-09-12T10:30:29.000Z</time>
      </trkpt>
      <trkpt lat="47.2878" lon="-1.37658">
        <ele>47</ele>
        <time>2021-09-12T10:30:31.000Z</time>
      </trkpt>
      <trkpt lat="47.28789" lon="-1.37649">
        <ele>48</ele>
        <time>2021-09-12T10:30:33.000Z</time>
      </trkpt>
      <trkpt lat="47.28798" lon="-1.37642">
        <ele>48</ele>
        <time>2021-09-12T10:30:35.000Z</time>
      </trkpt>
      <trkpt lat="47.28807" lon="-1.37634">
        <ele>47</ele>
        <time>2021-09-12T10:30:37.000Z</time>
      </trkpt>
      <trkpt lat="47.28815" lon="-1.37626">
        <ele>48</ele>
        <time>2021-09-12T10:30:39.000Z</time>
      </trkpt>
      <trkpt lat="47.28824" lon="-1.37615">
        <ele>48</ele>
        <time>2021-09-12T10:30:42.000Z</time>
      </trkpt>
      <trkpt lat="47.28815" lon="-1.37617">
        <ele>51</ele>
        <time>2021-09-12T10:30:49.000Z</time>
      </trkpt>
      <trkpt lat="47.28805" lon="-1.37625">
        <ele>52</ele>
        <time>2021-09-12T10:30:51.000Z</time>
      </trkpt>
      <trkpt lat="47.28798" lon="-1.37632">
        <ele>52</ele>
        <time>2021-09-12T10:30:53.000Z</time>
      </trkpt>
      <trkpt lat="47.28789" lon="-1.37638">
        <ele>52</ele>
        <time>2021-09-12T10:30:57.000Z</time>
      </trkpt>
      <trkpt lat="47.28794" lon="-1.37626">
        <ele>52</ele>
        <time>2021-09-12T10:31:00.000Z</time>
      </trkpt>
      <trkpt lat="47.28805" lon="-1.37614">
        <ele>53</ele>
        <time>2021-09-12T10:31:03.000Z</time>
      </trkpt>
      <trkpt lat="47.28811" lon="-1.37604">
        <ele>53</ele>
        <time>2021-09-12T10:31:05.000Z</time>
      </trkpt>
      <trkpt lat="47.2882" lon="-1.3759">
        <ele>53</ele>
        <time>2021-09-12T10:31:08.000Z</time>
      </trkpt>
      <trkpt lat="47.28826" lon="-1.37579">
        <ele>53</ele>
        <time>2021-09-12T10:31:10.000Z</time>
      </trkpt>
      <trkpt lat="47.28837" lon="-1.37571">
        <ele>54</ele>
        <time>2021-09-12T10:31:13.000Z</time>
      </trkpt>
      <trkpt lat="47.28842" lon="-1.37583">
        <ele>53</ele>
        <time>2021-09-12T10:31:16.000Z</time>
      </trkpt>
      <trkpt lat="47.2885" lon="-1.37594">
        <ele>53</ele>
        <time>2021-09-12T10:31:19.000Z</time>
      </trkpt>
      <trkpt lat="47.2886" lon="-1.37606">
        <ele>55</ele>
        <time>2021-09-12T10:31:22.000Z</time>
      </trkpt>
      <trkpt lat="47.28868" lon="-1.37616">
        <ele>55</ele>
        <time>2021-09-12T10:31:24.000Z</time>
      </trkpt>
      <trkpt lat="47.28876" lon="-1.37626">
        <ele>56</ele>
        <time>2021-09-12T10:31:26.000Z</time>
      </trkpt>
      <trkpt lat="47.28885" lon="-1.37637">
        <ele>57</ele>
        <time>2021-09-12T10:31:28.000Z</time>
      </trkpt>
      <trkpt lat="47.28894" lon="-1.37648">
        <ele>57</ele>
        <time>2021-09-12T10:31:30.000Z</time>
      </trkpt>
      <trkpt lat="47.28904" lon="-1.37659">
        <ele>57</ele>
        <time>2021-09-12T10:31:32.000Z</time>
      </trkpt>
      <trkpt lat="47.28913" lon="-1.37671">
        <ele>58</ele>
        <time>2021-09-12T10:31:34.000Z</time>
      </trkpt>
      <trkpt lat="47.28922" lon="-1.37684">
        <ele>57</ele>
        <time>2021-09-12T10:31:36.000Z</time>
      </trkpt>
      <trkpt lat="47.28933" lon="-1.37698">
        <ele>56</ele>
        <time>2021-09-12T10:31:38.000Z</time>
      </trkpt>
      <trkpt lat="47.28945" lon="-1.37712">
        <ele>55</ele>
        <time>2021-09-12T10:31:40.000Z</time>
      </trkpt>
      <trkpt lat="47.28956" lon="-1.37726">
        <ele>54</ele>
        <time>2021-09-12T10:31:42.000Z</time>
      </trkpt>
      <trkpt lat="47.28967" lon="-1.3774">
        <ele>53</ele>
        <time>2021-09-12T10:31:44.000Z</time>
      </trkpt>
      <trkpt lat="47.28978" lon="-1.37753">
        <ele>53</ele>
        <time>2021-09-12T10:31:46.000Z</time>
      </trkpt>
      <trkpt lat="47.28988" lon="-1.37766">
        <ele>52</ele>
        <time>2021-09-12T10:31:48.000Z</time>
      </trkpt>
      <trkpt lat="47.28998" lon="-1.37778">
        <ele>53</ele>
        <time>2021-09-12T10:31:50.000Z</time>
      </trkpt>
      <trkpt lat="47.29008" lon="-1.3779">
        <ele>53</ele>
        <time>2021-09-12T10:31:52.000Z</time>
      </trkpt>
      <trkpt lat="47.29018" lon="-1.37802">
        <ele>53</ele>
        <time>2021-09-12T10:31:54.000Z</time>
      </trkpt>
      <trkpt lat="47.29028" lon="-1.37815">
        <ele>52</ele>
        <time>2021-09-12T10:31:56.000Z</time>
      </trkpt>
      <trkpt lat="47.29038" lon="-1.37827">
        <ele>52</ele>
        <time>2021-09-12T10:31:58.000Z</time>
      </trkpt>
      <trkpt lat="47.29048" lon="-1.37839">
        <ele>52</ele>
        <time>2021-09-12T10:32:00.000Z</time>
      </trkpt>
      <trkpt lat="47.29059" lon="-1.37853">
        <ele>52</ele>
        <time>2021-09-12T10:32:02.000Z</time>
      </trkpt>
      <trkpt lat="47.29069" lon="-1.37865">
        <ele>52</ele>
        <time>2021-09-12T10:32:04.000Z</time>
      </trkpt>
      <trkpt lat="47.29079" lon="-1.37877">
        <ele>52</ele>
        <time>2021-09-12T10:32:06.000Z</time>
      </trkpt>
      <trkpt lat="47.29088" lon="-1.37888">
        <ele>53</ele>
        <time>2021-09-12T10:32:08.000Z</time>
      </trkpt>
      <trkpt lat="47.29098" lon="-1.37897">
        <ele>54</ele>
        <time>2021-09-12T10:32:10.000Z</time>
      </trkpt>
      <trkpt lat="47.29108" lon="-1.37907">
        <ele>54</ele>
        <time>2021-09-12T10:32:12.000Z</time>
      </trkpt>
      <trkpt lat="47.29117" lon="-1.37919">
        <ele>55</ele>
        <time>2021-09-12T10:32:14.000Z</time>
      </trkpt>
      <trkpt lat="47.29127" lon="-1.37931">
        <ele>55</ele>
        <time>2021-09-12T10:32:16.000Z</time>
      </trkpt>
      <trkpt lat="47.29136" lon="-1.37942">
        <ele>56</ele>
        <time>2021-09-12T10:32:18.000Z</time>
      </trkpt>
      <trkpt lat="47.29146" lon="-1.37954">
        <ele>56</ele>
        <time>2021-09-12T10:32:20.000Z</time>
      </trkpt>
      <trkpt lat="47.29155" lon="-1.37964">
        <ele>58</ele>
        <time>2021-09-12T10:32:22.000Z</time>
      </trkpt>
      <trkpt lat="47.29164" lon="-1.37977">
        <ele>58</ele>
        <time>2021-09-12T10:32:24.000Z</time>
      </trkpt>
      <trkpt lat="47.29173" lon="-1.37987">
        <ele>59</ele>
        <time>2021-09-12T10:32:26.000Z</time>
      </trkpt>
      <trkpt lat="47.29182" lon="-1.37998">
        <ele>59</ele>
        <time>2021-09-12T10:32:28.000Z</time>
      </trkpt>
      <trkpt lat="47.2919" lon="-1.38008">
        <ele>60</ele>
        <time>2021-09-12T10:32:30.000Z</time>
      </trkpt>
      <trkpt lat="47.292" lon="-1.3802">
        <ele>61</ele>
        <time>2021-09-12T10:32:32.000Z</time>
      </trkpt>
      <trkpt lat="47.29209" lon="-1.38032">
        <ele>62</ele>
        <time>2021-09-12T10:32:34.000Z</time>
      </trkpt>
      <trkpt lat="47.29219" lon="-1.38044">
        <ele>62</ele>
        <time>2021-09-12T10:32:36.000Z</time>
      </trkpt>
      <trkpt lat="47.29228" lon="-1.38056">
        <ele>63</ele>
        <time>2021-09-12T10:32:38.000Z</time>
      </trkpt>
      <trkpt lat="47.29238" lon="-1.38068">
        <ele>63</ele>
        <time>2021-09-12T10:32:40.000Z</time>
      </trkpt>
      <trkpt lat="47.29247" lon="-1.38079">
        <ele>64</ele>
        <time>2021-09-12T10:32:42.000Z</time>
      </trkpt>
      <trkpt lat="47.29257" lon="-1.38091">
        <ele>64</ele>
        <time>2021-09-12T10:32:44.000Z</time>
      </trkpt>
      <trkpt lat="47.29266" lon="-1.38103">
        <ele>64</ele>
        <time>2021-09-12T10:32:46.000Z</time>
      </trkpt>
      <trkpt lat="47.29275" lon="-1.38114">
        <ele>65</ele>
        <time>2021-09-12T10:32:48.000Z</time>
      </trkpt>
      <trkpt lat="47.29286" lon="-1.38127">
        <ele>65</ele>
        <time>2021-09-12T10:32:50.000Z</time>
      </trkpt>
      <trkpt lat="47.29296" lon="-1.38139">
        <ele>65</ele>
        <time>2021-09-12T10:32:52.000Z</time>
      </trkpt>
      <trkpt lat="47.29305" lon="-1.38151">
        <ele>65</ele>
        <time>2021-09-12T10:32:54.000Z</time>
      </trkpt>
      <trkpt lat="47.29315" lon="-1.38163">
        <ele>65</ele>
        <time>2021-09-12T10:32:56.000Z</time>
      </trkpt>
      <trkpt lat="47.29325" lon="-1.38176">
        <ele>66</ele>
        <time>2021-09-12T10:32:58.000Z</time>
      </trkpt>
      <trkpt lat="47.29336" lon="-1.38188">
        <ele>66</ele>
        <time>2021-09-12T10:33:00.000Z</time>
      </trkpt>
      <trkpt lat="47.29346" lon="-1.38201">
        <ele>65</ele>
        <time>2021-09-12T10:33:02.000Z</time>
      </trkpt>
      <trkpt lat="47.29356" lon="-1.38214">
        <ele>65</ele>
        <time>2021-09-12T10:33:04.000Z</time>
      </trkpt>
      <trkpt lat="47.29366" lon="-1.38226">
        <ele>65</ele>
        <time>2021-09-12T10:33:06.000Z</time>
      </trkpt>
      <trkpt lat="47.29376" lon="-1.38239">
        <ele>65</ele>
        <time>2021-09-12T10:33:08.000Z</time>
      </trkpt>
      <trkpt lat="47.29386" lon="-1.38251">
        <ele>64</ele>
        <time>2021-09-12T10:33:10.000Z</time>
      </trkpt>
      <trkpt lat="47.29396" lon="-1.38263">
        <ele>64</ele>
        <time>2021-09-12T10:33:12.000Z</time>
      </trkpt>
      <trkpt lat="47.29406" lon="-1.38275">
        <ele>63</ele>
        <time>2021-09-12T10:33:14.000Z</time>
      </trkpt>
      <trkpt lat="47.29415" lon="-1.38287">
        <ele>62</ele>
        <time>2021-09-12T10:33:16.000Z</time>
      </trkpt>
      <trkpt lat="47.29425" lon="-1.38297">
        <ele>62</ele>
        <time>2021-09-12T10:33:18.000Z</time>
      </trkpt>
      <trkpt lat="47.29435" lon="-1.38308">
        <ele>61</ele>
        <time>2021-09-12T10:33:20.000Z</time>
      </trkpt>
      <trkpt lat="47.29443" lon="-1.38317">
        <ele>60</ele>
        <time>2021-09-12T10:33:22.000Z</time>
      </trkpt>
      <trkpt lat="47.2944" lon="-1.3833">
        <ele>59</ele>
        <time>2021-09-12T10:33:24.000Z</time>
      </trkpt>
      <trkpt lat="47.29438" lon="-1.38347">
        <ele>58</ele>
        <time>2021-09-12T10:33:26.000Z</time>
      </trkpt>
      <trkpt lat="47.29435" lon="-1.38365">
        <ele>57</ele>
        <time>2021-09-12T10:33:28.000Z</time>
      </trkpt>
      <trkpt lat="47.29431" lon="-1.38385">
        <ele>56</ele>
        <time>2021-09-12T10:33:30.000Z</time>
      </trkpt>
      <trkpt lat="47.29426" lon="-1.38404">
        <ele>55</ele>
        <time>2021-09-12T10:33:32.000Z</time>
      </trkpt>
      <trkpt lat="47.29421" lon="-1.38423">
        <ele>55</ele>
        <time>2021-09-12T10:33:34.000Z</time>
      </trkpt>
      <trkpt lat="47.29417" lon="-1.38443">
        <ele>54</ele>
        <time>2021-09-12T10:33:36.000Z</time>
      </trkpt>
      <trkpt lat="47.29412" lon="-1.38463">
        <ele>54</ele>
        <time>2021-09-12T10:33:38.000Z</time>
      </trkpt>
      <trkpt lat="47.29407" lon="-1.38482">
        <ele>54</ele>
        <time>2021-09-12T10:33:40.000Z</time>
      </trkpt>
      <trkpt lat="47.29401" lon="-1.38499">
        <ele>53</ele>
        <time>2021-09-12T10:33:42.000Z</time>
      </trkpt>
      <trkpt lat="47.29394" lon="-1.38517">
        <ele>53</ele>
        <time>2021-09-12T10:33:44.000Z</time>
      </trkpt>
      <trkpt lat="47.29387" lon="-1.38534">
        <ele>53</ele>
        <time>2021-09-12T10:33:46.000Z</time>
      </trkpt>
      <trkpt lat="47.2938" lon="-1.38551">
        <ele>53</ele>
        <time>2021-09-12T10:33:48.000Z</time>
      </trkpt>
      <trkpt lat="47.29373" lon="-1.38568">
        <ele>53</ele>
        <time>2021-09-12T10:33:50.000Z</time>
      </trkpt>
      <trkpt lat="47.29367" lon="-1.38587">
        <ele>52</ele>
        <time>2021-09-12T10:33:52.000Z</time>
      </trkpt>
      <trkpt lat="47.2936" lon="-1.38607">
        <ele>51</ele>
        <time>2021-09-12T10:33:54.000Z</time>
      </trkpt>
      <trkpt lat="47.29354" lon="-1.38627">
        <ele>51</ele>
        <time>2021-09-12T10:33:56.000Z</time>
      </trkpt>
      <trkpt lat="47.29349" lon="-1.38644">
        <ele>51</ele>
        <time>2021-09-12T10:33:58.000Z</time>
      </trkpt>
      <trkpt lat="47.29344" lon="-1.38655">
        <ele>50</ele>
        <time>2021-09-12T10:34:01.000Z</time>
      </trkpt>
      <trkpt lat="47.2934" lon="-1.3867">
        <ele>49</ele>
        <time>2021-09-12T10:35:23.000Z</time>
      </trkpt>
      <trkpt lat="47.29336" lon="-1.38683">
        <ele>49</ele>
        <time>2021-09-12T10:35:25.000Z</time>
      </trkpt>
      <trkpt lat="47.29331" lon="-1.38696">
        <ele>49</ele>
        <time>2021-09-12T10:35:27.000Z</time>
      </trkpt>
      <trkpt lat="47.29325" lon="-1.38708">
        <ele>48</ele>
        <time>2021-09-12T10:35:29.000Z</time>
      </trkpt>
      <trkpt lat="47.29323" lon="-1.38723">
        <ele>47</ele>
        <time>2021-09-12T10:35:31.000Z</time>
      </trkpt>
      <trkpt lat="47.29321" lon="-1.38741">
        <ele>48</ele>
        <time>2021-09-12T10:35:33.000Z</time>
      </trkpt>
      <trkpt lat="47.29317" lon="-1.38758">
        <ele>49</ele>
        <time>2021-09-12T10:35:35.000Z</time>
      </trkpt>
      <trkpt lat="47.29313" lon="-1.38774">
        <ele>49</ele>
        <time>2021-09-12T10:35:37.000Z</time>
      </trkpt>
      <trkpt lat="47.29309" lon="-1.3879">
        <ele>49</ele>
        <time>2021-09-12T10:35:39.000Z</time>
      </trkpt>
      <trkpt lat="47.29304" lon="-1.38807">
        <ele>49</ele>
        <time>2021-09-12T10:35:41.000Z</time>
      </trkpt>
      <trkpt lat="47.29299" lon="-1.38824">
        <ele>49</ele>
        <time>2021-09-12T10:35:43.000Z</time>
      </trkpt>
      <trkpt lat="47.29293" lon="-1.38841">
        <ele>49</ele>
        <time>2021-09-12T10:35:45.000Z</time>
      </trkpt>
      <trkpt lat="47.29289" lon="-1.38859">
        <ele>49</ele>
        <time>2021-09-12T10:35:47.000Z</time>
      </trkpt>
      <trkpt lat="47.29285" lon="-1.38877">
        <ele>49</ele>
        <time>2021-09-12T10:35:49.000Z</time>
      </trkpt>
      <trkpt lat="47.29281" lon="-1.38894">
        <ele>49</ele>
        <time>2021-09-12T10:35:51.000Z</time>
      </trkpt>
      <trkpt lat="47.29274" lon="-1.38921">
        <ele>50</ele>
        <time>2021-09-12T10:35:54.000Z</time>
      </trkpt>
      <trkpt lat="47.29269" lon="-1.38938">
        <ele>50</ele>
        <time>2021-09-12T10:35:56.000Z</time>
      </trkpt>
      <trkpt lat="47.29264" lon="-1.38957">
        <ele>50</ele>
        <time>2021-09-12T10:35:58.000Z</time>
      </trkpt>
      <trkpt lat="47.29259" lon="-1.38974">
        <ele>50</ele>
        <time>2021-09-12T10:36:00.000Z</time>
      </trkpt>
      <trkpt lat="47.29254" lon="-1.38991">
        <ele>50</ele>
        <time>2021-09-12T10:36:02.000Z</time>
      </trkpt>
      <trkpt lat="47.2925" lon="-1.39008">
        <ele>51</ele>
        <time>2021-09-12T10:36:04.000Z</time>
      </trkpt>
      <trkpt lat="47.29245" lon="-1.39025">
        <ele>51</ele>
        <time>2021-09-12T10:36:06.000Z</time>
      </trkpt>
      <trkpt lat="47.29241" lon="-1.39043">
        <ele>51</ele>
        <time>2021-09-12T10:36:08.000Z</time>
      </trkpt>
      <trkpt lat="47.29233" lon="-1.39069">
        <ele>51</ele>
        <time>2021-09-12T10:36:11.000Z</time>
      </trkpt>
      <trkpt lat="47.29228" lon="-1.39085">
        <ele>51</ele>
        <time>2021-09-12T10:36:13.000Z</time>
      </trkpt>
      <trkpt lat="47.29217" lon="-1.39108">
        <ele>51</ele>
        <time>2021-09-12T10:36:16.000Z</time>
      </trkpt>
      <trkpt lat="47.29203" lon="-1.39128">
        <ele>52</ele>
        <time>2021-09-12T10:36:19.000Z</time>
      </trkpt>
      <trkpt lat="47.29192" lon="-1.3914">
        <ele>51</ele>
        <time>2021-09-12T10:36:21.000Z</time>
      </trkpt>
      <trkpt lat="47.29182" lon="-1.39154">
        <ele>51</ele>
        <time>2021-09-12T10:36:23.000Z</time>
      </trkpt>
      <trkpt lat="47.29172" lon="-1.39167">
        <ele>50</ele>
        <time>2021-09-12T10:36:25.000Z</time>
      </trkpt>
      <trkpt lat="47.29162" lon="-1.39179">
        <ele>51</ele>
        <time>2021-09-12T10:36:27.000Z</time>
      </trkpt>
      <trkpt lat="47.29152" lon="-1.39191">
        <ele>51</ele>
        <time>2021-09-12T10:36:29.000Z</time>
      </trkpt>
      <trkpt lat="47.29141" lon="-1.39204">
        <ele>51</ele>
        <time>2021-09-12T10:36:31.000Z</time>
      </trkpt>
      <trkpt lat="47.29131" lon="-1.39216">
        <ele>51</ele>
        <time>2021-09-12T10:36:33.000Z</time>
      </trkpt>
      <trkpt lat="47.29121" lon="-1.39228">
        <ele>51</ele>
        <time>2021-09-12T10:36:35.000Z</time>
      </trkpt>
      <trkpt lat="47.29111" lon="-1.39241">
        <ele>51</ele>
        <time>2021-09-12T10:36:37.000Z</time>
      </trkpt>
      <trkpt lat="47.29102" lon="-1.39255">
        <ele>52</ele>
        <time>2021-09-12T10:36:39.000Z</time>
      </trkpt>
      <trkpt lat="47.29094" lon="-1.39269">
        <ele>52</ele>
        <time>2021-09-12T10:36:41.000Z</time>
      </trkpt>
      <trkpt lat="47.29087" lon="-1.39284">
        <ele>52</ele>
        <time>2021-09-12T10:36:43.000Z</time>
      </trkpt>
      <trkpt lat="47.29077" lon="-1.39296">
        <ele>52</ele>
        <time>2021-09-12T10:36:45.000Z</time>
      </trkpt>
      <trkpt lat="47.29066" lon="-1.39306">
        <ele>52</ele>
        <time>2021-09-12T10:36:47.000Z</time>
      </trkpt>
      <trkpt lat="47.29055" lon="-1.39316">
        <ele>52</ele>
        <time>2021-09-12T10:36:49.000Z</time>
      </trkpt>
      <trkpt lat="47.29045" lon="-1.39328">
        <ele>52</ele>
        <time>2021-09-12T10:36:51.000Z</time>
      </trkpt>
      <trkpt lat="47.29037" lon="-1.39341">
        <ele>53</ele>
        <time>2021-09-12T10:36:53.000Z</time>
      </trkpt>
      <trkpt lat="47.29027" lon="-1.39353">
        <ele>54</ele>
        <time>2021-09-12T10:36:55.000Z</time>
      </trkpt>
      <trkpt lat="47.29019" lon="-1.39365">
        <ele>55</ele>
        <time>2021-09-12T10:36:57.000Z</time>
      </trkpt>
      <trkpt lat="47.29011" lon="-1.39379">
        <ele>55</ele>
        <time>2021-09-12T10:36:59.000Z</time>
      </trkpt>
      <trkpt lat="47.29001" lon="-1.39392">
        <ele>55</ele>
        <time>2021-09-12T10:37:01.000Z</time>
      </trkpt>
      <trkpt lat="47.28991" lon="-1.39405">
        <ele>55</ele>
        <time>2021-09-12T10:37:03.000Z</time>
      </trkpt>
      <trkpt lat="47.28981" lon="-1.39417">
        <ele>55</ele>
        <time>2021-09-12T10:37:05.000Z</time>
      </trkpt>
      <trkpt lat="47.28971" lon="-1.3943">
        <ele>55</ele>
        <time>2021-09-12T10:37:07.000Z</time>
      </trkpt>
      <trkpt lat="47.28961" lon="-1.39442">
        <ele>54</ele>
        <time>2021-09-12T10:37:09.000Z</time>
      </trkpt>
      <trkpt lat="47.2895" lon="-1.39454">
        <ele>54</ele>
        <time>2021-09-12T10:37:11.000Z</time>
      </trkpt>
      <trkpt lat="47.2894" lon="-1.39467">
        <ele>54</ele>
        <time>2021-09-12T10:37:13.000Z</time>
      </trkpt>
      <trkpt lat="47.28929" lon="-1.39479">
        <ele>54</ele>
        <time>2021-09-12T10:37:15.000Z</time>
      </trkpt>
      <trkpt lat="47.2892" lon="-1.39491">
        <ele>55</ele>
        <time>2021-09-12T10:37:17.000Z</time>
      </trkpt>
      <trkpt lat="47.2891" lon="-1.39503">
        <ele>55</ele>
        <time>2021-09-12T10:37:19.000Z</time>
      </trkpt>
      <trkpt lat="47.289" lon="-1.39515">
        <ele>55</ele>
        <time>2021-09-12T10:37:21.000Z</time>
      </trkpt>
      <trkpt lat="47.28889" lon="-1.39528">
        <ele>55</ele>
        <time>2021-09-12T10:37:23.000Z</time>
      </trkpt>
      <trkpt lat="47.28879" lon="-1.39539">
        <ele>55</ele>
        <time>2021-09-12T10:37:25.000Z</time>
      </trkpt>
      <trkpt lat="47.28869" lon="-1.39551">
        <ele>55</ele>
        <time>2021-09-12T10:37:27.000Z</time>
      </trkpt>
      <trkpt lat="47.28859" lon="-1.39562">
        <ele>55</ele>
        <time>2021-09-12T10:37:29.000Z</time>
      </trkpt>
      <trkpt lat="47.2885" lon="-1.39575">
        <ele>55</ele>
        <time>2021-09-12T10:37:31.000Z</time>
      </trkpt>
      <trkpt lat="47.2884" lon="-1.39587">
        <ele>55</ele>
        <time>2021-09-12T10:37:33.000Z</time>
      </trkpt>
      <trkpt lat="47.2883" lon="-1.39599">
        <ele>55</ele>
        <time>2021-09-12T10:37:35.000Z</time>
      </trkpt>
      <trkpt lat="47.28819" lon="-1.39612">
        <ele>55</ele>
        <time>2021-09-12T10:37:37.000Z</time>
      </trkpt>
      <trkpt lat="47.28809" lon="-1.39624">
        <ele>54</ele>
        <time>2021-09-12T10:37:39.000Z</time>
      </trkpt>
      <trkpt lat="47.28798" lon="-1.39637">
        <ele>55</ele>
        <time>2021-09-12T10:37:41.000Z</time>
      </trkpt>
      <trkpt lat="47.28788" lon="-1.3965">
        <ele>55</ele>
        <time>2021-09-12T10:37:43.000Z</time>
      </trkpt>
      <trkpt lat="47.28777" lon="-1.39663">
        <ele>55</ele>
        <time>2021-09-12T10:37:45.000Z</time>
      </trkpt>
      <trkpt lat="47.28767" lon="-1.39675">
        <ele>55</ele>
        <time>2021-09-12T10:37:47.000Z</time>
      </trkpt>
      <trkpt lat="47.28758" lon="-1.39686">
        <ele>55</ele>
        <time>2021-09-12T10:37:49.000Z</time>
      </trkpt>
      <trkpt lat="47.28748" lon="-1.39699">
        <ele>55</ele>
        <time>2021-09-12T10:37:51.000Z</time>
      </trkpt>
      <trkpt lat="47.28738" lon="-1.39711">
        <ele>55</ele>
        <time>2021-09-12T10:37:53.000Z</time>
      </trkpt>
      <trkpt lat="47.28728" lon="-1.39723">
        <ele>55</ele>
        <time>2021-09-12T10:37:55.000Z</time>
      </trkpt>
      <trkpt lat="47.28718" lon="-1.39734">
        <ele>54</ele>
        <time>2021-09-12T10:37:57.000Z</time>
      </trkpt>
      <trkpt lat="47.28707" lon="-1.39746">
        <ele>54</ele>
        <time>2021-09-12T10:37:59.000Z</time>
      </trkpt>
      <trkpt lat="47.28697" lon="-1.39758">
        <ele>54</ele>
        <time>2021-09-12T10:38:01.000Z</time>
      </trkpt>
      <trkpt lat="47.28687" lon="-1.3977">
        <ele>54</ele>
        <time>2021-09-12T10:38:03.000Z</time>
      </trkpt>
      <trkpt lat="47.28677" lon="-1.39782">
        <ele>53</ele>
        <time>2021-09-12T10:38:05.000Z</time>
      </trkpt>
      <trkpt lat="47.28668" lon="-1.39795">
        <ele>53</ele>
        <time>2021-09-12T10:38:07.000Z</time>
      </trkpt>
      <trkpt lat="47.28659" lon="-1.39809">
        <ele>53</ele>
        <time>2021-09-12T10:38:09.000Z</time>
      </trkpt>
      <trkpt lat="47.28649" lon="-1.39823">
        <ele>53</ele>
        <time>2021-09-12T10:38:11.000Z</time>
      </trkpt>
      <trkpt lat="47.2864" lon="-1.39837">
        <ele>53</ele>
        <time>2021-09-12T10:38:13.000Z</time>
      </trkpt>
      <trkpt lat="47.28631" lon="-1.39851">
        <ele>53</ele>
        <time>2021-09-12T10:38:15.000Z</time>
      </trkpt>
      <trkpt lat="47.28623" lon="-1.39865">
        <ele>53</ele>
        <time>2021-09-12T10:38:17.000Z</time>
      </trkpt>
      <trkpt lat="47.28614" lon="-1.3988">
        <ele>54</ele>
        <time>2021-09-12T10:38:19.000Z</time>
      </trkpt>
      <trkpt lat="47.28604" lon="-1.39895">
        <ele>54</ele>
        <time>2021-09-12T10:38:21.000Z</time>
      </trkpt>
      <trkpt lat="47.28595" lon="-1.39909">
        <ele>54</ele>
        <time>2021-09-12T10:38:23.000Z</time>
      </trkpt>
      <trkpt lat="47.28585" lon="-1.39923">
        <ele>54</ele>
        <time>2021-09-12T10:38:25.000Z</time>
      </trkpt>
      <trkpt lat="47.28576" lon="-1.39938">
        <ele>54</ele>
        <time>2021-09-12T10:38:27.000Z</time>
      </trkpt>
      <trkpt lat="47.28566" lon="-1.39951">
        <ele>54</ele>
        <time>2021-09-12T10:38:29.000Z</time>
      </trkpt>
      <trkpt lat="47.28556" lon="-1.39965">
        <ele>54</ele>
        <time>2021-09-12T10:38:31.000Z</time>
      </trkpt>
      <trkpt lat="47.28547" lon="-1.39979">
        <ele>54</ele>
        <time>2021-09-12T10:38:33.000Z</time>
      </trkpt>
      <trkpt lat="47.28538" lon="-1.39992">
        <ele>54</ele>
        <time>2021-09-12T10:38:35.000Z</time>
      </trkpt>
      <trkpt lat="47.28529" lon="-1.40005">
        <ele>54</ele>
        <time>2021-09-12T10:38:37.000Z</time>
      </trkpt>
      <trkpt lat="47.2852" lon="-1.40019">
        <ele>54</ele>
        <time>2021-09-12T10:38:39.000Z</time>
      </trkpt>
      <trkpt lat="47.28512" lon="-1.40033">
        <ele>55</ele>
        <time>2021-09-12T10:38:41.000Z</time>
      </trkpt>
      <trkpt lat="47.28503" lon="-1.40047">
        <ele>54</ele>
        <time>2021-09-12T10:38:43.000Z</time>
      </trkpt>
      <trkpt lat="47.28495" lon="-1.40062">
        <ele>54</ele>
        <time>2021-09-12T10:38:45.000Z</time>
      </trkpt>
      <trkpt lat="47.28488" lon="-1.40077">
        <ele>54</ele>
        <time>2021-09-12T10:38:47.000Z</time>
      </trkpt>
      <trkpt lat="47.28482" lon="-1.40093">
        <ele>54</ele>
        <time>2021-09-12T10:38:49.000Z</time>
      </trkpt>
      <trkpt lat="47.28475" lon="-1.40109">
        <ele>55</ele>
        <time>2021-09-12T10:38:51.000Z</time>
      </trkpt>
      <trkpt lat="47.28468" lon="-1.40126">
        <ele>55</ele>
        <time>2021-09-12T10:38:53.000Z</time>
      </trkpt>
      <trkpt lat="47.28463" lon="-1.40143">
        <ele>55</ele>
        <time>2021-09-12T10:38:55.000Z</time>
      </trkpt>
      <trkpt lat="47.28457" lon="-1.40159">
        <ele>55</ele>
        <time>2021-09-12T10:38:57.000Z</time>
      </trkpt>
      <trkpt lat="47.2845" lon="-1.40175">
        <ele>55</ele>
        <time>2021-09-12T10:38:59.000Z</time>
      </trkpt>
      <trkpt lat="47.28443" lon="-1.4019">
        <ele>55</ele>
        <time>2021-09-12T10:39:01.000Z</time>
      </trkpt>
      <trkpt lat="47.28437" lon="-1.40207">
        <ele>55</ele>
        <time>2021-09-12T10:39:03.000Z</time>
      </trkpt>
      <trkpt lat="47.28431" lon="-1.40224">
        <ele>55</ele>
        <time>2021-09-12T10:39:05.000Z</time>
      </trkpt>
      <trkpt lat="47.28424" lon="-1.4024">
        <ele>56</ele>
        <time>2021-09-12T10:39:07.000Z</time>
      </trkpt>
      <trkpt lat="47.28418" lon="-1.40257">
        <ele>56</ele>
        <time>2021-09-12T10:39:09.000Z</time>
      </trkpt>
      <trkpt lat="47.2841" lon="-1.40273">
        <ele>55</ele>
        <time>2021-09-12T10:39:11.000Z</time>
      </trkpt>
      <trkpt lat="47.28402" lon="-1.40289">
        <ele>55</ele>
        <time>2021-09-12T10:39:13.000Z</time>
      </trkpt>
      <trkpt lat="47.28394" lon="-1.40304">
        <ele>54</ele>
        <time>2021-09-12T10:39:15.000Z</time>
      </trkpt>
      <trkpt lat="47.28385" lon="-1.40318">
        <ele>54</ele>
        <time>2021-09-12T10:39:17.000Z</time>
      </trkpt>
      <trkpt lat="47.28376" lon="-1.40333">
        <ele>54</ele>
        <time>2021-09-12T10:39:19.000Z</time>
      </trkpt>
      <trkpt lat="47.28367" lon="-1.40347">
        <ele>54</ele>
        <time>2021-09-12T10:39:21.000Z</time>
      </trkpt>
      <trkpt lat="47.28357" lon="-1.4036">
        <ele>53</ele>
        <time>2021-09-12T10:39:23.000Z</time>
      </trkpt>
      <trkpt lat="47.28347" lon="-1.40373">
        <ele>53</ele>
        <time>2021-09-12T10:39:25.000Z</time>
      </trkpt>
      <trkpt lat="47.28338" lon="-1.40386">
        <ele>53</ele>
        <time>2021-09-12T10:39:27.000Z</time>
      </trkpt>
      <trkpt lat="47.28328" lon="-1.404">
        <ele>53</ele>
        <time>2021-09-12T10:39:29.000Z</time>
      </trkpt>
      <trkpt lat="47.28317" lon="-1.40412">
        <ele>53</ele>
        <time>2021-09-12T10:39:31.000Z</time>
      </trkpt>
      <trkpt lat="47.28306" lon="-1.40424">
        <ele>53</ele>
        <time>2021-09-12T10:39:33.000Z</time>
      </trkpt>
      <trkpt lat="47.28294" lon="-1.40435">
        <ele>53</ele>
        <time>2021-09-12T10:39:35.000Z</time>
      </trkpt>
      <trkpt lat="47.28283" lon="-1.40446">
        <ele>53</ele>
        <time>2021-09-12T10:39:37.000Z</time>
      </trkpt>
      <trkpt lat="47.28271" lon="-1.40455">
        <ele>53</ele>
        <time>2021-09-12T10:39:39.000Z</time>
      </trkpt>
      <trkpt lat="47.2826" lon="-1.40466">
        <ele>53</ele>
        <time>2021-09-12T10:39:41.000Z</time>
      </trkpt>
      <trkpt lat="47.28249" lon="-1.40477">
        <ele>53</ele>
        <time>2021-09-12T10:39:43.000Z</time>
      </trkpt>
      <trkpt lat="47.28238" lon="-1.4049">
        <ele>53</ele>
        <time>2021-09-12T10:39:45.000Z</time>
      </trkpt>
      <trkpt lat="47.28227" lon="-1.40501">
        <ele>53</ele>
        <time>2021-09-12T10:39:47.000Z</time>
      </trkpt>
      <trkpt lat="47.28214" lon="-1.40513">
        <ele>52</ele>
        <time>2021-09-12T10:39:49.000Z</time>
      </trkpt>
      <trkpt lat="47.28202" lon="-1.40525">
        <ele>52</ele>
        <time>2021-09-12T10:39:51.000Z</time>
      </trkpt>
      <trkpt lat="47.28191" lon="-1.40536">
        <ele>52</ele>
        <time>2021-09-12T10:39:53.000Z</time>
      </trkpt>
      <trkpt lat="47.28179" lon="-1.40548">
        <ele>52</ele>
        <time>2021-09-12T10:39:55.000Z</time>
      </trkpt>
      <trkpt lat="47.28168" lon="-1.40559">
        <ele>52</ele>
        <time>2021-09-12T10:39:57.000Z</time>
      </trkpt>
      <trkpt lat="47.28156" lon="-1.4057">
        <ele>52</ele>
        <time>2021-09-12T10:39:59.000Z</time>
      </trkpt>
      <trkpt lat="47.28144" lon="-1.40581">
        <ele>52</ele>
        <time>2021-09-12T10:40:01.000Z</time>
      </trkpt>
      <trkpt lat="47.28133" lon="-1.40592">
        <ele>52</ele>
        <time>2021-09-12T10:40:03.000Z</time>
      </trkpt>
      <trkpt lat="47.28121" lon="-1.40604">
        <ele>52</ele>
        <time>2021-09-12T10:40:05.000Z</time>
      </trkpt>
      <trkpt lat="47.2811" lon="-1.40615">
        <ele>51</ele>
        <time>2021-09-12T10:40:07.000Z</time>
      </trkpt>
      <trkpt lat="47.28098" lon="-1.40626">
        <ele>51</ele>
        <time>2021-09-12T10:40:09.000Z</time>
      </trkpt>
      <trkpt lat="47.28087" lon="-1.40637">
        <ele>51</ele>
        <time>2021-09-12T10:40:11.000Z</time>
      </trkpt>
      <trkpt lat="47.28076" lon="-1.40647">
        <ele>52</ele>
        <time>2021-09-12T10:40:13.000Z</time>
      </trkpt>
      <trkpt lat="47.28064" lon="-1.40657">
        <ele>51</ele>
        <time>2021-09-12T10:40:15.000Z</time>
      </trkpt>
      <trkpt lat="47.28053" lon="-1.40667">
        <ele>51</ele>
        <time>2021-09-12T10:40:17.000Z</time>
      </trkpt>
      <trkpt lat="47.28042" lon="-1.40679">
        <ele>51</ele>
        <time>2021-09-12T10:40:19.000Z</time>
      </trkpt>
      <trkpt lat="47.28031" lon="-1.4069">
        <ele>51</ele>
        <time>2021-09-12T10:40:21.000Z</time>
      </trkpt>
      <trkpt lat="47.28021" lon="-1.40702">
        <ele>51</ele>
        <time>2021-09-12T10:40:23.000Z</time>
      </trkpt>
      <trkpt lat="47.2801" lon="-1.40713">
        <ele>52</ele>
        <time>2021-09-12T10:40:25.000Z</time>
      </trkpt>
      <trkpt lat="47.27999" lon="-1.40723">
        <ele>52</ele>
        <time>2021-09-12T10:40:27.000Z</time>
      </trkpt>
      <trkpt lat="47.27987" lon="-1.40734">
        <ele>52</ele>
        <time>2021-09-12T10:40:29.000Z</time>
      </trkpt>
      <trkpt lat="47.27976" lon="-1.40744">
        <ele>52</ele>
        <time>2021-09-12T10:40:31.000Z</time>
      </trkpt>
      <trkpt lat="47.27964" lon="-1.40755">
        <ele>52</ele>
        <time>2021-09-12T10:40:33.000Z</time>
      </trkpt>
      <trkpt lat="47.27952" lon="-1.40765">
        <ele>52</ele>
        <time>2021-09-12T10:40:35.000Z</time>
      </trkpt>
      <trkpt lat="47.27941" lon="-1.40775">
        <ele>52</ele>
        <time>2021-09-12T10:40:37.000Z</time>
      </trkpt>
      <trkpt lat="47.2793" lon="-1.40785">
        <ele>52</ele>
        <time>2021-09-12T10:40:39.000Z</time>
      </trkpt>
      <trkpt lat="47.27918" lon="-1.40795">
        <ele>53</ele>
        <time>2021-09-12T10:40:41.000Z</time>
      </trkpt>
      <trkpt lat="47.27906" lon="-1.40808">
        <ele>53</ele>
        <time>2021-09-12T10:40:43.000Z</time>
      </trkpt>
      <trkpt lat="47.27895" lon="-1.40822">
        <ele>53</ele>
        <time>2021-09-12T10:40:45.000Z</time>
      </trkpt>
      <trkpt lat="47.27884" lon="-1.40837">
        <ele>52</ele>
        <time>2021-09-12T10:40:47.000Z</time>
      </trkpt>
      <trkpt lat="47.27875" lon="-1.40854">
        <ele>52</ele>
        <time>2021-09-12T10:40:49.000Z</time>
      </trkpt>
      <trkpt lat="47.27867" lon="-1.40872">
        <ele>53</ele>
        <time>2021-09-12T10:40:51.000Z</time>
      </trkpt>
      <trkpt lat="47.27859" lon="-1.40889">
        <ele>53</ele>
        <time>2021-09-12T10:40:53.000Z</time>
      </trkpt>
      <trkpt lat="47.2785" lon="-1.40907">
        <ele>52</ele>
        <time>2021-09-12T10:40:55.000Z</time>
      </trkpt>
      <trkpt lat="47.27842" lon="-1.40925">
        <ele>53</ele>
        <time>2021-09-12T10:40:57.000Z</time>
      </trkpt>
      <trkpt lat="47.27834" lon="-1.40943">
        <ele>53</ele>
        <time>2021-09-12T10:40:59.000Z</time>
      </trkpt>
      <trkpt lat="47.27825" lon="-1.40961">
        <ele>53</ele>
        <time>2021-09-12T10:41:01.000Z</time>
      </trkpt>
      <trkpt lat="47.27815" lon="-1.40978">
        <ele>52</ele>
        <time>2021-09-12T10:41:03.000Z</time>
      </trkpt>
      <trkpt lat="47.27805" lon="-1.40994">
        <ele>52</ele>
        <time>2021-09-12T10:41:05.000Z</time>
      </trkpt>
      <trkpt lat="47.27795" lon="-1.41009">
        <ele>52</ele>
        <time>2021-09-12T10:41:07.000Z</time>
      </trkpt>
      <trkpt lat="47.27785" lon="-1.41023">
        <ele>53</ele>
        <time>2021-09-12T10:41:09.000Z</time>
      </trkpt>
      <trkpt lat="47.27777" lon="-1.4104">
        <ele>52</ele>
        <time>2021-09-12T10:41:11.000Z</time>
      </trkpt>
      <trkpt lat="47.27771" lon="-1.41058">
        <ele>53</ele>
        <time>2021-09-12T10:41:13.000Z</time>
      </trkpt>
      <trkpt lat="47.27761" lon="-1.41074">
        <ele>53</ele>
        <time>2021-09-12T10:41:15.000Z</time>
      </trkpt>
      <trkpt lat="47.27748" lon="-1.41087">
        <ele>52</ele>
        <time>2021-09-12T10:41:17.000Z</time>
      </trkpt>
      <trkpt lat="47.27736" lon="-1.41099">
        <ele>52</ele>
        <time>2021-09-12T10:41:19.000Z</time>
      </trkpt>
      <trkpt lat="47.27724" lon="-1.41111">
        <ele>52</ele>
        <time>2021-09-12T10:41:21.000Z</time>
      </trkpt>
      <trkpt lat="47.27712" lon="-1.41123">
        <ele>52</ele>
        <time>2021-09-12T10:41:23.000Z</time>
      </trkpt>
      <trkpt lat="47.27701" lon="-1.41136">
        <ele>53</ele>
        <time>2021-09-12T10:41:25.000Z</time>
      </trkpt>
      <trkpt lat="47.27689" lon="-1.41148">
        <ele>52</ele>
        <time>2021-09-12T10:41:27.000Z</time>
      </trkpt>
      <trkpt lat="47.27678" lon="-1.41162">
        <ele>52</ele>
        <time>2021-09-12T10:41:29.000Z</time>
      </trkpt>
      <trkpt lat="47.27666" lon="-1.41175">
        <ele>52</ele>
        <time>2021-09-12T10:41:31.000Z</time>
      </trkpt>
      <trkpt lat="47.27655" lon="-1.41187">
        <ele>52</ele>
        <time>2021-09-12T10:41:33.000Z</time>
      </trkpt>
      <trkpt lat="47.27643" lon="-1.41198">
        <ele>52</ele>
        <time>2021-09-12T10:41:35.000Z</time>
      </trkpt>
      <trkpt lat="47.27631" lon="-1.4121">
        <ele>52</ele>
        <time>2021-09-12T10:41:37.000Z</time>
      </trkpt>
      <trkpt lat="47.27619" lon="-1.41222">
        <ele>52</ele>
        <time>2021-09-12T10:41:39.000Z</time>
      </trkpt>
      <trkpt lat="47.27608" lon="-1.41234">
        <ele>52</ele>
        <time>2021-09-12T10:41:41.000Z</time>
      </trkpt>
      <trkpt lat="47.27596" lon="-1.41246">
        <ele>52</ele>
        <time>2021-09-12T10:41:43.000Z</time>
      </trkpt>
      <trkpt lat="47.27585" lon="-1.41259">
        <ele>52</ele>
        <time>2021-09-12T10:41:45.000Z</time>
      </trkpt>
      <trkpt lat="47.27574" lon="-1.41272">
        <ele>52</ele>
        <time>2021-09-12T10:41:47.000Z</time>
      </trkpt>
      <trkpt lat="47.27563" lon="-1.41285">
        <ele>52</ele>
        <time>2021-09-12T10:41:49.000Z</time>
      </trkpt>
      <trkpt lat="47.27552" lon="-1.41298">
        <ele>52</ele>
        <time>2021-09-12T10:41:51.000Z</time>
      </trkpt>
      <trkpt lat="47.27541" lon="-1.41312">
        <ele>52</ele>
        <time>2021-09-12T10:41:53.000Z</time>
      </trkpt>
      <trkpt lat="47.2753" lon="-1.41327">
        <ele>51</ele>
        <time>2021-09-12T10:41:55.000Z</time>
      </trkpt>
      <trkpt lat="47.2752" lon="-1.41341">
        <ele>52</ele>
        <time>2021-09-12T10:41:57.000Z</time>
      </trkpt>
      <trkpt lat="47.2751" lon="-1.41355">
        <ele>52</ele>
        <time>2021-09-12T10:41:59.000Z</time>
      </trkpt>
      <trkpt lat="47.27501" lon="-1.4137">
        <ele>52</ele>
        <time>2021-09-12T10:42:01.000Z</time>
      </trkpt>
      <trkpt lat="47.27492" lon="-1.41385">
        <ele>52</ele>
        <time>2021-09-12T10:42:03.000Z</time>
      </trkpt>
      <trkpt lat="47.27482" lon="-1.41401">
        <ele>53</ele>
        <time>2021-09-12T10:42:05.000Z</time>
      </trkpt>
      <trkpt lat="47.27473" lon="-1.41417">
        <ele>52</ele>
        <time>2021-09-12T10:42:07.000Z</time>
      </trkpt>
      <trkpt lat="47.27464" lon="-1.41434">
        <ele>52</ele>
        <time>2021-09-12T10:42:09.000Z</time>
      </trkpt>
      <trkpt lat="47.27455" lon="-1.4145">
        <ele>52</ele>
        <time>2021-09-12T10:42:11.000Z</time>
      </trkpt>
      <trkpt lat="47.27447" lon="-1.41466">
        <ele>53</ele>
        <time>2021-09-12T10:42:13.000Z</time>
      </trkpt>
      <trkpt lat="47.27439" lon="-1.41482">
        <ele>53</ele>
        <time>2021-09-12T10:42:15.000Z</time>
      </trkpt>
      <trkpt lat="47.27429" lon="-1.41499">
        <ele>53</ele>
        <time>2021-09-12T10:42:17.000Z</time>
      </trkpt>
      <trkpt lat="47.27419" lon="-1.41514">
        <ele>53</ele>
        <time>2021-09-12T10:42:19.000Z</time>
      </trkpt>
      <trkpt lat="47.2741" lon="-1.4153">
        <ele>52</ele>
        <time>2021-09-12T10:42:21.000Z</time>
      </trkpt>
      <trkpt lat="47.27399" lon="-1.41546">
        <ele>52</ele>
        <time>2021-09-12T10:42:23.000Z</time>
      </trkpt>
      <trkpt lat="47.27388" lon="-1.41562">
        <ele>52</ele>
        <time>2021-09-12T10:42:25.000Z</time>
      </trkpt>
      <trkpt lat="47.27378" lon="-1.41578">
        <ele>52</ele>
        <time>2021-09-12T10:42:27.000Z</time>
      </trkpt>
      <trkpt lat="47.27368" lon="-1.41595">
        <ele>52</ele>
        <time>2021-09-12T10:42:29.000Z</time>
      </trkpt>
      <trkpt lat="47.27358" lon="-1.4161">
        <ele>52</ele>
        <time>2021-09-12T10:42:31.000Z</time>
      </trkpt>
      <trkpt lat="47.27347" lon="-1.41625">
        <ele>52</ele>
        <time>2021-09-12T10:42:33.000Z</time>
      </trkpt>
      <trkpt lat="47.27337" lon="-1.41641">
        <ele>52</ele>
        <time>2021-09-12T10:42:35.000Z</time>
      </trkpt>
      <trkpt lat="47.27327" lon="-1.41657">
        <ele>52</ele>
        <time>2021-09-12T10:42:37.000Z</time>
      </trkpt>
      <trkpt lat="47.27318" lon="-1.41673">
        <ele>52</ele>
        <time>2021-09-12T10:42:39.000Z</time>
      </trkpt>
      <trkpt lat="47.27309" lon="-1.4169">
        <ele>52</ele>
        <time>2021-09-12T10:42:41.000Z</time>
      </trkpt>
      <trkpt lat="47.27299" lon="-1.41707">
        <ele>52</ele>
        <time>2021-09-12T10:42:43.000Z</time>
      </trkpt>
      <trkpt lat="47.2729" lon="-1.41725">
        <ele>52</ele>
        <time>2021-09-12T10:42:45.000Z</time>
      </trkpt>
      <trkpt lat="47.27282" lon="-1.41742">
        <ele>52</ele>
        <time>2021-09-12T10:42:47.000Z</time>
      </trkpt>
      <trkpt lat="47.27273" lon="-1.41758">
        <ele>52</ele>
        <time>2021-09-12T10:42:49.000Z</time>
      </trkpt>
      <trkpt lat="47.27263" lon="-1.41775">
        <ele>51</ele>
        <time>2021-09-12T10:42:51.000Z</time>
      </trkpt>
      <trkpt lat="47.27255" lon="-1.41792">
        <ele>52</ele>
        <time>2021-09-12T10:42:53.000Z</time>
      </trkpt>
      <trkpt lat="47.27247" lon="-1.41809">
        <ele>52</ele>
        <time>2021-09-12T10:42:55.000Z</time>
      </trkpt>
      <trkpt lat="47.27238" lon="-1.41825">
        <ele>53</ele>
        <time>2021-09-12T10:42:57.000Z</time>
      </trkpt>
      <trkpt lat="47.2723" lon="-1.41841">
        <ele>54</ele>
        <time>2021-09-12T10:42:59.000Z</time>
      </trkpt>
      <trkpt lat="47.27221" lon="-1.41858">
        <ele>54</ele>
        <time>2021-09-12T10:43:01.000Z</time>
      </trkpt>
      <trkpt lat="47.27212" lon="-1.41874">
        <ele>53</ele>
        <time>2021-09-12T10:43:03.000Z</time>
      </trkpt>
      <trkpt lat="47.27203" lon="-1.4189">
        <ele>53</ele>
        <time>2021-09-12T10:43:05.000Z</time>
      </trkpt>
      <trkpt lat="47.27194" lon="-1.41906">
        <ele>53</ele>
        <time>2021-09-12T10:43:07.000Z</time>
      </trkpt>
      <trkpt lat="47.27184" lon="-1.41922">
        <ele>53</ele>
        <time>2021-09-12T10:43:09.000Z</time>
      </trkpt>
      <trkpt lat="47.27175" lon="-1.41938">
        <ele>53</ele>
        <time>2021-09-12T10:43:11.000Z</time>
      </trkpt>
      <trkpt lat="47.27165" lon="-1.41955">
        <ele>52</ele>
        <time>2021-09-12T10:43:13.000Z</time>
      </trkpt>
      <trkpt lat="47.27156" lon="-1.41971">
        <ele>52</ele>
        <time>2021-09-12T10:43:15.000Z</time>
      </trkpt>
      <trkpt lat="47.27147" lon="-1.41986">
        <ele>52</ele>
        <time>2021-09-12T10:43:17.000Z</time>
      </trkpt>
      <trkpt lat="47.27139" lon="-1.42003">
        <ele>53</ele>
        <time>2021-09-12T10:43:19.000Z</time>
      </trkpt>
      <trkpt lat="47.27129" lon="-1.42019">
        <ele>53</ele>
        <time>2021-09-12T10:43:21.000Z</time>
      </trkpt>
      <trkpt lat="47.27119" lon="-1.42033">
        <ele>53</ele>
        <time>2021-09-12T10:43:23.000Z</time>
      </trkpt>
      <trkpt lat="47.27109" lon="-1.42048">
        <ele>53</ele>
        <time>2021-09-12T10:43:25.000Z</time>
      </trkpt>
      <trkpt lat="47.27099" lon="-1.42062">
        <ele>53</ele>
        <time>2021-09-12T10:43:27.000Z</time>
      </trkpt>
      <trkpt lat="47.27089" lon="-1.42077">
        <ele>53</ele>
        <time>2021-09-12T10:43:29.000Z</time>
      </trkpt>
      <trkpt lat="47.2708" lon="-1.42093">
        <ele>53</ele>
        <time>2021-09-12T10:43:31.000Z</time>
      </trkpt>
      <trkpt lat="47.27071" lon="-1.42109">
        <ele>53</ele>
        <time>2021-09-12T10:43:33.000Z</time>
      </trkpt>
      <trkpt lat="47.27063" lon="-1.42124">
        <ele>53</ele>
        <time>2021-09-12T10:43:35.000Z</time>
      </trkpt>
      <trkpt lat="47.27055" lon="-1.42141">
        <ele>54</ele>
        <time>2021-09-12T10:43:37.000Z</time>
      </trkpt>
      <trkpt lat="47.27046" lon="-1.42158">
        <ele>54</ele>
        <time>2021-09-12T10:43:39.000Z</time>
      </trkpt>
      <trkpt lat="47.27038" lon="-1.42173">
        <ele>55</ele>
        <time>2021-09-12T10:43:41.000Z</time>
      </trkpt>
      <trkpt lat="47.27029" lon="-1.42189">
        <ele>55</ele>
        <time>2021-09-12T10:43:43.000Z</time>
      </trkpt>
      <trkpt lat="47.27019" lon="-1.42205">
        <ele>55</ele>
        <time>2021-09-12T10:43:45.000Z</time>
      </trkpt>
      <trkpt lat="47.2701" lon="-1.42221">
        <ele>55</ele>
        <time>2021-09-12T10:43:47.000Z</time>
      </trkpt>
      <trkpt lat="47.27001" lon="-1.42237">
        <ele>54</ele>
        <time>2021-09-12T10:43:49.000Z</time>
      </trkpt>
      <trkpt lat="47.26991" lon="-1.42253">
        <ele>54</ele>
        <time>2021-09-12T10:43:51.000Z</time>
      </trkpt>
      <trkpt lat="47.26982" lon="-1.42269">
        <ele>53</ele>
        <time>2021-09-12T10:43:53.000Z</time>
      </trkpt>
      <trkpt lat="47.26973" lon="-1.42285">
        <ele>53</ele>
        <time>2021-09-12T10:43:55.000Z</time>
      </trkpt>
      <trkpt lat="47.26964" lon="-1.42301">
        <ele>53</ele>
        <time>2021-09-12T10:43:57.000Z</time>
      </trkpt>
      <trkpt lat="47.26955" lon="-1.42318">
        <ele>53</ele>
        <time>2021-09-12T10:43:59.000Z</time>
      </trkpt>
      <trkpt lat="47.26947" lon="-1.42335">
        <ele>53</ele>
        <time>2021-09-12T10:44:01.000Z</time>
      </trkpt>
      <trkpt lat="47.26939" lon="-1.42353">
        <ele>52</ele>
        <time>2021-09-12T10:44:03.000Z</time>
      </trkpt>
      <trkpt lat="47.26931" lon="-1.4237">
        <ele>52</ele>
        <time>2021-09-12T10:44:05.000Z</time>
      </trkpt>
      <trkpt lat="47.26923" lon="-1.42387">
        <ele>52</ele>
        <time>2021-09-12T10:44:07.000Z</time>
      </trkpt>
      <trkpt lat="47.26915" lon="-1.42404">
        <ele>52</ele>
        <time>2021-09-12T10:44:09.000Z</time>
      </trkpt>
      <trkpt lat="47.26907" lon="-1.4242">
        <ele>52</ele>
        <time>2021-09-12T10:44:11.000Z</time>
      </trkpt>
      <trkpt lat="47.26898" lon="-1.42436">
        <ele>52</ele>
        <time>2021-09-12T10:44:13.000Z</time>
      </trkpt>
      <trkpt lat="47.26889" lon="-1.42452">
        <ele>52</ele>
        <time>2021-09-12T10:44:15.000Z</time>
      </trkpt>
      <trkpt lat="47.2688" lon="-1.42469">
        <ele>52</ele>
        <time>2021-09-12T10:44:17.000Z</time>
      </trkpt>
      <trkpt lat="47.26871" lon="-1.42485">
        <ele>52</ele>
        <time>2021-09-12T10:44:19.000Z</time>
      </trkpt>
      <trkpt lat="47.26862" lon="-1.42502">
        <ele>52</ele>
        <time>2021-09-12T10:44:21.000Z</time>
      </trkpt>
      <trkpt lat="47.26852" lon="-1.42519">
        <ele>51</ele>
        <time>2021-09-12T10:44:23.000Z</time>
      </trkpt>
      <trkpt lat="47.26843" lon="-1.42537">
        <ele>52</ele>
        <time>2021-09-12T10:44:25.000Z</time>
      </trkpt>
      <trkpt lat="47.26834" lon="-1.42554">
        <ele>52</ele>
        <time>2021-09-12T10:44:27.000Z</time>
      </trkpt>
      <trkpt lat="47.26825" lon="-1.42573">
        <ele>52</ele>
        <time>2021-09-12T10:44:29.000Z</time>
      </trkpt>
      <trkpt lat="47.26817" lon="-1.4259">
        <ele>52</ele>
        <time>2021-09-12T10:44:31.000Z</time>
      </trkpt>
      <trkpt lat="47.26809" lon="-1.42609">
        <ele>52</ele>
        <time>2021-09-12T10:44:33.000Z</time>
      </trkpt>
      <trkpt lat="47.26801" lon="-1.42628">
        <ele>51</ele>
        <time>2021-09-12T10:44:35.000Z</time>
      </trkpt>
      <trkpt lat="47.26794" lon="-1.42647">
        <ele>51</ele>
        <time>2021-09-12T10:44:37.000Z</time>
      </trkpt>
      <trkpt lat="47.26786" lon="-1.42666">
        <ele>51</ele>
        <time>2021-09-12T10:44:39.000Z</time>
      </trkpt>
      <trkpt lat="47.26779" lon="-1.42684">
        <ele>51</ele>
        <time>2021-09-12T10:44:41.000Z</time>
      </trkpt>
      <trkpt lat="47.26772" lon="-1.42704">
        <ele>51</ele>
        <time>2021-09-12T10:44:43.000Z</time>
      </trkpt>
      <trkpt lat="47.26765" lon="-1.42723">
        <ele>51</ele>
        <time>2021-09-12T10:44:45.000Z</time>
      </trkpt>
      <trkpt lat="47.26757" lon="-1.42741">
        <ele>52</ele>
        <time>2021-09-12T10:44:47.000Z</time>
      </trkpt>
      <trkpt lat="47.26747" lon="-1.42758">
        <ele>52</ele>
        <time>2021-09-12T10:44:49.000Z</time>
      </trkpt>
      <trkpt lat="47.26738" lon="-1.42777">
        <ele>51</ele>
        <time>2021-09-12T10:44:51.000Z</time>
      </trkpt>
      <trkpt lat="47.26732" lon="-1.42796">
        <ele>51</ele>
        <time>2021-09-12T10:44:53.000Z</time>
      </trkpt>
      <trkpt lat="47.26727" lon="-1.42815">
        <ele>51</ele>
        <time>2021-09-12T10:44:55.000Z</time>
      </trkpt>
      <trkpt lat="47.26721" lon="-1.42834">
        <ele>51</ele>
        <time>2021-09-12T10:44:57.000Z</time>
      </trkpt>
      <trkpt lat="47.26715" lon="-1.42853">
        <ele>51</ele>
        <time>2021-09-12T10:44:59.000Z</time>
      </trkpt>
      <trkpt lat="47.26709" lon="-1.42871">
        <ele>51</ele>
        <time>2021-09-12T10:45:01.000Z</time>
      </trkpt>
      <trkpt lat="47.26699" lon="-1.42889">
        <ele>51</ele>
        <time>2021-09-12T10:45:03.000Z</time>
      </trkpt>
      <trkpt lat="47.2669" lon="-1.42907">
        <ele>50</ele>
        <time>2021-09-12T10:45:05.000Z</time>
      </trkpt>
      <trkpt lat="47.2668" lon="-1.42924">
        <ele>50</ele>
        <time>2021-09-12T10:45:07.000Z</time>
      </trkpt>
      <trkpt lat="47.26671" lon="-1.42941">
        <ele>50</ele>
        <time>2021-09-12T10:45:09.000Z</time>
      </trkpt>
      <trkpt lat="47.26662" lon="-1.42959">
        <ele>50</ele>
        <time>2021-09-12T10:45:11.000Z</time>
      </trkpt>
      <trkpt lat="47.26654" lon="-1.42976">
        <ele>50</ele>
        <time>2021-09-12T10:45:13.000Z</time>
      </trkpt>
      <trkpt lat="47.26645" lon="-1.42994">
        <ele>50</ele>
        <time>2021-09-12T10:45:15.000Z</time>
      </trkpt>
      <trkpt lat="47.26637" lon="-1.43011">
        <ele>49</ele>
        <time>2021-09-12T10:45:17.000Z</time>
      </trkpt>
      <trkpt lat="47.26627" lon="-1.43029">
        <ele>49</ele>
        <time>2021-09-12T10:45:19.000Z</time>
      </trkpt>
      <trkpt lat="47.26619" lon="-1.43046">
        <ele>49</ele>
        <time>2021-09-12T10:45:21.000Z</time>
      </trkpt>
      <trkpt lat="47.2661" lon="-1.43063">
        <ele>50</ele>
        <time>2021-09-12T10:45:23.000Z</time>
      </trkpt>
      <trkpt lat="47.26601" lon="-1.4308">
        <ele>50</ele>
        <time>2021-09-12T10:45:25.000Z</time>
      </trkpt>
      <trkpt lat="47.26592" lon="-1.43097">
        <ele>50</ele>
        <time>2021-09-12T10:45:27.000Z</time>
      </trkpt>
      <trkpt lat="47.26582" lon="-1.43112">
        <ele>50</ele>
        <time>2021-09-12T10:45:29.000Z</time>
      </trkpt>
      <trkpt lat="47.26572" lon="-1.43128">
        <ele>50</ele>
        <time>2021-09-12T10:45:31.000Z</time>
      </trkpt>
      <trkpt lat="47.26563" lon="-1.43144">
        <ele>50</ele>
        <time>2021-09-12T10:45:33.000Z</time>
      </trkpt>
      <trkpt lat="47.26553" lon="-1.4316">
        <ele>51</ele>
        <time>2021-09-12T10:45:35.000Z</time>
      </trkpt>
      <trkpt lat="47.26543" lon="-1.43175">
        <ele>51</ele>
        <time>2021-09-12T10:45:37.000Z</time>
      </trkpt>
      <trkpt lat="47.26533" lon="-1.4319">
        <ele>50</ele>
        <time>2021-09-12T10:45:39.000Z</time>
      </trkpt>
      <trkpt lat="47.26522" lon="-1.43204">
        <ele>50</ele>
        <time>2021-09-12T10:45:41.000Z</time>
      </trkpt>
      <trkpt lat="47.26511" lon="-1.43218">
        <ele>50</ele>
        <time>2021-09-12T10:45:43.000Z</time>
      </trkpt>
      <trkpt lat="47.265" lon="-1.43231">
        <ele>51</ele>
        <time>2021-09-12T10:45:45.000Z</time>
      </trkpt>
      <trkpt lat="47.2649" lon="-1.43245">
        <ele>51</ele>
        <time>2021-09-12T10:45:47.000Z</time>
      </trkpt>
      <trkpt lat="47.26479" lon="-1.43258">
        <ele>51</ele>
        <time>2021-09-12T10:45:49.000Z</time>
      </trkpt>
      <trkpt lat="47.2647" lon="-1.43272">
        <ele>52</ele>
        <time>2021-09-12T10:45:51.000Z</time>
      </trkpt>
      <trkpt lat="47.26461" lon="-1.43288">
        <ele>52</ele>
        <time>2021-09-12T10:45:53.000Z</time>
      </trkpt>
      <trkpt lat="47.26451" lon="-1.43304">
        <ele>52</ele>
        <time>2021-09-12T10:45:55.000Z</time>
      </trkpt>
      <trkpt lat="47.26442" lon="-1.4332">
        <ele>51</ele>
        <time>2021-09-12T10:45:57.000Z</time>
      </trkpt>
      <trkpt lat="47.26431" lon="-1.43335">
        <ele>51</ele>
        <time>2021-09-12T10:45:59.000Z</time>
      </trkpt>
      <trkpt lat="47.26421" lon="-1.43348">
        <ele>51</ele>
        <time>2021-09-12T10:46:01.000Z</time>
      </trkpt>
      <trkpt lat="47.2641" lon="-1.43362">
        <ele>51</ele>
        <time>2021-09-12T10:46:03.000Z</time>
      </trkpt>
      <trkpt lat="47.26399" lon="-1.43374">
        <ele>51</ele>
        <time>2021-09-12T10:46:05.000Z</time>
      </trkpt>
      <trkpt lat="47.26388" lon="-1.43387">
        <ele>51</ele>
        <time>2021-09-12T10:46:07.000Z</time>
      </trkpt>
      <trkpt lat="47.26376" lon="-1.43398">
        <ele>50</ele>
        <time>2021-09-12T10:46:09.000Z</time>
      </trkpt>
      <trkpt lat="47.26365" lon="-1.43411">
        <ele>50</ele>
        <time>2021-09-12T10:46:11.000Z</time>
      </trkpt>
      <trkpt lat="47.26354" lon="-1.43423">
        <ele>50</ele>
        <time>2021-09-12T10:46:13.000Z</time>
      </trkpt>
      <trkpt lat="47.26343" lon="-1.43435">
        <ele>50</ele>
        <time>2021-09-12T10:46:15.000Z</time>
      </trkpt>
      <trkpt lat="47.26332" lon="-1.43447">
        <ele>50</ele>
        <time>2021-09-12T10:46:17.000Z</time>
      </trkpt>
      <trkpt lat="47.26321" lon="-1.43458">
        <ele>50</ele>
        <time>2021-09-12T10:46:19.000Z</time>
      </trkpt>
      <trkpt lat="47.26311" lon="-1.43469">
        <ele>50</ele>
        <time>2021-09-12T10:46:21.000Z</time>
      </trkpt>
      <trkpt lat="47.26301" lon="-1.4348">
        <ele>50</ele>
        <time>2021-09-12T10:46:23.000Z</time>
      </trkpt>
      <trkpt lat="47.26289" lon="-1.43486">
        <ele>50</ele>
        <time>2021-09-12T10:46:25.000Z</time>
      </trkpt>
      <trkpt lat="47.26276" lon="-1.43489">
        <ele>50</ele>
        <time>2021-09-12T10:46:27.000Z</time>
      </trkpt>
      <trkpt lat="47.26263" lon="-1.43493">
        <ele>50</ele>
        <time>2021-09-12T10:46:29.000Z</time>
      </trkpt>
      <trkpt lat="47.26251" lon="-1.43505">
        <ele>50</ele>
        <time>2021-09-12T10:46:31.000Z</time>
      </trkpt>
      <trkpt lat="47.26238" lon="-1.43517">
        <ele>50</ele>
        <time>2021-09-12T10:46:33.000Z</time>
      </trkpt>
      <trkpt lat="47.26227" lon="-1.43531">
        <ele>50</ele>
        <time>2021-09-12T10:46:35.000Z</time>
      </trkpt>
      <trkpt lat="47.26219" lon="-1.43545">
        <ele>49</ele>
        <time>2021-09-12T10:46:37.000Z</time>
      </trkpt>
      <trkpt lat="47.26216" lon="-1.43563">
        <ele>49</ele>
        <time>2021-09-12T10:46:39.000Z</time>
      </trkpt>
      <trkpt lat="47.2621" lon="-1.43581">
        <ele>49</ele>
        <time>2021-09-12T10:46:41.000Z</time>
      </trkpt>
      <trkpt lat="47.26201" lon="-1.43596">
        <ele>49</ele>
        <time>2021-09-12T10:46:43.000Z</time>
      </trkpt>
      <trkpt lat="47.26192" lon="-1.43611">
        <ele>49</ele>
        <time>2021-09-12T10:46:45.000Z</time>
      </trkpt>
      <trkpt lat="47.26183" lon="-1.43627">
        <ele>49</ele>
        <time>2021-09-12T10:46:47.000Z</time>
      </trkpt>
      <trkpt lat="47.26174" lon="-1.43644">
        <ele>49</ele>
        <time>2021-09-12T10:46:49.000Z</time>
      </trkpt>
      <trkpt lat="47.26164" lon="-1.4366">
        <ele>49</ele>
        <time>2021-09-12T10:46:51.000Z</time>
      </trkpt>
      <trkpt lat="47.26154" lon="-1.43676">
        <ele>49</ele>
        <time>2021-09-12T10:46:53.000Z</time>
      </trkpt>
      <trkpt lat="47.26143" lon="-1.43692">
        <ele>49</ele>
        <time>2021-09-12T10:46:55.000Z</time>
      </trkpt>
      <trkpt lat="47.26134" lon="-1.43708">
        <ele>50</ele>
        <time>2021-09-12T10:46:57.000Z</time>
      </trkpt>
      <trkpt lat="47.26124" lon="-1.43722">
        <ele>50</ele>
        <time>2021-09-12T10:46:59.000Z</time>
      </trkpt>
      <trkpt lat="47.26115" lon="-1.43736">
        <ele>50</ele>
        <time>2021-09-12T10:47:01.000Z</time>
      </trkpt>
      <trkpt lat="47.26104" lon="-1.43749">
        <ele>50</ele>
        <time>2021-09-12T10:47:03.000Z</time>
      </trkpt>
      <trkpt lat="47.26094" lon="-1.43762">
        <ele>50</ele>
        <time>2021-09-12T10:47:05.000Z</time>
      </trkpt>
      <trkpt lat="47.26083" lon="-1.43775">
        <ele>50</ele>
        <time>2021-09-12T10:47:07.000Z</time>
      </trkpt>
      <trkpt lat="47.26073" lon="-1.43789">
        <ele>50</ele>
        <time>2021-09-12T10:47:09.000Z</time>
      </trkpt>
      <trkpt lat="47.26063" lon="-1.43802">
        <ele>50</ele>
        <time>2021-09-12T10:47:11.000Z</time>
      </trkpt>
      <trkpt lat="47.26054" lon="-1.43817">
        <ele>50</ele>
        <time>2021-09-12T10:47:13.000Z</time>
      </trkpt>
      <trkpt lat="47.26048" lon="-1.43837">
        <ele>50</ele>
        <time>2021-09-12T10:47:15.000Z</time>
      </trkpt>
      <trkpt lat="47.2604" lon="-1.43854">
        <ele>50</ele>
        <time>2021-09-12T10:47:17.000Z</time>
      </trkpt>
      <trkpt lat="47.26029" lon="-1.43867">
        <ele>49</ele>
        <time>2021-09-12T10:47:19.000Z</time>
      </trkpt>
      <trkpt lat="47.26017" lon="-1.43878">
        <ele>49</ele>
        <time>2021-09-12T10:47:21.000Z</time>
      </trkpt>
      <trkpt lat="47.26005" lon="-1.43889">
        <ele>49</ele>
        <time>2021-09-12T10:47:23.000Z</time>
      </trkpt>
      <trkpt lat="47.25993" lon="-1.43902">
        <ele>49</ele>
        <time>2021-09-12T10:47:25.000Z</time>
      </trkpt>
      <trkpt lat="47.25982" lon="-1.43914">
        <ele>49</ele>
        <time>2021-09-12T10:47:27.000Z</time>
      </trkpt>
      <trkpt lat="47.25971" lon="-1.43927">
        <ele>49</ele>
        <time>2021-09-12T10:47:29.000Z</time>
      </trkpt>
      <trkpt lat="47.2596" lon="-1.4394">
        <ele>49</ele>
        <time>2021-09-12T10:47:31.000Z</time>
      </trkpt>
      <trkpt lat="47.25949" lon="-1.43953">
        <ele>48</ele>
        <time>2021-09-12T10:47:33.000Z</time>
      </trkpt>
      <trkpt lat="47.25937" lon="-1.43966">
        <ele>49</ele>
        <time>2021-09-12T10:47:35.000Z</time>
      </trkpt>
      <trkpt lat="47.25926" lon="-1.43978">
        <ele>49</ele>
        <time>2021-09-12T10:47:37.000Z</time>
      </trkpt>
      <trkpt lat="47.25915" lon="-1.43991">
        <ele>49</ele>
        <time>2021-09-12T10:47:39.000Z</time>
      </trkpt>
      <trkpt lat="47.25903" lon="-1.44004">
        <ele>49</ele>
        <time>2021-09-12T10:47:41.000Z</time>
      </trkpt>
      <trkpt lat="47.25892" lon="-1.44017">
        <ele>49</ele>
        <time>2021-09-12T10:47:43.000Z</time>
      </trkpt>
      <trkpt lat="47.25881" lon="-1.44031">
        <ele>49</ele>
        <time>2021-09-12T10:47:45.000Z</time>
      </trkpt>
      <trkpt lat="47.25874" lon="-1.44048">
        <ele>49</ele>
        <time>2021-09-12T10:47:47.000Z</time>
      </trkpt>
      <trkpt lat="47.25869" lon="-1.44067">
        <ele>48</ele>
        <time>2021-09-12T10:47:49.000Z</time>
      </trkpt>
      <trkpt lat="47.25862" lon="-1.44084">
        <ele>49</ele>
        <time>2021-09-12T10:47:51.000Z</time>
      </trkpt>
      <trkpt lat="47.25852" lon="-1.44098">
        <ele>48</ele>
        <time>2021-09-12T10:47:53.000Z</time>
      </trkpt>
      <trkpt lat="47.25842" lon="-1.44111">
        <ele>49</ele>
        <time>2021-09-12T10:47:55.000Z</time>
      </trkpt>
      <trkpt lat="47.25831" lon="-1.44123">
        <ele>49</ele>
        <time>2021-09-12T10:47:57.000Z</time>
      </trkpt>
      <trkpt lat="47.2582" lon="-1.44136">
        <ele>48</ele>
        <time>2021-09-12T10:47:59.000Z</time>
      </trkpt>
      <trkpt lat="47.25809" lon="-1.44147">
        <ele>49</ele>
        <time>2021-09-12T10:48:01.000Z</time>
      </trkpt>
      <trkpt lat="47.25798" lon="-1.4416">
        <ele>49</ele>
        <time>2021-09-12T10:48:03.000Z</time>
      </trkpt>
      <trkpt lat="47.25787" lon="-1.44173">
        <ele>49</ele>
        <time>2021-09-12T10:48:05.000Z</time>
      </trkpt>
      <trkpt lat="47.25775" lon="-1.44185">
        <ele>49</ele>
        <time>2021-09-12T10:48:07.000Z</time>
      </trkpt>
      <trkpt lat="47.25764" lon="-1.44198">
        <ele>49</ele>
        <time>2021-09-12T10:48:09.000Z</time>
      </trkpt>
      <trkpt lat="47.25753" lon="-1.4421">
        <ele>49</ele>
        <time>2021-09-12T10:48:11.000Z</time>
      </trkpt>
      <trkpt lat="47.25743" lon="-1.44224">
        <ele>49</ele>
        <time>2021-09-12T10:48:13.000Z</time>
      </trkpt>
      <trkpt lat="47.25733" lon="-1.44236">
        <ele>49</ele>
        <time>2021-09-12T10:48:15.000Z</time>
      </trkpt>
      <trkpt lat="47.25723" lon="-1.44249">
        <ele>49</ele>
        <time>2021-09-12T10:48:17.000Z</time>
      </trkpt>
      <trkpt lat="47.25714" lon="-1.44262">
        <ele>50</ele>
        <time>2021-09-12T10:48:19.000Z</time>
      </trkpt>
      <trkpt lat="47.25703" lon="-1.44275">
        <ele>50</ele>
        <time>2021-09-12T10:48:21.000Z</time>
      </trkpt>
      <trkpt lat="47.25692" lon="-1.44288">
        <ele>50</ele>
        <time>2021-09-12T10:48:23.000Z</time>
      </trkpt>
      <trkpt lat="47.25681" lon="-1.44301">
        <ele>50</ele>
        <time>2021-09-12T10:48:25.000Z</time>
      </trkpt>
      <trkpt lat="47.25671" lon="-1.44314">
        <ele>50</ele>
        <time>2021-09-12T10:48:27.000Z</time>
      </trkpt>
      <trkpt lat="47.25661" lon="-1.44327">
        <ele>50</ele>
        <time>2021-09-12T10:48:29.000Z</time>
      </trkpt>
      <trkpt lat="47.2565" lon="-1.44339">
        <ele>49</ele>
        <time>2021-09-12T10:48:31.000Z</time>
      </trkpt>
      <trkpt lat="47.25639" lon="-1.44351">
        <ele>50</ele>
        <time>2021-09-12T10:48:33.000Z</time>
      </trkpt>
      <trkpt lat="47.25628" lon="-1.44363">
        <ele>49</ele>
        <time>2021-09-12T10:48:35.000Z</time>
      </trkpt>
      <trkpt lat="47.25617" lon="-1.44376">
        <ele>49</ele>
        <time>2021-09-12T10:48:37.000Z</time>
      </trkpt>
      <trkpt lat="47.25606" lon="-1.44387">
        <ele>49</ele>
        <time>2021-09-12T10:48:39.000Z</time>
      </trkpt>
      <trkpt lat="47.25596" lon="-1.444">
        <ele>49</ele>
        <time>2021-09-12T10:48:41.000Z</time>
      </trkpt>
      <trkpt lat="47.25585" lon="-1.44413">
        <ele>49</ele>
        <time>2021-09-12T10:48:43.000Z</time>
      </trkpt>
      <trkpt lat="47.25574" lon="-1.44427">
        <ele>50</ele>
        <time>2021-09-12T10:48:45.000Z</time>
      </trkpt>
      <trkpt lat="47.25564" lon="-1.4444">
        <ele>50</ele>
        <time>2021-09-12T10:48:47.000Z</time>
      </trkpt>
      <trkpt lat="47.25554" lon="-1.44454">
        <ele>50</ele>
        <time>2021-09-12T10:48:49.000Z</time>
      </trkpt>
      <trkpt lat="47.25544" lon="-1.44468">
        <ele>50</ele>
        <time>2021-09-12T10:48:51.000Z</time>
      </trkpt>
      <trkpt lat="47.25534" lon="-1.44483">
        <ele>49</ele>
        <time>2021-09-12T10:48:53.000Z</time>
      </trkpt>
      <trkpt lat="47.25524" lon="-1.44497">
        <ele>49</ele>
        <time>2021-09-12T10:48:55.000Z</time>
      </trkpt>
      <trkpt lat="47.25515" lon="-1.44512">
        <ele>49</ele>
        <time>2021-09-12T10:48:57.000Z</time>
      </trkpt>
      <trkpt lat="47.25505" lon="-1.44526">
        <ele>48</ele>
        <time>2021-09-12T10:48:59.000Z</time>
      </trkpt>
      <trkpt lat="47.25495" lon="-1.4454">
        <ele>48</ele>
        <time>2021-09-12T10:49:01.000Z</time>
      </trkpt>
      <trkpt lat="47.25484" lon="-1.44555">
        <ele>48</ele>
        <time>2021-09-12T10:49:03.000Z</time>
      </trkpt>
      <trkpt lat="47.25475" lon="-1.44569">
        <ele>48</ele>
        <time>2021-09-12T10:49:05.000Z</time>
      </trkpt>
      <trkpt lat="47.25465" lon="-1.44584">
        <ele>48</ele>
        <time>2021-09-12T10:49:07.000Z</time>
      </trkpt>
      <trkpt lat="47.25456" lon="-1.44598">
        <ele>48</ele>
        <time>2021-09-12T10:49:09.000Z</time>
      </trkpt>
      <trkpt lat="47.25445" lon="-1.44612">
        <ele>48</ele>
        <time>2021-09-12T10:49:11.000Z</time>
      </trkpt>
      <trkpt lat="47.25436" lon="-1.44625">
        <ele>48</ele>
        <time>2021-09-12T10:49:13.000Z</time>
      </trkpt>
      <trkpt lat="47.25426" lon="-1.44639">
        <ele>48</ele>
        <time>2021-09-12T10:49:15.000Z</time>
      </trkpt>
      <trkpt lat="47.25415" lon="-1.44653">
        <ele>49</ele>
        <time>2021-09-12T10:49:17.000Z</time>
      </trkpt>
      <trkpt lat="47.25405" lon="-1.44667">
        <ele>49</ele>
        <time>2021-09-12T10:49:19.000Z</time>
      </trkpt>
      <trkpt lat="47.25395" lon="-1.44681">
        <ele>49</ele>
        <time>2021-09-12T10:49:21.000Z</time>
      </trkpt>
      <trkpt lat="47.25385" lon="-1.44694">
        <ele>49</ele>
        <time>2021-09-12T10:49:23.000Z</time>
      </trkpt>
      <trkpt lat="47.25374" lon="-1.44707">
        <ele>49</ele>
        <time>2021-09-12T10:49:25.000Z</time>
      </trkpt>
      <trkpt lat="47.25363" lon="-1.44718">
        <ele>49</ele>
        <time>2021-09-12T10:49:27.000Z</time>
      </trkpt>
      <trkpt lat="47.25352" lon="-1.4473">
        <ele>49</ele>
        <time>2021-09-12T10:49:29.000Z</time>
      </trkpt>
      <trkpt lat="47.25341" lon="-1.44741">
        <ele>49</ele>
        <time>2021-09-12T10:49:31.000Z</time>
      </trkpt>
      <trkpt lat="47.25329" lon="-1.44751">
        <ele>49</ele>
        <time>2021-09-12T10:49:33.000Z</time>
      </trkpt>
      <trkpt lat="47.25318" lon="-1.44763">
        <ele>50</ele>
        <time>2021-09-12T10:49:35.000Z</time>
      </trkpt>
      <trkpt lat="47.25308" lon="-1.44777">
        <ele>50</ele>
        <time>2021-09-12T10:49:37.000Z</time>
      </trkpt>
      <trkpt lat="47.25291" lon="-1.44796">
        <ele>51</ele>
        <time>2021-09-12T10:49:40.000Z</time>
      </trkpt>
      <trkpt lat="47.2528" lon="-1.44808">
        <ele>50</ele>
        <time>2021-09-12T10:49:42.000Z</time>
      </trkpt>
      <trkpt lat="47.25269" lon="-1.44822">
        <ele>50</ele>
        <time>2021-09-12T10:49:44.000Z</time>
      </trkpt>
      <trkpt lat="47.25252" lon="-1.4484">
        <ele>50</ele>
        <time>2021-09-12T10:49:47.000Z</time>
      </trkpt>
      <trkpt lat="47.2524" lon="-1.44852">
        <ele>50</ele>
        <time>2021-09-12T10:49:49.000Z</time>
      </trkpt>
      <trkpt lat="47.25229" lon="-1.44863">
        <ele>50</ele>
        <time>2021-09-12T10:49:51.000Z</time>
      </trkpt>
      <trkpt lat="47.25218" lon="-1.44874">
        <ele>50</ele>
        <time>2021-09-12T10:49:53.000Z</time>
      </trkpt>
      <trkpt lat="47.25205" lon="-1.44884">
        <ele>50</ele>
        <time>2021-09-12T10:49:55.000Z</time>
      </trkpt>
      <trkpt lat="47.25193" lon="-1.44894">
        <ele>50</ele>
        <time>2021-09-12T10:49:57.000Z</time>
      </trkpt>
      <trkpt lat="47.25175" lon="-1.44909">
        <ele>50</ele>
        <time>2021-09-12T10:50:00.000Z</time>
      </trkpt>
      <trkpt lat="47.25162" lon="-1.4492">
        <ele>50</ele>
        <time>2021-09-12T10:50:02.000Z</time>
      </trkpt>
      <trkpt lat="47.2515" lon="-1.44931">
        <ele>50</ele>
        <time>2021-09-12T10:50:04.000Z</time>
      </trkpt>
      <trkpt lat="47.25139" lon="-1.44943">
        <ele>50</ele>
        <time>2021-09-12T10:50:06.000Z</time>
      </trkpt>
      <trkpt lat="47.25127" lon="-1.44954">
        <ele>49</ele>
        <time>2021-09-12T10:50:08.000Z</time>
      </trkpt>
      <trkpt lat="47.25116" lon="-1.44966">
        <ele>50</ele>
        <time>2021-09-12T10:50:10.000Z</time>
      </trkpt>
      <trkpt lat="47.25104" lon="-1.44977">
        <ele>50</ele>
        <time>2021-09-12T10:50:12.000Z</time>
      </trkpt>
      <trkpt lat="47.25092" lon="-1.44987">
        <ele>50</ele>
        <time>2021-09-12T10:50:14.000Z</time>
      </trkpt>
      <trkpt lat="47.2508" lon="-1.44996">
        <ele>50</ele>
        <time>2021-09-12T10:50:16.000Z</time>
      </trkpt>
      <trkpt lat="47.25068" lon="-1.45006">
        <ele>50</ele>
        <time>2021-09-12T10:50:18.000Z</time>
      </trkpt>
      <trkpt lat="47.25055" lon="-1.45015">
        <ele>49</ele>
        <time>2021-09-12T10:50:20.000Z</time>
      </trkpt>
      <trkpt lat="47.25042" lon="-1.45024">
        <ele>49</ele>
        <time>2021-09-12T10:50:22.000Z</time>
      </trkpt>
      <trkpt lat="47.2503" lon="-1.45033">
        <ele>49</ele>
        <time>2021-09-12T10:50:24.000Z</time>
      </trkpt>
      <trkpt lat="47.25018" lon="-1.45043">
        <ele>50</ele>
        <time>2021-09-12T10:50:26.000Z</time>
      </trkpt>
      <trkpt lat="47.25007" lon="-1.45054">
        <ele>49</ele>
        <time>2021-09-12T10:50:28.000Z</time>
      </trkpt>
      <trkpt lat="47.24995" lon="-1.45067">
        <ele>50</ele>
        <time>2021-09-12T10:50:30.000Z</time>
      </trkpt>
      <trkpt lat="47.24985" lon="-1.4508">
        <ele>49</ele>
        <time>2021-09-12T10:50:32.000Z</time>
      </trkpt>
      <trkpt lat="47.24974" lon="-1.45092">
        <ele>49</ele>
        <time>2021-09-12T10:50:34.000Z</time>
      </trkpt>
      <trkpt lat="47.24963" lon="-1.45103">
        <ele>49</ele>
        <time>2021-09-12T10:50:36.000Z</time>
      </trkpt>
      <trkpt lat="47.24952" lon="-1.45115">
        <ele>49</ele>
        <time>2021-09-12T10:50:38.000Z</time>
      </trkpt>
      <trkpt lat="47.24941" lon="-1.45127">
        <ele>49</ele>
        <time>2021-09-12T10:50:40.000Z</time>
      </trkpt>
      <trkpt lat="47.24931" lon="-1.45138">
        <ele>49</ele>
        <time>2021-09-12T10:50:42.000Z</time>
      </trkpt>
      <trkpt lat="47.24919" lon="-1.4515">
        <ele>49</ele>
        <time>2021-09-12T10:50:44.000Z</time>
      </trkpt>
      <trkpt lat="47.24908" lon="-1.45161">
        <ele>48</ele>
        <time>2021-09-12T10:50:46.000Z</time>
      </trkpt>
      <trkpt lat="47.24897" lon="-1.45174">
        <ele>48</ele>
        <time>2021-09-12T10:50:48.000Z</time>
      </trkpt>
      <trkpt lat="47.24887" lon="-1.45188">
        <ele>48</ele>
        <time>2021-09-12T10:50:50.000Z</time>
      </trkpt>
      <trkpt lat="47.24878" lon="-1.45202">
        <ele>49</ele>
        <time>2021-09-12T10:50:52.000Z</time>
      </trkpt>
      <trkpt lat="47.24869" lon="-1.45216">
        <ele>49</ele>
        <time>2021-09-12T10:50:54.000Z</time>
      </trkpt>
      <trkpt lat="47.24859" lon="-1.4523">
        <ele>49</ele>
        <time>2021-09-12T10:50:56.000Z</time>
      </trkpt>
      <trkpt lat="47.2485" lon="-1.45245">
        <ele>49</ele>
        <time>2021-09-12T10:50:58.000Z</time>
      </trkpt>
      <trkpt lat="47.2484" lon="-1.4526">
        <ele>49</ele>
        <time>2021-09-12T10:51:00.000Z</time>
      </trkpt>
      <trkpt lat="47.24831" lon="-1.45274">
        <ele>49</ele>
        <time>2021-09-12T10:51:02.000Z</time>
      </trkpt>
      <trkpt lat="47.24823" lon="-1.45289">
        <ele>49</ele>
        <time>2021-09-12T10:51:04.000Z</time>
      </trkpt>
      <trkpt lat="47.24815" lon="-1.45305">
        <ele>50</ele>
        <time>2021-09-12T10:51:06.000Z</time>
      </trkpt>
      <trkpt lat="47.24808" lon="-1.45322">
        <ele>50</ele>
        <time>2021-09-12T10:51:08.000Z</time>
      </trkpt>
      <trkpt lat="47.248" lon="-1.45339">
        <ele>51</ele>
        <time>2021-09-12T10:51:10.000Z</time>
      </trkpt>
      <trkpt lat="47.24793" lon="-1.45354">
        <ele>51</ele>
        <time>2021-09-12T10:51:12.000Z</time>
      </trkpt>
      <trkpt lat="47.24787" lon="-1.4537">
        <ele>52</ele>
        <time>2021-09-12T10:51:14.000Z</time>
      </trkpt>
      <trkpt lat="47.2478" lon="-1.45388">
        <ele>52</ele>
        <time>2021-09-12T10:51:16.000Z</time>
      </trkpt>
      <trkpt lat="47.24773" lon="-1.45405">
        <ele>52</ele>
        <time>2021-09-12T10:51:18.000Z</time>
      </trkpt>
      <trkpt lat="47.24767" lon="-1.45422">
        <ele>52</ele>
        <time>2021-09-12T10:51:20.000Z</time>
      </trkpt>
      <trkpt lat="47.2476" lon="-1.45438">
        <ele>51</ele>
        <time>2021-09-12T10:51:22.000Z</time>
      </trkpt>
      <trkpt lat="47.24753" lon="-1.45455">
        <ele>51</ele>
        <time>2021-09-12T10:51:24.000Z</time>
      </trkpt>
      <trkpt lat="47.24748" lon="-1.45473">
        <ele>51</ele>
        <time>2021-09-12T10:51:26.000Z</time>
      </trkpt>
      <trkpt lat="47.24741" lon="-1.45489">
        <ele>51</ele>
        <time>2021-09-12T10:51:28.000Z</time>
      </trkpt>
      <trkpt lat="47.24734" lon="-1.45507">
        <ele>50</ele>
        <time>2021-09-12T10:51:30.000Z</time>
      </trkpt>
      <trkpt lat="47.24727" lon="-1.45525">
        <ele>49</ele>
        <time>2021-09-12T10:51:32.000Z</time>
      </trkpt>
      <trkpt lat="47.2472" lon="-1.45543">
        <ele>49</ele>
        <time>2021-09-12T10:51:34.000Z</time>
      </trkpt>
      <trkpt lat="47.24714" lon="-1.45561">
        <ele>49</ele>
        <time>2021-09-12T10:51:36.000Z</time>
      </trkpt>
      <trkpt lat="47.24708" lon="-1.45579">
        <ele>49</ele>
        <time>2021-09-12T10:51:38.000Z</time>
      </trkpt>
      <trkpt lat="47.24702" lon="-1.45596">
        <ele>49</ele>
        <time>2021-09-12T10:51:40.000Z</time>
      </trkpt>
      <trkpt lat="47.24697" lon="-1.45614">
        <ele>49</ele>
        <time>2021-09-12T10:51:42.000Z</time>
      </trkpt>
      <trkpt lat="47.24691" lon="-1.45631">
        <ele>49</ele>
        <time>2021-09-12T10:51:44.000Z</time>
      </trkpt>
      <trkpt lat="47.24685" lon="-1.45648">
        <ele>49</ele>
        <time>2021-09-12T10:51:46.000Z</time>
      </trkpt>
      <trkpt lat="47.24679" lon="-1.45666">
        <ele>49</ele>
        <time>2021-09-12T10:51:48.000Z</time>
      </trkpt>
      <trkpt lat="47.24675" lon="-1.45684">
        <ele>50</ele>
        <time>2021-09-12T10:51:50.000Z</time>
      </trkpt>
      <trkpt lat="47.2467" lon="-1.45703">
        <ele>51</ele>
        <time>2021-09-12T10:51:52.000Z</time>
      </trkpt>
      <trkpt lat="47.24666" lon="-1.45723">
        <ele>51</ele>
        <time>2021-09-12T10:51:54.000Z</time>
      </trkpt>
      <trkpt lat="47.24663" lon="-1.45745">
        <ele>51</ele>
        <time>2021-09-12T10:51:56.000Z</time>
      </trkpt>
      <trkpt lat="47.24658" lon="-1.45765">
        <ele>51</ele>
        <time>2021-09-12T10:51:58.000Z</time>
      </trkpt>
      <trkpt lat="47.24652" lon="-1.45783">
        <ele>51</ele>
        <time>2021-09-12T10:52:00.000Z</time>
      </trkpt>
      <trkpt lat="47.24646" lon="-1.45801">
        <ele>52</ele>
        <time>2021-09-12T10:52:02.000Z</time>
      </trkpt>
      <trkpt lat="47.2464" lon="-1.4582">
        <ele>52</ele>
        <time>2021-09-12T10:52:04.000Z</time>
      </trkpt>
      <trkpt lat="47.24634" lon="-1.45839">
        <ele>51</ele>
        <time>2021-09-12T10:52:06.000Z</time>
      </trkpt>
      <trkpt lat="47.24629" lon="-1.45859">
        <ele>52</ele>
        <time>2021-09-12T10:52:08.000Z</time>
      </trkpt>
      <trkpt lat="47.24625" lon="-1.45878">
        <ele>53</ele>
        <time>2021-09-12T10:52:10.000Z</time>
      </trkpt>
      <trkpt lat="47.2462" lon="-1.45899">
        <ele>54</ele>
        <time>2021-09-12T10:52:12.000Z</time>
      </trkpt>
      <trkpt lat="47.24614" lon="-1.45918">
        <ele>54</ele>
        <time>2021-09-12T10:52:14.000Z</time>
      </trkpt>
      <trkpt lat="47.24606" lon="-1.45936">
        <ele>54</ele>
        <time>2021-09-12T10:52:16.000Z</time>
      </trkpt>
      <trkpt lat="47.24597" lon="-1.45953">
        <ele>54</ele>
        <time>2021-09-12T10:52:18.000Z</time>
      </trkpt>
      <trkpt lat="47.24589" lon="-1.4597">
        <ele>53</ele>
        <time>2021-09-12T10:52:20.000Z</time>
      </trkpt>
      <trkpt lat="47.24581" lon="-1.45986">
        <ele>53</ele>
        <time>2021-09-12T10:52:22.000Z</time>
      </trkpt>
      <trkpt lat="47.24574" lon="-1.46004">
        <ele>53</ele>
        <time>2021-09-12T10:52:24.000Z</time>
      </trkpt>
      <trkpt lat="47.24567" lon="-1.46021">
        <ele>53</ele>
        <time>2021-09-12T10:52:26.000Z</time>
      </trkpt>
      <trkpt lat="47.24558" lon="-1.46037">
        <ele>53</ele>
        <time>2021-09-12T10:52:28.000Z</time>
      </trkpt>
      <trkpt lat="47.24549" lon="-1.46053">
        <ele>53</ele>
        <time>2021-09-12T10:52:30.000Z</time>
      </trkpt>
      <trkpt lat="47.2454" lon="-1.46069">
        <ele>53</ele>
        <time>2021-09-12T10:52:32.000Z</time>
      </trkpt>
      <trkpt lat="47.24532" lon="-1.46084">
        <ele>53</ele>
        <time>2021-09-12T10:52:34.000Z</time>
      </trkpt>
      <trkpt lat="47.24526" lon="-1.46098">
        <ele>53</ele>
        <time>2021-09-12T10:52:36.000Z</time>
      </trkpt>
      <trkpt lat="47.24518" lon="-1.46111">
        <ele>54</ele>
        <time>2021-09-12T10:52:38.000Z</time>
      </trkpt>
      <trkpt lat="47.24507" lon="-1.46122">
        <ele>53</ele>
        <time>2021-09-12T10:52:40.000Z</time>
      </trkpt>
      <trkpt lat="47.24495" lon="-1.46136">
        <ele>53</ele>
        <time>2021-09-12T10:52:42.000Z</time>
      </trkpt>
      <trkpt lat="47.24485" lon="-1.4615">
        <ele>52</ele>
        <time>2021-09-12T10:52:44.000Z</time>
      </trkpt>
      <trkpt lat="47.24474" lon="-1.46163">
        <ele>52</ele>
        <time>2021-09-12T10:52:46.000Z</time>
      </trkpt>
      <trkpt lat="47.24463" lon="-1.46176">
        <ele>52</ele>
        <time>2021-09-12T10:52:48.000Z</time>
      </trkpt>
      <trkpt lat="47.24453" lon="-1.46189">
        <ele>53</ele>
        <time>2021-09-12T10:52:50.000Z</time>
      </trkpt>
      <trkpt lat="47.24443" lon="-1.46203">
        <ele>53</ele>
        <time>2021-09-12T10:52:52.000Z</time>
      </trkpt>
      <trkpt lat="47.24432" lon="-1.46216">
        <ele>53</ele>
        <time>2021-09-12T10:52:54.000Z</time>
      </trkpt>
      <trkpt lat="47.24422" lon="-1.4623">
        <ele>53</ele>
        <time>2021-09-12T10:52:56.000Z</time>
      </trkpt>
      <trkpt lat="47.24412" lon="-1.46244">
        <ele>53</ele>
        <time>2021-09-12T10:52:58.000Z</time>
      </trkpt>
      <trkpt lat="47.24402" lon="-1.46257">
        <ele>53</ele>
        <time>2021-09-12T10:53:00.000Z</time>
      </trkpt>
      <trkpt lat="47.24392" lon="-1.46271">
        <ele>53</ele>
        <time>2021-09-12T10:53:02.000Z</time>
      </trkpt>
      <trkpt lat="47.24382" lon="-1.46287">
        <ele>53</ele>
        <time>2021-09-12T10:53:04.000Z</time>
      </trkpt>
      <trkpt lat="47.24371" lon="-1.46303">
        <ele>52</ele>
        <time>2021-09-12T10:53:06.000Z</time>
      </trkpt>
      <trkpt lat="47.24361" lon="-1.46319">
        <ele>51</ele>
        <time>2021-09-12T10:53:08.000Z</time>
      </trkpt>
      <trkpt lat="47.2435" lon="-1.46335">
        <ele>51</ele>
        <time>2021-09-12T10:53:10.000Z</time>
      </trkpt>
      <trkpt lat="47.24341" lon="-1.46352">
        <ele>51</ele>
        <time>2021-09-12T10:53:12.000Z</time>
      </trkpt>
      <trkpt lat="47.24331" lon="-1.46369">
        <ele>51</ele>
        <time>2021-09-12T10:53:14.000Z</time>
      </trkpt>
      <trkpt lat="47.24321" lon="-1.46386">
        <ele>51</ele>
        <time>2021-09-12T10:53:16.000Z</time>
      </trkpt>
      <trkpt lat="47.24311" lon="-1.46403">
        <ele>51</ele>
        <time>2021-09-12T10:53:18.000Z</time>
      </trkpt>
      <trkpt lat="47.24301" lon="-1.4642">
        <ele>51</ele>
        <time>2021-09-12T10:53:20.000Z</time>
      </trkpt>
      <trkpt lat="47.24291" lon="-1.46436">
        <ele>52</ele>
        <time>2021-09-12T10:53:22.000Z</time>
      </trkpt>
      <trkpt lat="47.2428" lon="-1.46451">
        <ele>52</ele>
        <time>2021-09-12T10:53:24.000Z</time>
      </trkpt>
      <trkpt lat="47.24269" lon="-1.46466">
        <ele>52</ele>
        <time>2021-09-12T10:53:26.000Z</time>
      </trkpt>
      <trkpt lat="47.24259" lon="-1.46479">
        <ele>53</ele>
        <time>2021-09-12T10:53:28.000Z</time>
      </trkpt>
      <trkpt lat="47.24248" lon="-1.46494">
        <ele>53</ele>
        <time>2021-09-12T10:53:30.000Z</time>
      </trkpt>
      <trkpt lat="47.24237" lon="-1.46508">
        <ele>53</ele>
        <time>2021-09-12T10:53:32.000Z</time>
      </trkpt>
      <trkpt lat="47.24227" lon="-1.46522">
        <ele>53</ele>
        <time>2021-09-12T10:53:34.000Z</time>
      </trkpt>
      <trkpt lat="47.24216" lon="-1.46535">
        <ele>52</ele>
        <time>2021-09-12T10:53:36.000Z</time>
      </trkpt>
      <trkpt lat="47.24205" lon="-1.46548">
        <ele>51</ele>
        <time>2021-09-12T10:53:38.000Z</time>
      </trkpt>
      <trkpt lat="47.24194" lon="-1.46561">
        <ele>51</ele>
        <time>2021-09-12T10:53:40.000Z</time>
      </trkpt>
      <trkpt lat="47.24182" lon="-1.46575">
        <ele>51</ele>
        <time>2021-09-12T10:53:42.000Z</time>
      </trkpt>
      <trkpt lat="47.24171" lon="-1.46589">
        <ele>51</ele>
        <time>2021-09-12T10:53:44.000Z</time>
      </trkpt>
      <trkpt lat="47.24159" lon="-1.46603">
        <ele>51</ele>
        <time>2021-09-12T10:53:46.000Z</time>
      </trkpt>
      <trkpt lat="47.24149" lon="-1.46617">
        <ele>51</ele>
        <time>2021-09-12T10:53:48.000Z</time>
      </trkpt>
      <trkpt lat="47.24139" lon="-1.4663">
        <ele>51</ele>
        <time>2021-09-12T10:53:50.000Z</time>
      </trkpt>
      <trkpt lat="47.24129" lon="-1.46644">
        <ele>50</ele>
        <time>2021-09-12T10:53:52.000Z</time>
      </trkpt>
      <trkpt lat="47.24119" lon="-1.46658">
        <ele>50</ele>
        <time>2021-09-12T10:53:54.000Z</time>
      </trkpt>
      <trkpt lat="47.24109" lon="-1.46672">
        <ele>51</ele>
        <time>2021-09-12T10:53:56.000Z</time>
      </trkpt>
      <trkpt lat="47.241" lon="-1.46686">
        <ele>51</ele>
        <time>2021-09-12T10:53:58.000Z</time>
      </trkpt>
      <trkpt lat="47.24091" lon="-1.467">
        <ele>51</ele>
        <time>2021-09-12T10:54:00.000Z</time>
      </trkpt>
      <trkpt lat="47.24084" lon="-1.46714">
        <ele>51</ele>
        <time>2021-09-12T10:54:02.000Z</time>
      </trkpt>
      <trkpt lat="47.24078" lon="-1.4673">
        <ele>51</ele>
        <time>2021-09-12T10:54:04.000Z</time>
      </trkpt>
      <trkpt lat="47.24068" lon="-1.46743">
        <ele>50</ele>
        <time>2021-09-12T10:54:06.000Z</time>
      </trkpt>
      <trkpt lat="47.24053" lon="-1.46752">
        <ele>50</ele>
        <time>2021-09-12T10:54:08.000Z</time>
      </trkpt>
      <trkpt lat="47.2404" lon="-1.46765">
        <ele>50</ele>
        <time>2021-09-12T10:54:10.000Z</time>
      </trkpt>
      <trkpt lat="47.24028" lon="-1.46777">
        <ele>50</ele>
        <time>2021-09-12T10:54:12.000Z</time>
      </trkpt>
      <trkpt lat="47.24017" lon="-1.4679">
        <ele>49</ele>
        <time>2021-09-12T10:54:14.000Z</time>
      </trkpt>
      <trkpt lat="47.24005" lon="-1.46803">
        <ele>49</ele>
        <time>2021-09-12T10:54:16.000Z</time>
      </trkpt>
      <trkpt lat="47.23993" lon="-1.46816">
        <ele>50</ele>
        <time>2021-09-12T10:54:18.000Z</time>
      </trkpt>
      <trkpt lat="47.23982" lon="-1.46828">
        <ele>50</ele>
        <time>2021-09-12T10:54:20.000Z</time>
      </trkpt>
      <trkpt lat="47.23971" lon="-1.46841">
        <ele>50</ele>
        <time>2021-09-12T10:54:22.000Z</time>
      </trkpt>
      <trkpt lat="47.23959" lon="-1.46852">
        <ele>50</ele>
        <time>2021-09-12T10:54:24.000Z</time>
      </trkpt>
      <trkpt lat="47.23947" lon="-1.46863">
        <ele>51</ele>
        <time>2021-09-12T10:54:26.000Z</time>
      </trkpt>
      <trkpt lat="47.23936" lon="-1.46873">
        <ele>52</ele>
        <time>2021-09-12T10:54:28.000Z</time>
      </trkpt>
      <trkpt lat="47.23925" lon="-1.46884">
        <ele>52</ele>
        <time>2021-09-12T10:54:30.000Z</time>
      </trkpt>
      <trkpt lat="47.23913" lon="-1.46898">
        <ele>52</ele>
        <time>2021-09-12T10:54:32.000Z</time>
      </trkpt>
      <trkpt lat="47.23903" lon="-1.46912">
        <ele>53</ele>
        <time>2021-09-12T10:54:34.000Z</time>
      </trkpt>
      <trkpt lat="47.23893" lon="-1.46925">
        <ele>53</ele>
        <time>2021-09-12T10:54:36.000Z</time>
      </trkpt>
      <trkpt lat="47.23883" lon="-1.46938">
        <ele>52</ele>
        <time>2021-09-12T10:54:38.000Z</time>
      </trkpt>
      <trkpt lat="47.23873" lon="-1.46951">
        <ele>53</ele>
        <time>2021-09-12T10:54:40.000Z</time>
      </trkpt>
      <trkpt lat="47.23862" lon="-1.46965">
        <ele>53</ele>
        <time>2021-09-12T10:54:42.000Z</time>
      </trkpt>
      <trkpt lat="47.23852" lon="-1.4698">
        <ele>53</ele>
        <time>2021-09-12T10:54:44.000Z</time>
      </trkpt>
      <trkpt lat="47.23842" lon="-1.46994">
        <ele>53</ele>
        <time>2021-09-12T10:54:46.000Z</time>
      </trkpt>
      <trkpt lat="47.23831" lon="-1.47008">
        <ele>52</ele>
        <time>2021-09-12T10:54:48.000Z</time>
      </trkpt>
      <trkpt lat="47.23821" lon="-1.47024">
        <ele>52</ele>
        <time>2021-09-12T10:54:50.000Z</time>
      </trkpt>
      <trkpt lat="47.23811" lon="-1.47038">
        <ele>52</ele>
        <time>2021-09-12T10:54:52.000Z</time>
      </trkpt>
      <trkpt lat="47.23801" lon="-1.47052">
        <ele>52</ele>
        <time>2021-09-12T10:54:54.000Z</time>
      </trkpt>
      <trkpt lat="47.23791" lon="-1.47067">
        <ele>52</ele>
        <time>2021-09-12T10:54:56.000Z</time>
      </trkpt>
      <trkpt lat="47.2378" lon="-1.47081">
        <ele>52</ele>
        <time>2021-09-12T10:54:58.000Z</time>
      </trkpt>
      <trkpt lat="47.2377" lon="-1.47095">
        <ele>52</ele>
        <time>2021-09-12T10:55:00.000Z</time>
      </trkpt>
      <trkpt lat="47.2376" lon="-1.47109">
        <ele>52</ele>
        <time>2021-09-12T10:55:02.000Z</time>
      </trkpt>
      <trkpt lat="47.23749" lon="-1.47122">
        <ele>51</ele>
        <time>2021-09-12T10:55:04.000Z</time>
      </trkpt>
      <trkpt lat="47.23737" lon="-1.47135">
        <ele>51</ele>
        <time>2021-09-12T10:55:06.000Z</time>
      </trkpt>
      <trkpt lat="47.23726" lon="-1.47148">
        <ele>51</ele>
        <time>2021-09-12T10:55:08.000Z</time>
      </trkpt>
      <trkpt lat="47.23717" lon="-1.47162">
        <ele>51</ele>
        <time>2021-09-12T10:55:10.000Z</time>
      </trkpt>
      <trkpt lat="47.23707" lon="-1.47177">
        <ele>52</ele>
        <time>2021-09-12T10:55:12.000Z</time>
      </trkpt>
      <trkpt lat="47.23697" lon="-1.47191">
        <ele>52</ele>
        <time>2021-09-12T10:55:14.000Z</time>
      </trkpt>
      <trkpt lat="47.23687" lon="-1.47207">
        <ele>51</ele>
        <time>2021-09-12T10:55:16.000Z</time>
      </trkpt>
      <trkpt lat="47.23677" lon="-1.47222">
        <ele>51</ele>
        <time>2021-09-12T10:55:18.000Z</time>
      </trkpt>
      <trkpt lat="47.23666" lon="-1.47234">
        <ele>51</ele>
        <time>2021-09-12T10:55:20.000Z</time>
      </trkpt>
      <trkpt lat="47.23655" lon="-1.47247">
        <ele>51</ele>
        <time>2021-09-12T10:55:22.000Z</time>
      </trkpt>
      <trkpt lat="47.23644" lon="-1.4726">
        <ele>51</ele>
        <time>2021-09-12T10:55:24.000Z</time>
      </trkpt>
      <trkpt lat="47.23634" lon="-1.47272">
        <ele>51</ele>
        <time>2021-09-12T10:55:26.000Z</time>
      </trkpt>
      <trkpt lat="47.23622" lon="-1.47283">
        <ele>51</ele>
        <time>2021-09-12T10:55:28.000Z</time>
      </trkpt>
      <trkpt lat="47.23611" lon="-1.47295">
        <ele>51</ele>
        <time>2021-09-12T10:55:30.000Z</time>
      </trkpt>
      <trkpt lat="47.236" lon="-1.47307">
        <ele>51</ele>
        <time>2021-09-12T10:55:32.000Z</time>
      </trkpt>
      <trkpt lat="47.23588" lon="-1.47319">
        <ele>51</ele>
        <time>2021-09-12T10:55:34.000Z</time>
      </trkpt>
      <trkpt lat="47.23577" lon="-1.47329">
        <ele>52</ele>
        <time>2021-09-12T10:55:36.000Z</time>
      </trkpt>
      <trkpt lat="47.23564" lon="-1.4734">
        <ele>51</ele>
        <time>2021-09-12T10:55:38.000Z</time>
      </trkpt>
      <trkpt lat="47.23552" lon="-1.4735">
        <ele>51</ele>
        <time>2021-09-12T10:55:40.000Z</time>
      </trkpt>
      <trkpt lat="47.2354" lon="-1.4736">
        <ele>52</ele>
        <time>2021-09-12T10:55:42.000Z</time>
      </trkpt>
      <trkpt lat="47.23527" lon="-1.47371">
        <ele>52</ele>
        <time>2021-09-12T10:55:44.000Z</time>
      </trkpt>
      <trkpt lat="47.23515" lon="-1.47381">
        <ele>51</ele>
        <time>2021-09-12T10:55:46.000Z</time>
      </trkpt>
      <trkpt lat="47.23503" lon="-1.47391">
        <ele>51</ele>
        <time>2021-09-12T10:55:48.000Z</time>
      </trkpt>
      <trkpt lat="47.23491" lon="-1.47399">
        <ele>51</ele>
        <time>2021-09-12T10:55:50.000Z</time>
      </trkpt>
      <trkpt lat="47.23478" lon="-1.47406">
        <ele>51</ele>
        <time>2021-09-12T10:55:52.000Z</time>
      </trkpt>
      <trkpt lat="47.23465" lon="-1.47412">
        <ele>51</ele>
        <time>2021-09-12T10:55:54.000Z</time>
      </trkpt>
      <trkpt lat="47.23452" lon="-1.47416">
        <ele>51</ele>
        <time>2021-09-12T10:55:56.000Z</time>
      </trkpt>
      <trkpt lat="47.23438" lon="-1.4742">
        <ele>51</ele>
        <time>2021-09-12T10:55:58.000Z</time>
      </trkpt>
      <trkpt lat="47.23426" lon="-1.47428">
        <ele>52</ele>
        <time>2021-09-12T10:56:00.000Z</time>
      </trkpt>
      <trkpt lat="47.23413" lon="-1.47437">
        <ele>52</ele>
        <time>2021-09-12T10:56:02.000Z</time>
      </trkpt>
      <trkpt lat="47.23402" lon="-1.47447">
        <ele>52</ele>
        <time>2021-09-12T10:56:04.000Z</time>
      </trkpt>
      <trkpt lat="47.23389" lon="-1.47454">
        <ele>52</ele>
        <time>2021-09-12T10:56:06.000Z</time>
      </trkpt>
      <trkpt lat="47.23376" lon="-1.47461">
        <ele>52</ele>
        <time>2021-09-12T10:56:08.000Z</time>
      </trkpt>
      <trkpt lat="47.23363" lon="-1.47467">
        <ele>52</ele>
        <time>2021-09-12T10:56:10.000Z</time>
      </trkpt>
      <trkpt lat="47.2335" lon="-1.47473">
        <ele>52</ele>
        <time>2021-09-12T10:56:12.000Z</time>
      </trkpt>
      <trkpt lat="47.23338" lon="-1.47479">
        <ele>52</ele>
        <time>2021-09-12T10:56:14.000Z</time>
      </trkpt>
      <trkpt lat="47.23327" lon="-1.47486">
        <ele>51</ele>
        <time>2021-09-12T10:56:16.000Z</time>
      </trkpt>
      <trkpt lat="47.23316" lon="-1.47495">
        <ele>52</ele>
        <time>2021-09-12T10:56:18.000Z</time>
      </trkpt>
      <trkpt lat="47.23303" lon="-1.47504">
        <ele>52</ele>
        <time>2021-09-12T10:56:20.000Z</time>
      </trkpt>
      <trkpt lat="47.2329" lon="-1.47512">
        <ele>53</ele>
        <time>2021-09-12T10:56:22.000Z</time>
      </trkpt>
      <trkpt lat="47.23277" lon="-1.47521">
        <ele>53</ele>
        <time>2021-09-12T10:56:24.000Z</time>
      </trkpt>
      <trkpt lat="47.23266" lon="-1.47531">
        <ele>53</ele>
        <time>2021-09-12T10:56:26.000Z</time>
      </trkpt>
      <trkpt lat="47.23255" lon="-1.47543">
        <ele>53</ele>
        <time>2021-09-12T10:56:28.000Z</time>
      </trkpt>
      <trkpt lat="47.23247" lon="-1.4756">
        <ele>53</ele>
        <time>2021-09-12T10:56:30.000Z</time>
      </trkpt>
      <trkpt lat="47.23239" lon="-1.47577">
        <ele>53</ele>
        <time>2021-09-12T10:56:32.000Z</time>
      </trkpt>
      <trkpt lat="47.23231" lon="-1.47592">
        <ele>52</ele>
        <time>2021-09-12T10:56:34.000Z</time>
      </trkpt>
      <trkpt lat="47.23222" lon="-1.47609">
        <ele>52</ele>
        <time>2021-09-12T10:56:36.000Z</time>
      </trkpt>
      <trkpt lat="47.23215" lon="-1.47625">
        <ele>52</ele>
        <time>2021-09-12T10:56:38.000Z</time>
      </trkpt>
      <trkpt lat="47.23209" lon="-1.47643">
        <ele>52</ele>
        <time>2021-09-12T10:56:40.000Z</time>
      </trkpt>
      <trkpt lat="47.23202" lon="-1.4766">
        <ele>52</ele>
        <time>2021-09-12T10:56:42.000Z</time>
      </trkpt>
      <trkpt lat="47.23196" lon="-1.47677">
        <ele>53</ele>
        <time>2021-09-12T10:56:44.000Z</time>
      </trkpt>
      <trkpt lat="47.23188" lon="-1.47694">
        <ele>53</ele>
        <time>2021-09-12T10:56:46.000Z</time>
      </trkpt>
      <trkpt lat="47.2318" lon="-1.47711">
        <ele>53</ele>
        <time>2021-09-12T10:56:48.000Z</time>
      </trkpt>
      <trkpt lat="47.23173" lon="-1.47728">
        <ele>53</ele>
        <time>2021-09-12T10:56:50.000Z</time>
      </trkpt>
      <trkpt lat="47.23165" lon="-1.47746">
        <ele>53</ele>
        <time>2021-09-12T10:56:52.000Z</time>
      </trkpt>
      <trkpt lat="47.23157" lon="-1.47763">
        <ele>52</ele>
        <time>2021-09-12T10:56:54.000Z</time>
      </trkpt>
      <trkpt lat="47.23149" lon="-1.47779">
        <ele>51</ele>
        <time>2021-09-12T10:56:56.000Z</time>
      </trkpt>
      <trkpt lat="47.23143" lon="-1.47796">
        <ele>51</ele>
        <time>2021-09-12T10:56:58.000Z</time>
      </trkpt>
      <trkpt lat="47.23137" lon="-1.47814">
        <ele>51</ele>
        <time>2021-09-12T10:57:00.000Z</time>
      </trkpt>
      <trkpt lat="47.23131" lon="-1.47832">
        <ele>51</ele>
        <time>2021-09-12T10:57:02.000Z</time>
      </trkpt>
      <trkpt lat="47.23123" lon="-1.47849">
        <ele>51</ele>
        <time>2021-09-12T10:57:04.000Z</time>
      </trkpt>
      <trkpt lat="47.23114" lon="-1.47865">
        <ele>51</ele>
        <time>2021-09-12T10:57:06.000Z</time>
      </trkpt>
      <trkpt lat="47.23104" lon="-1.47879">
        <ele>51</ele>
        <time>2021-09-12T10:57:08.000Z</time>
      </trkpt>
      <trkpt lat="47.23095" lon="-1.47892">
        <ele>51</ele>
        <time>2021-09-12T10:57:10.000Z</time>
      </trkpt>
      <trkpt lat="47.23084" lon="-1.47906">
        <ele>51</ele>
        <time>2021-09-12T10:57:12.000Z</time>
      </trkpt>
      <trkpt lat="47.23073" lon="-1.4792">
        <ele>50</ele>
        <time>2021-09-12T10:57:14.000Z</time>
      </trkpt>
      <trkpt lat="47.23063" lon="-1.47932">
        <ele>51</ele>
        <time>2021-09-12T10:57:16.000Z</time>
      </trkpt>
      <trkpt lat="47.23053" lon="-1.47946">
        <ele>51</ele>
        <time>2021-09-12T10:57:18.000Z</time>
      </trkpt>
      <trkpt lat="47.23043" lon="-1.47959">
        <ele>52</ele>
        <time>2021-09-12T10:57:20.000Z</time>
      </trkpt>
      <trkpt lat="47.23034" lon="-1.47973">
        <ele>52</ele>
        <time>2021-09-12T10:57:22.000Z</time>
      </trkpt>
      <trkpt lat="47.23024" lon="-1.47986">
        <ele>52</ele>
        <time>2021-09-12T10:57:24.000Z</time>
      </trkpt>
      <trkpt lat="47.23014" lon="-1.48">
        <ele>52</ele>
        <time>2021-09-12T10:57:26.000Z</time>
      </trkpt>
      <trkpt lat="47.23005" lon="-1.48016">
        <ele>52</ele>
        <time>2021-09-12T10:57:28.000Z</time>
      </trkpt>
      <trkpt lat="47.22997" lon="-1.48031">
        <ele>52</ele>
        <time>2021-09-12T10:57:30.000Z</time>
      </trkpt>
      <trkpt lat="47.22988" lon="-1.48047">
        <ele>52</ele>
        <time>2021-09-12T10:57:32.000Z</time>
      </trkpt>
      <trkpt lat="47.22979" lon="-1.48061">
        <ele>51</ele>
        <time>2021-09-12T10:57:34.000Z</time>
      </trkpt>
      <trkpt lat="47.2297" lon="-1.48075">
        <ele>51</ele>
        <time>2021-09-12T10:57:36.000Z</time>
      </trkpt>
      <trkpt lat="47.22962" lon="-1.48088">
        <ele>51</ele>
        <time>2021-09-12T10:57:38.000Z</time>
      </trkpt>
      <trkpt lat="47.22954" lon="-1.48101">
        <ele>51</ele>
        <time>2021-09-12T10:57:40.000Z</time>
      </trkpt>
      <trkpt lat="47.22944" lon="-1.48109">
        <ele>51</ele>
        <time>2021-09-12T10:57:42.000Z</time>
      </trkpt>
      <trkpt lat="47.22931" lon="-1.48111">
        <ele>51</ele>
        <time>2021-09-12T10:57:44.000Z</time>
      </trkpt>
      <trkpt lat="47.22918" lon="-1.48115">
        <ele>51</ele>
        <time>2021-09-12T10:57:46.000Z</time>
      </trkpt>
      <trkpt lat="47.22905" lon="-1.48124">
        <ele>51</ele>
        <time>2021-09-12T10:57:48.000Z</time>
      </trkpt>
      <trkpt lat="47.22894" lon="-1.48138">
        <ele>51</ele>
        <time>2021-09-12T10:57:50.000Z</time>
      </trkpt>
      <trkpt lat="47.22884" lon="-1.48152">
        <ele>51</ele>
        <time>2021-09-12T10:57:52.000Z</time>
      </trkpt>
      <trkpt lat="47.22875" lon="-1.48167">
        <ele>51</ele>
        <time>2021-09-12T10:57:54.000Z</time>
      </trkpt>
      <trkpt lat="47.22866" lon="-1.48181">
        <ele>51</ele>
        <time>2021-09-12T10:57:56.000Z</time>
      </trkpt>
      <trkpt lat="47.22857" lon="-1.48195">
        <ele>51</ele>
        <time>2021-09-12T10:57:58.000Z</time>
      </trkpt>
      <trkpt lat="47.22847" lon="-1.4821">
        <ele>51</ele>
        <time>2021-09-12T10:58:00.000Z</time>
      </trkpt>
      <trkpt lat="47.22837" lon="-1.48225">
        <ele>51</ele>
        <time>2021-09-12T10:58:02.000Z</time>
      </trkpt>
      <trkpt lat="47.22828" lon="-1.4824">
        <ele>51</ele>
        <time>2021-09-12T10:58:04.000Z</time>
      </trkpt>
      <trkpt lat="47.22818" lon="-1.48254">
        <ele>52</ele>
        <time>2021-09-12T10:58:06.000Z</time>
      </trkpt>
      <trkpt lat="47.22808" lon="-1.48269">
        <ele>52</ele>
        <time>2021-09-12T10:58:08.000Z</time>
      </trkpt>
      <trkpt lat="47.22799" lon="-1.48284">
        <ele>52</ele>
        <time>2021-09-12T10:58:10.000Z</time>
      </trkpt>
      <trkpt lat="47.22789" lon="-1.48299">
        <ele>52</ele>
        <time>2021-09-12T10:58:12.000Z</time>
      </trkpt>
      <trkpt lat="47.2278" lon="-1.48315">
        <ele>52</ele>
        <time>2021-09-12T10:58:14.000Z</time>
      </trkpt>
      <trkpt lat="47.22771" lon="-1.48331">
        <ele>52</ele>
        <time>2021-09-12T10:58:16.000Z</time>
      </trkpt>
      <trkpt lat="47.22761" lon="-1.48346">
        <ele>52</ele>
        <time>2021-09-12T10:58:18.000Z</time>
      </trkpt>
      <trkpt lat="47.2275" lon="-1.48359">
        <ele>52</ele>
        <time>2021-09-12T10:58:20.000Z</time>
      </trkpt>
      <trkpt lat="47.2274" lon="-1.48373">
        <ele>52</ele>
        <time>2021-09-12T10:58:22.000Z</time>
      </trkpt>
      <trkpt lat="47.22729" lon="-1.48386">
        <ele>51</ele>
        <time>2021-09-12T10:58:24.000Z</time>
      </trkpt>
      <trkpt lat="47.22719" lon="-1.48398">
        <ele>51</ele>
        <time>2021-09-12T10:58:26.000Z</time>
      </trkpt>
      <trkpt lat="47.2271" lon="-1.48413">
        <ele>51</ele>
        <time>2021-09-12T10:58:28.000Z</time>
      </trkpt>
      <trkpt lat="47.22703" lon="-1.4843">
        <ele>51</ele>
        <time>2021-09-12T10:58:30.000Z</time>
      </trkpt>
      <trkpt lat="47.22697" lon="-1.48448">
        <ele>51</ele>
        <time>2021-09-12T10:58:32.000Z</time>
      </trkpt>
      <trkpt lat="47.22691" lon="-1.48466">
        <ele>51</ele>
        <time>2021-09-12T10:58:34.000Z</time>
      </trkpt>
      <trkpt lat="47.22683" lon="-1.48483">
        <ele>51</ele>
        <time>2021-09-12T10:58:36.000Z</time>
      </trkpt>
      <trkpt lat="47.22676" lon="-1.485">
        <ele>52</ele>
        <time>2021-09-12T10:58:38.000Z</time>
      </trkpt>
      <trkpt lat="47.22669" lon="-1.48517">
        <ele>52</ele>
        <time>2021-09-12T10:58:40.000Z</time>
      </trkpt>
      <trkpt lat="47.22663" lon="-1.48535">
        <ele>53</ele>
        <time>2021-09-12T10:58:42.000Z</time>
      </trkpt>
      <trkpt lat="47.22657" lon="-1.48555">
        <ele>53</ele>
        <time>2021-09-12T10:58:44.000Z</time>
      </trkpt>
      <trkpt lat="47.2265" lon="-1.48574">
        <ele>53</ele>
        <time>2021-09-12T10:58:46.000Z</time>
      </trkpt>
      <trkpt lat="47.22644" lon="-1.48591">
        <ele>53</ele>
        <time>2021-09-12T10:58:48.000Z</time>
      </trkpt>
      <trkpt lat="47.22638" lon="-1.48605">
        <ele>53</ele>
        <time>2021-09-12T10:58:50.000Z</time>
      </trkpt>
      <trkpt lat="47.22633" lon="-1.4862">
        <ele>53</ele>
        <time>2021-09-12T10:58:52.000Z</time>
      </trkpt>
      <trkpt lat="47.22627" lon="-1.48638">
        <ele>52</ele>
        <time>2021-09-12T10:58:54.000Z</time>
      </trkpt>
      <trkpt lat="47.22621" lon="-1.48655">
        <ele>52</ele>
        <time>2021-09-12T10:58:56.000Z</time>
      </trkpt>
      <trkpt lat="47.22615" lon="-1.4867">
        <ele>51</ele>
        <time>2021-09-12T10:58:58.000Z</time>
      </trkpt>
      <trkpt lat="47.2261" lon="-1.4869">
        <ele>49</ele>
        <time>2021-09-12T10:59:00.000Z</time>
      </trkpt>
      <trkpt lat="47.22603" lon="-1.4871">
        <ele>49</ele>
        <time>2021-09-12T10:59:02.000Z</time>
      </trkpt>
      <trkpt lat="47.22598" lon="-1.48728">
        <ele>50</ele>
        <time>2021-09-12T10:59:04.000Z</time>
      </trkpt>
      <trkpt lat="47.22592" lon="-1.48747">
        <ele>50</ele>
        <time>2021-09-12T10:59:06.000Z</time>
      </trkpt>
      <trkpt lat="47.22587" lon="-1.48765">
        <ele>49</ele>
        <time>2021-09-12T10:59:08.000Z</time>
      </trkpt>
      <trkpt lat="47.22582" lon="-1.48784">
        <ele>49</ele>
        <time>2021-09-12T10:59:10.000Z</time>
      </trkpt>
      <trkpt lat="47.22576" lon="-1.48801">
        <ele>50</ele>
        <time>2021-09-12T10:59:12.000Z</time>
      </trkpt>
      <trkpt lat="47.2257" lon="-1.48817">
        <ele>50</ele>
        <time>2021-09-12T10:59:14.000Z</time>
      </trkpt>
      <trkpt lat="47.22565" lon="-1.48833">
        <ele>50</ele>
        <time>2021-09-12T10:59:16.000Z</time>
      </trkpt>
      <trkpt lat="47.22561" lon="-1.48851">
        <ele>50</ele>
        <time>2021-09-12T10:59:18.000Z</time>
      </trkpt>
      <trkpt lat="47.22557" lon="-1.48867">
        <ele>50</ele>
        <time>2021-09-12T10:59:20.000Z</time>
      </trkpt>
      <trkpt lat="47.22552" lon="-1.48884">
        <ele>51</ele>
        <time>2021-09-12T10:59:22.000Z</time>
      </trkpt>
      <trkpt lat="47.22548" lon="-1.48901">
        <ele>51</ele>
        <time>2021-09-12T10:59:24.000Z</time>
      </trkpt>
      <trkpt lat="47.22542" lon="-1.4892">
        <ele>51</ele>
        <time>2021-09-12T10:59:26.000Z</time>
      </trkpt>
      <trkpt lat="47.22536" lon="-1.48937">
        <ele>50</ele>
        <time>2021-09-12T10:59:28.000Z</time>
      </trkpt>
      <trkpt lat="47.2253" lon="-1.48955">
        <ele>50</ele>
        <time>2021-09-12T10:59:30.000Z</time>
      </trkpt>
      <trkpt lat="47.22524" lon="-1.48971">
        <ele>51</ele>
        <time>2021-09-12T10:59:32.000Z</time>
      </trkpt>
      <trkpt lat="47.22518" lon="-1.48989">
        <ele>51</ele>
        <time>2021-09-12T10:59:34.000Z</time>
      </trkpt>
      <trkpt lat="47.22513" lon="-1.49006">
        <ele>51</ele>
        <time>2021-09-12T10:59:36.000Z</time>
      </trkpt>
      <trkpt lat="47.22507" lon="-1.49025">
        <ele>51</ele>
        <time>2021-09-12T10:59:38.000Z</time>
      </trkpt>
      <trkpt lat="47.22501" lon="-1.49043">
        <ele>51</ele>
        <time>2021-09-12T10:59:40.000Z</time>
      </trkpt>
      <trkpt lat="47.22497" lon="-1.4906">
        <ele>51</ele>
        <time>2021-09-12T10:59:42.000Z</time>
      </trkpt>
      <trkpt lat="47.2249" lon="-1.4908">
        <ele>51</ele>
        <time>2021-09-12T10:59:44.000Z</time>
      </trkpt>
      <trkpt lat="47.22483" lon="-1.49098">
        <ele>51</ele>
        <time>2021-09-12T10:59:46.000Z</time>
      </trkpt>
      <trkpt lat="47.22478" lon="-1.49116">
        <ele>50</ele>
        <time>2021-09-12T10:59:48.000Z</time>
      </trkpt>
      <trkpt lat="47.22472" lon="-1.49135">
        <ele>50</ele>
        <time>2021-09-12T10:59:50.000Z</time>
      </trkpt>
      <trkpt lat="47.22467" lon="-1.49153">
        <ele>51</ele>
        <time>2021-09-12T10:59:52.000Z</time>
      </trkpt>
      <trkpt lat="47.22459" lon="-1.4917">
        <ele>52</ele>
        <time>2021-09-12T10:59:54.000Z</time>
      </trkpt>
      <trkpt lat="47.22452" lon="-1.49189">
        <ele>52</ele>
        <time>2021-09-12T10:59:56.000Z</time>
      </trkpt>
      <trkpt lat="47.22443" lon="-1.49208">
        <ele>52</ele>
        <time>2021-09-12T10:59:58.000Z</time>
      </trkpt>
      <trkpt lat="47.22437" lon="-1.49225">
        <ele>52</ele>
        <time>2021-09-12T11:00:00.000Z</time>
      </trkpt>
      <trkpt lat="47.22432" lon="-1.49243">
        <ele>51</ele>
        <time>2021-09-12T11:00:02.000Z</time>
      </trkpt>
      <trkpt lat="47.22425" lon="-1.49258">
        <ele>51</ele>
        <time>2021-09-12T11:00:04.000Z</time>
      </trkpt>
      <trkpt lat="47.2242" lon="-1.49275">
        <ele>52</ele>
        <time>2021-09-12T11:00:06.000Z</time>
      </trkpt>
      <trkpt lat="47.22414" lon="-1.49293">
        <ele>55</ele>
        <time>2021-09-12T11:00:08.000Z</time>
      </trkpt>
      <trkpt lat="47.22409" lon="-1.49312">
        <ele>56</ele>
        <time>2021-09-12T11:00:10.000Z</time>
      </trkpt>
      <trkpt lat="47.22402" lon="-1.49331">
        <ele>58</ele>
        <time>2021-09-12T11:00:12.000Z</time>
      </trkpt>
      <trkpt lat="47.22395" lon="-1.4935">
        <ele>59</ele>
        <time>2021-09-12T11:00:14.000Z</time>
      </trkpt>
      <trkpt lat="47.22388" lon="-1.49368">
        <ele>59</ele>
        <time>2021-09-12T11:00:16.000Z</time>
      </trkpt>
      <trkpt lat="47.22382" lon="-1.49386">
        <ele>59</ele>
        <time>2021-09-12T11:00:18.000Z</time>
      </trkpt>
      <trkpt lat="47.22374" lon="-1.49403">
        <ele>59</ele>
        <time>2021-09-12T11:00:20.000Z</time>
      </trkpt>
      <trkpt lat="47.22367" lon="-1.4942">
        <ele>59</ele>
        <time>2021-09-12T11:00:22.000Z</time>
      </trkpt>
      <trkpt lat="47.22359" lon="-1.49437">
        <ele>59</ele>
        <time>2021-09-12T11:00:24.000Z</time>
      </trkpt>
      <trkpt lat="47.22352" lon="-1.49454">
        <ele>59</ele>
        <time>2021-09-12T11:00:26.000Z</time>
      </trkpt>
      <trkpt lat="47.22346" lon="-1.49471">
        <ele>60</ele>
        <time>2021-09-12T11:00:28.000Z</time>
      </trkpt>
      <trkpt lat="47.22341" lon="-1.49491">
        <ele>60</ele>
        <time>2021-09-12T11:00:30.000Z</time>
      </trkpt>
      <trkpt lat="47.22335" lon="-1.49509">
        <ele>60</ele>
        <time>2021-09-12T11:00:32.000Z</time>
      </trkpt>
      <trkpt lat="47.22329" lon="-1.49528">
        <ele>61</ele>
        <time>2021-09-12T11:00:34.000Z</time>
      </trkpt>
      <trkpt lat="47.22323" lon="-1.49546">
        <ele>61</ele>
        <time>2021-09-12T11:00:36.000Z</time>
      </trkpt>
      <trkpt lat="47.22317" lon="-1.49564">
        <ele>61</ele>
        <time>2021-09-12T11:00:38.000Z</time>
      </trkpt>
      <trkpt lat="47.22311" lon="-1.49582">
        <ele>61</ele>
        <time>2021-09-12T11:00:40.000Z</time>
      </trkpt>
      <trkpt lat="47.22304" lon="-1.496">
        <ele>61</ele>
        <time>2021-09-12T11:00:42.000Z</time>
      </trkpt>
      <trkpt lat="47.22298" lon="-1.49618">
        <ele>61</ele>
        <time>2021-09-12T11:00:44.000Z</time>
      </trkpt>
      <trkpt lat="47.22293" lon="-1.49638">
        <ele>61</ele>
        <time>2021-09-12T11:00:46.000Z</time>
      </trkpt>
      <trkpt lat="47.22288" lon="-1.49656">
        <ele>61</ele>
        <time>2021-09-12T11:00:48.000Z</time>
      </trkpt>
      <trkpt lat="47.22282" lon="-1.49675">
        <ele>60</ele>
        <time>2021-09-12T11:00:50.000Z</time>
      </trkpt>
      <trkpt lat="47.22276" lon="-1.49695">
        <ele>59</ele>
        <time>2021-09-12T11:00:52.000Z</time>
      </trkpt>
      <trkpt lat="47.22269" lon="-1.49713">
        <ele>59</ele>
        <time>2021-09-12T11:00:54.000Z</time>
      </trkpt>
      <trkpt lat="47.22263" lon="-1.49731">
        <ele>59</ele>
        <time>2021-09-12T11:00:56.000Z</time>
      </trkpt>
      <trkpt lat="47.22259" lon="-1.4975">
        <ele>59</ele>
        <time>2021-09-12T11:00:58.000Z</time>
      </trkpt>
      <trkpt lat="47.22256" lon="-1.49769">
        <ele>59</ele>
        <time>2021-09-12T11:01:00.000Z</time>
      </trkpt>
      <trkpt lat="47.22252" lon="-1.49788">
        <ele>59</ele>
        <time>2021-09-12T11:01:02.000Z</time>
      </trkpt>
      <trkpt lat="47.22249" lon="-1.49808">
        <ele>59</ele>
        <time>2021-09-12T11:01:04.000Z</time>
      </trkpt>
      <trkpt lat="47.22245" lon="-1.49827">
        <ele>59</ele>
        <time>2021-09-12T11:01:06.000Z</time>
      </trkpt>
      <trkpt lat="47.22241" lon="-1.49845">
        <ele>58</ele>
        <time>2021-09-12T11:01:08.000Z</time>
      </trkpt>
      <trkpt lat="47.22236" lon="-1.49865">
        <ele>58</ele>
        <time>2021-09-12T11:01:10.000Z</time>
      </trkpt>
      <trkpt lat="47.22231" lon="-1.49886">
        <ele>58</ele>
        <time>2021-09-12T11:01:12.000Z</time>
      </trkpt>
      <trkpt lat="47.22227" lon="-1.49907">
        <ele>57</ele>
        <time>2021-09-12T11:01:14.000Z</time>
      </trkpt>
      <trkpt lat="47.22222" lon="-1.49926">
        <ele>57</ele>
        <time>2021-09-12T11:01:16.000Z</time>
      </trkpt>
      <trkpt lat="47.22218" lon="-1.49943">
        <ele>56</ele>
        <time>2021-09-12T11:01:18.000Z</time>
      </trkpt>
      <trkpt lat="47.22212" lon="-1.49962">
        <ele>56</ele>
        <time>2021-09-12T11:01:20.000Z</time>
      </trkpt>
      <trkpt lat="47.22206" lon="-1.4998">
        <ele>56</ele>
        <time>2021-09-12T11:01:22.000Z</time>
      </trkpt>
      <trkpt lat="47.222" lon="-1.49998">
        <ele>57</ele>
        <time>2021-09-12T11:01:24.000Z</time>
      </trkpt>
      <trkpt lat="47.22195" lon="-1.50018">
        <ele>56</ele>
        <time>2021-09-12T11:01:26.000Z</time>
      </trkpt>
      <trkpt lat="47.22191" lon="-1.5004">
        <ele>56</ele>
        <time>2021-09-12T11:01:28.000Z</time>
      </trkpt>
      <trkpt lat="47.22187" lon="-1.50059">
        <ele>55</ele>
        <time>2021-09-12T11:01:30.000Z</time>
      </trkpt>
      <trkpt lat="47.22182" lon="-1.5008">
        <ele>56</ele>
        <time>2021-09-12T11:01:32.000Z</time>
      </trkpt>
      <trkpt lat="47.22177" lon="-1.50099">
        <ele>56</ele>
        <time>2021-09-12T11:01:34.000Z</time>
      </trkpt>
      <trkpt lat="47.22171" lon="-1.50117">
        <ele>56</ele>
        <time>2021-09-12T11:01:36.000Z</time>
      </trkpt>
      <trkpt lat="47.22164" lon="-1.50135">
        <ele>56</ele>
        <time>2021-09-12T11:01:38.000Z</time>
      </trkpt>
      <trkpt lat="47.22158" lon="-1.50153">
        <ele>56</ele>
        <time>2021-09-12T11:01:40.000Z</time>
      </trkpt>
      <trkpt lat="47.22153" lon="-1.50172">
        <ele>56</ele>
        <time>2021-09-12T11:01:42.000Z</time>
      </trkpt>
      <trkpt lat="47.22149" lon="-1.50191">
        <ele>56</ele>
        <time>2021-09-12T11:01:44.000Z</time>
      </trkpt>
      <trkpt lat="47.22144" lon="-1.5021">
        <ele>55</ele>
        <time>2021-09-12T11:01:46.000Z</time>
      </trkpt>
      <trkpt lat="47.22139" lon="-1.5023">
        <ele>56</ele>
        <time>2021-09-12T11:01:48.000Z</time>
      </trkpt>
      <trkpt lat="47.22134" lon="-1.50248">
        <ele>55</ele>
        <time>2021-09-12T11:01:50.000Z</time>
      </trkpt>
      <trkpt lat="47.22129" lon="-1.50266">
        <ele>54</ele>
        <time>2021-09-12T11:01:52.000Z</time>
      </trkpt>
      <trkpt lat="47.22122" lon="-1.50283">
        <ele>55</ele>
        <time>2021-09-12T11:01:54.000Z</time>
      </trkpt>
      <trkpt lat="47.22114" lon="-1.50299">
        <ele>54</ele>
        <time>2021-09-12T11:01:56.000Z</time>
      </trkpt>
      <trkpt lat="47.22106" lon="-1.50315">
        <ele>54</ele>
        <time>2021-09-12T11:01:58.000Z</time>
      </trkpt>
      <trkpt lat="47.22098" lon="-1.5033">
        <ele>54</ele>
        <time>2021-09-12T11:02:00.000Z</time>
      </trkpt>
      <trkpt lat="47.22093" lon="-1.50347">
        <ele>55</ele>
        <time>2021-09-12T11:02:02.000Z</time>
      </trkpt>
      <trkpt lat="47.22088" lon="-1.50365">
        <ele>55</ele>
        <time>2021-09-12T11:02:04.000Z</time>
      </trkpt>
      <trkpt lat="47.22083" lon="-1.50385">
        <ele>54</ele>
        <time>2021-09-12T11:02:06.000Z</time>
      </trkpt>
      <trkpt lat="47.22079" lon="-1.50404">
        <ele>53</ele>
        <time>2021-09-12T11:02:08.000Z</time>
      </trkpt>
      <trkpt lat="47.22074" lon="-1.50423">
        <ele>53</ele>
        <time>2021-09-12T11:02:10.000Z</time>
      </trkpt>
      <trkpt lat="47.22071" lon="-1.50442">
        <ele>53</ele>
        <time>2021-09-12T11:02:12.000Z</time>
      </trkpt>
      <trkpt lat="47.22067" lon="-1.50462">
        <ele>52</ele>
        <time>2021-09-12T11:02:14.000Z</time>
      </trkpt>
      <trkpt lat="47.22065" lon="-1.50482">
        <ele>52</ele>
        <time>2021-09-12T11:02:16.000Z</time>
      </trkpt>
      <trkpt lat="47.22062" lon="-1.50502">
        <ele>53</ele>
        <time>2021-09-12T11:02:18.000Z</time>
      </trkpt>
      <trkpt lat="47.22061" lon="-1.50524">
        <ele>53</ele>
        <time>2021-09-12T11:02:20.000Z</time>
      </trkpt>
      <trkpt lat="47.2206" lon="-1.50542">
        <ele>53</ele>
        <time>2021-09-12T11:02:22.000Z</time>
      </trkpt>
      <trkpt lat="47.22058" lon="-1.50562">
        <ele>52</ele>
        <time>2021-09-12T11:02:24.000Z</time>
      </trkpt>
      <trkpt lat="47.22057" lon="-1.5058">
        <ele>52</ele>
        <time>2021-09-12T11:02:26.000Z</time>
      </trkpt>
      <trkpt lat="47.22056" lon="-1.506">
        <ele>52</ele>
        <time>2021-09-12T11:02:28.000Z</time>
      </trkpt>
      <trkpt lat="47.22054" lon="-1.50618">
        <ele>52</ele>
        <time>2021-09-12T11:02:30.000Z</time>
      </trkpt>
      <trkpt lat="47.22053" lon="-1.50638">
        <ele>52</ele>
        <time>2021-09-12T11:02:32.000Z</time>
      </trkpt>
      <trkpt lat="47.22051" lon="-1.50658">
        <ele>52</ele>
        <time>2021-09-12T11:02:34.000Z</time>
      </trkpt>
      <trkpt lat="47.22049" lon="-1.50675">
        <ele>52</ele>
        <time>2021-09-12T11:02:36.000Z</time>
      </trkpt>
      <trkpt lat="47.22047" lon="-1.50694">
        <ele>53</ele>
        <time>2021-09-12T11:02:38.000Z</time>
      </trkpt>
      <trkpt lat="47.22045" lon="-1.50714">
        <ele>52</ele>
        <time>2021-09-12T11:02:40.000Z</time>
      </trkpt>
      <trkpt lat="47.22043" lon="-1.50734">
        <ele>53</ele>
        <time>2021-09-12T11:02:42.000Z</time>
      </trkpt>
      <trkpt lat="47.22041" lon="-1.50753">
        <ele>53</ele>
        <time>2021-09-12T11:02:44.000Z</time>
      </trkpt>
      <trkpt lat="47.22037" lon="-1.50772">
        <ele>54</ele>
        <time>2021-09-12T11:02:46.000Z</time>
      </trkpt>
      <trkpt lat="47.22033" lon="-1.5079">
        <ele>54</ele>
        <time>2021-09-12T11:02:48.000Z</time>
      </trkpt>
      <trkpt lat="47.22026" lon="-1.50809">
        <ele>53</ele>
        <time>2021-09-12T11:02:50.000Z</time>
      </trkpt>
      <trkpt lat="47.22019" lon="-1.50826">
        <ele>53</ele>
        <time>2021-09-12T11:02:52.000Z</time>
      </trkpt>
      <trkpt lat="47.22012" lon="-1.5084">
        <ele>54</ele>
        <time>2021-09-12T11:02:54.000Z</time>
      </trkpt>
      <trkpt lat="47.22007" lon="-1.50858">
        <ele>55</ele>
        <time>2021-09-12T11:02:56.000Z</time>
      </trkpt>
      <trkpt lat="47.22001" lon="-1.50876">
        <ele>54</ele>
        <time>2021-09-12T11:02:58.000Z</time>
      </trkpt>
      <trkpt lat="47.21996" lon="-1.50894">
        <ele>55</ele>
        <time>2021-09-12T11:03:00.000Z</time>
      </trkpt>
      <trkpt lat="47.2199" lon="-1.50913">
        <ele>55</ele>
        <time>2021-09-12T11:03:02.000Z</time>
      </trkpt>
      <trkpt lat="47.21985" lon="-1.50931">
        <ele>55</ele>
        <time>2021-09-12T11:03:04.000Z</time>
      </trkpt>
      <trkpt lat="47.21981" lon="-1.50948">
        <ele>54</ele>
        <time>2021-09-12T11:03:06.000Z</time>
      </trkpt>
      <trkpt lat="47.21976" lon="-1.50966">
        <ele>54</ele>
        <time>2021-09-12T11:03:08.000Z</time>
      </trkpt>
      <trkpt lat="47.2197" lon="-1.50984">
        <ele>55</ele>
        <time>2021-09-12T11:03:10.000Z</time>
      </trkpt>
      <trkpt lat="47.21965" lon="-1.51003">
        <ele>54</ele>
        <time>2021-09-12T11:03:12.000Z</time>
      </trkpt>
      <trkpt lat="47.2196" lon="-1.51021">
        <ele>53</ele>
        <time>2021-09-12T11:03:14.000Z</time>
      </trkpt>
      <trkpt lat="47.21953" lon="-1.51046">
        <ele>53</ele>
        <time>2021-09-12T11:03:17.000Z</time>
      </trkpt>
      <trkpt lat="47.21948" lon="-1.51059">
        <ele>53</ele>
        <time>2021-09-12T11:03:19.000Z</time>
      </trkpt>
      <trkpt lat="47.21939" lon="-1.5107">
        <ele>54</ele>
        <time>2021-09-12T11:03:21.000Z</time>
      </trkpt>
      <trkpt lat="47.21931" lon="-1.51087">
        <ele>54</ele>
        <time>2021-09-12T11:03:23.000Z</time>
      </trkpt>
      <trkpt lat="47.21925" lon="-1.51106">
        <ele>54</ele>
        <time>2021-09-12T11:03:25.000Z</time>
      </trkpt>
      <trkpt lat="47.21919" lon="-1.51124">
        <ele>53</ele>
        <time>2021-09-12T11:03:27.000Z</time>
      </trkpt>
      <trkpt lat="47.21914" lon="-1.51142">
        <ele>53</ele>
        <time>2021-09-12T11:03:29.000Z</time>
      </trkpt>
      <trkpt lat="47.21907" lon="-1.51159">
        <ele>53</ele>
        <time>2021-09-12T11:03:31.000Z</time>
      </trkpt>
      <trkpt lat="47.21902" lon="-1.51177">
        <ele>53</ele>
        <time>2021-09-12T11:03:33.000Z</time>
      </trkpt>
      <trkpt lat="47.21896" lon="-1.51195">
        <ele>52</ele>
        <time>2021-09-12T11:03:35.000Z</time>
      </trkpt>
      <trkpt lat="47.2189" lon="-1.51212">
        <ele>52</ele>
        <time>2021-09-12T11:03:37.000Z</time>
      </trkpt>
      <trkpt lat="47.21884" lon="-1.5123">
        <ele>52</ele>
        <time>2021-09-12T11:03:39.000Z</time>
      </trkpt>
      <trkpt lat="47.21879" lon="-1.51249">
        <ele>52</ele>
        <time>2021-09-12T11:03:41.000Z</time>
      </trkpt>
      <trkpt lat="47.21873" lon="-1.51267">
        <ele>52</ele>
        <time>2021-09-12T11:03:43.000Z</time>
      </trkpt>
      <trkpt lat="47.21867" lon="-1.51285">
        <ele>52</ele>
        <time>2021-09-12T11:03:45.000Z</time>
      </trkpt>
      <trkpt lat="47.21862" lon="-1.51303">
        <ele>52</ele>
        <time>2021-09-12T11:03:47.000Z</time>
      </trkpt>
      <trkpt lat="47.21856" lon="-1.51321">
        <ele>53</ele>
        <time>2021-09-12T11:03:49.000Z</time>
      </trkpt>
      <trkpt lat="47.2185" lon="-1.5134">
        <ele>53</ele>
        <time>2021-09-12T11:03:51.000Z</time>
      </trkpt>
      <trkpt lat="47.21845" lon="-1.51359">
        <ele>53</ele>
        <time>2021-09-12T11:03:53.000Z</time>
      </trkpt>
      <trkpt lat="47.21841" lon="-1.51377">
        <ele>53</ele>
        <time>2021-09-12T11:03:55.000Z</time>
      </trkpt>
      <trkpt lat="47.21835" lon="-1.51394">
        <ele>53</ele>
        <time>2021-09-12T11:03:57.000Z</time>
      </trkpt>
      <trkpt lat="47.21832" lon="-1.51413">
        <ele>53</ele>
        <time>2021-09-12T11:03:59.000Z</time>
      </trkpt>
      <trkpt lat="47.21828" lon="-1.51431">
        <ele>53</ele>
        <time>2021-09-12T11:04:01.000Z</time>
      </trkpt>
      <trkpt lat="47.21824" lon="-1.5145">
        <ele>53</ele>
        <time>2021-09-12T11:04:03.000Z</time>
      </trkpt>
      <trkpt lat="47.2182" lon="-1.51467">
        <ele>52</ele>
        <time>2021-09-12T11:04:05.000Z</time>
      </trkpt>
      <trkpt lat="47.21816" lon="-1.51485">
        <ele>52</ele>
        <time>2021-09-12T11:04:07.000Z</time>
      </trkpt>
      <trkpt lat="47.2181" lon="-1.51502">
        <ele>52</ele>
        <time>2021-09-12T11:04:09.000Z</time>
      </trkpt>
      <trkpt lat="47.21803" lon="-1.51518">
        <ele>52</ele>
        <time>2021-09-12T11:04:11.000Z</time>
      </trkpt>
      <trkpt lat="47.21797" lon="-1.51534">
        <ele>52</ele>
        <time>2021-09-12T11:04:13.000Z</time>
      </trkpt>
      <trkpt lat="47.2179" lon="-1.51551">
        <ele>52</ele>
        <time>2021-09-12T11:04:15.000Z</time>
      </trkpt>
      <trkpt lat="47.21782" lon="-1.51568">
        <ele>53</ele>
        <time>2021-09-12T11:04:17.000Z</time>
      </trkpt>
      <trkpt lat="47.21774" lon="-1.51583">
        <ele>53</ele>
        <time>2021-09-12T11:04:19.000Z</time>
      </trkpt>
      <trkpt lat="47.21765" lon="-1.51595">
        <ele>53</ele>
        <time>2021-09-12T11:04:21.000Z</time>
      </trkpt>
      <trkpt lat="47.21755" lon="-1.51608">
        <ele>53</ele>
        <time>2021-09-12T11:04:23.000Z</time>
      </trkpt>
      <trkpt lat="47.21747" lon="-1.51624">
        <ele>53</ele>
        <time>2021-09-12T11:04:25.000Z</time>
      </trkpt>
      <trkpt lat="47.2174" lon="-1.5164">
        <ele>53</ele>
        <time>2021-09-12T11:04:27.000Z</time>
      </trkpt>
      <trkpt lat="47.21733" lon="-1.51656">
        <ele>53</ele>
        <time>2021-09-12T11:04:29.000Z</time>
      </trkpt>
      <trkpt lat="47.21726" lon="-1.51672">
        <ele>53</ele>
        <time>2021-09-12T11:04:31.000Z</time>
      </trkpt>
      <trkpt lat="47.21718" lon="-1.51687">
        <ele>53</ele>
        <time>2021-09-12T11:04:33.000Z</time>
      </trkpt>
      <trkpt lat="47.21711" lon="-1.51703">
        <ele>53</ele>
        <time>2021-09-12T11:04:35.000Z</time>
      </trkpt>
      <trkpt lat="47.21705" lon="-1.51719">
        <ele>53</ele>
        <time>2021-09-12T11:04:37.000Z</time>
      </trkpt>
      <trkpt lat="47.21698" lon="-1.51735">
        <ele>54</ele>
        <time>2021-09-12T11:04:39.000Z</time>
      </trkpt>
      <trkpt lat="47.2169" lon="-1.51753">
        <ele>53</ele>
        <time>2021-09-12T11:04:41.000Z</time>
      </trkpt>
      <trkpt lat="47.21683" lon="-1.51769">
        <ele>53</ele>
        <time>2021-09-12T11:04:43.000Z</time>
      </trkpt>
      <trkpt lat="47.21676" lon="-1.51786">
        <ele>53</ele>
        <time>2021-09-12T11:04:45.000Z</time>
      </trkpt>
      <trkpt lat="47.21669" lon="-1.51802">
        <ele>53</ele>
        <time>2021-09-12T11:04:47.000Z</time>
      </trkpt>
      <trkpt lat="47.21662" lon="-1.51819">
        <ele>53</ele>
        <time>2021-09-12T11:04:49.000Z</time>
      </trkpt>
      <trkpt lat="47.21656" lon="-1.51835">
        <ele>54</ele>
        <time>2021-09-12T11:04:51.000Z</time>
      </trkpt>
      <trkpt lat="47.21649" lon="-1.51852">
        <ele>53</ele>
        <time>2021-09-12T11:04:53.000Z</time>
      </trkpt>
      <trkpt lat="47.21645" lon="-1.51871">
        <ele>54</ele>
        <time>2021-09-12T11:04:55.000Z</time>
      </trkpt>
      <trkpt lat="47.2164" lon="-1.51889">
        <ele>54</ele>
        <time>2021-09-12T11:04:57.000Z</time>
      </trkpt>
      <trkpt lat="47.21633" lon="-1.51907">
        <ele>53</ele>
        <time>2021-09-12T11:04:59.000Z</time>
      </trkpt>
      <trkpt lat="47.21627" lon="-1.51927">
        <ele>54</ele>
        <time>2021-09-12T11:05:01.000Z</time>
      </trkpt>
      <trkpt lat="47.21622" lon="-1.51945">
        <ele>54</ele>
        <time>2021-09-12T11:05:03.000Z</time>
      </trkpt>
      <trkpt lat="47.21619" lon="-1.51965">
        <ele>53</ele>
        <time>2021-09-12T11:05:05.000Z</time>
      </trkpt>
      <trkpt lat="47.21614" lon="-1.51982">
        <ele>54</ele>
        <time>2021-09-12T11:05:07.000Z</time>
      </trkpt>
      <trkpt lat="47.21606" lon="-1.51997">
        <ele>53</ele>
        <time>2021-09-12T11:05:09.000Z</time>
      </trkpt>
      <trkpt lat="47.21599" lon="-1.52016">
        <ele>53</ele>
        <time>2021-09-12T11:05:11.000Z</time>
      </trkpt>
      <trkpt lat="47.21592" lon="-1.52037">
        <ele>53</ele>
        <time>2021-09-12T11:05:13.000Z</time>
      </trkpt>
      <trkpt lat="47.21585" lon="-1.52056">
        <ele>53</ele>
        <time>2021-09-12T11:05:15.000Z</time>
      </trkpt>
      <trkpt lat="47.21579" lon="-1.52075">
        <ele>53</ele>
        <time>2021-09-12T11:05:17.000Z</time>
      </trkpt>
      <trkpt lat="47.21573" lon="-1.52093">
        <ele>53</ele>
        <time>2021-09-12T11:05:19.000Z</time>
      </trkpt>
      <trkpt lat="47.21566" lon="-1.52111">
        <ele>53</ele>
        <time>2021-09-12T11:05:21.000Z</time>
      </trkpt>
      <trkpt lat="47.2156" lon="-1.52129">
        <ele>53</ele>
        <time>2021-09-12T11:05:23.000Z</time>
      </trkpt>
      <trkpt lat="47.21554" lon="-1.52148">
        <ele>53</ele>
        <time>2021-09-12T11:05:25.000Z</time>
      </trkpt>
      <trkpt lat="47.21548" lon="-1.52167">
        <ele>52</ele>
        <time>2021-09-12T11:05:27.000Z</time>
      </trkpt>
      <trkpt lat="47.21542" lon="-1.52186">
        <ele>52</ele>
        <time>2021-09-12T11:05:29.000Z</time>
      </trkpt>
      <trkpt lat="47.21537" lon="-1.52204">
        <ele>52</ele>
        <time>2021-09-12T11:05:31.000Z</time>
      </trkpt>
      <trkpt lat="47.21531" lon="-1.52222">
        <ele>52</ele>
        <time>2021-09-12T11:05:33.000Z</time>
      </trkpt>
      <trkpt lat="47.21524" lon="-1.52241">
        <ele>51</ele>
        <time>2021-09-12T11:05:35.000Z</time>
      </trkpt>
      <trkpt lat="47.21518" lon="-1.5226">
        <ele>51</ele>
        <time>2021-09-12T11:05:37.000Z</time>
      </trkpt>
      <trkpt lat="47.21512" lon="-1.52279">
        <ele>51</ele>
        <time>2021-09-12T11:05:39.000Z</time>
      </trkpt>
      <trkpt lat="47.21506" lon="-1.52298">
        <ele>51</ele>
        <time>2021-09-12T11:05:41.000Z</time>
      </trkpt>
      <trkpt lat="47.215" lon="-1.52316">
        <ele>51</ele>
        <time>2021-09-12T11:05:43.000Z</time>
      </trkpt>
      <trkpt lat="47.21494" lon="-1.52334">
        <ele>50</ele>
        <time>2021-09-12T11:05:45.000Z</time>
      </trkpt>
      <trkpt lat="47.21489" lon="-1.52353">
        <ele>50</ele>
        <time>2021-09-12T11:05:47.000Z</time>
      </trkpt>
      <trkpt lat="47.21482" lon="-1.52372">
        <ele>51</ele>
        <time>2021-09-12T11:05:49.000Z</time>
      </trkpt>
      <trkpt lat="47.21477" lon="-1.5239">
        <ele>51</ele>
        <time>2021-09-12T11:05:51.000Z</time>
      </trkpt>
      <trkpt lat="47.2147" lon="-1.52408">
        <ele>50</ele>
        <time>2021-09-12T11:05:53.000Z</time>
      </trkpt>
      <trkpt lat="47.21464" lon="-1.52426">
        <ele>51</ele>
        <time>2021-09-12T11:05:55.000Z</time>
      </trkpt>
      <trkpt lat="47.21458" lon="-1.52445">
        <ele>51</ele>
        <time>2021-09-12T11:05:57.000Z</time>
      </trkpt>
      <trkpt lat="47.21452" lon="-1.52463">
        <ele>50</ele>
        <time>2021-09-12T11:05:59.000Z</time>
      </trkpt>
      <trkpt lat="47.21447" lon="-1.52481">
        <ele>50</ele>
        <time>2021-09-12T11:06:01.000Z</time>
      </trkpt>
      <trkpt lat="47.2144" lon="-1.525">
        <ele>51</ele>
        <time>2021-09-12T11:06:03.000Z</time>
      </trkpt>
      <trkpt lat="47.21434" lon="-1.52518">
        <ele>51</ele>
        <time>2021-09-12T11:06:05.000Z</time>
      </trkpt>
      <trkpt lat="47.21429" lon="-1.52537">
        <ele>51</ele>
        <time>2021-09-12T11:06:07.000Z</time>
      </trkpt>
      <trkpt lat="47.21424" lon="-1.52555">
        <ele>52</ele>
        <time>2021-09-12T11:06:09.000Z</time>
      </trkpt>
      <trkpt lat="47.21418" lon="-1.52572">
        <ele>52</ele>
        <time>2021-09-12T11:06:11.000Z</time>
      </trkpt>
      <trkpt lat="47.21412" lon="-1.52591">
        <ele>52</ele>
        <time>2021-09-12T11:06:13.000Z</time>
      </trkpt>
      <trkpt lat="47.21406" lon="-1.5261">
        <ele>51</ele>
        <time>2021-09-12T11:06:15.000Z</time>
      </trkpt>
      <trkpt lat="47.21399" lon="-1.52628">
        <ele>50</ele>
        <time>2021-09-12T11:06:17.000Z</time>
      </trkpt>
      <trkpt lat="47.21392" lon="-1.52646">
        <ele>49</ele>
        <time>2021-09-12T11:06:19.000Z</time>
      </trkpt>
      <trkpt lat="47.21388" lon="-1.52666">
        <ele>49</ele>
        <time>2021-09-12T11:06:21.000Z</time>
      </trkpt>
      <trkpt lat="47.21384" lon="-1.52686">
        <ele>48</ele>
        <time>2021-09-12T11:06:23.000Z</time>
      </trkpt>
      <trkpt lat="47.21379" lon="-1.52708">
        <ele>49</ele>
        <time>2021-09-12T11:06:25.000Z</time>
      </trkpt>
      <trkpt lat="47.21375" lon="-1.52726">
        <ele>50</ele>
        <time>2021-09-12T11:06:27.000Z</time>
      </trkpt>
      <trkpt lat="47.21371" lon="-1.52745">
        <ele>50</ele>
        <time>2021-09-12T11:06:29.000Z</time>
      </trkpt>
      <trkpt lat="47.21368" lon="-1.52764">
        <ele>51</ele>
        <time>2021-09-12T11:06:31.000Z</time>
      </trkpt>
      <trkpt lat="47.21365" lon="-1.52784">
        <ele>51</ele>
        <time>2021-09-12T11:06:33.000Z</time>
      </trkpt>
      <trkpt lat="47.21363" lon="-1.52803">
        <ele>52</ele>
        <time>2021-09-12T11:06:35.000Z</time>
      </trkpt>
      <trkpt lat="47.21359" lon="-1.52821">
        <ele>52</ele>
        <time>2021-09-12T11:06:37.000Z</time>
      </trkpt>
      <trkpt lat="47.21354" lon="-1.52839">
        <ele>52</ele>
        <time>2021-09-12T11:06:39.000Z</time>
      </trkpt>
      <trkpt lat="47.2135" lon="-1.5286">
        <ele>51</ele>
        <time>2021-09-12T11:06:41.000Z</time>
      </trkpt>
      <trkpt lat="47.21347" lon="-1.5288">
        <ele>51</ele>
        <time>2021-09-12T11:06:43.000Z</time>
      </trkpt>
      <trkpt lat="47.21343" lon="-1.529">
        <ele>51</ele>
        <time>2021-09-12T11:06:45.000Z</time>
      </trkpt>
      <trkpt lat="47.2134" lon="-1.5292">
        <ele>50</ele>
        <time>2021-09-12T11:06:47.000Z</time>
      </trkpt>
      <trkpt lat="47.21337" lon="-1.52941">
        <ele>50</ele>
        <time>2021-09-12T11:06:49.000Z</time>
      </trkpt>
      <trkpt lat="47.21336" lon="-1.52961">
        <ele>49</ele>
        <time>2021-09-12T11:06:51.000Z</time>
      </trkpt>
      <trkpt lat="47.21333" lon="-1.52982">
        <ele>50</ele>
        <time>2021-09-12T11:06:53.000Z</time>
      </trkpt>
      <trkpt lat="47.21331" lon="-1.53001">
        <ele>50</ele>
        <time>2021-09-12T11:06:55.000Z</time>
      </trkpt>
      <trkpt lat="47.21329" lon="-1.53022">
        <ele>51</ele>
        <time>2021-09-12T11:06:57.000Z</time>
      </trkpt>
      <trkpt lat="47.21328" lon="-1.53043">
        <ele>50</ele>
        <time>2021-09-12T11:06:59.000Z</time>
      </trkpt>
      <trkpt lat="47.21327" lon="-1.53063">
        <ele>50</ele>
        <time>2021-09-12T11:07:01.000Z</time>
      </trkpt>
      <trkpt lat="47.21326" lon="-1.53083">
        <ele>51</ele>
        <time>2021-09-12T11:07:03.000Z</time>
      </trkpt>
      <trkpt lat="47.21324" lon="-1.53101">
        <ele>52</ele>
        <time>2021-09-12T11:07:05.000Z</time>
      </trkpt>
      <trkpt lat="47.21322" lon="-1.5312">
        <ele>52</ele>
        <time>2021-09-12T11:07:07.000Z</time>
      </trkpt>
      <trkpt lat="47.21318" lon="-1.5314">
        <ele>52</ele>
        <time>2021-09-12T11:07:09.000Z</time>
      </trkpt>
      <trkpt lat="47.21315" lon="-1.5316">
        <ele>52</ele>
        <time>2021-09-12T11:07:11.000Z</time>
      </trkpt>
      <trkpt lat="47.21312" lon="-1.53179">
        <ele>51</ele>
        <time>2021-09-12T11:07:13.000Z</time>
      </trkpt>
      <trkpt lat="47.21309" lon="-1.532">
        <ele>51</ele>
        <time>2021-09-12T11:07:15.000Z</time>
      </trkpt>
      <trkpt lat="47.21308" lon="-1.5322">
        <ele>52</ele>
        <time>2021-09-12T11:07:17.000Z</time>
      </trkpt>
      <trkpt lat="47.21308" lon="-1.53241">
        <ele>52</ele>
        <time>2021-09-12T11:07:19.000Z</time>
      </trkpt>
      <trkpt lat="47.21308" lon="-1.53262">
        <ele>52</ele>
        <time>2021-09-12T11:07:21.000Z</time>
      </trkpt>
      <trkpt lat="47.21308" lon="-1.53282">
        <ele>52</ele>
        <time>2021-09-12T11:07:23.000Z</time>
      </trkpt>
      <trkpt lat="47.21307" lon="-1.53303">
        <ele>52</ele>
        <time>2021-09-12T11:07:25.000Z</time>
      </trkpt>
      <trkpt lat="47.21305" lon="-1.53323">
        <ele>52</ele>
        <time>2021-09-12T11:07:27.000Z</time>
      </trkpt>
      <trkpt lat="47.21302" lon="-1.53343">
        <ele>52</ele>
        <time>2021-09-12T11:07:29.000Z</time>
      </trkpt>
      <trkpt lat="47.21298" lon="-1.53363">
        <ele>51</ele>
        <time>2021-09-12T11:07:31.000Z</time>
      </trkpt>
      <trkpt lat="47.21294" lon="-1.53382">
        <ele>51</ele>
        <time>2021-09-12T11:07:33.000Z</time>
      </trkpt>
      <trkpt lat="47.21292" lon="-1.53403">
        <ele>51</ele>
        <time>2021-09-12T11:07:35.000Z</time>
      </trkpt>
      <trkpt lat="47.2129" lon="-1.53422">
        <ele>51</ele>
        <time>2021-09-12T11:07:37.000Z</time>
      </trkpt>
      <trkpt lat="47.21288" lon="-1.53441">
        <ele>51</ele>
        <time>2021-09-12T11:07:39.000Z</time>
      </trkpt>
      <trkpt lat="47.21287" lon="-1.53459">
        <ele>50</ele>
        <time>2021-09-12T11:07:41.000Z</time>
      </trkpt>
      <trkpt lat="47.21294" lon="-1.53475">
        <ele>51</ele>
        <time>2021-09-12T11:07:43.000Z</time>
      </trkpt>
      <trkpt lat="47.21299" lon="-1.53494">
        <ele>51</ele>
        <time>2021-09-12T11:07:45.000Z</time>
      </trkpt>
      <trkpt lat="47.21301" lon="-1.53513">
        <ele>52</ele>
        <time>2021-09-12T11:07:47.000Z</time>
      </trkpt>
      <trkpt lat="47.21301" lon="-1.53533">
        <ele>52</ele>
        <time>2021-09-12T11:07:49.000Z</time>
      </trkpt>
      <trkpt lat="47.21302" lon="-1.53552">
        <ele>53</ele>
        <time>2021-09-12T11:07:51.000Z</time>
      </trkpt>
      <trkpt lat="47.21303" lon="-1.53571">
        <ele>53</ele>
        <time>2021-09-12T11:07:53.000Z</time>
      </trkpt>
      <trkpt lat="47.21303" lon="-1.5359">
        <ele>53</ele>
        <time>2021-09-12T11:07:55.000Z</time>
      </trkpt>
      <trkpt lat="47.21304" lon="-1.53608">
        <ele>53</ele>
        <time>2021-09-12T11:07:57.000Z</time>
      </trkpt>
      <trkpt lat="47.21302" lon="-1.53624">
        <ele>53</ele>
        <time>2021-09-12T11:07:59.000Z</time>
      </trkpt>
      <trkpt lat="47.21295" lon="-1.53634">
        <ele>53</ele>
        <time>2021-09-12T11:08:01.000Z</time>
      </trkpt>
      <trkpt lat="47.21294" lon="-1.53653">
        <ele>53</ele>
        <time>2021-09-12T11:08:04.000Z</time>
      </trkpt>
      <trkpt lat="47.21291" lon="-1.53667">
        <ele>53</ele>
        <time>2021-09-12T11:08:06.000Z</time>
      </trkpt>
      <trkpt lat="47.21297" lon="-1.5368">
        <ele>54</ele>
        <time>2021-09-12T11:08:08.000Z</time>
      </trkpt>
      <trkpt lat="47.21303" lon="-1.53695">
        <ele>54</ele>
        <time>2021-09-12T11:08:10.000Z</time>
      </trkpt>
      <trkpt lat="47.21306" lon="-1.53714">
        <ele>54</ele>
        <time>2021-09-12T11:08:12.000Z</time>
      </trkpt>
      <trkpt lat="47.2131" lon="-1.53734">
        <ele>54</ele>
        <time>2021-09-12T11:08:14.000Z</time>
      </trkpt>
      <trkpt lat="47.21314" lon="-1.53754">
        <ele>53</ele>
        <time>2021-09-12T11:08:16.000Z</time>
      </trkpt>
      <trkpt lat="47.21316" lon="-1.53775">
        <ele>53</ele>
        <time>2021-09-12T11:08:18.000Z</time>
      </trkpt>
      <trkpt lat="47.21319" lon="-1.53795">
        <ele>52</ele>
        <time>2021-09-12T11:08:20.000Z</time>
      </trkpt>
      <trkpt lat="47.21321" lon="-1.53814">
        <ele>52</ele>
        <time>2021-09-12T11:08:22.000Z</time>
      </trkpt>
      <trkpt lat="47.21324" lon="-1.53833">
        <ele>53</ele>
        <time>2021-09-12T11:08:24.000Z</time>
      </trkpt>
      <trkpt lat="47.21327" lon="-1.5385">
        <ele>53</ele>
        <time>2021-09-12T11:08:26.000Z</time>
      </trkpt>
      <trkpt lat="47.2133" lon="-1.53867">
        <ele>54</ele>
        <time>2021-09-12T11:08:28.000Z</time>
      </trkpt>
      <trkpt lat="47.21333" lon="-1.53883">
        <ele>54</ele>
        <time>2021-09-12T11:08:30.000Z</time>
      </trkpt>
      <trkpt lat="47.21336" lon="-1.53898">
        <ele>54</ele>
        <time>2021-09-12T11:08:32.000Z</time>
      </trkpt>
      <trkpt lat="47.21338" lon="-1.53913">
        <ele>54</ele>
        <time>2021-09-12T11:08:34.000Z</time>
      </trkpt>
      <trkpt lat="47.21342" lon="-1.53925">
        <ele>56</ele>
        <time>2021-09-12T11:08:40.000Z</time>
      </trkpt>
      <trkpt lat="47.21353" lon="-1.53924">
        <ele>57</ele>
        <time>2021-09-12T11:08:47.000Z</time>
      </trkpt>
      <trkpt lat="47.21363" lon="-1.5393">
        <ele>57</ele>
        <time>2021-09-12T11:08:49.000Z</time>
      </trkpt>
      <trkpt lat="47.21375" lon="-1.53933">
        <ele>56</ele>
        <time>2021-09-12T11:08:51.000Z</time>
      </trkpt>
      <trkpt lat="47.21385" lon="-1.53944">
        <ele>57</ele>
        <time>2021-09-12T11:08:53.000Z</time>
      </trkpt>
      <trkpt lat="47.21387" lon="-1.53966">
        <ele>57</ele>
        <time>2021-09-12T11:08:55.000Z</time>
      </trkpt>
      <trkpt lat="47.21384" lon="-1.53988">
        <ele>55</ele>
        <time>2021-09-12T11:08:57.000Z</time>
      </trkpt>
      <trkpt lat="47.2139" lon="-1.54007">
        <ele>54</ele>
        <time>2021-09-12T11:08:59.000Z</time>
      </trkpt>
      <trkpt lat="47.214" lon="-1.54022">
        <ele>54</ele>
        <time>2021-09-12T11:09:01.000Z</time>
      </trkpt>
      <trkpt lat="47.2141" lon="-1.54037">
        <ele>55</ele>
        <time>2021-09-12T11:09:03.000Z</time>
      </trkpt>
      <trkpt lat="47.21419" lon="-1.54053">
        <ele>55</ele>
        <time>2021-09-12T11:09:05.000Z</time>
      </trkpt>
      <trkpt lat="47.21429" lon="-1.54067">
        <ele>56</ele>
        <time>2021-09-12T11:09:07.000Z</time>
      </trkpt>
      <trkpt lat="47.21439" lon="-1.54083">
        <ele>55</ele>
        <time>2021-09-12T11:09:09.000Z</time>
      </trkpt>
      <trkpt lat="47.21449" lon="-1.54099">
        <ele>55</ele>
        <time>2021-09-12T11:09:11.000Z</time>
      </trkpt>
      <trkpt lat="47.21458" lon="-1.54115">
        <ele>54</ele>
        <time>2021-09-12T11:09:13.000Z</time>
      </trkpt>
      <trkpt lat="47.21469" lon="-1.5413">
        <ele>54</ele>
        <time>2021-09-12T11:09:15.000Z</time>
      </trkpt>
      <trkpt lat="47.21478" lon="-1.54144">
        <ele>54</ele>
        <time>2021-09-12T11:09:17.000Z</time>
      </trkpt>
      <trkpt lat="47.21487" lon="-1.54157">
        <ele>54</ele>
        <time>2021-09-12T11:09:19.000Z</time>
      </trkpt>
      <trkpt lat="47.21497" lon="-1.54171">
        <ele>55</ele>
        <time>2021-09-12T11:09:21.000Z</time>
      </trkpt>
      <trkpt lat="47.21506" lon="-1.54186">
        <ele>55</ele>
        <time>2021-09-12T11:09:23.000Z</time>
      </trkpt>
      <trkpt lat="47.21515" lon="-1.54202">
        <ele>56</ele>
        <time>2021-09-12T11:09:25.000Z</time>
      </trkpt>
      <trkpt lat="47.21525" lon="-1.54217">
        <ele>56</ele>
        <time>2021-09-12T11:09:27.000Z</time>
      </trkpt>
      <trkpt lat="47.21533" lon="-1.5423">
        <ele>55</ele>
        <time>2021-09-12T11:09:29.000Z</time>
      </trkpt>
      <trkpt lat="47.2154" lon="-1.54239">
        <ele>55</ele>
        <time>2021-09-12T11:09:32.000Z</time>
      </trkpt>
      <trkpt lat="47.21547" lon="-1.54249">
        <ele>55</ele>
        <time>2021-09-12T11:09:36.000Z</time>
      </trkpt>
      <trkpt lat="47.21556" lon="-1.54266">
        <ele>56</ele>
        <time>2021-09-12T11:09:39.000Z</time>
      </trkpt>
      <trkpt lat="47.21564" lon="-1.54279">
        <ele>56</ele>
        <time>2021-09-12T11:09:41.000Z</time>
      </trkpt>
      <trkpt lat="47.21573" lon="-1.54293">
        <ele>56</ele>
        <time>2021-09-12T11:09:43.000Z</time>
      </trkpt>
      <trkpt lat="47.21584" lon="-1.54307">
        <ele>55</ele>
        <time>2021-09-12T11:09:45.000Z</time>
      </trkpt>
      <trkpt lat="47.21593" lon="-1.54321">
        <ele>54</ele>
        <time>2021-09-12T11:09:47.000Z</time>
      </trkpt>
      <trkpt lat="47.21601" lon="-1.54337">
        <ele>55</ele>
        <time>2021-09-12T11:09:49.000Z</time>
      </trkpt>
      <trkpt lat="47.21607" lon="-1.54354">
        <ele>55</ele>
        <time>2021-09-12T11:09:51.000Z</time>
      </trkpt>
      <trkpt lat="47.21612" lon="-1.54372">
        <ele>55</ele>
        <time>2021-09-12T11:09:53.000Z</time>
      </trkpt>
      <trkpt lat="47.21617" lon="-1.54389">
        <ele>55</ele>
        <time>2021-09-12T11:09:55.000Z</time>
      </trkpt>
      <trkpt lat="47.21618" lon="-1.54407">
        <ele>55</ele>
        <time>2021-09-12T11:09:57.000Z</time>
      </trkpt>
      <trkpt lat="47.21614" lon="-1.54426">
        <ele>55</ele>
        <time>2021-09-12T11:09:59.000Z</time>
      </trkpt>
      <trkpt lat="47.21612" lon="-1.54446">
        <ele>56</ele>
        <time>2021-09-12T11:10:01.000Z</time>
      </trkpt>
      <trkpt lat="47.21611" lon="-1.54466">
        <ele>56</ele>
        <time>2021-09-12T11:10:03.000Z</time>
      </trkpt>
      <trkpt lat="47.21608" lon="-1.54485">
        <ele>56</ele>
        <time>2021-09-12T11:10:05.000Z</time>
      </trkpt>
      <trkpt lat="47.21604" lon="-1.54503">
        <ele>56</ele>
        <time>2021-09-12T11:10:07.000Z</time>
      </trkpt>
      <trkpt lat="47.216" lon="-1.54521">
        <ele>57</ele>
        <time>2021-09-12T11:10:09.000Z</time>
      </trkpt>
      <trkpt lat="47.21594" lon="-1.54537">
        <ele>57</ele>
        <time>2021-09-12T11:10:11.000Z</time>
      </trkpt>
      <trkpt lat="47.21588" lon="-1.54553">
        <ele>57</ele>
        <time>2021-09-12T11:10:13.000Z</time>
      </trkpt>
      <trkpt lat="47.21582" lon="-1.54569">
        <ele>57</ele>
        <time>2021-09-12T11:10:15.000Z</time>
      </trkpt>
      <trkpt lat="47.21576" lon="-1.54585">
        <ele>58</ele>
        <time>2021-09-12T11:10:17.000Z</time>
      </trkpt>
      <trkpt lat="47.21569" lon="-1.54602">
        <ele>57</ele>
        <time>2021-09-12T11:10:19.000Z</time>
      </trkpt>
      <trkpt lat="47.21562" lon="-1.54621">
        <ele>56</ele>
        <time>2021-09-12T11:10:21.000Z</time>
      </trkpt>
      <trkpt lat="47.21555" lon="-1.54639">
        <ele>57</ele>
        <time>2021-09-12T11:10:23.000Z</time>
      </trkpt>
      <trkpt lat="47.21548" lon="-1.54655">
        <ele>56</ele>
        <time>2021-09-12T11:10:25.000Z</time>
      </trkpt>
      <trkpt lat="47.2154" lon="-1.54671">
        <ele>55</ele>
        <time>2021-09-12T11:10:27.000Z</time>
      </trkpt>
      <trkpt lat="47.21533" lon="-1.54689">
        <ele>57</ele>
        <time>2021-09-12T11:10:29.000Z</time>
      </trkpt>
      <trkpt lat="47.21528" lon="-1.5471">
        <ele>58</ele>
        <time>2021-09-12T11:10:31.000Z</time>
      </trkpt>
      <trkpt lat="47.21521" lon="-1.54729">
        <ele>57</ele>
        <time>2021-09-12T11:10:33.000Z</time>
      </trkpt>
      <trkpt lat="47.21513" lon="-1.5475">
        <ele>56</ele>
        <time>2021-09-12T11:10:35.000Z</time>
      </trkpt>
      <trkpt lat="47.21507" lon="-1.5477">
        <ele>55</ele>
        <time>2021-09-12T11:10:37.000Z</time>
      </trkpt>
      <trkpt lat="47.215" lon="-1.54788">
        <ele>56</ele>
        <time>2021-09-12T11:10:39.000Z</time>
      </trkpt>
      <trkpt lat="47.21493" lon="-1.54808">
        <ele>56</ele>
        <time>2021-09-12T11:10:41.000Z</time>
      </trkpt>
      <trkpt lat="47.21485" lon="-1.54826">
        <ele>56</ele>
        <time>2021-09-12T11:10:43.000Z</time>
      </trkpt>
      <trkpt lat="47.21477" lon="-1.54842">
        <ele>57</ele>
        <time>2021-09-12T11:10:45.000Z</time>
      </trkpt>
      <trkpt lat="47.21468" lon="-1.5486">
        <ele>57</ele>
        <time>2021-09-12T11:10:47.000Z</time>
      </trkpt>
      <trkpt lat="47.21459" lon="-1.54878">
        <ele>57</ele>
        <time>2021-09-12T11:10:49.000Z</time>
      </trkpt>
      <trkpt lat="47.21451" lon="-1.54895">
        <ele>57</ele>
        <time>2021-09-12T11:10:51.000Z</time>
      </trkpt>
      <trkpt lat="47.21443" lon="-1.54912">
        <ele>58</ele>
        <time>2021-09-12T11:10:53.000Z</time>
      </trkpt>
      <trkpt lat="47.21434" lon="-1.54929">
        <ele>57</ele>
        <time>2021-09-12T11:10:55.000Z</time>
      </trkpt>
      <trkpt lat="47.21426" lon="-1.54947">
        <ele>57</ele>
        <time>2021-09-12T11:10:57.000Z</time>
      </trkpt>
      <trkpt lat="47.21418" lon="-1.54965">
        <ele>56</ele>
        <time>2021-09-12T11:10:59.000Z</time>
      </trkpt>
      <trkpt lat="47.2141" lon="-1.54983">
        <ele>56</ele>
        <time>2021-09-12T11:11:01.000Z</time>
      </trkpt>
      <trkpt lat="47.21403" lon="-1.55001">
        <ele>56</ele>
        <time>2021-09-12T11:11:03.000Z</time>
      </trkpt>
      <trkpt lat="47.21395" lon="-1.55018">
        <ele>57</ele>
        <time>2021-09-12T11:11:05.000Z</time>
      </trkpt>
      <trkpt lat="47.21387" lon="-1.55036">
        <ele>56</ele>
        <time>2021-09-12T11:11:07.000Z</time>
      </trkpt>
      <trkpt lat="47.2138" lon="-1.55052">
        <ele>56</ele>
        <time>2021-09-12T11:11:09.000Z</time>
      </trkpt>
      <trkpt lat="47.21373" lon="-1.5507">
        <ele>56</ele>
        <time>2021-09-12T11:11:11.000Z</time>
      </trkpt>
      <trkpt lat="47.21366" lon="-1.55088">
        <ele>56</ele>
        <time>2021-09-12T11:11:13.000Z</time>
      </trkpt>
      <trkpt lat="47.21359" lon="-1.55106">
        <ele>56</ele>
        <time>2021-09-12T11:11:15.000Z</time>
      </trkpt>
      <trkpt lat="47.21352" lon="-1.55124">
        <ele>56</ele>
        <time>2021-09-12T11:11:17.000Z</time>
      </trkpt>
      <trkpt lat="47.21345" lon="-1.5514">
        <ele>56</ele>
        <time>2021-09-12T11:11:19.000Z</time>
      </trkpt>
      <trkpt lat="47.21339" lon="-1.55157">
        <ele>56</ele>
        <time>2021-09-12T11:11:21.000Z</time>
      </trkpt>
      <trkpt lat="47.21333" lon="-1.55174">
        <ele>56</ele>
        <time>2021-09-12T11:11:23.000Z</time>
      </trkpt>
      <trkpt lat="47.21326" lon="-1.55192">
        <ele>56</ele>
        <time>2021-09-12T11:11:25.000Z</time>
      </trkpt>
      <trkpt lat="47.2132" lon="-1.55209">
        <ele>56</ele>
        <time>2021-09-12T11:11:27.000Z</time>
      </trkpt>
      <trkpt lat="47.21313" lon="-1.55226">
        <ele>57</ele>
        <time>2021-09-12T11:11:29.000Z</time>
      </trkpt>
      <trkpt lat="47.21306" lon="-1.55244">
        <ele>57</ele>
        <time>2021-09-12T11:11:31.000Z</time>
      </trkpt>
      <trkpt lat="47.213" lon="-1.55261">
        <ele>57</ele>
        <time>2021-09-12T11:11:33.000Z</time>
      </trkpt>
      <trkpt lat="47.21294" lon="-1.55278">
        <ele>57</ele>
        <time>2021-09-12T11:11:35.000Z</time>
      </trkpt>
      <trkpt lat="47.21287" lon="-1.55293">
        <ele>58</ele>
        <time>2021-09-12T11:11:37.000Z</time>
      </trkpt>
      <trkpt lat="47.21279" lon="-1.55303">
        <ele>58</ele>
        <time>2021-09-12T11:11:39.000Z</time>
      </trkpt>
      <trkpt lat="47.21267" lon="-1.55303">
        <ele>58</ele>
        <time>2021-09-12T11:11:41.000Z</time>
      </trkpt>
      <trkpt lat="47.2126" lon="-1.55319">
        <ele>58</ele>
        <time>2021-09-12T11:11:44.000Z</time>
      </trkpt>
      <trkpt lat="47.21264" lon="-1.55334">
        <ele>57</ele>
        <time>2021-09-12T11:11:46.000Z</time>
      </trkpt>
      <trkpt lat="47.2127" lon="-1.55345">
        <ele>57</ele>
        <time>2021-09-12T11:11:48.000Z</time>
      </trkpt>
      <trkpt lat="47.21278" lon="-1.55354">
        <ele>56</ele>
        <time>2021-09-12T11:11:50.000Z</time>
      </trkpt>
      <trkpt lat="47.21284" lon="-1.55365">
        <ele>56</ele>
        <time>2021-09-12T11:11:52.000Z</time>
      </trkpt>
      <trkpt lat="47.21278" lon="-1.55385">
        <ele>57</ele>
        <time>2021-09-12T11:11:54.000Z</time>
      </trkpt>
      <trkpt lat="47.21269" lon="-1.55403">
        <ele>57</ele>
        <time>2021-09-12T11:11:56.000Z</time>
      </trkpt>
      <trkpt lat="47.21259" lon="-1.5542">
        <ele>57</ele>
        <time>2021-09-12T11:11:58.000Z</time>
      </trkpt>
      <trkpt lat="47.21249" lon="-1.55437">
        <ele>56</ele>
        <time>2021-09-12T11:12:00.000Z</time>
      </trkpt>
      <trkpt lat="47.21238" lon="-1.55453">
        <ele>56</ele>
        <time>2021-09-12T11:12:02.000Z</time>
      </trkpt>
      <trkpt lat="47.21229" lon="-1.5547">
        <ele>55</ele>
        <time>2021-09-12T11:12:04.000Z</time>
      </trkpt>
      <trkpt lat="47.21221" lon="-1.55487">
        <ele>55</ele>
        <time>2021-09-12T11:12:06.000Z</time>
      </trkpt>
      <trkpt lat="47.21215" lon="-1.55506">
        <ele>55</ele>
        <time>2021-09-12T11:12:08.000Z</time>
      </trkpt>
      <trkpt lat="47.21209" lon="-1.55526">
        <ele>55</ele>
        <time>2021-09-12T11:12:10.000Z</time>
      </trkpt>
      <trkpt lat="47.21203" lon="-1.55545">
        <ele>55</ele>
        <time>2021-09-12T11:12:12.000Z</time>
      </trkpt>
      <trkpt lat="47.21197" lon="-1.55564">
        <ele>54</ele>
        <time>2021-09-12T11:12:14.000Z</time>
      </trkpt>
      <trkpt lat="47.21191" lon="-1.55583">
        <ele>55</ele>
        <time>2021-09-12T11:12:16.000Z</time>
      </trkpt>
      <trkpt lat="47.21185" lon="-1.55601">
        <ele>55</ele>
        <time>2021-09-12T11:12:18.000Z</time>
      </trkpt>
      <trkpt lat="47.2118" lon="-1.55619">
        <ele>55</ele>
        <time>2021-09-12T11:12:20.000Z</time>
      </trkpt>
      <trkpt lat="47.21174" lon="-1.55637">
        <ele>55</ele>
        <time>2021-09-12T11:12:22.000Z</time>
      </trkpt>
      <trkpt lat="47.21169" lon="-1.55654">
        <ele>54</ele>
        <time>2021-09-12T11:12:24.000Z</time>
      </trkpt>
      <trkpt lat="47.21164" lon="-1.55672">
        <ele>54</ele>
        <time>2021-09-12T11:12:26.000Z</time>
      </trkpt>
      <trkpt lat="47.21155" lon="-1.55681">
        <ele>54</ele>
        <time>2021-09-12T11:12:28.000Z</time>
      </trkpt>
      <trkpt lat="47.21145" lon="-1.55668">
        <ele>55</ele>
        <time>2021-09-12T11:12:30.000Z</time>
      </trkpt>
      <trkpt lat="47.21133" lon="-1.55657">
        <ele>54</ele>
        <time>2021-09-12T11:12:32.000Z</time>
      </trkpt>
      <trkpt lat="47.21119" lon="-1.55645">
        <ele>54</ele>
        <time>2021-09-12T11:12:34.000Z</time>
      </trkpt>
      <trkpt lat="47.21105" lon="-1.55633">
        <ele>54</ele>
        <time>2021-09-12T11:12:36.000Z</time>
      </trkpt>
      <trkpt lat="47.21091" lon="-1.55623">
        <ele>56</ele>
        <time>2021-09-12T11:12:38.000Z</time>
      </trkpt>
      <trkpt lat="47.21077" lon="-1.55612">
        <ele>56</ele>
        <time>2021-09-12T11:12:40.000Z</time>
      </trkpt>
      <trkpt lat="47.21063" lon="-1.55602">
        <ele>57</ele>
        <time>2021-09-12T11:12:42.000Z</time>
      </trkpt>
      <trkpt lat="47.2105" lon="-1.55593">
        <ele>57</ele>
        <time>2021-09-12T11:12:44.000Z</time>
      </trkpt>
      <trkpt lat="47.21036" lon="-1.55586">
        <ele>58</ele>
        <time>2021-09-12T11:12:46.000Z</time>
      </trkpt>
      <trkpt lat="47.21022" lon="-1.55583">
        <ele>58</ele>
        <time>2021-09-12T11:12:48.000Z</time>
      </trkpt>
      <trkpt lat="47.21008" lon="-1.55579">
        <ele>58</ele>
        <time>2021-09-12T11:12:50.000Z</time>
      </trkpt>
      <trkpt lat="47.20993" lon="-1.55576">
        <ele>59</ele>
        <time>2021-09-12T11:12:52.000Z</time>
      </trkpt>
      <trkpt lat="47.20979" lon="-1.55574">
        <ele>59</ele>
        <time>2021-09-12T11:12:54.000Z</time>
      </trkpt>
      <trkpt lat="47.20968" lon="-1.55573">
        <ele>60</ele>
        <time>2021-09-12T11:12:56.000Z</time>
      </trkpt>
      <trkpt lat="47.20958" lon="-1.55569">
        <ele>60</ele>
        <time>2021-09-12T11:12:58.000Z</time>
      </trkpt>
      <trkpt lat="47.20948" lon="-1.55568">
        <ele>60</ele>
        <time>2021-09-12T11:13:03.000Z</time>
      </trkpt>
      <trkpt lat="47.20938" lon="-1.55568">
        <ele>61</ele>
        <time>2021-09-12T11:13:25.000Z</time>
      </trkpt>
      <trkpt lat="47.20927" lon="-1.55563">
        <ele>61</ele>
        <time>2021-09-12T11:13:27.000Z</time>
      </trkpt>
      <trkpt lat="47.20915" lon="-1.55559">
        <ele>61</ele>
        <time>2021-09-12T11:13:29.000Z</time>
      </trkpt>
      <trkpt lat="47.20901" lon="-1.55555">
        <ele>61</ele>
        <time>2021-09-12T11:13:31.000Z</time>
      </trkpt>
      <trkpt lat="47.20888" lon="-1.55552">
        <ele>60</ele>
        <time>2021-09-12T11:13:33.000Z</time>
      </trkpt>
      <trkpt lat="47.20877" lon="-1.55549">
        <ele>59</ele>
        <time>2021-09-12T11:13:35.000Z</time>
      </trkpt>
      <trkpt lat="47.20866" lon="-1.55547">
        <ele>59</ele>
        <time>2021-09-12T11:13:37.000Z</time>
      </trkpt>
      <trkpt lat="47.20854" lon="-1.55544">
        <ele>59</ele>
        <time>2021-09-12T11:13:39.000Z</time>
      </trkpt>
      <trkpt lat="47.20843" lon="-1.55542">
        <ele>58</ele>
        <time>2021-09-12T11:13:41.000Z</time>
      </trkpt>
      <trkpt lat="47.20833" lon="-1.5554">
        <ele>58</ele>
        <time>2021-09-12T11:13:43.000Z</time>
      </trkpt>
      <trkpt lat="47.20822" lon="-1.55537">
        <ele>58</ele>
        <time>2021-09-12T11:13:45.000Z</time>
      </trkpt>
      <trkpt lat="47.20812" lon="-1.55536">
        <ele>58</ele>
        <time>2021-09-12T11:13:47.000Z</time>
      </trkpt>
      <trkpt lat="47.20801" lon="-1.55533">
        <ele>58</ele>
        <time>2021-09-12T11:13:49.000Z</time>
      </trkpt>
      <trkpt lat="47.2079" lon="-1.55529">
        <ele>57</ele>
        <time>2021-09-12T11:13:51.000Z</time>
      </trkpt>
      <trkpt lat="47.20778" lon="-1.55527">
        <ele>57</ele>
        <time>2021-09-12T11:13:53.000Z</time>
      </trkpt>
      <trkpt lat="47.20766" lon="-1.55524">
        <ele>56</ele>
        <time>2021-09-12T11:13:55.000Z</time>
      </trkpt>
      <trkpt lat="47.20753" lon="-1.55521">
        <ele>56</ele>
        <time>2021-09-12T11:13:57.000Z</time>
      </trkpt>
      <trkpt lat="47.20739" lon="-1.55518">
        <ele>56</ele>
        <time>2021-09-12T11:13:59.000Z</time>
      </trkpt>
      <trkpt lat="47.20725" lon="-1.55513">
        <ele>55</ele>
        <time>2021-09-12T11:14:01.000Z</time>
      </trkpt>
      <trkpt lat="47.2071" lon="-1.5551">
        <ele>55</ele>
        <time>2021-09-12T11:14:03.000Z</time>
      </trkpt>
      <trkpt lat="47.20695" lon="-1.55508">
        <ele>56</ele>
        <time>2021-09-12T11:14:05.000Z</time>
      </trkpt>
      <trkpt lat="47.2068" lon="-1.55504">
        <ele>56</ele>
        <time>2021-09-12T11:14:07.000Z</time>
      </trkpt>
      <trkpt lat="47.20666" lon="-1.55502">
        <ele>56</ele>
        <time>2021-09-12T11:14:09.000Z</time>
      </trkpt>
      <trkpt lat="47.20651" lon="-1.55498">
        <ele>56</ele>
        <time>2021-09-12T11:14:11.000Z</time>
      </trkpt>
      <trkpt lat="47.20637" lon="-1.55495">
        <ele>56</ele>
        <time>2021-09-12T11:14:13.000Z</time>
      </trkpt>
      <trkpt lat="47.20623" lon="-1.55489">
        <ele>57</ele>
        <time>2021-09-12T11:14:15.000Z</time>
      </trkpt>
      <trkpt lat="47.20607" lon="-1.55484">
        <ele>58</ele>
        <time>2021-09-12T11:14:17.000Z</time>
      </trkpt>
      <trkpt lat="47.20593" lon="-1.55481">
        <ele>59</ele>
        <time>2021-09-12T11:14:19.000Z</time>
      </trkpt>
      <trkpt lat="47.2058" lon="-1.55482">
        <ele>59</ele>
        <time>2021-09-12T11:14:21.000Z</time>
      </trkpt>
      <trkpt lat="47.20568" lon="-1.55481">
        <ele>57</ele>
        <time>2021-09-12T11:14:23.000Z</time>
      </trkpt>
      <trkpt lat="47.20556" lon="-1.55482">
        <ele>57</ele>
        <time>2021-09-12T11:14:26.000Z</time>
      </trkpt>
      <trkpt lat="47.20546" lon="-1.55493">
        <ele>56</ele>
        <time>2021-09-12T11:14:29.000Z</time>
      </trkpt>
      <trkpt lat="47.20534" lon="-1.55501">
        <ele>55</ele>
        <time>2021-09-12T11:14:31.000Z</time>
      </trkpt>
      <trkpt lat="47.20519" lon="-1.55497">
        <ele>54</ele>
        <time>2021-09-12T11:14:33.000Z</time>
      </trkpt>
      <trkpt lat="47.20508" lon="-1.55483">
        <ele>55</ele>
        <time>2021-09-12T11:14:35.000Z</time>
      </trkpt>
      <trkpt lat="47.20503" lon="-1.55463">
        <ele>55</ele>
        <time>2021-09-12T11:14:37.000Z</time>
      </trkpt>
      <trkpt lat="47.20505" lon="-1.55443">
        <ele>55</ele>
        <time>2021-09-12T11:14:39.000Z</time>
      </trkpt>
      <trkpt lat="47.20508" lon="-1.55422">
        <ele>54</ele>
        <time>2021-09-12T11:14:41.000Z</time>
      </trkpt>
      <trkpt lat="47.20501" lon="-1.55403">
        <ele>54</ele>
        <time>2021-09-12T11:14:43.000Z</time>
      </trkpt>
      <trkpt lat="47.20494" lon="-1.55388">
        <ele>53</ele>
        <time>2021-09-12T11:14:45.000Z</time>
      </trkpt>
      <trkpt lat="47.20486" lon="-1.55376">
        <ele>52</ele>
        <time>2021-09-12T11:14:47.000Z</time>
      </trkpt>
      <trkpt lat="47.20479" lon="-1.55367">
        <ele>53</ele>
        <time>2021-09-12T11:14:50.000Z</time>
      </trkpt>
      <trkpt lat="47.20471" lon="-1.55358">
        <ele>53</ele>
        <time>2021-09-12T11:15:00.000Z</time>
      </trkpt>
      <trkpt lat="47.20466" lon="-1.55347">
        <ele>53</ele>
        <time>2021-09-12T11:15:16.000Z</time>
      </trkpt>
      <trkpt lat="47.2046" lon="-1.55332">
        <ele>53</ele>
        <time>2021-09-12T11:15:18.000Z</time>
      </trkpt>
      <trkpt lat="47.20452" lon="-1.55317">
        <ele>53</ele>
        <time>2021-09-12T11:15:20.000Z</time>
      </trkpt>
      <trkpt lat="47.20445" lon="-1.55302">
        <ele>53</ele>
        <time>2021-09-12T11:15:22.000Z</time>
      </trkpt>
      <trkpt lat="47.20436" lon="-1.55286">
        <ele>53</ele>
        <time>2021-09-12T11:15:24.000Z</time>
      </trkpt>
      <trkpt lat="47.20427" lon="-1.55268">
        <ele>53</ele>
        <time>2021-09-12T11:15:26.000Z</time>
      </trkpt>
      <trkpt lat="47.20418" lon="-1.55248">
        <ele>55</ele>
        <time>2021-09-12T11:15:28.000Z</time>
      </trkpt>
      <trkpt lat="47.20408" lon="-1.55233">
        <ele>55</ele>
        <time>2021-09-12T11:15:30.000Z</time>
      </trkpt>
      <trkpt lat="47.20399" lon="-1.55217">
        <ele>56</ele>
        <time>2021-09-12T11:15:32.000Z</time>
      </trkpt>
      <trkpt lat="47.20391" lon="-1.552">
        <ele>55</ele>
        <time>2021-09-12T11:15:34.000Z</time>
      </trkpt>
      <trkpt lat="47.20382" lon="-1.55188">
        <ele>55</ele>
        <time>2021-09-12T11:15:36.000Z</time>
      </trkpt>
      <trkpt lat="47.20373" lon="-1.55189">
        <ele>54</ele>
        <time>2021-09-12T11:15:38.000Z</time>
      </trkpt>
      <trkpt lat="47.20363" lon="-1.552">
        <ele>54</ele>
        <time>2021-09-12T11:15:40.000Z</time>
      </trkpt>
      <trkpt lat="47.20353" lon="-1.55213">
        <ele>53</ele>
        <time>2021-09-12T11:15:42.000Z</time>
      </trkpt>
      <trkpt lat="47.20341" lon="-1.55227">
        <ele>53</ele>
        <time>2021-09-12T11:15:44.000Z</time>
      </trkpt>
      <trkpt lat="47.2033" lon="-1.5524">
        <ele>53</ele>
        <time>2021-09-12T11:15:46.000Z</time>
      </trkpt>
      <trkpt lat="47.20317" lon="-1.55253">
        <ele>53</ele>
        <time>2021-09-12T11:15:48.000Z</time>
      </trkpt>
      <trkpt lat="47.20305" lon="-1.55269">
        <ele>54</ele>
        <time>2021-09-12T11:15:50.000Z</time>
      </trkpt>
      <trkpt lat="47.20295" lon="-1.55285">
        <ele>55</ele>
        <time>2021-09-12T11:15:52.000Z</time>
      </trkpt>
      <trkpt lat="47.20285" lon="-1.55301">
        <ele>55</ele>
        <time>2021-09-12T11:15:54.000Z</time>
      </trkpt>
      <trkpt lat="47.20275" lon="-1.55316">
        <ele>56</ele>
        <time>2021-09-12T11:15:56.000Z</time>
      </trkpt>
      <trkpt lat="47.20265" lon="-1.55332">
        <ele>55</ele>
        <time>2021-09-12T11:15:58.000Z</time>
      </trkpt>
      <trkpt lat="47.20253" lon="-1.55347">
        <ele>54</ele>
        <time>2021-09-12T11:16:00.000Z</time>
      </trkpt>
      <trkpt lat="47.20241" lon="-1.55361">
        <ele>55</ele>
        <time>2021-09-12T11:16:02.000Z</time>
      </trkpt>
      <trkpt lat="47.20229" lon="-1.55375">
        <ele>54</ele>
        <time>2021-09-12T11:16:04.000Z</time>
      </trkpt>
      <trkpt lat="47.20219" lon="-1.55389">
        <ele>55</ele>
        <time>2021-09-12T11:16:06.000Z</time>
      </trkpt>
      <trkpt lat="47.20209" lon="-1.55401">
        <ele>56</ele>
        <time>2021-09-12T11:16:08.000Z</time>
      </trkpt>
      <trkpt lat="47.202" lon="-1.55413">
        <ele>55</ele>
        <time>2021-09-12T11:16:10.000Z</time>
      </trkpt>
      <trkpt lat="47.20196" lon="-1.55431">
        <ele>55</ele>
        <time>2021-09-12T11:16:13.000Z</time>
      </trkpt>
      <trkpt lat="47.20188" lon="-1.55446">
        <ele>55</ele>
        <time>2021-09-12T11:16:15.000Z</time>
      </trkpt>
      <trkpt lat="47.2018" lon="-1.55472">
        <ele>55</ele>
        <time>2021-09-12T11:16:18.000Z</time>
      </trkpt>
      <trkpt lat="47.20177" lon="-1.55491">
        <ele>55</ele>
        <time>2021-09-12T11:16:20.000Z</time>
      </trkpt>
      <trkpt lat="47.20178" lon="-1.55511">
        <ele>55</ele>
        <time>2021-09-12T11:16:22.000Z</time>
      </trkpt>
      <trkpt lat="47.2019" lon="-1.55531">
        <ele>54</ele>
        <time>2021-09-12T11:16:25.000Z</time>
      </trkpt>
      <trkpt lat="47.20208" lon="-1.5554">
        <ele>53</ele>
        <time>2021-09-12T11:16:28.000Z</time>
      </trkpt>
      <trkpt lat="47.20221" lon="-1.55546">
        <ele>53</ele>
        <time>2021-09-12T11:16:30.000Z</time>
      </trkpt>
      <trkpt lat="47.20233" lon="-1.55552">
        <ele>53</ele>
        <time>2021-09-12T11:16:32.000Z</time>
      </trkpt>
      <trkpt lat="47.20246" lon="-1.55557">
        <ele>52</ele>
        <time>2021-09-12T11:16:34.000Z</time>
      </trkpt>
      <trkpt lat="47.20259" lon="-1.55562">
        <ele>53</ele>
        <time>2021-09-12T11:16:36.000Z</time>
      </trkpt>
      <trkpt lat="47.20272" lon="-1.55566">
        <ele>53</ele>
        <time>2021-09-12T11:16:38.000Z</time>
      </trkpt>
      <trkpt lat="47.20284" lon="-1.5557">
        <ele>53</ele>
        <time>2021-09-12T11:16:40.000Z</time>
      </trkpt>
      <trkpt lat="47.20294" lon="-1.55583">
        <ele>53</ele>
        <time>2021-09-12T11:16:42.000Z</time>
      </trkpt>
      <trkpt lat="47.20295" lon="-1.55602">
        <ele>54</ele>
        <time>2021-09-12T11:16:44.000Z</time>
      </trkpt>
      <trkpt lat="47.20292" lon="-1.55623">
        <ele>53</ele>
        <time>2021-09-12T11:16:46.000Z</time>
      </trkpt>
      <trkpt lat="47.2029" lon="-1.55645">
        <ele>53</ele>
        <time>2021-09-12T11:16:48.000Z</time>
      </trkpt>
      <trkpt lat="47.20288" lon="-1.55666">
        <ele>52</ele>
        <time>2021-09-12T11:16:50.000Z</time>
      </trkpt>
      <trkpt lat="47.20286" lon="-1.55686">
        <ele>53</ele>
        <time>2021-09-12T11:16:52.000Z</time>
      </trkpt>
      <trkpt lat="47.20285" lon="-1.55707">
        <ele>53</ele>
        <time>2021-09-12T11:16:54.000Z</time>
      </trkpt>
      <trkpt lat="47.20283" lon="-1.55728">
        <ele>53</ele>
        <time>2021-09-12T11:16:56.000Z</time>
      </trkpt>
      <trkpt lat="47.2028" lon="-1.55749">
        <ele>53</ele>
        <time>2021-09-12T11:16:58.000Z</time>
      </trkpt>
      <trkpt lat="47.20278" lon="-1.55769">
        <ele>53</ele>
        <time>2021-09-12T11:17:00.000Z</time>
      </trkpt>
      <trkpt lat="47.20276" lon="-1.55789">
        <ele>53</ele>
        <time>2021-09-12T11:17:02.000Z</time>
      </trkpt>
      <trkpt lat="47.20274" lon="-1.55809">
        <ele>53</ele>
        <time>2021-09-12T11:17:04.000Z</time>
      </trkpt>
      <trkpt lat="47.20272" lon="-1.5583">
        <ele>54</ele>
        <time>2021-09-12T11:17:06.000Z</time>
      </trkpt>
      <trkpt lat="47.2027" lon="-1.5585">
        <ele>54</ele>
        <time>2021-09-12T11:17:08.000Z</time>
      </trkpt>
      <trkpt lat="47.20267" lon="-1.55881">
        <ele>54</ele>
        <time>2021-09-12T11:17:11.000Z</time>
      </trkpt>
      <trkpt lat="47.20265" lon="-1.559">
        <ele>54</ele>
        <time>2021-09-12T11:17:13.000Z</time>
      </trkpt>
      <trkpt lat="47.20263" lon="-1.5592">
        <ele>54</ele>
        <time>2021-09-12T11:17:15.000Z</time>
      </trkpt>
      <trkpt lat="47.20261" lon="-1.5594">
        <ele>54</ele>
        <time>2021-09-12T11:17:17.000Z</time>
      </trkpt>
      <trkpt lat="47.20259" lon="-1.5596">
        <ele>54</ele>
        <time>2021-09-12T11:17:19.000Z</time>
      </trkpt>
      <trkpt lat="47.20257" lon="-1.5598">
        <ele>54</ele>
        <time>2021-09-12T11:17:21.000Z</time>
      </trkpt>
      <trkpt lat="47.20255" lon="-1.56">
        <ele>54</ele>
        <time>2021-09-12T11:17:23.000Z</time>
      </trkpt>
      <trkpt lat="47.20253" lon="-1.5602">
        <ele>54</ele>
        <time>2021-09-12T11:17:25.000Z</time>
      </trkpt>
      <trkpt lat="47.2025" lon="-1.56039">
        <ele>54</ele>
        <time>2021-09-12T11:17:27.000Z</time>
      </trkpt>
      <trkpt lat="47.20249" lon="-1.56059">
        <ele>54</ele>
        <time>2021-09-12T11:17:29.000Z</time>
      </trkpt>
      <trkpt lat="47.20246" lon="-1.5608">
        <ele>54</ele>
        <time>2021-09-12T11:17:31.000Z</time>
      </trkpt>
      <trkpt lat="47.20244" lon="-1.56099">
        <ele>53</ele>
        <time>2021-09-12T11:17:33.000Z</time>
      </trkpt>
      <trkpt lat="47.20241" lon="-1.56119">
        <ele>53</ele>
        <time>2021-09-12T11:17:35.000Z</time>
      </trkpt>
      <trkpt lat="47.20236" lon="-1.56137">
        <ele>53</ele>
        <time>2021-09-12T11:17:37.000Z</time>
      </trkpt>
      <trkpt lat="47.20227" lon="-1.56151">
        <ele>53</ele>
        <time>2021-09-12T11:17:39.000Z</time>
      </trkpt>
      <trkpt lat="47.20216" lon="-1.56162">
        <ele>54</ele>
        <time>2021-09-12T11:17:41.000Z</time>
      </trkpt>
      <trkpt lat="47.20203" lon="-1.56171">
        <ele>54</ele>
        <time>2021-09-12T11:17:43.000Z</time>
      </trkpt>
      <trkpt lat="47.2019" lon="-1.5618">
        <ele>54</ele>
        <time>2021-09-12T11:17:45.000Z</time>
      </trkpt>
      <trkpt lat="47.2018" lon="-1.56191">
        <ele>54</ele>
        <time>2021-09-12T11:17:47.000Z</time>
      </trkpt>
      <trkpt lat="47.20166" lon="-1.56194">
        <ele>54</ele>
        <time>2021-09-12T11:17:49.000Z</time>
      </trkpt>
      <trkpt lat="47.20153" lon="-1.56186">
        <ele>54</ele>
        <time>2021-09-12T11:17:51.000Z</time>
      </trkpt>
      <trkpt lat="47.2014" lon="-1.56182">
        <ele>54</ele>
        <time>2021-09-12T11:17:53.000Z</time>
      </trkpt>
      <trkpt lat="47.20125" lon="-1.56182">
        <ele>54</ele>
        <time>2021-09-12T11:17:55.000Z</time>
      </trkpt>
      <trkpt lat="47.20111" lon="-1.56181">
        <ele>54</ele>
        <time>2021-09-12T11:17:57.000Z</time>
      </trkpt>
      <trkpt lat="47.20098" lon="-1.56181">
        <ele>54</ele>
        <time>2021-09-12T11:17:59.000Z</time>
      </trkpt>
      <trkpt lat="47.20084" lon="-1.5618">
        <ele>54</ele>
        <time>2021-09-12T11:18:01.000Z</time>
      </trkpt>
      <trkpt lat="47.20071" lon="-1.5618">
        <ele>54</ele>
        <time>2021-09-12T11:18:03.000Z</time>
      </trkpt>
      <trkpt lat="47.20057" lon="-1.56179">
        <ele>53</ele>
        <time>2021-09-12T11:18:05.000Z</time>
      </trkpt>
      <trkpt lat="47.20043" lon="-1.5618">
        <ele>53</ele>
        <time>2021-09-12T11:18:07.000Z</time>
      </trkpt>
      <trkpt lat="47.20029" lon="-1.5618">
        <ele>53</ele>
        <time>2021-09-12T11:18:09.000Z</time>
      </trkpt>
      <trkpt lat="47.20016" lon="-1.56182">
        <ele>54</ele>
        <time>2021-09-12T11:18:11.000Z</time>
      </trkpt>
      <trkpt lat="47.20003" lon="-1.56188">
        <ele>53</ele>
        <time>2021-09-12T11:18:13.000Z</time>
      </trkpt>
      <trkpt lat="47.1999" lon="-1.56193">
        <ele>53</ele>
        <time>2021-09-12T11:18:15.000Z</time>
      </trkpt>
      <trkpt lat="47.19977" lon="-1.5619">
        <ele>54</ele>
        <time>2021-09-12T11:18:17.000Z</time>
      </trkpt>
      <trkpt lat="47.1997" lon="-1.56176">
        <ele>54</ele>
        <time>2021-09-12T11:18:19.000Z</time>
      </trkpt>
      <trkpt lat="47.19963" lon="-1.56163">
        <ele>54</ele>
        <time>2021-09-12T11:18:21.000Z</time>
      </trkpt>
      <trkpt lat="47.1995" lon="-1.56167">
        <ele>55</ele>
        <time>2021-09-12T11:18:23.000Z</time>
      </trkpt>
      <trkpt lat="47.19936" lon="-1.56171">
        <ele>57</ele>
        <time>2021-09-12T11:18:25.000Z</time>
      </trkpt>
      <trkpt lat="47.19922" lon="-1.56174">
        <ele>57</ele>
        <time>2021-09-12T11:18:27.000Z</time>
      </trkpt>
      <trkpt lat="47.19908" lon="-1.56177">
        <ele>57</ele>
        <time>2021-09-12T11:18:29.000Z</time>
      </trkpt>
      <trkpt lat="47.19895" lon="-1.5618">
        <ele>58</ele>
        <time>2021-09-12T11:18:31.000Z</time>
      </trkpt>
      <trkpt lat="47.19881" lon="-1.56182">
        <ele>58</ele>
        <time>2021-09-12T11:18:33.000Z</time>
      </trkpt>
      <trkpt lat="47.19867" lon="-1.56184">
        <ele>58</ele>
        <time>2021-09-12T11:18:35.000Z</time>
      </trkpt>
      <trkpt lat="47.19854" lon="-1.56186">
        <ele>58</ele>
        <time>2021-09-12T11:18:37.000Z</time>
      </trkpt>
      <trkpt lat="47.19841" lon="-1.56189">
        <ele>58</ele>
        <time>2021-09-12T11:18:39.000Z</time>
      </trkpt>
      <trkpt lat="47.19828" lon="-1.56191">
        <ele>58</ele>
        <time>2021-09-12T11:18:41.000Z</time>
      </trkpt>
      <trkpt lat="47.19816" lon="-1.56193">
        <ele>58</ele>
        <time>2021-09-12T11:18:43.000Z</time>
      </trkpt>
      <trkpt lat="47.19803" lon="-1.56195">
        <ele>58</ele>
        <time>2021-09-12T11:18:45.000Z</time>
      </trkpt>
      <trkpt lat="47.19791" lon="-1.56198">
        <ele>58</ele>
        <time>2021-09-12T11:18:47.000Z</time>
      </trkpt>
      <trkpt lat="47.19779" lon="-1.562">
        <ele>58</ele>
        <time>2021-09-12T11:18:49.000Z</time>
      </trkpt>
      <trkpt lat="47.19767" lon="-1.56202">
        <ele>58</ele>
        <time>2021-09-12T11:18:51.000Z</time>
      </trkpt>
      <trkpt lat="47.19754" lon="-1.56204">
        <ele>58</ele>
        <time>2021-09-12T11:18:53.000Z</time>
      </trkpt>
      <trkpt lat="47.19741" lon="-1.56206">
        <ele>57</ele>
        <time>2021-09-12T11:18:55.000Z</time>
      </trkpt>
      <trkpt lat="47.19727" lon="-1.56208">
        <ele>57</ele>
        <time>2021-09-12T11:18:57.000Z</time>
      </trkpt>
      <trkpt lat="47.19712" lon="-1.56211">
        <ele>56</ele>
        <time>2021-09-12T11:18:59.000Z</time>
      </trkpt>
      <trkpt lat="47.19696" lon="-1.56214">
        <ele>56</ele>
        <time>2021-09-12T11:19:01.000Z</time>
      </trkpt>
      <trkpt lat="47.19679" lon="-1.56217">
        <ele>55</ele>
        <time>2021-09-12T11:19:03.000Z</time>
      </trkpt>
      <trkpt lat="47.19662" lon="-1.56223">
        <ele>54</ele>
        <time>2021-09-12T11:19:05.000Z</time>
      </trkpt>
      <trkpt lat="47.19644" lon="-1.56229">
        <ele>53</ele>
        <time>2021-09-12T11:19:07.000Z</time>
      </trkpt>
      <trkpt lat="47.19637" lon="-1.56238">
        <ele>54</ele>
        <time>2021-09-12T11:19:08.000Z</time>
      </trkpt>
      <trkpt lat="47.19633" lon="-1.5625">
        <ele>53</ele>
        <time>2021-09-12T11:19:09.000Z</time>
      </trkpt>
      <trkpt lat="47.1963" lon="-1.56275">
        <ele>54</ele>
        <time>2021-09-12T11:19:11.000Z</time>
      </trkpt>
      <trkpt lat="47.19631" lon="-1.563">
        <ele>54</ele>
        <time>2021-09-12T11:19:13.000Z</time>
      </trkpt>
      <trkpt lat="47.1963" lon="-1.56323">
        <ele>54</ele>
        <time>2021-09-12T11:19:15.000Z</time>
      </trkpt>
      <trkpt lat="47.19629" lon="-1.56347">
        <ele>53</ele>
        <time>2021-09-12T11:19:17.000Z</time>
      </trkpt>
      <trkpt lat="47.19629" lon="-1.56371">
        <ele>53</ele>
        <time>2021-09-12T11:19:19.000Z</time>
      </trkpt>
      <trkpt lat="47.19629" lon="-1.56394">
        <ele>52</ele>
        <time>2021-09-12T11:19:21.000Z</time>
      </trkpt>
      <trkpt lat="47.1963" lon="-1.56416">
        <ele>52</ele>
        <time>2021-09-12T11:19:23.000Z</time>
      </trkpt>
      <trkpt lat="47.19631" lon="-1.56438">
        <ele>51</ele>
        <time>2021-09-12T11:19:25.000Z</time>
      </trkpt>
      <trkpt lat="47.19632" lon="-1.56459">
        <ele>51</ele>
        <time>2021-09-12T11:19:27.000Z</time>
      </trkpt>
      <trkpt lat="47.19632" lon="-1.5648">
        <ele>51</ele>
        <time>2021-09-12T11:19:29.000Z</time>
      </trkpt>
      <trkpt lat="47.19633" lon="-1.56501">
        <ele>51</ele>
        <time>2021-09-12T11:19:31.000Z</time>
      </trkpt>
      <trkpt lat="47.19632" lon="-1.56521">
        <ele>51</ele>
        <time>2021-09-12T11:19:33.000Z</time>
      </trkpt>
      <trkpt lat="47.19632" lon="-1.56541">
        <ele>52</ele>
        <time>2021-09-12T11:19:35.000Z</time>
      </trkpt>
      <trkpt lat="47.19631" lon="-1.56561">
        <ele>52</ele>
        <time>2021-09-12T11:19:37.000Z</time>
      </trkpt>
      <trkpt lat="47.1963" lon="-1.56581">
        <ele>52</ele>
        <time>2021-09-12T11:19:39.000Z</time>
      </trkpt>
      <trkpt lat="47.19629" lon="-1.56602">
        <ele>53</ele>
        <time>2021-09-12T11:19:41.000Z</time>
      </trkpt>
      <trkpt lat="47.19628" lon="-1.56622">
        <ele>53</ele>
        <time>2021-09-12T11:19:43.000Z</time>
      </trkpt>
      <trkpt lat="47.19627" lon="-1.56643">
        <ele>53</ele>
        <time>2021-09-12T11:19:45.000Z</time>
      </trkpt>
      <trkpt lat="47.19627" lon="-1.56663">
        <ele>53</ele>
        <time>2021-09-12T11:19:47.000Z</time>
      </trkpt>
      <trkpt lat="47.19627" lon="-1.56684">
        <ele>54</ele>
        <time>2021-09-12T11:19:49.000Z</time>
      </trkpt>
      <trkpt lat="47.19626" lon="-1.56704">
        <ele>54</ele>
        <time>2021-09-12T11:19:51.000Z</time>
      </trkpt>
      <trkpt lat="47.19625" lon="-1.56724">
        <ele>54</ele>
        <time>2021-09-12T11:19:53.000Z</time>
      </trkpt>
      <trkpt lat="47.19623" lon="-1.56744">
        <ele>54</ele>
        <time>2021-09-12T11:19:55.000Z</time>
      </trkpt>
      <trkpt lat="47.19621" lon="-1.56765">
        <ele>54</ele>
        <time>2021-09-12T11:19:57.000Z</time>
      </trkpt>
      <trkpt lat="47.1962" lon="-1.56786">
        <ele>54</ele>
        <time>2021-09-12T11:19:59.000Z</time>
      </trkpt>
      <trkpt lat="47.19619" lon="-1.56806">
        <ele>54</ele>
        <time>2021-09-12T11:20:01.000Z</time>
      </trkpt>
      <trkpt lat="47.19617" lon="-1.56827">
        <ele>54</ele>
        <time>2021-09-12T11:20:03.000Z</time>
      </trkpt>
      <trkpt lat="47.19616" lon="-1.56846">
        <ele>54</ele>
        <time>2021-09-12T11:20:05.000Z</time>
      </trkpt>
      <trkpt lat="47.19616" lon="-1.56867">
        <ele>54</ele>
        <time>2021-09-12T11:20:07.000Z</time>
      </trkpt>
      <trkpt lat="47.19614" lon="-1.56886">
        <ele>54</ele>
        <time>2021-09-12T11:20:09.000Z</time>
      </trkpt>
      <trkpt lat="47.19612" lon="-1.56906">
        <ele>54</ele>
        <time>2021-09-12T11:20:11.000Z</time>
      </trkpt>
      <trkpt lat="47.19611" lon="-1.56926">
        <ele>53</ele>
        <time>2021-09-12T11:20:13.000Z</time>
      </trkpt>
      <trkpt lat="47.19609" lon="-1.56947">
        <ele>53</ele>
        <time>2021-09-12T11:20:15.000Z</time>
      </trkpt>
      <trkpt lat="47.19607" lon="-1.56967">
        <ele>53</ele>
        <time>2021-09-12T11:20:17.000Z</time>
      </trkpt>
      <trkpt lat="47.19605" lon="-1.56988">
        <ele>52</ele>
        <time>2021-09-12T11:20:19.000Z</time>
      </trkpt>
      <trkpt lat="47.19604" lon="-1.57009">
        <ele>52</ele>
        <time>2021-09-12T11:20:21.000Z</time>
      </trkpt>
      <trkpt lat="47.19602" lon="-1.57029">
        <ele>52</ele>
        <time>2021-09-12T11:20:23.000Z</time>
      </trkpt>
      <trkpt lat="47.19601" lon="-1.5705">
        <ele>52</ele>
        <time>2021-09-12T11:20:25.000Z</time>
      </trkpt>
      <trkpt lat="47.196" lon="-1.5707">
        <ele>52</ele>
        <time>2021-09-12T11:20:27.000Z</time>
      </trkpt>
      <trkpt lat="47.19598" lon="-1.57089">
        <ele>52</ele>
        <time>2021-09-12T11:20:29.000Z</time>
      </trkpt>
      <trkpt lat="47.19597" lon="-1.57109">
        <ele>52</ele>
        <time>2021-09-12T11:20:31.000Z</time>
      </trkpt>
      <trkpt lat="47.19596" lon="-1.57129">
        <ele>52</ele>
        <time>2021-09-12T11:20:33.000Z</time>
      </trkpt>
      <trkpt lat="47.19595" lon="-1.57149">
        <ele>51</ele>
        <time>2021-09-12T11:20:35.000Z</time>
      </trkpt>
      <trkpt lat="47.19595" lon="-1.57169">
        <ele>51</ele>
        <time>2021-09-12T11:20:37.000Z</time>
      </trkpt>
      <trkpt lat="47.19594" lon="-1.57188">
        <ele>52</ele>
        <time>2021-09-12T11:20:39.000Z</time>
      </trkpt>
      <trkpt lat="47.19593" lon="-1.57209">
        <ele>52</ele>
        <time>2021-09-12T11:20:41.000Z</time>
      </trkpt>
      <trkpt lat="47.19592" lon="-1.57231">
        <ele>52</ele>
        <time>2021-09-12T11:20:43.000Z</time>
      </trkpt>
      <trkpt lat="47.19591" lon="-1.57251">
        <ele>51</ele>
        <time>2021-09-12T11:20:45.000Z</time>
      </trkpt>
      <trkpt lat="47.19589" lon="-1.57271">
        <ele>52</ele>
        <time>2021-09-12T11:20:47.000Z</time>
      </trkpt>
      <trkpt lat="47.19587" lon="-1.57292">
        <ele>52</ele>
        <time>2021-09-12T11:20:49.000Z</time>
      </trkpt>
      <trkpt lat="47.19586" lon="-1.57311">
        <ele>52</ele>
        <time>2021-09-12T11:20:51.000Z</time>
      </trkpt>
      <trkpt lat="47.19583" lon="-1.5733">
        <ele>52</ele>
        <time>2021-09-12T11:20:53.000Z</time>
      </trkpt>
      <trkpt lat="47.1958" lon="-1.57349">
        <ele>51</ele>
        <time>2021-09-12T11:20:55.000Z</time>
      </trkpt>
      <trkpt lat="47.19576" lon="-1.57367">
        <ele>51</ele>
        <time>2021-09-12T11:20:57.000Z</time>
      </trkpt>
      <trkpt lat="47.19573" lon="-1.57384">
        <ele>52</ele>
        <time>2021-09-12T11:20:59.000Z</time>
      </trkpt>
      <trkpt lat="47.19569" lon="-1.57402">
        <ele>53</ele>
        <time>2021-09-12T11:21:01.000Z</time>
      </trkpt>
      <trkpt lat="47.19565" lon="-1.57421">
        <ele>52</ele>
        <time>2021-09-12T11:21:03.000Z</time>
      </trkpt>
      <trkpt lat="47.19561" lon="-1.57441">
        <ele>53</ele>
        <time>2021-09-12T11:21:05.000Z</time>
      </trkpt>
      <trkpt lat="47.19557" lon="-1.57459">
        <ele>54</ele>
        <time>2021-09-12T11:21:07.000Z</time>
      </trkpt>
      <trkpt lat="47.19554" lon="-1.57479">
        <ele>54</ele>
        <time>2021-09-12T11:21:09.000Z</time>
      </trkpt>
      <trkpt lat="47.1955" lon="-1.57499">
        <ele>54</ele>
        <time>2021-09-12T11:21:11.000Z</time>
      </trkpt>
      <trkpt lat="47.19546" lon="-1.57519">
        <ele>54</ele>
        <time>2021-09-12T11:21:13.000Z</time>
      </trkpt>
      <trkpt lat="47.19542" lon="-1.57539">
        <ele>53</ele>
        <time>2021-09-12T11:21:15.000Z</time>
      </trkpt>
      <trkpt lat="47.19539" lon="-1.57557">
        <ele>53</ele>
        <time>2021-09-12T11:21:17.000Z</time>
      </trkpt>
      <trkpt lat="47.19535" lon="-1.57577">
        <ele>53</ele>
        <time>2021-09-12T11:21:19.000Z</time>
      </trkpt>
      <trkpt lat="47.19531" lon="-1.57596">
        <ele>53</ele>
        <time>2021-09-12T11:21:21.000Z</time>
      </trkpt>
      <trkpt lat="47.19527" lon="-1.57615">
        <ele>53</ele>
        <time>2021-09-12T11:21:23.000Z</time>
      </trkpt>
      <trkpt lat="47.19522" lon="-1.57633">
        <ele>53</ele>
        <time>2021-09-12T11:21:25.000Z</time>
      </trkpt>
      <trkpt lat="47.19519" lon="-1.57651">
        <ele>52</ele>
        <time>2021-09-12T11:21:27.000Z</time>
      </trkpt>
      <trkpt lat="47.19515" lon="-1.57669">
        <ele>52</ele>
        <time>2021-09-12T11:21:29.000Z</time>
      </trkpt>
      <trkpt lat="47.19511" lon="-1.57687">
        <ele>52</ele>
        <time>2021-09-12T11:21:31.000Z</time>
      </trkpt>
      <trkpt lat="47.19507" lon="-1.57705">
        <ele>52</ele>
        <time>2021-09-12T11:21:33.000Z</time>
      </trkpt>
      <trkpt lat="47.19504" lon="-1.57722">
        <ele>52</ele>
        <time>2021-09-12T11:21:35.000Z</time>
      </trkpt>
      <trkpt lat="47.19501" lon="-1.57738">
        <ele>52</ele>
        <time>2021-09-12T11:21:37.000Z</time>
      </trkpt>
      <trkpt lat="47.19498" lon="-1.57756">
        <ele>52</ele>
        <time>2021-09-12T11:21:39.000Z</time>
      </trkpt>
      <trkpt lat="47.19495" lon="-1.57774">
        <ele>51</ele>
        <time>2021-09-12T11:21:41.000Z</time>
      </trkpt>
      <trkpt lat="47.19492" lon="-1.5779">
        <ele>52</ele>
        <time>2021-09-12T11:21:43.000Z</time>
      </trkpt>
      <trkpt lat="47.19488" lon="-1.57803">
        <ele>52</ele>
        <time>2021-09-12T11:21:46.000Z</time>
      </trkpt>
      <trkpt lat="47.19485" lon="-1.57819">
        <ele>53</ele>
        <time>2021-09-12T11:21:50.000Z</time>
      </trkpt>
      <trkpt lat="47.19481" lon="-1.57838">
        <ele>53</ele>
        <time>2021-09-12T11:21:53.000Z</time>
      </trkpt>
      <trkpt lat="47.19481" lon="-1.57857">
        <ele>53</ele>
        <time>2021-09-12T11:21:55.000Z</time>
      </trkpt>
      <trkpt lat="47.19478" lon="-1.57876">
        <ele>52</ele>
        <time>2021-09-12T11:21:57.000Z</time>
      </trkpt>
      <trkpt lat="47.19475" lon="-1.57893">
        <ele>51</ele>
        <time>2021-09-12T11:21:59.000Z</time>
      </trkpt>
      <trkpt lat="47.19472" lon="-1.57914">
        <ele>52</ele>
        <time>2021-09-12T11:22:01.000Z</time>
      </trkpt>
      <trkpt lat="47.1947" lon="-1.57936">
        <ele>52</ele>
        <time>2021-09-12T11:22:03.000Z</time>
      </trkpt>
      <trkpt lat="47.19467" lon="-1.5796">
        <ele>52</ele>
        <time>2021-09-12T11:22:05.000Z</time>
      </trkpt>
      <trkpt lat="47.19464" lon="-1.57981">
        <ele>51</ele>
        <time>2021-09-12T11:22:07.000Z</time>
      </trkpt>
      <trkpt lat="47.19463" lon="-1.58002">
        <ele>50</ele>
        <time>2021-09-12T11:22:09.000Z</time>
      </trkpt>
      <trkpt lat="47.19461" lon="-1.58023">
        <ele>51</ele>
        <time>2021-09-12T11:22:11.000Z</time>
      </trkpt>
      <trkpt lat="47.19459" lon="-1.58044">
        <ele>51</ele>
        <time>2021-09-12T11:22:13.000Z</time>
      </trkpt>
      <trkpt lat="47.19457" lon="-1.58064">
        <ele>51</ele>
        <time>2021-09-12T11:22:15.000Z</time>
      </trkpt>
      <trkpt lat="47.19455" lon="-1.58081">
        <ele>51</ele>
        <time>2021-09-12T11:22:17.000Z</time>
      </trkpt>
      <trkpt lat="47.19448" lon="-1.58097">
        <ele>51</ele>
        <time>2021-09-12T11:22:19.000Z</time>
      </trkpt>
      <trkpt lat="47.1944" lon="-1.58111">
        <ele>53</ele>
        <time>2021-09-12T11:22:21.000Z</time>
      </trkpt>
      <trkpt lat="47.19429" lon="-1.58125">
        <ele>54</ele>
        <time>2021-09-12T11:22:23.000Z</time>
      </trkpt>
      <trkpt lat="47.19418" lon="-1.58138">
        <ele>53</ele>
        <time>2021-09-12T11:22:25.000Z</time>
      </trkpt>
      <trkpt lat="47.19408" lon="-1.58152">
        <ele>52</ele>
        <time>2021-09-12T11:22:27.000Z</time>
      </trkpt>
      <trkpt lat="47.19399" lon="-1.58168">
        <ele>52</ele>
        <time>2021-09-12T11:22:29.000Z</time>
      </trkpt>
      <trkpt lat="47.19391" lon="-1.58185">
        <ele>52</ele>
        <time>2021-09-12T11:22:31.000Z</time>
      </trkpt>
      <trkpt lat="47.19383" lon="-1.58202">
        <ele>51</ele>
        <time>2021-09-12T11:22:33.000Z</time>
      </trkpt>
      <trkpt lat="47.19376" lon="-1.5822">
        <ele>52</ele>
        <time>2021-09-12T11:22:35.000Z</time>
      </trkpt>
      <trkpt lat="47.19369" lon="-1.58238">
        <ele>51</ele>
        <time>2021-09-12T11:22:37.000Z</time>
      </trkpt>
      <trkpt lat="47.19362" lon="-1.58256">
        <ele>51</ele>
        <time>2021-09-12T11:22:39.000Z</time>
      </trkpt>
      <trkpt lat="47.19354" lon="-1.58274">
        <ele>51</ele>
        <time>2021-09-12T11:22:41.000Z</time>
      </trkpt>
      <trkpt lat="47.19343" lon="-1.58288">
        <ele>51</ele>
        <time>2021-09-12T11:22:43.000Z</time>
      </trkpt>
      <trkpt lat="47.19331" lon="-1.58299">
        <ele>52</ele>
        <time>2021-09-12T11:22:45.000Z</time>
      </trkpt>
      <trkpt lat="47.19319" lon="-1.5831">
        <ele>51</ele>
        <time>2021-09-12T11:22:47.000Z</time>
      </trkpt>
      <trkpt lat="47.19307" lon="-1.58321">
        <ele>51</ele>
        <time>2021-09-12T11:22:49.000Z</time>
      </trkpt>
      <trkpt lat="47.19295" lon="-1.58331">
        <ele>51</ele>
        <time>2021-09-12T11:22:51.000Z</time>
      </trkpt>
      <trkpt lat="47.19282" lon="-1.58341">
        <ele>51</ele>
        <time>2021-09-12T11:22:53.000Z</time>
      </trkpt>
      <trkpt lat="47.1927" lon="-1.58353">
        <ele>51</ele>
        <time>2021-09-12T11:22:55.000Z</time>
      </trkpt>
      <trkpt lat="47.19259" lon="-1.58365">
        <ele>51</ele>
        <time>2021-09-12T11:22:57.000Z</time>
      </trkpt>
      <trkpt lat="47.19247" lon="-1.58377">
        <ele>50</ele>
        <time>2021-09-12T11:22:59.000Z</time>
      </trkpt>
      <trkpt lat="47.19234" lon="-1.58388">
        <ele>50</ele>
        <time>2021-09-12T11:23:01.000Z</time>
      </trkpt>
      <trkpt lat="47.19222" lon="-1.58399">
        <ele>51</ele>
        <time>2021-09-12T11:23:03.000Z</time>
      </trkpt>
      <trkpt lat="47.1921" lon="-1.5841">
        <ele>51</ele>
        <time>2021-09-12T11:23:05.000Z</time>
      </trkpt>
      <trkpt lat="47.19198" lon="-1.58421">
        <ele>51</ele>
        <time>2021-09-12T11:23:07.000Z</time>
      </trkpt>
      <trkpt lat="47.19186" lon="-1.58432">
        <ele>51</ele>
        <time>2021-09-12T11:23:09.000Z</time>
      </trkpt>
      <trkpt lat="47.19174" lon="-1.58443">
        <ele>52</ele>
        <time>2021-09-12T11:23:11.000Z</time>
      </trkpt>
      <trkpt lat="47.19164" lon="-1.58453">
        <ele>52</ele>
        <time>2021-09-12T11:23:13.000Z</time>
      </trkpt>
      <trkpt lat="47.19155" lon="-1.58464">
        <ele>51</ele>
        <time>2021-09-12T11:23:15.000Z</time>
      </trkpt>
      <trkpt lat="47.19148" lon="-1.58475">
        <ele>51</ele>
        <time>2021-09-12T11:23:17.000Z</time>
      </trkpt>
      <trkpt lat="47.19137" lon="-1.58485">
        <ele>51</ele>
        <time>2021-09-12T11:23:19.000Z</time>
      </trkpt>
      <trkpt lat="47.19125" lon="-1.58495">
        <ele>51</ele>
        <time>2021-09-12T11:23:21.000Z</time>
      </trkpt>
      <trkpt lat="47.19112" lon="-1.58505">
        <ele>52</ele>
        <time>2021-09-12T11:23:23.000Z</time>
      </trkpt>
      <trkpt lat="47.191" lon="-1.58516">
        <ele>51</ele>
        <time>2021-09-12T11:23:25.000Z</time>
      </trkpt>
      <trkpt lat="47.19088" lon="-1.58527">
        <ele>52</ele>
        <time>2021-09-12T11:23:27.000Z</time>
      </trkpt>
      <trkpt lat="47.19077" lon="-1.58538">
        <ele>52</ele>
        <time>2021-09-12T11:23:29.000Z</time>
      </trkpt>
      <trkpt lat="47.19065" lon="-1.5855">
        <ele>52</ele>
        <time>2021-09-12T11:23:31.000Z</time>
      </trkpt>
      <trkpt lat="47.19055" lon="-1.58562">
        <ele>52</ele>
        <time>2021-09-12T11:23:33.000Z</time>
      </trkpt>
      <trkpt lat="47.19044" lon="-1.58573">
        <ele>52</ele>
        <time>2021-09-12T11:23:35.000Z</time>
      </trkpt>
      <trkpt lat="47.19033" lon="-1.58585">
        <ele>53</ele>
        <time>2021-09-12T11:23:37.000Z</time>
      </trkpt>
      <trkpt lat="47.19022" lon="-1.58597">
        <ele>53</ele>
        <time>2021-09-12T11:23:39.000Z</time>
      </trkpt>
      <trkpt lat="47.1901" lon="-1.58608">
        <ele>53</ele>
        <time>2021-09-12T11:23:41.000Z</time>
      </trkpt>
      <trkpt lat="47.18999" lon="-1.58619">
        <ele>53</ele>
        <time>2021-09-12T11:23:43.000Z</time>
      </trkpt>
      <trkpt lat="47.18988" lon="-1.58631">
        <ele>53</ele>
        <time>2021-09-12T11:23:45.000Z</time>
      </trkpt>
      <trkpt lat="47.18976" lon="-1.58642">
        <ele>53</ele>
        <time>2021-09-12T11:23:47.000Z</time>
      </trkpt>
      <trkpt lat="47.18964" lon="-1.58654">
        <ele>53</ele>
        <time>2021-09-12T11:23:49.000Z</time>
      </trkpt>
      <trkpt lat="47.18953" lon="-1.58665">
        <ele>53</ele>
        <time>2021-09-12T11:23:51.000Z</time>
      </trkpt>
      <trkpt lat="47.1894" lon="-1.58677">
        <ele>53</ele>
        <time>2021-09-12T11:23:53.000Z</time>
      </trkpt>
      <trkpt lat="47.18928" lon="-1.58688">
        <ele>53</ele>
        <time>2021-09-12T11:23:55.000Z</time>
      </trkpt>
      <trkpt lat="47.18916" lon="-1.58698">
        <ele>53</ele>
        <time>2021-09-12T11:23:57.000Z</time>
      </trkpt>
      <trkpt lat="47.18904" lon="-1.58708">
        <ele>54</ele>
        <time>2021-09-12T11:23:59.000Z</time>
      </trkpt>
      <trkpt lat="47.18891" lon="-1.58715">
        <ele>53</ele>
        <time>2021-09-12T11:24:01.000Z</time>
      </trkpt>
      <trkpt lat="47.18879" lon="-1.58723">
        <ele>53</ele>
        <time>2021-09-12T11:24:03.000Z</time>
      </trkpt>
      <trkpt lat="47.18866" lon="-1.5873">
        <ele>52</ele>
        <time>2021-09-12T11:24:05.000Z</time>
      </trkpt>
      <trkpt lat="47.18854" lon="-1.58736">
        <ele>52</ele>
        <time>2021-09-12T11:24:07.000Z</time>
      </trkpt>
      <trkpt lat="47.18842" lon="-1.58743">
        <ele>52</ele>
        <time>2021-09-12T11:24:09.000Z</time>
      </trkpt>
      <trkpt lat="47.18832" lon="-1.58753">
        <ele>52</ele>
        <time>2021-09-12T11:24:11.000Z</time>
      </trkpt>
      <trkpt lat="47.18827" lon="-1.58772">
        <ele>51</ele>
        <time>2021-09-12T11:24:13.000Z</time>
      </trkpt>
      <trkpt lat="47.1882" lon="-1.5879">
        <ele>51</ele>
        <time>2021-09-12T11:24:15.000Z</time>
      </trkpt>
      <trkpt lat="47.1881" lon="-1.58803">
        <ele>51</ele>
        <time>2021-09-12T11:24:17.000Z</time>
      </trkpt>
      <trkpt lat="47.18798" lon="-1.58811">
        <ele>52</ele>
        <time>2021-09-12T11:24:19.000Z</time>
      </trkpt>
      <trkpt lat="47.18788" lon="-1.58824">
        <ele>52</ele>
        <time>2021-09-12T11:24:21.000Z</time>
      </trkpt>
      <trkpt lat="47.18783" lon="-1.58843">
        <ele>52</ele>
        <time>2021-09-12T11:24:23.000Z</time>
      </trkpt>
      <trkpt lat="47.18779" lon="-1.58863">
        <ele>52</ele>
        <time>2021-09-12T11:24:25.000Z</time>
      </trkpt>
      <trkpt lat="47.18776" lon="-1.58882">
        <ele>52</ele>
        <time>2021-09-12T11:24:27.000Z</time>
      </trkpt>
      <trkpt lat="47.18774" lon="-1.58902">
        <ele>53</ele>
        <time>2021-09-12T11:24:29.000Z</time>
      </trkpt>
      <trkpt lat="47.18771" lon="-1.58922">
        <ele>53</ele>
        <time>2021-09-12T11:24:31.000Z</time>
      </trkpt>
      <trkpt lat="47.18769" lon="-1.58943">
        <ele>53</ele>
        <time>2021-09-12T11:24:33.000Z</time>
      </trkpt>
      <trkpt lat="47.18767" lon="-1.58964">
        <ele>53</ele>
        <time>2021-09-12T11:24:35.000Z</time>
      </trkpt>
      <trkpt lat="47.18764" lon="-1.58984">
        <ele>53</ele>
        <time>2021-09-12T11:24:37.000Z</time>
      </trkpt>
      <trkpt lat="47.18763" lon="-1.59004">
        <ele>53</ele>
        <time>2021-09-12T11:24:39.000Z</time>
      </trkpt>
      <trkpt lat="47.18761" lon="-1.59025">
        <ele>53</ele>
        <time>2021-09-12T11:24:41.000Z</time>
      </trkpt>
      <trkpt lat="47.18758" lon="-1.59045">
        <ele>52</ele>
        <time>2021-09-12T11:24:43.000Z</time>
      </trkpt>
      <trkpt lat="47.18756" lon="-1.59066">
        <ele>52</ele>
        <time>2021-09-12T11:24:45.000Z</time>
      </trkpt>
      <trkpt lat="47.18753" lon="-1.59086">
        <ele>52</ele>
        <time>2021-09-12T11:24:47.000Z</time>
      </trkpt>
      <trkpt lat="47.18751" lon="-1.59106">
        <ele>52</ele>
        <time>2021-09-12T11:24:49.000Z</time>
      </trkpt>
      <trkpt lat="47.18749" lon="-1.59126">
        <ele>52</ele>
        <time>2021-09-12T11:24:51.000Z</time>
      </trkpt>
      <trkpt lat="47.18746" lon="-1.59146">
        <ele>52</ele>
        <time>2021-09-12T11:24:53.000Z</time>
      </trkpt>
      <trkpt lat="47.18744" lon="-1.59167">
        <ele>52</ele>
        <time>2021-09-12T11:24:55.000Z</time>
      </trkpt>
      <trkpt lat="47.18742" lon="-1.59187">
        <ele>52</ele>
        <time>2021-09-12T11:24:57.000Z</time>
      </trkpt>
      <trkpt lat="47.1874" lon="-1.59207">
        <ele>53</ele>
        <time>2021-09-12T11:24:59.000Z</time>
      </trkpt>
      <trkpt lat="47.18738" lon="-1.59228">
        <ele>53</ele>
        <time>2021-09-12T11:25:01.000Z</time>
      </trkpt>
      <trkpt lat="47.18736" lon="-1.59249">
        <ele>52</ele>
        <time>2021-09-12T11:25:03.000Z</time>
      </trkpt>
      <trkpt lat="47.18733" lon="-1.59269">
        <ele>52</ele>
        <time>2021-09-12T11:25:05.000Z</time>
      </trkpt>
      <trkpt lat="47.18731" lon="-1.5929">
        <ele>52</ele>
        <time>2021-09-12T11:25:07.000Z</time>
      </trkpt>
      <trkpt lat="47.18729" lon="-1.5931">
        <ele>52</ele>
        <time>2021-09-12T11:25:09.000Z</time>
      </trkpt>
      <trkpt lat="47.18726" lon="-1.5933">
        <ele>53</ele>
        <time>2021-09-12T11:25:11.000Z</time>
      </trkpt>
      <trkpt lat="47.18724" lon="-1.5935">
        <ele>53</ele>
        <time>2021-09-12T11:25:13.000Z</time>
      </trkpt>
      <trkpt lat="47.18722" lon="-1.59371">
        <ele>53</ele>
        <time>2021-09-12T11:25:15.000Z</time>
      </trkpt>
      <trkpt lat="47.1872" lon="-1.59392">
        <ele>53</ele>
        <time>2021-09-12T11:25:17.000Z</time>
      </trkpt>
      <trkpt lat="47.18717" lon="-1.59412">
        <ele>53</ele>
        <time>2021-09-12T11:25:19.000Z</time>
      </trkpt>
      <trkpt lat="47.18715" lon="-1.59433">
        <ele>52</ele>
        <time>2021-09-12T11:25:21.000Z</time>
      </trkpt>
      <trkpt lat="47.18714" lon="-1.59454">
        <ele>52</ele>
        <time>2021-09-12T11:25:23.000Z</time>
      </trkpt>
      <trkpt lat="47.18711" lon="-1.59474">
        <ele>52</ele>
        <time>2021-09-12T11:25:25.000Z</time>
      </trkpt>
      <trkpt lat="47.18709" lon="-1.59494">
        <ele>52</ele>
        <time>2021-09-12T11:25:27.000Z</time>
      </trkpt>
      <trkpt lat="47.18706" lon="-1.59515">
        <ele>53</ele>
        <time>2021-09-12T11:25:29.000Z</time>
      </trkpt>
      <trkpt lat="47.18704" lon="-1.59535">
        <ele>53</ele>
        <time>2021-09-12T11:25:31.000Z</time>
      </trkpt>
      <trkpt lat="47.18702" lon="-1.59555">
        <ele>53</ele>
        <time>2021-09-12T11:25:33.000Z</time>
      </trkpt>
      <trkpt lat="47.18699" lon="-1.59575">
        <ele>53</ele>
        <time>2021-09-12T11:25:35.000Z</time>
      </trkpt>
      <trkpt lat="47.18697" lon="-1.59595">
        <ele>53</ele>
        <time>2021-09-12T11:25:37.000Z</time>
      </trkpt>
      <trkpt lat="47.18695" lon="-1.59615">
        <ele>53</ele>
        <time>2021-09-12T11:25:39.000Z</time>
      </trkpt>
      <trkpt lat="47.18692" lon="-1.59635">
        <ele>53</ele>
        <time>2021-09-12T11:25:41.000Z</time>
      </trkpt>
      <trkpt lat="47.18689" lon="-1.59655">
        <ele>53</ele>
        <time>2021-09-12T11:25:43.000Z</time>
      </trkpt>
      <trkpt lat="47.18687" lon="-1.59675">
        <ele>53</ele>
        <time>2021-09-12T11:25:45.000Z</time>
      </trkpt>
      <trkpt lat="47.18684" lon="-1.59695">
        <ele>53</ele>
        <time>2021-09-12T11:25:47.000Z</time>
      </trkpt>
      <trkpt lat="47.18683" lon="-1.59715">
        <ele>53</ele>
        <time>2021-09-12T11:25:49.000Z</time>
      </trkpt>
      <trkpt lat="47.18682" lon="-1.59736">
        <ele>53</ele>
        <time>2021-09-12T11:25:51.000Z</time>
      </trkpt>
      <trkpt lat="47.18682" lon="-1.59758">
        <ele>52</ele>
        <time>2021-09-12T11:25:53.000Z</time>
      </trkpt>
      <trkpt lat="47.18686" lon="-1.59778">
        <ele>52</ele>
        <time>2021-09-12T11:25:55.000Z</time>
      </trkpt>
      <trkpt lat="47.18688" lon="-1.59798">
        <ele>51</ele>
        <time>2021-09-12T11:25:57.000Z</time>
      </trkpt>
      <trkpt lat="47.18682" lon="-1.59817">
        <ele>52</ele>
        <time>2021-09-12T11:25:59.000Z</time>
      </trkpt>
      <trkpt lat="47.18671" lon="-1.59835">
        <ele>52</ele>
        <time>2021-09-12T11:26:01.000Z</time>
      </trkpt>
      <trkpt lat="47.18654" lon="-1.59845">
        <ele>52</ele>
        <time>2021-09-12T11:26:03.000Z</time>
      </trkpt>
      <trkpt lat="47.18638" lon="-1.59839">
        <ele>51</ele>
        <time>2021-09-12T11:26:05.000Z</time>
      </trkpt>
      <trkpt lat="47.18624" lon="-1.59828">
        <ele>51</ele>
        <time>2021-09-12T11:26:07.000Z</time>
      </trkpt>
      <trkpt lat="47.18614" lon="-1.59838">
        <ele>51</ele>
        <time>2021-09-12T11:26:09.000Z</time>
      </trkpt>
      <trkpt lat="47.18618" lon="-1.59856">
        <ele>50</ele>
        <time>2021-09-12T11:26:11.000Z</time>
      </trkpt>
      <trkpt lat="47.1862" lon="-1.59874">
        <ele>50</ele>
        <time>2021-09-12T11:26:13.000Z</time>
      </trkpt>
      <trkpt lat="47.18616" lon="-1.59894">
        <ele>50</ele>
        <time>2021-09-12T11:26:15.000Z</time>
      </trkpt>
      <trkpt lat="47.1861" lon="-1.59915">
        <ele>50</ele>
        <time>2021-09-12T11:26:17.000Z</time>
      </trkpt>
      <trkpt lat="47.18604" lon="-1.59936">
        <ele>51</ele>
        <time>2021-09-12T11:26:19.000Z</time>
      </trkpt>
      <trkpt lat="47.18599" lon="-1.59956">
        <ele>51</ele>
        <time>2021-09-12T11:26:21.000Z</time>
      </trkpt>
      <trkpt lat="47.18592" lon="-1.59976">
        <ele>51</ele>
        <time>2021-09-12T11:26:23.000Z</time>
      </trkpt>
      <trkpt lat="47.18586" lon="-1.59997">
        <ele>51</ele>
        <time>2021-09-12T11:26:25.000Z</time>
      </trkpt>
      <trkpt lat="47.18579" lon="-1.60017">
        <ele>51</ele>
        <time>2021-09-12T11:26:27.000Z</time>
      </trkpt>
      <trkpt lat="47.18572" lon="-1.60037">
        <ele>51</ele>
        <time>2021-09-12T11:26:29.000Z</time>
      </trkpt>
      <trkpt lat="47.18566" lon="-1.60056">
        <ele>51</ele>
        <time>2021-09-12T11:26:31.000Z</time>
      </trkpt>
      <trkpt lat="47.18559" lon="-1.60075">
        <ele>52</ele>
        <time>2021-09-12T11:26:33.000Z</time>
      </trkpt>
      <trkpt lat="47.18552" lon="-1.60094">
        <ele>52</ele>
        <time>2021-09-12T11:26:35.000Z</time>
      </trkpt>
      <trkpt lat="47.18545" lon="-1.60111">
        <ele>52</ele>
        <time>2021-09-12T11:26:37.000Z</time>
      </trkpt>
      <trkpt lat="47.18537" lon="-1.60128">
        <ele>52</ele>
        <time>2021-09-12T11:26:39.000Z</time>
      </trkpt>
      <trkpt lat="47.1853" lon="-1.60145">
        <ele>52</ele>
        <time>2021-09-12T11:26:41.000Z</time>
      </trkpt>
      <trkpt lat="47.18522" lon="-1.60161">
        <ele>53</ele>
        <time>2021-09-12T11:26:43.000Z</time>
      </trkpt>
      <trkpt lat="47.18514" lon="-1.60178">
        <ele>53</ele>
        <time>2021-09-12T11:26:45.000Z</time>
      </trkpt>
      <trkpt lat="47.18506" lon="-1.60194">
        <ele>53</ele>
        <time>2021-09-12T11:26:47.000Z</time>
      </trkpt>
      <trkpt lat="47.18497" lon="-1.6021">
        <ele>52</ele>
        <time>2021-09-12T11:26:49.000Z</time>
      </trkpt>
      <trkpt lat="47.18488" lon="-1.60226">
        <ele>52</ele>
        <time>2021-09-12T11:26:51.000Z</time>
      </trkpt>
      <trkpt lat="47.18479" lon="-1.60243">
        <ele>52</ele>
        <time>2021-09-12T11:26:53.000Z</time>
      </trkpt>
      <trkpt lat="47.18471" lon="-1.60259">
        <ele>52</ele>
        <time>2021-09-12T11:26:55.000Z</time>
      </trkpt>
      <trkpt lat="47.18462" lon="-1.60275">
        <ele>51</ele>
        <time>2021-09-12T11:26:57.000Z</time>
      </trkpt>
      <trkpt lat="47.18453" lon="-1.6029">
        <ele>52</ele>
        <time>2021-09-12T11:26:59.000Z</time>
      </trkpt>
      <trkpt lat="47.18444" lon="-1.60306">
        <ele>51</ele>
        <time>2021-09-12T11:27:01.000Z</time>
      </trkpt>
      <trkpt lat="47.18434" lon="-1.60321">
        <ele>51</ele>
        <time>2021-09-12T11:27:03.000Z</time>
      </trkpt>
      <trkpt lat="47.18424" lon="-1.60336">
        <ele>51</ele>
        <time>2021-09-12T11:27:05.000Z</time>
      </trkpt>
      <trkpt lat="47.18415" lon="-1.6035">
        <ele>51</ele>
        <time>2021-09-12T11:27:07.000Z</time>
      </trkpt>
      <trkpt lat="47.18404" lon="-1.60365">
        <ele>51</ele>
        <time>2021-09-12T11:27:09.000Z</time>
      </trkpt>
      <trkpt lat="47.18394" lon="-1.60379">
        <ele>50</ele>
        <time>2021-09-12T11:27:11.000Z</time>
      </trkpt>
      <trkpt lat="47.18384" lon="-1.60393">
        <ele>51</ele>
        <time>2021-09-12T11:27:13.000Z</time>
      </trkpt>
      <trkpt lat="47.18373" lon="-1.60407">
        <ele>51</ele>
        <time>2021-09-12T11:27:15.000Z</time>
      </trkpt>
      <trkpt lat="47.18363" lon="-1.60421">
        <ele>51</ele>
        <time>2021-09-12T11:27:17.000Z</time>
      </trkpt>
      <trkpt lat="47.18352" lon="-1.60435">
        <ele>51</ele>
        <time>2021-09-12T11:27:19.000Z</time>
      </trkpt>
      <trkpt lat="47.18341" lon="-1.60449">
        <ele>51</ele>
        <time>2021-09-12T11:27:21.000Z</time>
      </trkpt>
      <trkpt lat="47.1833" lon="-1.60462">
        <ele>50</ele>
        <time>2021-09-12T11:27:23.000Z</time>
      </trkpt>
      <trkpt lat="47.18319" lon="-1.60475">
        <ele>50</ele>
        <time>2021-09-12T11:27:25.000Z</time>
      </trkpt>
      <trkpt lat="47.18308" lon="-1.60488">
        <ele>50</ele>
        <time>2021-09-12T11:27:27.000Z</time>
      </trkpt>
      <trkpt lat="47.18296" lon="-1.605">
        <ele>50</ele>
        <time>2021-09-12T11:27:29.000Z</time>
      </trkpt>
      <trkpt lat="47.18285" lon="-1.60513">
        <ele>50</ele>
        <time>2021-09-12T11:27:31.000Z</time>
      </trkpt>
      <trkpt lat="47.18273" lon="-1.60525">
        <ele>50</ele>
        <time>2021-09-12T11:27:33.000Z</time>
      </trkpt>
      <trkpt lat="47.18261" lon="-1.60536">
        <ele>50</ele>
        <time>2021-09-12T11:27:35.000Z</time>
      </trkpt>
      <trkpt lat="47.18249" lon="-1.60546">
        <ele>50</ele>
        <time>2021-09-12T11:27:37.000Z</time>
      </trkpt>
      <trkpt lat="47.18236" lon="-1.60555">
        <ele>50</ele>
        <time>2021-09-12T11:27:39.000Z</time>
      </trkpt>
      <trkpt lat="47.18224" lon="-1.60563">
        <ele>50</ele>
        <time>2021-09-12T11:27:41.000Z</time>
      </trkpt>
      <trkpt lat="47.18212" lon="-1.6057">
        <ele>50</ele>
        <time>2021-09-12T11:27:43.000Z</time>
      </trkpt>
      <trkpt lat="47.18201" lon="-1.60575">
        <ele>50</ele>
        <time>2021-09-12T11:27:45.000Z</time>
      </trkpt>
      <trkpt lat="47.18192" lon="-1.60578">
        <ele>50</ele>
        <time>2021-09-12T11:27:47.000Z</time>
      </trkpt>
      <trkpt lat="47.18189" lon="-1.60594">
        <ele>51</ele>
        <time>2021-09-12T11:27:51.000Z</time>
      </trkpt>
      <trkpt lat="47.18179" lon="-1.60602">
        <ele>51</ele>
        <time>2021-09-12T11:27:53.000Z</time>
      </trkpt>
      <trkpt lat="47.18165" lon="-1.60603">
        <ele>50</ele>
        <time>2021-09-12T11:27:55.000Z</time>
      </trkpt>
      <trkpt lat="47.18151" lon="-1.60604">
        <ele>50</ele>
        <time>2021-09-12T11:27:57.000Z</time>
      </trkpt>
      <trkpt lat="47.18136" lon="-1.60602">
        <ele>50</ele>
        <time>2021-09-12T11:27:59.000Z</time>
      </trkpt>
      <trkpt lat="47.18123" lon="-1.606">
        <ele>50</ele>
        <time>2021-09-12T11:28:01.000Z</time>
      </trkpt>
      <trkpt lat="47.18109" lon="-1.60596">
        <ele>50</ele>
        <time>2021-09-12T11:28:03.000Z</time>
      </trkpt>
      <trkpt lat="47.18096" lon="-1.60591">
        <ele>51</ele>
        <time>2021-09-12T11:28:05.000Z</time>
      </trkpt>
      <trkpt lat="47.18082" lon="-1.60584">
        <ele>51</ele>
        <time>2021-09-12T11:28:07.000Z</time>
      </trkpt>
      <trkpt lat="47.18069" lon="-1.60577">
        <ele>51</ele>
        <time>2021-09-12T11:28:09.000Z</time>
      </trkpt>
      <trkpt lat="47.18056" lon="-1.60569">
        <ele>52</ele>
        <time>2021-09-12T11:28:11.000Z</time>
      </trkpt>
      <trkpt lat="47.18044" lon="-1.60563">
        <ele>52</ele>
        <time>2021-09-12T11:28:13.000Z</time>
      </trkpt>
      <trkpt lat="47.18032" lon="-1.60556">
        <ele>52</ele>
        <time>2021-09-12T11:28:15.000Z</time>
      </trkpt>
      <trkpt lat="47.18019" lon="-1.60553">
        <ele>52</ele>
        <time>2021-09-12T11:28:17.000Z</time>
      </trkpt>
      <trkpt lat="47.18006" lon="-1.60553">
        <ele>52</ele>
        <time>2021-09-12T11:28:19.000Z</time>
      </trkpt>
      <trkpt lat="47.17993" lon="-1.60557">
        <ele>52</ele>
        <time>2021-09-12T11:28:21.000Z</time>
      </trkpt>
      <trkpt lat="47.17981" lon="-1.60561">
        <ele>53</ele>
        <time>2021-09-12T11:28:23.000Z</time>
      </trkpt>
      <trkpt lat="47.17969" lon="-1.60566">
        <ele>52</ele>
        <time>2021-09-12T11:28:25.000Z</time>
      </trkpt>
      <trkpt lat="47.17951" lon="-1.60575">
        <ele>51</ele>
        <time>2021-09-12T11:28:28.000Z</time>
      </trkpt>
      <trkpt lat="47.17939" lon="-1.60581">
        <ele>51</ele>
        <time>2021-09-12T11:28:30.000Z</time>
      </trkpt>
      <trkpt lat="47.17928" lon="-1.60585">
        <ele>52</ele>
        <time>2021-09-12T11:28:32.000Z</time>
      </trkpt>
      <trkpt lat="47.1792" lon="-1.60589">
        <ele>53</ele>
        <time>2021-09-12T11:28:36.000Z</time>
      </trkpt>
      <trkpt lat="47.1791" lon="-1.60597">
        <ele>56</ele>
        <time>2021-09-12T11:28:42.000Z</time>
      </trkpt>
      <trkpt lat="47.17905" lon="-1.60611">
        <ele>55</ele>
        <time>2021-09-12T11:28:44.000Z</time>
      </trkpt>
      <trkpt lat="47.17901" lon="-1.60627">
        <ele>55</ele>
        <time>2021-09-12T11:28:46.000Z</time>
      </trkpt>
      <trkpt lat="47.17895" lon="-1.60644">
        <ele>55</ele>
        <time>2021-09-12T11:28:48.000Z</time>
      </trkpt>
      <trkpt lat="47.17889" lon="-1.60662">
        <ele>55</ele>
        <time>2021-09-12T11:28:50.000Z</time>
      </trkpt>
      <trkpt lat="47.17883" lon="-1.60681">
        <ele>54</ele>
        <time>2021-09-12T11:28:52.000Z</time>
      </trkpt>
      <trkpt lat="47.17877" lon="-1.60699">
        <ele>54</ele>
        <time>2021-09-12T11:28:54.000Z</time>
      </trkpt>
      <trkpt lat="47.17872" lon="-1.60718">
        <ele>53</ele>
        <time>2021-09-12T11:28:56.000Z</time>
      </trkpt>
      <trkpt lat="47.17867" lon="-1.60737">
        <ele>53</ele>
        <time>2021-09-12T11:28:58.000Z</time>
      </trkpt>
      <trkpt lat="47.17862" lon="-1.60755">
        <ele>53</ele>
        <time>2021-09-12T11:29:00.000Z</time>
      </trkpt>
      <trkpt lat="47.17858" lon="-1.60773">
        <ele>53</ele>
        <time>2021-09-12T11:29:02.000Z</time>
      </trkpt>
      <trkpt lat="47.17854" lon="-1.60791">
        <ele>52</ele>
        <time>2021-09-12T11:29:04.000Z</time>
      </trkpt>
      <trkpt lat="47.1785" lon="-1.60809">
        <ele>52</ele>
        <time>2021-09-12T11:29:06.000Z</time>
      </trkpt>
      <trkpt lat="47.17844" lon="-1.60826">
        <ele>52</ele>
        <time>2021-09-12T11:29:08.000Z</time>
      </trkpt>
      <trkpt lat="47.17839" lon="-1.60843">
        <ele>52</ele>
        <time>2021-09-12T11:29:10.000Z</time>
      </trkpt>
      <trkpt lat="47.17831" lon="-1.60858">
        <ele>51</ele>
        <time>2021-09-12T11:29:12.000Z</time>
      </trkpt>
      <trkpt lat="47.17823" lon="-1.60872">
        <ele>51</ele>
        <time>2021-09-12T11:29:14.000Z</time>
      </trkpt>
      <trkpt lat="47.17813" lon="-1.60885">
        <ele>51</ele>
        <time>2021-09-12T11:29:16.000Z</time>
      </trkpt>
      <trkpt lat="47.17802" lon="-1.60895">
        <ele>51</ele>
        <time>2021-09-12T11:29:18.000Z</time>
      </trkpt>
      <trkpt lat="47.17791" lon="-1.60905">
        <ele>51</ele>
        <time>2021-09-12T11:29:20.000Z</time>
      </trkpt>
      <trkpt lat="47.1778" lon="-1.60913">
        <ele>51</ele>
        <time>2021-09-12T11:29:22.000Z</time>
      </trkpt>
      <trkpt lat="47.17768" lon="-1.60922">
        <ele>51</ele>
        <time>2021-09-12T11:29:24.000Z</time>
      </trkpt>
      <trkpt lat="47.17757" lon="-1.6093">
        <ele>51</ele>
        <time>2021-09-12T11:29:26.000Z</time>
      </trkpt>
      <trkpt lat="47.17746" lon="-1.60939">
        <ele>51</ele>
        <time>2021-09-12T11:29:28.000Z</time>
      </trkpt>
      <trkpt lat="47.17734" lon="-1.60947">
        <ele>51</ele>
        <time>2021-09-12T11:29:30.000Z</time>
      </trkpt>
      <trkpt lat="47.17722" lon="-1.60955">
        <ele>51</ele>
        <time>2021-09-12T11:29:32.000Z</time>
      </trkpt>
      <trkpt lat="47.1771" lon="-1.60964">
        <ele>52</ele>
        <time>2021-09-12T11:29:34.000Z</time>
      </trkpt>
      <trkpt lat="47.17697" lon="-1.6097">
        <ele>51</ele>
        <time>2021-09-12T11:29:36.000Z</time>
      </trkpt>
      <trkpt lat="47.17685" lon="-1.60972">
        <ele>52</ele>
        <time>2021-09-12T11:29:38.000Z</time>
      </trkpt>
      <trkpt lat="47.17671" lon="-1.60971">
        <ele>51</ele>
        <time>2021-09-12T11:29:40.000Z</time>
      </trkpt>
      <trkpt lat="47.17657" lon="-1.60975">
        <ele>52</ele>
        <time>2021-09-12T11:29:42.000Z</time>
      </trkpt>
      <trkpt lat="47.17644" lon="-1.60986">
        <ele>51</ele>
        <time>2021-09-12T11:29:44.000Z</time>
      </trkpt>
      <trkpt lat="47.17632" lon="-1.60996">
        <ele>51</ele>
        <time>2021-09-12T11:29:46.000Z</time>
      </trkpt>
      <trkpt lat="47.17619" lon="-1.61007">
        <ele>51</ele>
        <time>2021-09-12T11:29:48.000Z</time>
      </trkpt>
      <trkpt lat="47.17607" lon="-1.61017">
        <ele>51</ele>
        <time>2021-09-12T11:29:50.000Z</time>
      </trkpt>
      <trkpt lat="47.17594" lon="-1.61027">
        <ele>50</ele>
        <time>2021-09-12T11:29:52.000Z</time>
      </trkpt>
      <trkpt lat="47.17582" lon="-1.61038">
        <ele>50</ele>
        <time>2021-09-12T11:29:54.000Z</time>
      </trkpt>
      <trkpt lat="47.1757" lon="-1.61049">
        <ele>50</ele>
        <time>2021-09-12T11:29:56.000Z</time>
      </trkpt>
      <trkpt lat="47.17558" lon="-1.61059">
        <ele>50</ele>
        <time>2021-09-12T11:29:58.000Z</time>
      </trkpt>
      <trkpt lat="47.17547" lon="-1.61069">
        <ele>50</ele>
        <time>2021-09-12T11:30:00.000Z</time>
      </trkpt>
      <trkpt lat="47.17535" lon="-1.61079">
        <ele>50</ele>
        <time>2021-09-12T11:30:02.000Z</time>
      </trkpt>
      <trkpt lat="47.17523" lon="-1.61089">
        <ele>50</ele>
        <time>2021-09-12T11:30:04.000Z</time>
      </trkpt>
      <trkpt lat="47.17511" lon="-1.61099">
        <ele>50</ele>
        <time>2021-09-12T11:30:06.000Z</time>
      </trkpt>
      <trkpt lat="47.17498" lon="-1.61103">
        <ele>50</ele>
        <time>2021-09-12T11:30:08.000Z</time>
      </trkpt>
      <trkpt lat="47.17485" lon="-1.61105">
        <ele>50</ele>
        <time>2021-09-12T11:30:10.000Z</time>
      </trkpt>
      <trkpt lat="47.17472" lon="-1.61102">
        <ele>50</ele>
        <time>2021-09-12T11:30:12.000Z</time>
      </trkpt>
      <trkpt lat="47.17462" lon="-1.61093">
        <ele>51</ele>
        <time>2021-09-12T11:30:14.000Z</time>
      </trkpt>
      <trkpt lat="47.17452" lon="-1.61082">
        <ele>52</ele>
        <time>2021-09-12T11:30:16.000Z</time>
      </trkpt>
      <trkpt lat="47.17444" lon="-1.61071">
        <ele>52</ele>
        <time>2021-09-12T11:30:18.000Z</time>
      </trkpt>
      <trkpt lat="47.17437" lon="-1.61057">
        <ele>53</ele>
        <time>2021-09-12T11:30:20.000Z</time>
      </trkpt>
      <trkpt lat="47.17433" lon="-1.61044">
        <ele>53</ele>
        <time>2021-09-12T11:30:22.000Z</time>
      </trkpt>
      <trkpt lat="47.17428" lon="-1.61026">
        <ele>54</ele>
        <time>2021-09-12T11:30:25.000Z</time>
      </trkpt>
      <trkpt lat="47.17419" lon="-1.61023">
        <ele>54</ele>
        <time>2021-09-12T11:30:29.000Z</time>
      </trkpt>
      <trkpt lat="47.1742" lon="-1.61036">
        <ele>55</ele>
        <time>2021-09-12T11:30:31.000Z</time>
      </trkpt>
      <trkpt lat="47.17423" lon="-1.6105">
        <ele>55</ele>
        <time>2021-09-12T11:30:33.000Z</time>
      </trkpt>
      <trkpt lat="47.17429" lon="-1.61065">
        <ele>56</ele>
        <time>2021-09-12T11:30:35.000Z</time>
      </trkpt>
      <trkpt lat="47.17435" lon="-1.6108">
        <ele>56</ele>
        <time>2021-09-12T11:30:37.000Z</time>
      </trkpt>
      <trkpt lat="47.17441" lon="-1.61094">
        <ele>57</ele>
        <time>2021-09-12T11:30:39.000Z</time>
      </trkpt>
      <trkpt lat="47.17448" lon="-1.6111">
        <ele>58</ele>
        <time>2021-09-12T11:30:41.000Z</time>
      </trkpt>
      <trkpt lat="47.17453" lon="-1.61125">
        <ele>58</ele>
        <time>2021-09-12T11:30:43.000Z</time>
      </trkpt>
      <trkpt lat="47.17459" lon="-1.6114">
        <ele>59</ele>
        <time>2021-09-12T11:30:45.000Z</time>
      </trkpt>
      <trkpt lat="47.17466" lon="-1.61156">
        <ele>59</ele>
        <time>2021-09-12T11:30:47.000Z</time>
      </trkpt>
      <trkpt lat="47.17475" lon="-1.61179">
        <ele>59</ele>
        <time>2021-09-12T11:30:50.000Z</time>
      </trkpt>
      <trkpt lat="47.17481" lon="-1.61193">
        <ele>59</ele>
        <time>2021-09-12T11:30:52.000Z</time>
      </trkpt>
      <trkpt lat="47.17487" lon="-1.61208">
        <ele>59</ele>
        <time>2021-09-12T11:30:54.000Z</time>
      </trkpt>
      <trkpt lat="47.17493" lon="-1.61222">
        <ele>59</ele>
        <time>2021-09-12T11:30:56.000Z</time>
      </trkpt>
      <trkpt lat="47.17502" lon="-1.61244">
        <ele>60</ele>
        <time>2021-09-12T11:30:59.000Z</time>
      </trkpt>
      <trkpt lat="47.17509" lon="-1.61257">
        <ele>60</ele>
        <time>2021-09-12T11:31:01.000Z</time>
      </trkpt>
      <trkpt lat="47.17517" lon="-1.6127">
        <ele>61</ele>
        <time>2021-09-12T11:31:03.000Z</time>
      </trkpt>
      <trkpt lat="47.17526" lon="-1.61281">
        <ele>61</ele>
        <time>2021-09-12T11:31:05.000Z</time>
      </trkpt>
      <trkpt lat="47.17536" lon="-1.61289">
        <ele>61</ele>
        <time>2021-09-12T11:31:07.000Z</time>
      </trkpt>
      <trkpt lat="47.17553" lon="-1.61301">
        <ele>60</ele>
        <time>2021-09-12T11:31:10.000Z</time>
      </trkpt>
      <trkpt lat="47.17558" lon="-1.61317">
        <ele>60</ele>
        <time>2021-09-12T11:31:12.000Z</time>
      </trkpt>
      <trkpt lat="47.17556" lon="-1.61337">
        <ele>60</ele>
        <time>2021-09-12T11:31:14.000Z</time>
      </trkpt>
      <trkpt lat="47.17547" lon="-1.61352">
        <ele>60</ele>
        <time>2021-09-12T11:31:16.000Z</time>
      </trkpt>
      <trkpt lat="47.17535" lon="-1.61364">
        <ele>59</ele>
        <time>2021-09-12T11:31:18.000Z</time>
      </trkpt>
      <trkpt lat="47.17527" lon="-1.6138">
        <ele>59</ele>
        <time>2021-09-12T11:31:20.000Z</time>
      </trkpt>
      <trkpt lat="47.17522" lon="-1.61399">
        <ele>59</ele>
        <time>2021-09-12T11:31:22.000Z</time>
      </trkpt>
      <trkpt lat="47.17518" lon="-1.61416">
        <ele>60</ele>
        <time>2021-09-12T11:31:24.000Z</time>
      </trkpt>
      <trkpt lat="47.17515" lon="-1.61433">
        <ele>60</ele>
        <time>2021-09-12T11:31:26.000Z</time>
      </trkpt>
      <trkpt lat="47.17511" lon="-1.61448">
        <ele>61</ele>
        <time>2021-09-12T11:31:28.000Z</time>
      </trkpt>
      <trkpt lat="47.17503" lon="-1.6146">
        <ele>61</ele>
        <time>2021-09-12T11:31:30.000Z</time>
      </trkpt>
      <trkpt lat="47.17492" lon="-1.61466">
        <ele>61</ele>
        <time>2021-09-12T11:31:32.000Z</time>
      </trkpt>
      <trkpt lat="47.1748" lon="-1.6147">
        <ele>62</ele>
        <time>2021-09-12T11:31:34.000Z</time>
      </trkpt>
      <trkpt lat="47.17469" lon="-1.61475">
        <ele>62</ele>
        <time>2021-09-12T11:31:36.000Z</time>
      </trkpt>
      <trkpt lat="47.17457" lon="-1.6148">
        <ele>63</ele>
        <time>2021-09-12T11:31:38.000Z</time>
      </trkpt>
      <trkpt lat="47.17446" lon="-1.61485">
        <ele>63</ele>
        <time>2021-09-12T11:31:40.000Z</time>
      </trkpt>
      <trkpt lat="47.17435" lon="-1.61491">
        <ele>64</ele>
        <time>2021-09-12T11:31:42.000Z</time>
      </trkpt>
      <trkpt lat="47.17424" lon="-1.61498">
        <ele>64</ele>
        <time>2021-09-12T11:31:44.000Z</time>
      </trkpt>
      <trkpt lat="47.17413" lon="-1.61506">
        <ele>64</ele>
        <time>2021-09-12T11:31:46.000Z</time>
      </trkpt>
      <trkpt lat="47.17403" lon="-1.61513">
        <ele>65</ele>
        <time>2021-09-12T11:31:48.000Z</time>
      </trkpt>
      <trkpt lat="47.17393" lon="-1.61521">
        <ele>65</ele>
        <time>2021-09-12T11:31:50.000Z</time>
      </trkpt>
      <trkpt lat="47.17383" lon="-1.6153">
        <ele>65</ele>
        <time>2021-09-12T11:31:52.000Z</time>
      </trkpt>
      <trkpt lat="47.17374" lon="-1.61539">
        <ele>65</ele>
        <time>2021-09-12T11:31:54.000Z</time>
      </trkpt>
      <trkpt lat="47.17364" lon="-1.61549">
        <ele>66</ele>
        <time>2021-09-12T11:31:56.000Z</time>
      </trkpt>
      <trkpt lat="47.17355" lon="-1.61559">
        <ele>66</ele>
        <time>2021-09-12T11:31:58.000Z</time>
      </trkpt>
      <trkpt lat="47.17346" lon="-1.6157">
        <ele>66</ele>
        <time>2021-09-12T11:32:00.000Z</time>
      </trkpt>
      <trkpt lat="47.17337" lon="-1.6158">
        <ele>67</ele>
        <time>2021-09-12T11:32:02.000Z</time>
      </trkpt>
      <trkpt lat="47.17329" lon="-1.61591">
        <ele>67</ele>
        <time>2021-09-12T11:32:04.000Z</time>
      </trkpt>
      <trkpt lat="47.17319" lon="-1.61601">
        <ele>68</ele>
        <time>2021-09-12T11:32:06.000Z</time>
      </trkpt>
      <trkpt lat="47.1731" lon="-1.61612">
        <ele>69</ele>
        <time>2021-09-12T11:32:08.000Z</time>
      </trkpt>
      <trkpt lat="47.17303" lon="-1.61626">
        <ele>69</ele>
        <time>2021-09-12T11:32:10.000Z</time>
      </trkpt>
      <trkpt lat="47.17294" lon="-1.61639">
        <ele>69</ele>
        <time>2021-09-12T11:32:12.000Z</time>
      </trkpt>
      <trkpt lat="47.17287" lon="-1.61653">
        <ele>69</ele>
        <time>2021-09-12T11:32:14.000Z</time>
      </trkpt>
      <trkpt lat="47.17281" lon="-1.61668">
        <ele>69</ele>
        <time>2021-09-12T11:32:16.000Z</time>
      </trkpt>
      <trkpt lat="47.17273" lon="-1.61682">
        <ele>69</ele>
        <time>2021-09-12T11:32:18.000Z</time>
      </trkpt>
      <trkpt lat="47.17267" lon="-1.61697">
        <ele>69</ele>
        <time>2021-09-12T11:32:20.000Z</time>
      </trkpt>
      <trkpt lat="47.17259" lon="-1.61712">
        <ele>68</ele>
        <time>2021-09-12T11:32:22.000Z</time>
      </trkpt>
      <trkpt lat="47.17252" lon="-1.61727">
        <ele>68</ele>
        <time>2021-09-12T11:32:24.000Z</time>
      </trkpt>
      <trkpt lat="47.17246" lon="-1.61743">
        <ele>68</ele>
        <time>2021-09-12T11:32:26.000Z</time>
      </trkpt>
      <trkpt lat="47.17243" lon="-1.61761">
        <ele>67</ele>
        <time>2021-09-12T11:32:28.000Z</time>
      </trkpt>
      <trkpt lat="47.17237" lon="-1.61777">
        <ele>67</ele>
        <time>2021-09-12T11:32:30.000Z</time>
      </trkpt>
      <trkpt lat="47.17227" lon="-1.61788">
        <ele>66</ele>
        <time>2021-09-12T11:32:32.000Z</time>
      </trkpt>
      <trkpt lat="47.17216" lon="-1.61799">
        <ele>65</ele>
        <time>2021-09-12T11:32:34.000Z</time>
      </trkpt>
      <trkpt lat="47.17204" lon="-1.61808">
        <ele>65</ele>
        <time>2021-09-12T11:32:36.000Z</time>
      </trkpt>
      <trkpt lat="47.17194" lon="-1.61818">
        <ele>65</ele>
        <time>2021-09-12T11:32:38.000Z</time>
      </trkpt>
      <trkpt lat="47.17183" lon="-1.61828">
        <ele>65</ele>
        <time>2021-09-12T11:32:40.000Z</time>
      </trkpt>
      <trkpt lat="47.17172" lon="-1.61838">
        <ele>65</ele>
        <time>2021-09-12T11:32:42.000Z</time>
      </trkpt>
      <trkpt lat="47.17161" lon="-1.61849">
        <ele>65</ele>
        <time>2021-09-12T11:32:44.000Z</time>
      </trkpt>
      <trkpt lat="47.17149" lon="-1.6186">
        <ele>65</ele>
        <time>2021-09-12T11:32:46.000Z</time>
      </trkpt>
      <trkpt lat="47.17137" lon="-1.61871">
        <ele>66</ele>
        <time>2021-09-12T11:32:48.000Z</time>
      </trkpt>
      <trkpt lat="47.17126" lon="-1.61882">
        <ele>65</ele>
        <time>2021-09-12T11:32:50.000Z</time>
      </trkpt>
      <trkpt lat="47.17114" lon="-1.61893">
        <ele>65</ele>
        <time>2021-09-12T11:32:52.000Z</time>
      </trkpt>
      <trkpt lat="47.17102" lon="-1.61905">
        <ele>65</ele>
        <time>2021-09-12T11:32:54.000Z</time>
      </trkpt>
      <trkpt lat="47.17091" lon="-1.61916">
        <ele>65</ele>
        <time>2021-09-12T11:32:56.000Z</time>
      </trkpt>
      <trkpt lat="47.1708" lon="-1.61927">
        <ele>65</ele>
        <time>2021-09-12T11:32:58.000Z</time>
      </trkpt>
      <trkpt lat="47.1707" lon="-1.61936">
        <ele>65</ele>
        <time>2021-09-12T11:33:00.000Z</time>
      </trkpt>
      <trkpt lat="47.17059" lon="-1.61949">
        <ele>65</ele>
        <time>2021-09-12T11:33:02.000Z</time>
      </trkpt>
      <trkpt lat="47.17049" lon="-1.61962">
        <ele>66</ele>
        <time>2021-09-12T11:33:04.000Z</time>
      </trkpt>
      <trkpt lat="47.17039" lon="-1.61977">
        <ele>65</ele>
        <time>2021-09-12T11:33:06.000Z</time>
      </trkpt>
      <trkpt lat="47.17029" lon="-1.61991">
        <ele>65</ele>
        <time>2021-09-12T11:33:08.000Z</time>
      </trkpt>
      <trkpt lat="47.17019" lon="-1.62006">
        <ele>65</ele>
        <time>2021-09-12T11:33:10.000Z</time>
      </trkpt>
      <trkpt lat="47.17009" lon="-1.62021">
        <ele>65</ele>
        <time>2021-09-12T11:33:12.000Z</time>
      </trkpt>
      <trkpt lat="47.17" lon="-1.62037">
        <ele>65</ele>
        <time>2021-09-12T11:33:14.000Z</time>
      </trkpt>
      <trkpt lat="47.1699" lon="-1.62054">
        <ele>64</ele>
        <time>2021-09-12T11:33:16.000Z</time>
      </trkpt>
      <trkpt lat="47.16981" lon="-1.62071">
        <ele>64</ele>
        <time>2021-09-12T11:33:18.000Z</time>
      </trkpt>
      <trkpt lat="47.16972" lon="-1.62086">
        <ele>65</ele>
        <time>2021-09-12T11:33:20.000Z</time>
      </trkpt>
      <trkpt lat="47.16963" lon="-1.62101">
        <ele>65</ele>
        <time>2021-09-12T11:33:22.000Z</time>
      </trkpt>
      <trkpt lat="47.16954" lon="-1.62117">
        <ele>65</ele>
        <time>2021-09-12T11:33:24.000Z</time>
      </trkpt>
      <trkpt lat="47.16946" lon="-1.62134">
        <ele>66</ele>
        <time>2021-09-12T11:33:26.000Z</time>
      </trkpt>
      <trkpt lat="47.16938" lon="-1.6215">
        <ele>66</ele>
        <time>2021-09-12T11:33:28.000Z</time>
      </trkpt>
      <trkpt lat="47.1693" lon="-1.62167">
        <ele>65</ele>
        <time>2021-09-12T11:33:30.000Z</time>
      </trkpt>
      <trkpt lat="47.16922" lon="-1.62184">
        <ele>65</ele>
        <time>2021-09-12T11:33:32.000Z</time>
      </trkpt>
      <trkpt lat="47.16913" lon="-1.622">
        <ele>66</ele>
        <time>2021-09-12T11:33:34.000Z</time>
      </trkpt>
      <trkpt lat="47.16903" lon="-1.62215">
        <ele>65</ele>
        <time>2021-09-12T11:33:36.000Z</time>
      </trkpt>
      <trkpt lat="47.16893" lon="-1.62229">
        <ele>66</ele>
        <time>2021-09-12T11:33:38.000Z</time>
      </trkpt>
      <trkpt lat="47.16883" lon="-1.62242">
        <ele>66</ele>
        <time>2021-09-12T11:33:40.000Z</time>
      </trkpt>
      <trkpt lat="47.16872" lon="-1.62256">
        <ele>66</ele>
        <time>2021-09-12T11:33:42.000Z</time>
      </trkpt>
      <trkpt lat="47.16861" lon="-1.62268">
        <ele>66</ele>
        <time>2021-09-12T11:33:44.000Z</time>
      </trkpt>
      <trkpt lat="47.16851" lon="-1.62282">
        <ele>66</ele>
        <time>2021-09-12T11:33:46.000Z</time>
      </trkpt>
      <trkpt lat="47.1684" lon="-1.62296">
        <ele>66</ele>
        <time>2021-09-12T11:33:48.000Z</time>
      </trkpt>
      <trkpt lat="47.16829" lon="-1.62308">
        <ele>66</ele>
        <time>2021-09-12T11:33:50.000Z</time>
      </trkpt>
      <trkpt lat="47.16817" lon="-1.62319">
        <ele>66</ele>
        <time>2021-09-12T11:33:52.000Z</time>
      </trkpt>
      <trkpt lat="47.16804" lon="-1.62328">
        <ele>66</ele>
        <time>2021-09-12T11:33:54.000Z</time>
      </trkpt>
      <trkpt lat="47.16791" lon="-1.62334">
        <ele>66</ele>
        <time>2021-09-12T11:33:56.000Z</time>
      </trkpt>
      <trkpt lat="47.16777" lon="-1.62341">
        <ele>66</ele>
        <time>2021-09-12T11:33:58.000Z</time>
      </trkpt>
      <trkpt lat="47.16764" lon="-1.62349">
        <ele>66</ele>
        <time>2021-09-12T11:34:00.000Z</time>
      </trkpt>
      <trkpt lat="47.16751" lon="-1.62358">
        <ele>65</ele>
        <time>2021-09-12T11:34:02.000Z</time>
      </trkpt>
      <trkpt lat="47.1674" lon="-1.62372">
        <ele>64</ele>
        <time>2021-09-12T11:34:04.000Z</time>
      </trkpt>
      <trkpt lat="47.16732" lon="-1.62389">
        <ele>63</ele>
        <time>2021-09-12T11:34:06.000Z</time>
      </trkpt>
      <trkpt lat="47.16727" lon="-1.62408">
        <ele>63</ele>
        <time>2021-09-12T11:34:08.000Z</time>
      </trkpt>
      <trkpt lat="47.16726" lon="-1.62426">
        <ele>63</ele>
        <time>2021-09-12T11:34:10.000Z</time>
      </trkpt>
      <trkpt lat="47.16723" lon="-1.62446">
        <ele>64</ele>
        <time>2021-09-12T11:34:12.000Z</time>
      </trkpt>
      <trkpt lat="47.16718" lon="-1.62465">
        <ele>64</ele>
        <time>2021-09-12T11:34:14.000Z</time>
      </trkpt>
      <trkpt lat="47.16714" lon="-1.62484">
        <ele>64</ele>
        <time>2021-09-12T11:34:16.000Z</time>
      </trkpt>
      <trkpt lat="47.1671" lon="-1.62504">
        <ele>64</ele>
        <time>2021-09-12T11:34:18.000Z</time>
      </trkpt>
      <trkpt lat="47.16706" lon="-1.62524">
        <ele>64</ele>
        <time>2021-09-12T11:34:20.000Z</time>
      </trkpt>
      <trkpt lat="47.16704" lon="-1.62544">
        <ele>65</ele>
        <time>2021-09-12T11:34:22.000Z</time>
      </trkpt>
      <trkpt lat="47.16702" lon="-1.62564">
        <ele>65</ele>
        <time>2021-09-12T11:34:24.000Z</time>
      </trkpt>
      <trkpt lat="47.167" lon="-1.62583">
        <ele>66</ele>
        <time>2021-09-12T11:34:26.000Z</time>
      </trkpt>
      <trkpt lat="47.16699" lon="-1.62603">
        <ele>66</ele>
        <time>2021-09-12T11:34:28.000Z</time>
      </trkpt>
      <trkpt lat="47.16698" lon="-1.62621">
        <ele>66</ele>
        <time>2021-09-12T11:34:30.000Z</time>
      </trkpt>
      <trkpt lat="47.167" lon="-1.6264">
        <ele>66</ele>
        <time>2021-09-12T11:34:32.000Z</time>
      </trkpt>
      <trkpt lat="47.16702" lon="-1.62659">
        <ele>66</ele>
        <time>2021-09-12T11:34:34.000Z</time>
      </trkpt>
      <trkpt lat="47.16706" lon="-1.62676">
        <ele>67</ele>
        <time>2021-09-12T11:34:36.000Z</time>
      </trkpt>
      <trkpt lat="47.16711" lon="-1.62691">
        <ele>67</ele>
        <time>2021-09-12T11:34:38.000Z</time>
      </trkpt>
      <trkpt lat="47.16722" lon="-1.6269">
        <ele>67</ele>
        <time>2021-09-12T11:34:40.000Z</time>
      </trkpt>
      <trkpt lat="47.16732" lon="-1.62681">
        <ele>68</ele>
        <time>2021-09-12T11:34:42.000Z</time>
      </trkpt>
      <trkpt lat="47.16741" lon="-1.62675">
        <ele>67</ele>
        <time>2021-09-12T11:34:44.000Z</time>
      </trkpt>
      <trkpt lat="47.16751" lon="-1.6267">
        <ele>67</ele>
        <time>2021-09-12T11:34:46.000Z</time>
      </trkpt>
      <trkpt lat="47.1676" lon="-1.62675">
        <ele>68</ele>
        <time>2021-09-12T11:34:48.000Z</time>
      </trkpt>
      <trkpt lat="47.16769" lon="-1.62681">
        <ele>69</ele>
        <time>2021-09-12T11:34:50.000Z</time>
      </trkpt>
      <trkpt lat="47.16778" lon="-1.62674">
        <ele>69</ele>
        <time>2021-09-12T11:34:52.000Z</time>
      </trkpt>
      <trkpt lat="47.16777" lon="-1.62661">
        <ele>68</ele>
        <time>2021-09-12T11:34:55.000Z</time>
      </trkpt>
    </trkseg>
  </trk>
</gpx>